<?xml version="1.0" encoding="UTF-8" standalone="no" ?>
<gpx xmlns="http://www.topografix.com/GPX/1/1" xmlns:xsi="http://www.w3.org/2001/XMLSchema-instance" xsi:schemaLocation="http://www.topografix.com/GPX/1/1 http://www.topografix.com/GPX/1/1/gpx.xsd" version="1.1" creator="VisuGPX - https://www.visugpx.com">
  <metadata>
    <name>Roc des vignes par le mas de l\'estagnol</name>
    <desc><![CDATA[Parking aprés le barrage. Départ en face  sur une piste, aprés 100m prendre le sentier à gauche, montée réguliére jusqu\'au Mas de l\' Estagnol puis montée vers le Roc de la Vigne point dominant.Descente par le ravin de la Blande.Au carrefour avant le mas de l\'Arboussier, visite de la grotte du Cellier,  intéressante . Retour par la combe de legeaux. Jolie point de vue au roc de la vigne jusqu\'au Ventoux]]></desc>
  </metadata>
  <trk>
    <name><![CDATA[ACTIVE LOG 001 002]]></name>
    <trkseg>
      <trkpt lat="43.74358" lon="3.56616">
        <ele>86.17529296875</ele>
        <time>2014-03-16T19:07:19Z</time>
      </trkpt>
    </trkseg>
  </trk>
  <trk>
    <name><![CDATA[ACTIVE LOG 002 001]]></name>
    <trkseg>
      <trkpt lat="44.09767" lon="3.05599">
        <ele>86.17529296875</ele>
        <time>2014-03-16T19:08:34Z</time>
      </trkpt>
      <trkpt lat="44.09784" lon="3.05607">
        <ele>86.656005859375</ele>
        <time>2014-03-16T19:10:54Z</time>
      </trkpt>
    </trkseg>
  </trk>
  <trk>
    <name><![CDATA[ACTIVE LOG 003]]></name>
    <trkseg>
      <trkpt lat="44.09784" lon="3.05607">
        <ele>86.17529296875</ele>
        <time>2014-03-16T19:48:16Z</time>
      </trkpt>
      <trkpt lat="44.09784" lon="3.05607">
        <ele>85.694580078125</ele>
        <time>2014-03-16T19:48:22Z</time>
      </trkpt>
      <trkpt lat="44.09772" lon="3.05606">
        <ele>86.17529296875</ele>
        <time>2014-03-16T19:48:29Z</time>
      </trkpt>
    </trkseg>
  </trk>
  <trk>
    <name><![CDATA[ACTIVE LOG 004]]></name>
    <trkseg>
      <trkpt lat="43.74355" lon="3.56614">
        <ele>85.694580078125</ele>
        <time>2014-03-16T09:02:53Z</time>
      </trkpt>
      <trkpt lat="43.74355" lon="3.56614">
        <ele>88.098022460938</ele>
        <time>2014-03-16T09:02:58Z</time>
      </trkpt>
      <trkpt lat="43.74356" lon="3.56615">
        <ele>91.462524414062</ele>
        <time>2014-03-16T09:03:19Z</time>
      </trkpt>
      <trkpt lat="43.74354" lon="3.56613">
        <ele>92.423950195312</ele>
        <time>2014-03-16T09:03:58Z</time>
      </trkpt>
      <trkpt lat="43.74351" lon="3.56616">
        <ele>90.98193359375</ele>
        <time>2014-03-16T09:04:26Z</time>
      </trkpt>
      <trkpt lat="43.74351" lon="3.56617">
        <ele>93.385131835938</ele>
        <time>2014-03-16T09:04:36Z</time>
      </trkpt>
      <trkpt lat="43.74351" lon="3.56617">
        <ele>93.385131835938</ele>
        <time>2014-03-16T09:04:44Z</time>
      </trkpt>
      <trkpt lat="43.74352" lon="3.56618">
        <ele>91.943237304688</ele>
        <time>2014-03-16T09:05:08Z</time>
      </trkpt>
      <trkpt lat="43.74352" lon="3.56616">
        <ele>91.943237304688</ele>
        <time>2014-03-16T09:05:16Z</time>
      </trkpt>
      <trkpt lat="43.74353" lon="3.56611">
        <ele>91.943237304688</ele>
        <time>2014-03-16T09:06:37Z</time>
      </trkpt>
      <trkpt lat="43.74351" lon="3.56606">
        <ele>92.423950195312</ele>
        <time>2014-03-16T09:06:45Z</time>
      </trkpt>
      <trkpt lat="43.74354" lon="3.56603">
        <ele>92.423950195312</ele>
        <time>2014-03-16T09:06:51Z</time>
      </trkpt>
      <trkpt lat="43.74358" lon="3.566">
        <ele>93.385131835938</ele>
        <time>2014-03-16T09:06:59Z</time>
      </trkpt>
      <trkpt lat="43.74359" lon="3.56593">
        <ele>93.865844726562</ele>
        <time>2014-03-16T09:07:08Z</time>
      </trkpt>
      <trkpt lat="43.74357" lon="3.56591">
        <ele>90.98193359375</ele>
        <time>2014-03-16T09:07:16Z</time>
      </trkpt>
      <trkpt lat="43.74357" lon="3.56585">
        <ele>90.501342773438</ele>
        <time>2014-03-16T09:07:26Z</time>
      </trkpt>
      <trkpt lat="43.74356" lon="3.56585">
        <ele>90.501342773438</ele>
        <time>2014-03-16T09:07:35Z</time>
      </trkpt>
      <trkpt lat="43.74352" lon="3.56576">
        <ele>88.578735351562</ele>
        <time>2014-03-16T09:07:43Z</time>
      </trkpt>
      <trkpt lat="43.7435" lon="3.56574">
        <ele>89.059326171875</ele>
        <time>2014-03-16T09:07:45Z</time>
      </trkpt>
      <trkpt lat="43.74347" lon="3.56561">
        <ele>90.020629882812</ele>
        <time>2014-03-16T09:07:55Z</time>
      </trkpt>
      <trkpt lat="43.74346" lon="3.56557">
        <ele>93.865844726562</ele>
        <time>2014-03-16T09:07:57Z</time>
      </trkpt>
      <trkpt lat="43.74345" lon="3.56556">
        <ele>93.385131835938</ele>
        <time>2014-03-16T09:07:58Z</time>
      </trkpt>
      <trkpt lat="43.74345" lon="3.56552">
        <ele>96.269287109375</ele>
        <time>2014-03-16T09:08:00Z</time>
      </trkpt>
      <trkpt lat="43.74344" lon="3.56547">
        <ele>98.19189453125</ele>
        <time>2014-03-16T09:08:03Z</time>
      </trkpt>
      <trkpt lat="43.74343" lon="3.5654">
        <ele>95.307739257812</ele>
        <time>2014-03-16T09:08:07Z</time>
      </trkpt>
      <trkpt lat="43.74343" lon="3.56534">
        <ele>94.346557617188</ele>
        <time>2014-03-16T09:08:12Z</time>
      </trkpt>
      <trkpt lat="43.74345" lon="3.56525">
        <ele>91.462524414062</ele>
        <time>2014-03-16T09:08:19Z</time>
      </trkpt>
      <trkpt lat="43.74353" lon="3.56519">
        <ele>91.943237304688</ele>
        <time>2014-03-16T09:08:26Z</time>
      </trkpt>
      <trkpt lat="43.74361" lon="3.56516">
        <ele>91.462524414062</ele>
        <time>2014-03-16T09:08:35Z</time>
      </trkpt>
      <trkpt lat="43.74361" lon="3.56519">
        <ele>90.98193359375</ele>
        <time>2014-03-16T09:08:37Z</time>
      </trkpt>
      <trkpt lat="43.74355" lon="3.56534">
        <ele>92.904541015625</ele>
        <time>2014-03-16T09:08:47Z</time>
      </trkpt>
      <trkpt lat="43.74357" lon="3.56549">
        <ele>92.904541015625</ele>
        <time>2014-03-16T09:08:57Z</time>
      </trkpt>
      <trkpt lat="43.74359" lon="3.56553">
        <ele>92.904541015625</ele>
        <time>2014-03-16T09:09:00Z</time>
      </trkpt>
      <trkpt lat="43.74362" lon="3.56564">
        <ele>92.423950195312</ele>
        <time>2014-03-16T09:09:07Z</time>
      </trkpt>
      <trkpt lat="43.74363" lon="3.56566">
        <ele>93.385131835938</ele>
        <time>2014-03-16T09:09:09Z</time>
      </trkpt>
      <trkpt lat="43.74366" lon="3.56573">
        <ele>92.904541015625</ele>
        <time>2014-03-16T09:09:15Z</time>
      </trkpt>
      <trkpt lat="43.74373" lon="3.56585">
        <ele>93.865844726562</ele>
        <time>2014-03-16T09:09:25Z</time>
      </trkpt>
      <trkpt lat="43.7438" lon="3.56596">
        <ele>94.8271484375</ele>
        <time>2014-03-16T09:09:33Z</time>
      </trkpt>
      <trkpt lat="43.74386" lon="3.56606">
        <ele>96.749877929688</ele>
        <time>2014-03-16T09:09:42Z</time>
      </trkpt>
      <trkpt lat="43.7439" lon="3.5661">
        <ele>99.6337890625</ele>
        <time>2014-03-16T09:09:46Z</time>
      </trkpt>
      <trkpt lat="43.74397" lon="3.56619">
        <ele>100.11450195312</ele>
        <time>2014-03-16T09:09:56Z</time>
      </trkpt>
      <trkpt lat="43.74398" lon="3.56615">
        <ele>99.6337890625</ele>
        <time>2014-03-16T09:10:02Z</time>
      </trkpt>
      <trkpt lat="43.744" lon="3.56614">
        <ele>99.6337890625</ele>
        <time>2014-03-16T09:10:10Z</time>
      </trkpt>
      <trkpt lat="43.74407" lon="3.56618">
        <ele>100.59509277344</ele>
        <time>2014-03-16T09:10:18Z</time>
      </trkpt>
      <trkpt lat="43.74415" lon="3.56623">
        <ele>102.037109375</ele>
        <time>2014-03-16T09:10:27Z</time>
      </trkpt>
      <trkpt lat="43.7442" lon="3.56626">
        <ele>102.037109375</ele>
        <time>2014-03-16T09:10:34Z</time>
      </trkpt>
      <trkpt lat="43.74427" lon="3.56636">
        <ele>103.47900390625</ele>
        <time>2014-03-16T09:10:44Z</time>
      </trkpt>
      <trkpt lat="43.74432" lon="3.5664">
        <ele>105.40173339844</ele>
        <time>2014-03-16T09:10:52Z</time>
      </trkpt>
      <trkpt lat="43.74433" lon="3.56632">
        <ele>108.28564453125</ele>
        <time>2014-03-16T09:11:00Z</time>
      </trkpt>
      <trkpt lat="43.74433" lon="3.56631">
        <ele>108.76623535156</ele>
        <time>2014-03-16T09:11:01Z</time>
      </trkpt>
      <trkpt lat="43.74433" lon="3.56628">
        <ele>109.72766113281</ele>
        <time>2014-03-16T09:11:03Z</time>
      </trkpt>
      <trkpt lat="43.74437" lon="3.56623">
        <ele>109.72766113281</ele>
        <time>2014-03-16T09:11:10Z</time>
      </trkpt>
      <trkpt lat="43.74439" lon="3.56622">
        <ele>110.20825195312</ele>
        <time>2014-03-16T09:11:12Z</time>
      </trkpt>
      <trkpt lat="43.74444" lon="3.56624">
        <ele>111.65026855469</ele>
        <time>2014-03-16T09:11:19Z</time>
      </trkpt>
      <trkpt lat="43.74451" lon="3.56631">
        <ele>112.61157226562</ele>
        <time>2014-03-16T09:11:28Z</time>
      </trkpt>
      <trkpt lat="43.74458" lon="3.56635">
        <ele>113.57299804688</ele>
        <time>2014-03-16T09:11:35Z</time>
      </trkpt>
      <trkpt lat="43.7446" lon="3.56642">
        <ele>113.09228515625</ele>
        <time>2014-03-16T09:11:40Z</time>
      </trkpt>
      <trkpt lat="43.74461" lon="3.56647">
        <ele>114.05358886719</ele>
        <time>2014-03-16T09:11:44Z</time>
      </trkpt>
      <trkpt lat="43.74464" lon="3.56652">
        <ele>115.97619628906</ele>
        <time>2014-03-16T09:11:49Z</time>
      </trkpt>
      <trkpt lat="43.74468" lon="3.56653">
        <ele>116.9375</ele>
        <time>2014-03-16T09:11:53Z</time>
      </trkpt>
      <trkpt lat="43.7447" lon="3.56647">
        <ele>116.9375</ele>
        <time>2014-03-16T09:12:01Z</time>
      </trkpt>
      <trkpt lat="43.74471" lon="3.56649">
        <ele>117.41821289062</ele>
        <time>2014-03-16T09:12:03Z</time>
      </trkpt>
      <trkpt lat="43.74478" lon="3.56654">
        <ele>117.89880371094</ele>
        <time>2014-03-16T09:12:12Z</time>
      </trkpt>
      <trkpt lat="43.74481" lon="3.56655">
        <ele>120.30212402344</ele>
        <time>2014-03-16T09:12:16Z</time>
      </trkpt>
      <trkpt lat="43.74482" lon="3.56655">
        <ele>121.26354980469</ele>
        <time>2014-03-16T09:12:17Z</time>
      </trkpt>
      <trkpt lat="43.74486" lon="3.56654">
        <ele>124.14733886719</ele>
        <time>2014-03-16T09:12:22Z</time>
      </trkpt>
      <trkpt lat="43.74488" lon="3.56653">
        <ele>124.14733886719</ele>
        <time>2014-03-16T09:12:24Z</time>
      </trkpt>
      <trkpt lat="43.74491" lon="3.5665">
        <ele>126.55065917969</ele>
        <time>2014-03-16T09:12:28Z</time>
      </trkpt>
      <trkpt lat="43.74497" lon="3.56654">
        <ele>124.14733886719</ele>
        <time>2014-03-16T09:12:37Z</time>
      </trkpt>
      <trkpt lat="43.74496" lon="3.56655">
        <ele>125.58935546875</ele>
        <time>2014-03-16T09:12:39Z</time>
      </trkpt>
      <trkpt lat="43.74497" lon="3.56661">
        <ele>127.03137207031</ele>
        <time>2014-03-16T09:12:46Z</time>
      </trkpt>
      <trkpt lat="43.74499" lon="3.56661">
        <ele>127.51196289062</ele>
        <time>2014-03-16T09:12:47Z</time>
      </trkpt>
      <trkpt lat="43.74505" lon="3.56667">
        <ele>128.9541015625</ele>
        <time>2014-03-16T09:12:56Z</time>
      </trkpt>
      <trkpt lat="43.74507" lon="3.56669">
        <ele>130.87670898438</ele>
        <time>2014-03-16T09:13:03Z</time>
      </trkpt>
      <trkpt lat="43.74512" lon="3.56674">
        <ele>131.35729980469</ele>
        <time>2014-03-16T09:13:10Z</time>
      </trkpt>
      <trkpt lat="43.74517" lon="3.56678">
        <ele>130.87670898438</ele>
        <time>2014-03-16T09:13:16Z</time>
      </trkpt>
      <trkpt lat="43.74522" lon="3.56684">
        <ele>133.76049804688</ele>
        <time>2014-03-16T09:13:22Z</time>
      </trkpt>
      <trkpt lat="43.74523" lon="3.56687">
        <ele>133.76049804688</ele>
        <time>2014-03-16T09:13:25Z</time>
      </trkpt>
      <trkpt lat="43.74526" lon="3.56697">
        <ele>133.76049804688</ele>
        <time>2014-03-16T09:13:32Z</time>
      </trkpt>
      <trkpt lat="43.74529" lon="3.567">
        <ele>133.27990722656</ele>
        <time>2014-03-16T09:13:35Z</time>
      </trkpt>
      <trkpt lat="43.74537" lon="3.56709">
        <ele>135.68310546875</ele>
        <time>2014-03-16T09:13:45Z</time>
      </trkpt>
      <trkpt lat="43.74542" lon="3.56715">
        <ele>135.68310546875</ele>
        <time>2014-03-16T09:13:50Z</time>
      </trkpt>
      <trkpt lat="43.74545" lon="3.56716">
        <ele>136.16394042969</ele>
        <time>2014-03-16T09:13:53Z</time>
      </trkpt>
      <trkpt lat="43.7455" lon="3.5672">
        <ele>136.64465332031</ele>
        <time>2014-03-16T09:13:59Z</time>
      </trkpt>
      <trkpt lat="43.74555" lon="3.56721">
        <ele>136.64465332031</ele>
        <time>2014-03-16T09:14:05Z</time>
      </trkpt>
      <trkpt lat="43.7456" lon="3.56725">
        <ele>136.64465332031</ele>
        <time>2014-03-16T09:14:10Z</time>
      </trkpt>
      <trkpt lat="43.74562" lon="3.56738">
        <ele>137.60583496094</ele>
        <time>2014-03-16T09:14:19Z</time>
      </trkpt>
      <trkpt lat="43.74564" lon="3.56751">
        <ele>138.56726074219</ele>
        <time>2014-03-16T09:14:28Z</time>
      </trkpt>
      <trkpt lat="43.74565" lon="3.56753">
        <ele>139.52844238281</ele>
        <time>2014-03-16T09:14:31Z</time>
      </trkpt>
      <trkpt lat="43.74569" lon="3.56758">
        <ele>140.00915527344</ele>
        <time>2014-03-16T09:14:36Z</time>
      </trkpt>
      <trkpt lat="43.7457" lon="3.56759">
        <ele>140.48986816406</ele>
        <time>2014-03-16T09:14:38Z</time>
      </trkpt>
      <trkpt lat="43.74573" lon="3.56762">
        <ele>141.93176269531</ele>
        <time>2014-03-16T09:14:42Z</time>
      </trkpt>
      <trkpt lat="43.7458" lon="3.5677">
        <ele>143.37365722656</ele>
        <time>2014-03-16T09:14:51Z</time>
      </trkpt>
      <trkpt lat="43.74585" lon="3.56772">
        <ele>144.81579589844</ele>
        <time>2014-03-16T09:14:57Z</time>
      </trkpt>
      <trkpt lat="43.74584" lon="3.56764">
        <ele>146.73840332031</ele>
        <time>2014-03-16T09:15:05Z</time>
      </trkpt>
      <trkpt lat="43.74582" lon="3.56762">
        <ele>145.29638671875</ele>
        <time>2014-03-16T09:15:36Z</time>
      </trkpt>
      <trkpt lat="43.74581" lon="3.56762">
        <ele>143.85437011719</ele>
        <time>2014-03-16T09:15:49Z</time>
      </trkpt>
      <trkpt lat="43.74582" lon="3.56763">
        <ele>143.85437011719</ele>
        <time>2014-03-16T09:16:38Z</time>
      </trkpt>
      <trkpt lat="43.74588" lon="3.56761">
        <ele>145.77709960938</ele>
        <time>2014-03-16T09:16:56Z</time>
      </trkpt>
      <trkpt lat="43.7459" lon="3.56761">
        <ele>146.73840332031</ele>
        <time>2014-03-16T09:16:58Z</time>
      </trkpt>
      <trkpt lat="43.746" lon="3.5676">
        <ele>149.1416015625</ele>
        <time>2014-03-16T09:17:07Z</time>
      </trkpt>
      <trkpt lat="43.74604" lon="3.56763">
        <ele>149.1416015625</ele>
        <time>2014-03-16T09:17:11Z</time>
      </trkpt>
      <trkpt lat="43.74606" lon="3.56763">
        <ele>149.1416015625</ele>
        <time>2014-03-16T09:17:13Z</time>
      </trkpt>
      <trkpt lat="43.74613" lon="3.56764">
        <ele>149.62231445312</ele>
        <time>2014-03-16T09:17:20Z</time>
      </trkpt>
      <trkpt lat="43.74614" lon="3.56765">
        <ele>150.10302734375</ele>
        <time>2014-03-16T09:17:21Z</time>
      </trkpt>
      <trkpt lat="43.74621" lon="3.56767">
        <ele>152.02575683594</ele>
        <time>2014-03-16T09:17:29Z</time>
      </trkpt>
      <trkpt lat="43.74626" lon="3.5677">
        <ele>152.98693847656</ele>
        <time>2014-03-16T09:17:35Z</time>
      </trkpt>
      <trkpt lat="43.74636" lon="3.56775">
        <ele>155.87097167969</ele>
        <time>2014-03-16T09:17:45Z</time>
      </trkpt>
      <trkpt lat="43.74638" lon="3.56775">
        <ele>155.87097167969</ele>
        <time>2014-03-16T09:17:46Z</time>
      </trkpt>
      <trkpt lat="43.74644" lon="3.5678">
        <ele>157.79357910156</ele>
        <time>2014-03-16T09:17:54Z</time>
      </trkpt>
      <trkpt lat="43.74652" lon="3.56785">
        <ele>158.75476074219</ele>
        <time>2014-03-16T09:18:03Z</time>
      </trkpt>
      <trkpt lat="43.7466" lon="3.56788">
        <ele>160.67749023438</ele>
        <time>2014-03-16T09:18:11Z</time>
      </trkpt>
      <trkpt lat="43.74666" lon="3.56792">
        <ele>162.60009765625</ele>
        <time>2014-03-16T09:18:19Z</time>
      </trkpt>
      <trkpt lat="43.74671" lon="3.56794">
        <ele>164.52270507812</ele>
        <time>2014-03-16T09:18:26Z</time>
      </trkpt>
      <trkpt lat="43.74676" lon="3.56797">
        <ele>166.4453125</ele>
        <time>2014-03-16T09:18:33Z</time>
      </trkpt>
      <trkpt lat="43.74677" lon="3.56798">
        <ele>166.92602539062</ele>
        <time>2014-03-16T09:18:34Z</time>
      </trkpt>
      <trkpt lat="43.74679" lon="3.568">
        <ele>167.88732910156</ele>
        <time>2014-03-16T09:18:37Z</time>
      </trkpt>
      <trkpt lat="43.74682" lon="3.56803">
        <ele>166.4453125</ele>
        <time>2014-03-16T09:18:41Z</time>
      </trkpt>
      <trkpt lat="43.74688" lon="3.56808">
        <ele>167.88732910156</ele>
        <time>2014-03-16T09:18:49Z</time>
      </trkpt>
      <trkpt lat="43.74694" lon="3.56813">
        <ele>169.81005859375</ele>
        <time>2014-03-16T09:18:57Z</time>
      </trkpt>
      <trkpt lat="43.74699" lon="3.56818">
        <ele>172.69396972656</ele>
        <time>2014-03-16T09:19:04Z</time>
      </trkpt>
      <trkpt lat="43.747" lon="3.5682">
        <ele>173.17468261719</ele>
        <time>2014-03-16T09:19:06Z</time>
      </trkpt>
      <trkpt lat="43.74707" lon="3.56823">
        <ele>173.6552734375</ele>
        <time>2014-03-16T09:19:15Z</time>
      </trkpt>
      <trkpt lat="43.7471" lon="3.56822">
        <ele>177.02001953125</ele>
        <time>2014-03-16T09:19:21Z</time>
      </trkpt>
      <trkpt lat="43.74714" lon="3.56825">
        <ele>177.98120117188</ele>
        <time>2014-03-16T09:19:28Z</time>
      </trkpt>
      <trkpt lat="43.74719" lon="3.56822">
        <ele>178.4619140625</ele>
        <time>2014-03-16T09:19:34Z</time>
      </trkpt>
      <trkpt lat="43.74725" lon="3.5682">
        <ele>179.90380859375</ele>
        <time>2014-03-16T09:19:43Z</time>
      </trkpt>
      <trkpt lat="43.74731" lon="3.56822">
        <ele>181.82641601562</ele>
        <time>2014-03-16T09:19:51Z</time>
      </trkpt>
      <trkpt lat="43.74739" lon="3.56824">
        <ele>182.30712890625</ele>
        <time>2014-03-16T09:20:01Z</time>
      </trkpt>
      <trkpt lat="43.74743" lon="3.56825">
        <ele>184.71057128906</ele>
        <time>2014-03-16T09:20:08Z</time>
      </trkpt>
      <trkpt lat="43.74744" lon="3.56825">
        <ele>185.19116210938</ele>
        <time>2014-03-16T09:20:09Z</time>
      </trkpt>
      <trkpt lat="43.7475" lon="3.56825">
        <ele>187.59436035156</ele>
        <time>2014-03-16T09:20:17Z</time>
      </trkpt>
      <trkpt lat="43.74754" lon="3.5683">
        <ele>188.55578613281</ele>
        <time>2014-03-16T09:20:24Z</time>
      </trkpt>
      <trkpt lat="43.74759" lon="3.56834">
        <ele>188.07507324219</ele>
        <time>2014-03-16T09:20:31Z</time>
      </trkpt>
      <trkpt lat="43.74763" lon="3.56837">
        <ele>188.55578613281</ele>
        <time>2014-03-16T09:20:37Z</time>
      </trkpt>
      <trkpt lat="43.7477" lon="3.56836">
        <ele>190.958984375</ele>
        <time>2014-03-16T09:20:45Z</time>
      </trkpt>
      <trkpt lat="43.74776" lon="3.5684">
        <ele>191.92028808594</ele>
        <time>2014-03-16T09:20:52Z</time>
      </trkpt>
      <trkpt lat="43.7478" lon="3.5684">
        <ele>192.88171386719</ele>
        <time>2014-03-16T09:20:59Z</time>
      </trkpt>
      <trkpt lat="43.74786" lon="3.56843">
        <ele>193.84301757812</ele>
        <time>2014-03-16T09:21:07Z</time>
      </trkpt>
      <trkpt lat="43.74792" lon="3.56849">
        <ele>196.72692871094</ele>
        <time>2014-03-16T09:21:16Z</time>
      </trkpt>
      <trkpt lat="43.74795" lon="3.56853">
        <ele>198.64953613281</ele>
        <time>2014-03-16T09:21:23Z</time>
      </trkpt>
      <trkpt lat="43.74798" lon="3.56861">
        <ele>199.61083984375</ele>
        <time>2014-03-16T09:21:31Z</time>
      </trkpt>
      <trkpt lat="43.748" lon="3.56865">
        <ele>199.61083984375</ele>
        <time>2014-03-16T09:21:35Z</time>
      </trkpt>
      <trkpt lat="43.74803" lon="3.56873">
        <ele>201.53356933594</ele>
        <time>2014-03-16T09:21:42Z</time>
      </trkpt>
      <trkpt lat="43.74807" lon="3.56881">
        <ele>202.49487304688</ele>
        <time>2014-03-16T09:21:51Z</time>
      </trkpt>
      <trkpt lat="43.74808" lon="3.5689">
        <ele>203.45617675781</ele>
        <time>2014-03-16T09:21:59Z</time>
      </trkpt>
      <trkpt lat="43.74809" lon="3.56895">
        <ele>204.41748046875</ele>
        <time>2014-03-16T09:22:05Z</time>
      </trkpt>
      <trkpt lat="43.74812" lon="3.569">
        <ele>204.41748046875</ele>
        <time>2014-03-16T09:22:20Z</time>
      </trkpt>
      <trkpt lat="43.74817" lon="3.56909">
        <ele>203.45617675781</ele>
        <time>2014-03-16T09:22:29Z</time>
      </trkpt>
      <trkpt lat="43.74822" lon="3.56917">
        <ele>204.41748046875</ele>
        <time>2014-03-16T09:22:40Z</time>
      </trkpt>
      <trkpt lat="43.74823" lon="3.56919">
        <ele>206.34008789062</ele>
        <time>2014-03-16T09:22:42Z</time>
      </trkpt>
      <trkpt lat="43.74827" lon="3.5693">
        <ele>206.82067871094</ele>
        <time>2014-03-16T09:22:51Z</time>
      </trkpt>
      <trkpt lat="43.74829" lon="3.56941">
        <ele>205.85949707031</ele>
        <time>2014-03-16T09:22:59Z</time>
      </trkpt>
      <trkpt lat="43.74833" lon="3.56954">
        <ele>206.34008789062</ele>
        <time>2014-03-16T09:23:09Z</time>
      </trkpt>
      <trkpt lat="43.74838" lon="3.56965">
        <ele>207.30139160156</ele>
        <time>2014-03-16T09:23:17Z</time>
      </trkpt>
      <trkpt lat="43.74839" lon="3.56974">
        <ele>207.78210449219</ele>
        <time>2014-03-16T09:23:23Z</time>
      </trkpt>
      <trkpt lat="43.74841" lon="3.5698">
        <ele>208.26281738281</ele>
        <time>2014-03-16T09:23:27Z</time>
      </trkpt>
      <trkpt lat="43.74849" lon="3.56988">
        <ele>208.74340820312</ele>
        <time>2014-03-16T09:23:36Z</time>
      </trkpt>
      <trkpt lat="43.74855" lon="3.56991">
        <ele>209.22412109375</ele>
        <time>2014-03-16T09:23:42Z</time>
      </trkpt>
      <trkpt lat="43.7486" lon="3.56992">
        <ele>209.70483398438</ele>
        <time>2014-03-16T09:23:47Z</time>
      </trkpt>
      <trkpt lat="43.74868" lon="3.56994">
        <ele>209.22412109375</ele>
        <time>2014-03-16T09:23:55Z</time>
      </trkpt>
      <trkpt lat="43.74876" lon="3.56997">
        <ele>208.74340820312</ele>
        <time>2014-03-16T09:24:03Z</time>
      </trkpt>
      <trkpt lat="43.74883" lon="3.57001">
        <ele>210.666015625</ele>
        <time>2014-03-16T09:24:12Z</time>
      </trkpt>
      <trkpt lat="43.74891" lon="3.57005">
        <ele>212.58862304688</ele>
        <time>2014-03-16T09:24:19Z</time>
      </trkpt>
      <trkpt lat="43.74898" lon="3.57009">
        <ele>212.58862304688</ele>
        <time>2014-03-16T09:24:26Z</time>
      </trkpt>
      <trkpt lat="43.74899" lon="3.57009">
        <ele>212.58862304688</ele>
        <time>2014-03-16T09:24:27Z</time>
      </trkpt>
      <trkpt lat="43.74901" lon="3.5701">
        <ele>212.58862304688</ele>
        <time>2014-03-16T09:24:29Z</time>
      </trkpt>
      <trkpt lat="43.74911" lon="3.57013">
        <ele>213.55004882812</ele>
        <time>2014-03-16T09:24:38Z</time>
      </trkpt>
      <trkpt lat="43.74915" lon="3.57014">
        <ele>214.03063964844</ele>
        <time>2014-03-16T09:24:42Z</time>
      </trkpt>
      <trkpt lat="43.74919" lon="3.57014">
        <ele>215.47265625</ele>
        <time>2014-03-16T09:24:47Z</time>
      </trkpt>
      <trkpt lat="43.74928" lon="3.57014">
        <ele>216.43395996094</ele>
        <time>2014-03-16T09:24:56Z</time>
      </trkpt>
      <trkpt lat="43.74935" lon="3.57014">
        <ele>215.95324707031</ele>
        <time>2014-03-16T09:25:03Z</time>
      </trkpt>
      <trkpt lat="43.74937" lon="3.57014">
        <ele>216.91467285156</ele>
        <time>2014-03-16T09:25:05Z</time>
      </trkpt>
      <trkpt lat="43.74939" lon="3.57013">
        <ele>217.39538574219</ele>
        <time>2014-03-16T09:25:07Z</time>
      </trkpt>
      <trkpt lat="43.74942" lon="3.57014">
        <ele>218.35656738281</ele>
        <time>2014-03-16T09:25:10Z</time>
      </trkpt>
      <trkpt lat="43.74945" lon="3.57015">
        <ele>219.79858398438</ele>
        <time>2014-03-16T09:25:13Z</time>
      </trkpt>
      <trkpt lat="43.74955" lon="3.57013">
        <ele>220.75988769531</ele>
        <time>2014-03-16T09:25:22Z</time>
      </trkpt>
      <trkpt lat="43.74964" lon="3.57011">
        <ele>219.79858398438</ele>
        <time>2014-03-16T09:25:30Z</time>
      </trkpt>
      <trkpt lat="43.74972" lon="3.57011">
        <ele>220.75988769531</ele>
        <time>2014-03-16T09:25:38Z</time>
      </trkpt>
      <trkpt lat="43.74985" lon="3.57009">
        <ele>221.72119140625</ele>
        <time>2014-03-16T09:25:49Z</time>
      </trkpt>
      <trkpt lat="43.7499" lon="3.57008">
        <ele>222.20178222656</ele>
        <time>2014-03-16T09:25:57Z</time>
      </trkpt>
      <trkpt lat="43.74992" lon="3.57008">
        <ele>222.20178222656</ele>
        <time>2014-03-16T09:26:07Z</time>
      </trkpt>
      <trkpt lat="43.74998" lon="3.57008">
        <ele>223.16320800781</ele>
        <time>2014-03-16T09:27:44Z</time>
      </trkpt>
      <trkpt lat="43.75004" lon="3.57007">
        <ele>223.64379882812</ele>
        <time>2014-03-16T09:27:50Z</time>
      </trkpt>
      <trkpt lat="43.7501" lon="3.57006">
        <ele>223.64379882812</ele>
        <time>2014-03-16T09:27:56Z</time>
      </trkpt>
      <trkpt lat="43.75017" lon="3.57008">
        <ele>225.0859375</ele>
        <time>2014-03-16T09:28:03Z</time>
      </trkpt>
      <trkpt lat="43.7502" lon="3.57009">
        <ele>224.60522460938</ele>
        <time>2014-03-16T09:28:07Z</time>
      </trkpt>
      <trkpt lat="43.75021" lon="3.57011">
        <ele>224.60522460938</ele>
        <time>2014-03-16T09:28:09Z</time>
      </trkpt>
      <trkpt lat="43.75025" lon="3.57012">
        <ele>225.0859375</ele>
        <time>2014-03-16T09:28:12Z</time>
      </trkpt>
      <trkpt lat="43.75027" lon="3.57011">
        <ele>225.56652832031</ele>
        <time>2014-03-16T09:28:14Z</time>
      </trkpt>
      <trkpt lat="43.75037" lon="3.57011">
        <ele>227.48913574219</ele>
        <time>2014-03-16T09:28:23Z</time>
      </trkpt>
      <trkpt lat="43.75041" lon="3.57013">
        <ele>227.00854492188</ele>
        <time>2014-03-16T09:28:26Z</time>
      </trkpt>
      <trkpt lat="43.75048" lon="3.57016">
        <ele>227.9697265625</ele>
        <time>2014-03-16T09:28:33Z</time>
      </trkpt>
      <trkpt lat="43.75055" lon="3.57022">
        <ele>229.89233398438</ele>
        <time>2014-03-16T09:28:41Z</time>
      </trkpt>
      <trkpt lat="43.75057" lon="3.57024">
        <ele>230.373046875</ele>
        <time>2014-03-16T09:28:44Z</time>
      </trkpt>
      <trkpt lat="43.75062" lon="3.5703">
        <ele>230.85375976562</ele>
        <time>2014-03-16T09:28:52Z</time>
      </trkpt>
      <trkpt lat="43.75065" lon="3.57036">
        <ele>231.33435058594</ele>
        <time>2014-03-16T09:28:56Z</time>
      </trkpt>
      <trkpt lat="43.75069" lon="3.57048">
        <ele>232.29577636719</ele>
        <time>2014-03-16T09:29:04Z</time>
      </trkpt>
      <trkpt lat="43.75077" lon="3.57056">
        <ele>233.73767089844</ele>
        <time>2014-03-16T09:29:14Z</time>
      </trkpt>
      <trkpt lat="43.75079" lon="3.57059">
        <ele>234.69909667969</ele>
        <time>2014-03-16T09:29:17Z</time>
      </trkpt>
      <trkpt lat="43.75082" lon="3.57063">
        <ele>235.66027832031</ele>
        <time>2014-03-16T09:29:21Z</time>
      </trkpt>
      <trkpt lat="43.75089" lon="3.57074">
        <ele>235.1796875</ele>
        <time>2014-03-16T09:29:30Z</time>
      </trkpt>
      <trkpt lat="43.75095" lon="3.57084">
        <ele>235.1796875</ele>
        <time>2014-03-16T09:29:39Z</time>
      </trkpt>
      <trkpt lat="43.75101" lon="3.57089">
        <ele>238.06359863281</ele>
        <time>2014-03-16T09:29:46Z</time>
      </trkpt>
      <trkpt lat="43.75108" lon="3.571">
        <ele>237.10229492188</ele>
        <time>2014-03-16T09:29:56Z</time>
      </trkpt>
      <trkpt lat="43.75111" lon="3.57104">
        <ele>237.10229492188</ele>
        <time>2014-03-16T09:30:00Z</time>
      </trkpt>
      <trkpt lat="43.75114" lon="3.57108">
        <ele>238.54431152344</ele>
        <time>2014-03-16T09:30:04Z</time>
      </trkpt>
      <trkpt lat="43.75119" lon="3.57117">
        <ele>240.94763183594</ele>
        <time>2014-03-16T09:30:11Z</time>
      </trkpt>
      <trkpt lat="43.7512" lon="3.5712">
        <ele>241.42822265625</ele>
        <time>2014-03-16T09:30:14Z</time>
      </trkpt>
      <trkpt lat="43.75126" lon="3.57128">
        <ele>242.87023925781</ele>
        <time>2014-03-16T09:30:23Z</time>
      </trkpt>
      <trkpt lat="43.75132" lon="3.57136">
        <ele>242.3896484375</ele>
        <time>2014-03-16T09:30:32Z</time>
      </trkpt>
      <trkpt lat="43.75133" lon="3.57137">
        <ele>242.87023925781</ele>
        <time>2014-03-16T09:30:34Z</time>
      </trkpt>
      <trkpt lat="43.75135" lon="3.57143">
        <ele>244.79284667969</ele>
        <time>2014-03-16T09:30:40Z</time>
      </trkpt>
      <trkpt lat="43.75137" lon="3.57148">
        <ele>244.79284667969</ele>
        <time>2014-03-16T09:30:45Z</time>
      </trkpt>
      <trkpt lat="43.75141" lon="3.57158">
        <ele>245.75415039062</ele>
        <time>2014-03-16T09:30:53Z</time>
      </trkpt>
      <trkpt lat="43.75145" lon="3.57164">
        <ele>246.71545410156</ele>
        <time>2014-03-16T09:31:00Z</time>
      </trkpt>
      <trkpt lat="43.75149" lon="3.57168">
        <ele>248.63818359375</ele>
        <time>2014-03-16T09:31:06Z</time>
      </trkpt>
      <trkpt lat="43.75154" lon="3.5717">
        <ele>250.56079101562</ele>
        <time>2014-03-16T09:31:13Z</time>
      </trkpt>
      <trkpt lat="43.75159" lon="3.57172">
        <ele>251.52209472656</ele>
        <time>2014-03-16T09:31:20Z</time>
      </trkpt>
      <trkpt lat="43.75163" lon="3.57177">
        <ele>252.00280761719</ele>
        <time>2014-03-16T09:31:27Z</time>
      </trkpt>
      <trkpt lat="43.7517" lon="3.57181">
        <ele>253.92541503906</ele>
        <time>2014-03-16T09:31:35Z</time>
      </trkpt>
      <trkpt lat="43.75176" lon="3.57185">
        <ele>255.36730957031</ele>
        <time>2014-03-16T09:31:43Z</time>
      </trkpt>
      <trkpt lat="43.75176" lon="3.57186">
        <ele>255.84802246094</ele>
        <time>2014-03-16T09:31:44Z</time>
      </trkpt>
      <trkpt lat="43.75176" lon="3.57189">
        <ele>255.84802246094</ele>
        <time>2014-03-16T09:31:46Z</time>
      </trkpt>
      <trkpt lat="43.75176" lon="3.57191">
        <ele>255.84802246094</ele>
        <time>2014-03-16T09:31:48Z</time>
      </trkpt>
      <trkpt lat="43.75183" lon="3.57196">
        <ele>256.32873535156</ele>
        <time>2014-03-16T09:31:56Z</time>
      </trkpt>
      <trkpt lat="43.75185" lon="3.57196">
        <ele>258.25134277344</ele>
        <time>2014-03-16T09:31:58Z</time>
      </trkpt>
      <trkpt lat="43.75187" lon="3.57197">
        <ele>258.73193359375</ele>
        <time>2014-03-16T09:32:00Z</time>
      </trkpt>
      <trkpt lat="43.75189" lon="3.57198">
        <ele>259.693359375</ele>
        <time>2014-03-16T09:32:02Z</time>
      </trkpt>
      <trkpt lat="43.75195" lon="3.57203">
        <ele>260.17395019531</ele>
        <time>2014-03-16T09:32:11Z</time>
      </trkpt>
      <trkpt lat="43.75201" lon="3.57207">
        <ele>262.5771484375</ele>
        <time>2014-03-16T09:32:20Z</time>
      </trkpt>
      <trkpt lat="43.75206" lon="3.57212">
        <ele>264.01928710938</ele>
        <time>2014-03-16T09:32:28Z</time>
      </trkpt>
      <trkpt lat="43.75209" lon="3.57215">
        <ele>265.46130371094</ele>
        <time>2014-03-16T09:32:32Z</time>
      </trkpt>
      <trkpt lat="43.75211" lon="3.57216">
        <ele>265.94189453125</ele>
        <time>2014-03-16T09:32:34Z</time>
      </trkpt>
      <trkpt lat="43.75217" lon="3.57222">
        <ele>265.46130371094</ele>
        <time>2014-03-16T09:32:42Z</time>
      </trkpt>
      <trkpt lat="43.75223" lon="3.57227">
        <ele>266.42248535156</ele>
        <time>2014-03-16T09:32:49Z</time>
      </trkpt>
      <trkpt lat="43.75224" lon="3.57228">
        <ele>266.42248535156</ele>
        <time>2014-03-16T09:32:50Z</time>
      </trkpt>
      <trkpt lat="43.75228" lon="3.57239">
        <ele>266.90319824219</ele>
        <time>2014-03-16T09:32:59Z</time>
      </trkpt>
      <trkpt lat="43.75231" lon="3.57243">
        <ele>267.86450195312</ele>
        <time>2014-03-16T09:33:05Z</time>
      </trkpt>
      <trkpt lat="43.75233" lon="3.57247">
        <ele>270.26770019531</ele>
        <time>2014-03-16T09:33:09Z</time>
      </trkpt>
      <trkpt lat="43.75235" lon="3.57248">
        <ele>271.22912597656</ele>
        <time>2014-03-16T09:33:11Z</time>
      </trkpt>
      <trkpt lat="43.7524" lon="3.57256">
        <ele>270.74841308594</ele>
        <time>2014-03-16T09:33:20Z</time>
      </trkpt>
      <trkpt lat="43.75247" lon="3.57259">
        <ele>272.1904296875</ele>
        <time>2014-03-16T09:33:27Z</time>
      </trkpt>
      <trkpt lat="43.75251" lon="3.57261">
        <ele>273.15185546875</ele>
        <time>2014-03-16T09:33:33Z</time>
      </trkpt>
      <trkpt lat="43.75256" lon="3.57266">
        <ele>274.11303710938</ele>
        <time>2014-03-16T09:33:40Z</time>
      </trkpt>
      <trkpt lat="43.75258" lon="3.57271">
        <ele>275.55505371094</ele>
        <time>2014-03-16T09:33:43Z</time>
      </trkpt>
      <trkpt lat="43.75261" lon="3.57274">
        <ele>276.9970703125</ele>
        <time>2014-03-16T09:33:49Z</time>
      </trkpt>
      <trkpt lat="43.75266" lon="3.5728">
        <ele>278.43896484375</ele>
        <time>2014-03-16T09:33:57Z</time>
      </trkpt>
      <trkpt lat="43.75274" lon="3.57285">
        <ele>279.880859375</ele>
        <time>2014-03-16T09:34:06Z</time>
      </trkpt>
      <trkpt lat="43.7528" lon="3.5728">
        <ele>281.80358886719</ele>
        <time>2014-03-16T09:34:14Z</time>
      </trkpt>
      <trkpt lat="43.75284" lon="3.57283">
        <ele>281.80358886719</ele>
        <time>2014-03-16T09:34:20Z</time>
      </trkpt>
      <trkpt lat="43.75284" lon="3.57285">
        <ele>282.28430175781</ele>
        <time>2014-03-16T09:34:22Z</time>
      </trkpt>
      <trkpt lat="43.7529" lon="3.5729">
        <ele>283.72619628906</ele>
        <time>2014-03-16T09:34:30Z</time>
      </trkpt>
      <trkpt lat="43.75296" lon="3.57296">
        <ele>283.72619628906</ele>
        <time>2014-03-16T09:34:38Z</time>
      </trkpt>
      <trkpt lat="43.75301" lon="3.57301">
        <ele>283.72619628906</ele>
        <time>2014-03-16T09:34:46Z</time>
      </trkpt>
      <trkpt lat="43.75305" lon="3.57301">
        <ele>286.12951660156</ele>
        <time>2014-03-16T09:34:50Z</time>
      </trkpt>
      <trkpt lat="43.75306" lon="3.57301">
        <ele>285.16821289062</ele>
        <time>2014-03-16T09:34:51Z</time>
      </trkpt>
      <trkpt lat="43.75316" lon="3.57304">
        <ele>286.61022949219</ele>
        <time>2014-03-16T09:35:01Z</time>
      </trkpt>
      <trkpt lat="43.75318" lon="3.57305">
        <ele>285.64880371094</ele>
        <time>2014-03-16T09:35:03Z</time>
      </trkpt>
      <trkpt lat="43.75328" lon="3.57306">
        <ele>288.05224609375</ele>
        <time>2014-03-16T09:35:13Z</time>
      </trkpt>
      <trkpt lat="43.75334" lon="3.57306">
        <ele>287.0908203125</ele>
        <time>2014-03-16T09:35:17Z</time>
      </trkpt>
      <trkpt lat="43.7534" lon="3.57304">
        <ele>288.53295898438</ele>
        <time>2014-03-16T09:35:23Z</time>
      </trkpt>
      <trkpt lat="43.7535" lon="3.573">
        <ele>288.53295898438</ele>
        <time>2014-03-16T09:35:32Z</time>
      </trkpt>
      <trkpt lat="43.75352" lon="3.573">
        <ele>287.0908203125</ele>
        <time>2014-03-16T09:35:35Z</time>
      </trkpt>
      <trkpt lat="43.75362" lon="3.57299">
        <ele>287.57141113281</ele>
        <time>2014-03-16T09:35:43Z</time>
      </trkpt>
      <trkpt lat="43.75363" lon="3.57299">
        <ele>289.01354980469</ele>
        <time>2014-03-16T09:35:44Z</time>
      </trkpt>
      <trkpt lat="43.75366" lon="3.57298">
        <ele>289.494140625</ele>
        <time>2014-03-16T09:35:46Z</time>
      </trkpt>
      <trkpt lat="43.75368" lon="3.57299">
        <ele>289.97485351562</ele>
        <time>2014-03-16T09:35:48Z</time>
      </trkpt>
      <trkpt lat="43.7538" lon="3.57301">
        <ele>290.93615722656</ele>
        <time>2014-03-16T09:35:58Z</time>
      </trkpt>
      <trkpt lat="43.75389" lon="3.57303">
        <ele>289.97485351562</ele>
        <time>2014-03-16T09:36:06Z</time>
      </trkpt>
      <trkpt lat="43.75398" lon="3.57309">
        <ele>289.01354980469</ele>
        <time>2014-03-16T09:36:15Z</time>
      </trkpt>
      <trkpt lat="43.75406" lon="3.57316">
        <ele>289.97485351562</ele>
        <time>2014-03-16T09:36:24Z</time>
      </trkpt>
      <trkpt lat="43.75415" lon="3.57323">
        <ele>289.494140625</ele>
        <time>2014-03-16T09:36:33Z</time>
      </trkpt>
      <trkpt lat="43.75418" lon="3.57326">
        <ele>287.57141113281</ele>
        <time>2014-03-16T09:36:36Z</time>
      </trkpt>
      <trkpt lat="43.7543" lon="3.57326">
        <ele>289.01354980469</ele>
        <time>2014-03-16T09:36:46Z</time>
      </trkpt>
      <trkpt lat="43.75438" lon="3.57318">
        <ele>290.93615722656</ele>
        <time>2014-03-16T09:36:55Z</time>
      </trkpt>
      <trkpt lat="43.75444" lon="3.57311">
        <ele>291.8974609375</ele>
        <time>2014-03-16T09:37:02Z</time>
      </trkpt>
      <trkpt lat="43.75448" lon="3.57311">
        <ele>291.8974609375</ele>
        <time>2014-03-16T09:37:05Z</time>
      </trkpt>
      <trkpt lat="43.75452" lon="3.57309">
        <ele>289.494140625</ele>
        <time>2014-03-16T09:37:10Z</time>
      </trkpt>
      <trkpt lat="43.75454" lon="3.57309">
        <ele>293.82006835938</ele>
        <time>2014-03-16T09:37:12Z</time>
      </trkpt>
      <trkpt lat="43.75458" lon="3.5731">
        <ele>290.93615722656</ele>
        <time>2014-03-16T09:37:15Z</time>
      </trkpt>
      <trkpt lat="43.75465" lon="3.57316">
        <ele>290.45556640625</ele>
        <time>2014-03-16T09:37:22Z</time>
      </trkpt>
      <trkpt lat="43.75472" lon="3.57318">
        <ele>290.93615722656</ele>
        <time>2014-03-16T09:37:29Z</time>
      </trkpt>
      <trkpt lat="43.75482" lon="3.5732">
        <ele>289.01354980469</ele>
        <time>2014-03-16T09:37:39Z</time>
      </trkpt>
      <trkpt lat="43.75483" lon="3.5732">
        <ele>289.01354980469</ele>
        <time>2014-03-16T09:37:40Z</time>
      </trkpt>
      <trkpt lat="43.75483" lon="3.5732">
        <ele>292.37817382812</ele>
        <time>2014-03-16T09:37:44Z</time>
      </trkpt>
      <trkpt lat="43.75483" lon="3.5732">
        <ele>289.01354980469</ele>
        <time>2014-03-16T09:38:18Z</time>
      </trkpt>
      <trkpt lat="43.75483" lon="3.5732">
        <ele>288.05224609375</ele>
        <time>2014-03-16T09:38:20Z</time>
      </trkpt>
      <trkpt lat="43.75484" lon="3.57318">
        <ele>288.53295898438</ele>
        <time>2014-03-16T09:40:33Z</time>
      </trkpt>
      <trkpt lat="43.7549" lon="3.57316">
        <ele>289.494140625</ele>
        <time>2014-03-16T09:40:38Z</time>
      </trkpt>
      <trkpt lat="43.75492" lon="3.57315">
        <ele>289.97485351562</ele>
        <time>2014-03-16T09:40:40Z</time>
      </trkpt>
      <trkpt lat="43.75496" lon="3.57314">
        <ele>289.97485351562</ele>
        <time>2014-03-16T09:40:47Z</time>
      </trkpt>
      <trkpt lat="43.75497" lon="3.57314">
        <ele>292.37817382812</ele>
        <time>2014-03-16T09:41:11Z</time>
      </trkpt>
      <trkpt lat="43.75497" lon="3.57314">
        <ele>289.01354980469</ele>
        <time>2014-03-16T09:41:17Z</time>
      </trkpt>
      <trkpt lat="43.75497" lon="3.57314">
        <ele>289.494140625</ele>
        <time>2014-03-16T09:41:18Z</time>
      </trkpt>
      <trkpt lat="43.75497" lon="3.57314">
        <ele>288.05224609375</ele>
        <time>2014-03-16T09:41:23Z</time>
      </trkpt>
      <trkpt lat="43.75497" lon="3.57314">
        <ele>285.16821289062</ele>
        <time>2014-03-16T09:41:25Z</time>
      </trkpt>
      <trkpt lat="43.75497" lon="3.57314">
        <ele>288.53295898438</ele>
        <time>2014-03-16T09:41:37Z</time>
      </trkpt>
      <trkpt lat="43.75497" lon="3.57314">
        <ele>288.53295898438</ele>
        <time>2014-03-16T09:41:38Z</time>
      </trkpt>
      <trkpt lat="43.75497" lon="3.57315">
        <ele>291.8974609375</ele>
        <time>2014-03-16T09:41:43Z</time>
      </trkpt>
      <trkpt lat="43.75499" lon="3.57313">
        <ele>290.45556640625</ele>
        <time>2014-03-16T09:41:51Z</time>
      </trkpt>
      <trkpt lat="43.75501" lon="3.57311">
        <ele>289.494140625</ele>
        <time>2014-03-16T09:41:54Z</time>
      </trkpt>
      <trkpt lat="43.75504" lon="3.57312">
        <ele>289.494140625</ele>
        <time>2014-03-16T09:41:57Z</time>
      </trkpt>
      <trkpt lat="43.75512" lon="3.57308">
        <ele>290.45556640625</ele>
        <time>2014-03-16T09:42:04Z</time>
      </trkpt>
      <trkpt lat="43.75523" lon="3.57302">
        <ele>291.41674804688</ele>
        <time>2014-03-16T09:42:13Z</time>
      </trkpt>
      <trkpt lat="43.75534" lon="3.57298">
        <ele>290.45556640625</ele>
        <time>2014-03-16T09:42:22Z</time>
      </trkpt>
      <trkpt lat="43.75548" lon="3.5729">
        <ele>289.01354980469</ele>
        <time>2014-03-16T09:42:33Z</time>
      </trkpt>
      <trkpt lat="43.75557" lon="3.57288">
        <ele>285.16821289062</ele>
        <time>2014-03-16T09:42:40Z</time>
      </trkpt>
      <trkpt lat="43.75558" lon="3.57287">
        <ele>286.12951660156</ele>
        <time>2014-03-16T09:42:41Z</time>
      </trkpt>
      <trkpt lat="43.75561" lon="3.57285">
        <ele>284.68762207031</ele>
        <time>2014-03-16T09:42:43Z</time>
      </trkpt>
      <trkpt lat="43.75566" lon="3.57286">
        <ele>288.05224609375</ele>
        <time>2014-03-16T09:42:48Z</time>
      </trkpt>
      <trkpt lat="43.75568" lon="3.57285">
        <ele>289.01354980469</ele>
        <time>2014-03-16T09:42:50Z</time>
      </trkpt>
      <trkpt lat="43.75569" lon="3.57284">
        <ele>288.05224609375</ele>
        <time>2014-03-16T09:42:51Z</time>
      </trkpt>
      <trkpt lat="43.75572" lon="3.57283">
        <ele>287.57141113281</ele>
        <time>2014-03-16T09:42:53Z</time>
      </trkpt>
      <trkpt lat="43.75581" lon="3.57285">
        <ele>289.97485351562</ele>
        <time>2014-03-16T09:43:00Z</time>
      </trkpt>
      <trkpt lat="43.75591" lon="3.57282">
        <ele>289.494140625</ele>
        <time>2014-03-16T09:43:08Z</time>
      </trkpt>
      <trkpt lat="43.75602" lon="3.57284">
        <ele>289.494140625</ele>
        <time>2014-03-16T09:43:16Z</time>
      </trkpt>
      <trkpt lat="43.75604" lon="3.57285">
        <ele>289.97485351562</ele>
        <time>2014-03-16T09:43:18Z</time>
      </trkpt>
      <trkpt lat="43.75613" lon="3.57284">
        <ele>290.45556640625</ele>
        <time>2014-03-16T09:43:25Z</time>
      </trkpt>
      <trkpt lat="43.75624" lon="3.57285">
        <ele>291.41674804688</ele>
        <time>2014-03-16T09:43:34Z</time>
      </trkpt>
      <trkpt lat="43.7563" lon="3.57282">
        <ele>292.37817382812</ele>
        <time>2014-03-16T09:43:39Z</time>
      </trkpt>
      <trkpt lat="43.75634" lon="3.57276">
        <ele>295.26196289062</ele>
        <time>2014-03-16T09:43:44Z</time>
      </trkpt>
      <trkpt lat="43.75635" lon="3.57274">
        <ele>296.7041015625</ele>
        <time>2014-03-16T09:43:45Z</time>
      </trkpt>
      <trkpt lat="43.75636" lon="3.57272">
        <ele>296.22351074219</ele>
        <time>2014-03-16T09:43:47Z</time>
      </trkpt>
      <trkpt lat="43.75639" lon="3.57266">
        <ele>294.30078125</ele>
        <time>2014-03-16T09:43:52Z</time>
      </trkpt>
      <trkpt lat="43.75645" lon="3.57256">
        <ele>293.33935546875</ele>
        <time>2014-03-16T09:43:59Z</time>
      </trkpt>
      <trkpt lat="43.75661" lon="3.5725">
        <ele>293.33935546875</ele>
        <time>2014-03-16T09:44:12Z</time>
      </trkpt>
      <trkpt lat="43.75663" lon="3.57248">
        <ele>290.45556640625</ele>
        <time>2014-03-16T09:44:14Z</time>
      </trkpt>
      <trkpt lat="43.7567" lon="3.57241">
        <ele>289.97485351562</ele>
        <time>2014-03-16T09:44:20Z</time>
      </trkpt>
      <trkpt lat="43.75678" lon="3.57232">
        <ele>294.78137207031</ele>
        <time>2014-03-16T09:44:28Z</time>
      </trkpt>
      <trkpt lat="43.75678" lon="3.57231">
        <ele>295.74267578125</ele>
        <time>2014-03-16T09:44:29Z</time>
      </trkpt>
      <trkpt lat="43.75689" lon="3.57222">
        <ele>295.74267578125</ele>
        <time>2014-03-16T09:44:38Z</time>
      </trkpt>
      <trkpt lat="43.75699" lon="3.57214">
        <ele>296.22351074219</ele>
        <time>2014-03-16T09:44:47Z</time>
      </trkpt>
      <trkpt lat="43.75709" lon="3.57213">
        <ele>296.7041015625</ele>
        <time>2014-03-16T09:44:55Z</time>
      </trkpt>
      <trkpt lat="43.7572" lon="3.5721">
        <ele>298.62670898438</ele>
        <time>2014-03-16T09:45:04Z</time>
      </trkpt>
      <trkpt lat="43.75726" lon="3.57206">
        <ele>299.58801269531</ele>
        <time>2014-03-16T09:45:10Z</time>
      </trkpt>
      <trkpt lat="43.75735" lon="3.57198">
        <ele>299.10729980469</ele>
        <time>2014-03-16T09:45:19Z</time>
      </trkpt>
      <trkpt lat="43.75743" lon="3.57193">
        <ele>299.58801269531</ele>
        <time>2014-03-16T09:45:27Z</time>
      </trkpt>
      <trkpt lat="43.75746" lon="3.57191">
        <ele>300.06872558594</ele>
        <time>2014-03-16T09:45:30Z</time>
      </trkpt>
      <trkpt lat="43.75749" lon="3.57188">
        <ele>300.06872558594</ele>
        <time>2014-03-16T09:45:39Z</time>
      </trkpt>
      <trkpt lat="43.75752" lon="3.57184">
        <ele>297.66540527344</ele>
        <time>2014-03-16T09:45:44Z</time>
      </trkpt>
      <trkpt lat="43.75753" lon="3.57183">
        <ele>296.22351074219</ele>
        <time>2014-03-16T09:45:46Z</time>
      </trkpt>
      <trkpt lat="43.75752" lon="3.57185">
        <ele>299.58801269531</ele>
        <time>2014-03-16T09:45:53Z</time>
      </trkpt>
      <trkpt lat="43.7576" lon="3.57176">
        <ele>299.58801269531</ele>
        <time>2014-03-16T09:46:02Z</time>
      </trkpt>
      <trkpt lat="43.75761" lon="3.57175">
        <ele>299.58801269531</ele>
        <time>2014-03-16T09:46:03Z</time>
      </trkpt>
      <trkpt lat="43.75769" lon="3.57166">
        <ele>301.51062011719</ele>
        <time>2014-03-16T09:46:13Z</time>
      </trkpt>
      <trkpt lat="43.75778" lon="3.57157">
        <ele>302.47192382812</ele>
        <time>2014-03-16T09:46:22Z</time>
      </trkpt>
      <trkpt lat="43.75784" lon="3.5715">
        <ele>304.39465332031</ele>
        <time>2014-03-16T09:46:30Z</time>
      </trkpt>
      <trkpt lat="43.75789" lon="3.57142">
        <ele>305.35595703125</ele>
        <time>2014-03-16T09:46:37Z</time>
      </trkpt>
      <trkpt lat="43.75796" lon="3.5713">
        <ele>307.27856445312</ele>
        <time>2014-03-16T09:46:47Z</time>
      </trkpt>
      <trkpt lat="43.75801" lon="3.57124">
        <ele>307.27856445312</ele>
        <time>2014-03-16T09:46:52Z</time>
      </trkpt>
      <trkpt lat="43.75804" lon="3.57119">
        <ele>307.75927734375</ele>
        <time>2014-03-16T09:46:56Z</time>
      </trkpt>
      <trkpt lat="43.75805" lon="3.57117">
        <ele>307.75927734375</ele>
        <time>2014-03-16T09:46:58Z</time>
      </trkpt>
      <trkpt lat="43.75813" lon="3.57105">
        <ele>309.201171875</ele>
        <time>2014-03-16T09:47:08Z</time>
      </trkpt>
      <trkpt lat="43.75818" lon="3.57097">
        <ele>309.201171875</ele>
        <time>2014-03-16T09:47:15Z</time>
      </trkpt>
      <trkpt lat="43.75822" lon="3.57088">
        <ele>310.16247558594</ele>
        <time>2014-03-16T09:47:22Z</time>
      </trkpt>
      <trkpt lat="43.75828" lon="3.57083">
        <ele>311.6044921875</ele>
        <time>2014-03-16T09:47:30Z</time>
      </trkpt>
      <trkpt lat="43.75829" lon="3.57084">
        <ele>310.64306640625</ele>
        <time>2014-03-16T09:47:37Z</time>
      </trkpt>
      <trkpt lat="43.7583" lon="3.57083">
        <ele>308.72045898438</ele>
        <time>2014-03-16T09:47:46Z</time>
      </trkpt>
      <trkpt lat="43.75831" lon="3.57084">
        <ele>307.75927734375</ele>
        <time>2014-03-16T09:47:47Z</time>
      </trkpt>
      <trkpt lat="43.75837" lon="3.57083">
        <ele>311.12377929688</ele>
        <time>2014-03-16T09:47:54Z</time>
      </trkpt>
      <trkpt lat="43.7584" lon="3.57082">
        <ele>311.12377929688</ele>
        <time>2014-03-16T09:47:58Z</time>
      </trkpt>
      <trkpt lat="43.75845" lon="3.57087">
        <ele>310.64306640625</ele>
        <time>2014-03-16T09:48:06Z</time>
      </trkpt>
      <trkpt lat="43.75852" lon="3.57091">
        <ele>310.16247558594</ele>
        <time>2014-03-16T09:48:14Z</time>
      </trkpt>
      <trkpt lat="43.75855" lon="3.57096">
        <ele>310.16247558594</ele>
        <time>2014-03-16T09:48:23Z</time>
      </trkpt>
      <trkpt lat="43.75855" lon="3.57096">
        <ele>313.04650878906</ele>
        <time>2014-03-16T09:49:02Z</time>
      </trkpt>
      <trkpt lat="43.75857" lon="3.57098">
        <ele>312.56579589844</ele>
        <time>2014-03-16T09:49:41Z</time>
      </trkpt>
      <trkpt lat="43.75856" lon="3.57098">
        <ele>313.04650878906</ele>
        <time>2014-03-16T09:50:15Z</time>
      </trkpt>
      <trkpt lat="43.75856" lon="3.57098">
        <ele>311.12377929688</ele>
        <time>2014-03-16T09:50:19Z</time>
      </trkpt>
      <trkpt lat="43.7586" lon="3.57099">
        <ele>311.12377929688</ele>
        <time>2014-03-16T09:50:45Z</time>
      </trkpt>
      <trkpt lat="43.75864" lon="3.57104">
        <ele>311.12377929688</ele>
        <time>2014-03-16T09:50:53Z</time>
      </trkpt>
      <trkpt lat="43.75865" lon="3.57105">
        <ele>309.201171875</ele>
        <time>2014-03-16T09:50:59Z</time>
      </trkpt>
      <trkpt lat="43.75864" lon="3.57105">
        <ele>312.56579589844</ele>
        <time>2014-03-16T09:51:01Z</time>
      </trkpt>
      <trkpt lat="43.75864" lon="3.57106">
        <ele>312.56579589844</ele>
        <time>2014-03-16T09:51:02Z</time>
      </trkpt>
      <trkpt lat="43.75863" lon="3.57106">
        <ele>313.52722167969</ele>
        <time>2014-03-16T09:51:10Z</time>
      </trkpt>
      <trkpt lat="43.75866" lon="3.57108">
        <ele>311.12377929688</ele>
        <time>2014-03-16T09:51:20Z</time>
      </trkpt>
      <trkpt lat="43.75866" lon="3.57108">
        <ele>313.04650878906</ele>
        <time>2014-03-16T09:51:25Z</time>
      </trkpt>
      <trkpt lat="43.75863" lon="3.57107">
        <ele>309.68188476562</ele>
        <time>2014-03-16T09:51:28Z</time>
      </trkpt>
      <trkpt lat="43.75863" lon="3.57108">
        <ele>309.68188476562</ele>
        <time>2014-03-16T09:51:29Z</time>
      </trkpt>
      <trkpt lat="43.75863" lon="3.57106">
        <ele>313.04650878906</ele>
        <time>2014-03-16T09:51:35Z</time>
      </trkpt>
      <trkpt lat="43.75863" lon="3.57103">
        <ele>312.08520507812</ele>
        <time>2014-03-16T09:51:41Z</time>
      </trkpt>
      <trkpt lat="43.75863" lon="3.57102">
        <ele>312.08520507812</ele>
        <time>2014-03-16T09:52:26Z</time>
      </trkpt>
      <trkpt lat="43.75863" lon="3.57102">
        <ele>312.56579589844</ele>
        <time>2014-03-16T09:52:50Z</time>
      </trkpt>
      <trkpt lat="43.75863" lon="3.57102">
        <ele>312.56579589844</ele>
        <time>2014-03-16T09:52:57Z</time>
      </trkpt>
      <trkpt lat="43.75863" lon="3.57102">
        <ele>311.6044921875</ele>
        <time>2014-03-16T09:53:02Z</time>
      </trkpt>
      <trkpt lat="43.75862" lon="3.57101">
        <ele>311.12377929688</ele>
        <time>2014-03-16T09:53:37Z</time>
      </trkpt>
      <trkpt lat="43.75861" lon="3.57101">
        <ele>310.64306640625</ele>
        <time>2014-03-16T09:53:39Z</time>
      </trkpt>
      <trkpt lat="43.75854" lon="3.57097">
        <ele>310.64306640625</ele>
        <time>2014-03-16T09:53:48Z</time>
      </trkpt>
      <trkpt lat="43.75852" lon="3.57091">
        <ele>310.16247558594</ele>
        <time>2014-03-16T09:53:55Z</time>
      </trkpt>
      <trkpt lat="43.75849" lon="3.57088">
        <ele>309.68188476562</ele>
        <time>2014-03-16T09:54:02Z</time>
      </trkpt>
      <trkpt lat="43.7585" lon="3.57083">
        <ele>310.64306640625</ele>
        <time>2014-03-16T09:54:10Z</time>
      </trkpt>
      <trkpt lat="43.75851" lon="3.5708">
        <ele>310.64306640625</ele>
        <time>2014-03-16T09:54:17Z</time>
      </trkpt>
      <trkpt lat="43.75852" lon="3.57082">
        <ele>309.201171875</ele>
        <time>2014-03-16T09:54:30Z</time>
      </trkpt>
      <trkpt lat="43.75849" lon="3.57085">
        <ele>308.72045898438</ele>
        <time>2014-03-16T09:54:40Z</time>
      </trkpt>
      <trkpt lat="43.75845" lon="3.57084">
        <ele>308.23986816406</ele>
        <time>2014-03-16T09:54:46Z</time>
      </trkpt>
      <trkpt lat="43.75836" lon="3.57075">
        <ele>308.23986816406</ele>
        <time>2014-03-16T09:54:55Z</time>
      </trkpt>
      <trkpt lat="43.75832" lon="3.57066">
        <ele>307.75927734375</ele>
        <time>2014-03-16T09:55:03Z</time>
      </trkpt>
      <trkpt lat="43.75831" lon="3.57062">
        <ele>309.201171875</ele>
        <time>2014-03-16T09:55:09Z</time>
      </trkpt>
      <trkpt lat="43.75828" lon="3.57052">
        <ele>311.6044921875</ele>
        <time>2014-03-16T09:55:17Z</time>
      </trkpt>
      <trkpt lat="43.75827" lon="3.5705">
        <ele>310.64306640625</ele>
        <time>2014-03-16T09:55:19Z</time>
      </trkpt>
      <trkpt lat="43.75826" lon="3.57047">
        <ele>309.201171875</ele>
        <time>2014-03-16T09:55:22Z</time>
      </trkpt>
      <trkpt lat="43.75821" lon="3.57037">
        <ele>308.23986816406</ele>
        <time>2014-03-16T09:55:30Z</time>
      </trkpt>
      <trkpt lat="43.75813" lon="3.57024">
        <ele>307.75927734375</ele>
        <time>2014-03-16T09:55:43Z</time>
      </trkpt>
      <trkpt lat="43.75808" lon="3.57018">
        <ele>309.201171875</ele>
        <time>2014-03-16T09:55:50Z</time>
      </trkpt>
      <trkpt lat="43.75808" lon="3.57014">
        <ele>309.201171875</ele>
        <time>2014-03-16T09:55:58Z</time>
      </trkpt>
      <trkpt lat="43.75808" lon="3.57014">
        <ele>307.75927734375</ele>
        <time>2014-03-16T09:56:02Z</time>
      </trkpt>
      <trkpt lat="43.75808" lon="3.57014">
        <ele>303.91394042969</ele>
        <time>2014-03-16T09:56:26Z</time>
      </trkpt>
      <trkpt lat="43.75808" lon="3.57014">
        <ele>307.75927734375</ele>
        <time>2014-03-16T09:56:27Z</time>
      </trkpt>
      <trkpt lat="43.75808" lon="3.57014">
        <ele>307.27856445312</ele>
        <time>2014-03-16T09:56:55Z</time>
      </trkpt>
      <trkpt lat="43.75803" lon="3.57009">
        <ele>307.27856445312</ele>
        <time>2014-03-16T09:57:48Z</time>
      </trkpt>
      <trkpt lat="43.75803" lon="3.57008">
        <ele>306.7978515625</ele>
        <time>2014-03-16T09:57:49Z</time>
      </trkpt>
      <trkpt lat="43.75802" lon="3.57003">
        <ele>307.75927734375</ele>
        <time>2014-03-16T09:57:53Z</time>
      </trkpt>
      <trkpt lat="43.75797" lon="3.56996">
        <ele>306.31726074219</ele>
        <time>2014-03-16T09:58:00Z</time>
      </trkpt>
      <trkpt lat="43.75792" lon="3.56987">
        <ele>308.72045898438</ele>
        <time>2014-03-16T09:58:07Z</time>
      </trkpt>
      <trkpt lat="43.75791" lon="3.56981">
        <ele>308.23986816406</ele>
        <time>2014-03-16T09:58:11Z</time>
      </trkpt>
      <trkpt lat="43.75789" lon="3.56966">
        <ele>310.16247558594</ele>
        <time>2014-03-16T09:58:21Z</time>
      </trkpt>
      <trkpt lat="43.75789" lon="3.56952">
        <ele>310.64306640625</ele>
        <time>2014-03-16T09:58:29Z</time>
      </trkpt>
      <trkpt lat="43.7579" lon="3.5694">
        <ele>311.12377929688</ele>
        <time>2014-03-16T09:58:37Z</time>
      </trkpt>
      <trkpt lat="43.7579" lon="3.56937">
        <ele>309.68188476562</ele>
        <time>2014-03-16T09:58:39Z</time>
      </trkpt>
      <trkpt lat="43.75789" lon="3.56924">
        <ele>307.75927734375</ele>
        <time>2014-03-16T09:58:47Z</time>
      </trkpt>
      <trkpt lat="43.75786" lon="3.56909">
        <ele>310.64306640625</ele>
        <time>2014-03-16T09:58:57Z</time>
      </trkpt>
      <trkpt lat="43.75783" lon="3.56894">
        <ele>307.75927734375</ele>
        <time>2014-03-16T09:59:07Z</time>
      </trkpt>
      <trkpt lat="43.75779" lon="3.56885">
        <ele>306.31726074219</ele>
        <time>2014-03-16T09:59:16Z</time>
      </trkpt>
      <trkpt lat="43.7578" lon="3.56882">
        <ele>307.27856445312</ele>
        <time>2014-03-16T09:59:31Z</time>
      </trkpt>
      <trkpt lat="43.75781" lon="3.56878">
        <ele>307.27856445312</ele>
        <time>2014-03-16T09:59:39Z</time>
      </trkpt>
      <trkpt lat="43.75781" lon="3.56878">
        <ele>303.91394042969</ele>
        <time>2014-03-16T09:59:56Z</time>
      </trkpt>
      <trkpt lat="43.75781" lon="3.56878">
        <ele>303.43322753906</ele>
        <time>2014-03-16T09:59:57Z</time>
      </trkpt>
      <trkpt lat="43.75782" lon="3.56878">
        <ele>306.7978515625</ele>
        <time>2014-03-16T10:00:37Z</time>
      </trkpt>
      <trkpt lat="43.75782" lon="3.56878">
        <ele>307.75927734375</ele>
        <time>2014-03-16T10:01:12Z</time>
      </trkpt>
      <trkpt lat="43.75782" lon="3.56878">
        <ele>307.75927734375</ele>
        <time>2014-03-16T10:01:19Z</time>
      </trkpt>
      <trkpt lat="43.75782" lon="3.56878">
        <ele>304.39465332031</ele>
        <time>2014-03-16T10:01:51Z</time>
      </trkpt>
      <trkpt lat="43.75782" lon="3.56878">
        <ele>305.83666992188</ele>
        <time>2014-03-16T10:02:07Z</time>
      </trkpt>
      <trkpt lat="43.75782" lon="3.56878">
        <ele>305.83666992188</ele>
        <time>2014-03-16T10:02:20Z</time>
      </trkpt>
      <trkpt lat="43.75782" lon="3.56878">
        <ele>307.75927734375</ele>
        <time>2014-03-16T10:02:24Z</time>
      </trkpt>
      <trkpt lat="43.75782" lon="3.56878">
        <ele>303.91394042969</ele>
        <time>2014-03-16T10:03:04Z</time>
      </trkpt>
      <trkpt lat="43.75782" lon="3.56878">
        <ele>303.91394042969</ele>
        <time>2014-03-16T10:03:05Z</time>
      </trkpt>
      <trkpt lat="43.75782" lon="3.56878">
        <ele>305.35595703125</ele>
        <time>2014-03-16T10:03:09Z</time>
      </trkpt>
      <trkpt lat="43.75782" lon="3.56878">
        <ele>302.47192382812</ele>
        <time>2014-03-16T10:03:14Z</time>
      </trkpt>
      <trkpt lat="43.75782" lon="3.56878">
        <ele>305.83666992188</ele>
        <time>2014-03-16T10:03:26Z</time>
      </trkpt>
      <trkpt lat="43.75782" lon="3.56878">
        <ele>306.31726074219</ele>
        <time>2014-03-16T10:03:40Z</time>
      </trkpt>
      <trkpt lat="43.75782" lon="3.56878">
        <ele>300.54931640625</ele>
        <time>2014-03-16T10:04:01Z</time>
      </trkpt>
      <trkpt lat="43.75782" lon="3.56878">
        <ele>305.35595703125</ele>
        <time>2014-03-16T10:04:02Z</time>
      </trkpt>
      <trkpt lat="43.75782" lon="3.56878">
        <ele>308.23986816406</ele>
        <time>2014-03-16T10:04:30Z</time>
      </trkpt>
      <trkpt lat="43.7578" lon="3.56879">
        <ele>306.7978515625</ele>
        <time>2014-03-16T10:05:41Z</time>
      </trkpt>
      <trkpt lat="43.7578" lon="3.56879">
        <ele>303.43322753906</ele>
        <time>2014-03-16T10:05:51Z</time>
      </trkpt>
      <trkpt lat="43.7578" lon="3.56879">
        <ele>302.47192382812</ele>
        <time>2014-03-16T10:05:53Z</time>
      </trkpt>
      <trkpt lat="43.75781" lon="3.56882">
        <ele>304.87524414062</ele>
        <time>2014-03-16T10:06:05Z</time>
      </trkpt>
      <trkpt lat="43.75782" lon="3.56883">
        <ele>307.75927734375</ele>
        <time>2014-03-16T10:06:14Z</time>
      </trkpt>
      <trkpt lat="43.75783" lon="3.56885">
        <ele>308.23986816406</ele>
        <time>2014-03-16T10:06:16Z</time>
      </trkpt>
      <trkpt lat="43.75784" lon="3.56891">
        <ele>308.72045898438</ele>
        <time>2014-03-16T10:06:23Z</time>
      </trkpt>
      <trkpt lat="43.75786" lon="3.56901">
        <ele>309.201171875</ele>
        <time>2014-03-16T10:06:29Z</time>
      </trkpt>
      <trkpt lat="43.75788" lon="3.56909">
        <ele>309.68188476562</ele>
        <time>2014-03-16T10:06:34Z</time>
      </trkpt>
      <trkpt lat="43.75792" lon="3.56925">
        <ele>309.201171875</ele>
        <time>2014-03-16T10:06:43Z</time>
      </trkpt>
      <trkpt lat="43.75791" lon="3.5694">
        <ele>308.72045898438</ele>
        <time>2014-03-16T10:06:52Z</time>
      </trkpt>
      <trkpt lat="43.7579" lon="3.56952">
        <ele>306.31726074219</ele>
        <time>2014-03-16T10:06:59Z</time>
      </trkpt>
      <trkpt lat="43.75789" lon="3.56957">
        <ele>305.83666992188</ele>
        <time>2014-03-16T10:07:02Z</time>
      </trkpt>
      <trkpt lat="43.75789" lon="3.56963">
        <ele>304.87524414062</ele>
        <time>2014-03-16T10:07:06Z</time>
      </trkpt>
      <trkpt lat="43.7579" lon="3.56977">
        <ele>306.7978515625</ele>
        <time>2014-03-16T10:07:15Z</time>
      </trkpt>
      <trkpt lat="43.7579" lon="3.56979">
        <ele>307.27856445312</ele>
        <time>2014-03-16T10:07:16Z</time>
      </trkpt>
      <trkpt lat="43.75798" lon="3.56992">
        <ele>306.7978515625</ele>
        <time>2014-03-16T10:07:25Z</time>
      </trkpt>
      <trkpt lat="43.75801" lon="3.57003">
        <ele>306.7978515625</ele>
        <time>2014-03-16T10:07:32Z</time>
      </trkpt>
      <trkpt lat="43.75803" lon="3.57007">
        <ele>307.27856445312</ele>
        <time>2014-03-16T10:07:35Z</time>
      </trkpt>
      <trkpt lat="43.75809" lon="3.57015">
        <ele>307.27856445312</ele>
        <time>2014-03-16T10:07:41Z</time>
      </trkpt>
      <trkpt lat="43.75815" lon="3.57024">
        <ele>308.72045898438</ele>
        <time>2014-03-16T10:07:49Z</time>
      </trkpt>
      <trkpt lat="43.75817" lon="3.57025">
        <ele>309.68188476562</ele>
        <time>2014-03-16T10:07:51Z</time>
      </trkpt>
      <trkpt lat="43.75822" lon="3.57032">
        <ele>308.23986816406</ele>
        <time>2014-03-16T10:07:58Z</time>
      </trkpt>
      <trkpt lat="43.75826" lon="3.57039">
        <ele>308.72045898438</ele>
        <time>2014-03-16T10:08:06Z</time>
      </trkpt>
      <trkpt lat="43.75826" lon="3.5704">
        <ele>308.72045898438</ele>
        <time>2014-03-16T10:08:17Z</time>
      </trkpt>
      <trkpt lat="43.75827" lon="3.57045">
        <ele>307.75927734375</ele>
        <time>2014-03-16T10:08:42Z</time>
      </trkpt>
      <trkpt lat="43.75827" lon="3.57047">
        <ele>307.75927734375</ele>
        <time>2014-03-16T10:08:50Z</time>
      </trkpt>
      <trkpt lat="43.75827" lon="3.57049">
        <ele>308.72045898438</ele>
        <time>2014-03-16T10:09:05Z</time>
      </trkpt>
      <trkpt lat="43.75831" lon="3.57058">
        <ele>307.75927734375</ele>
        <time>2014-03-16T10:09:20Z</time>
      </trkpt>
      <trkpt lat="43.75833" lon="3.57063">
        <ele>307.75927734375</ele>
        <time>2014-03-16T10:09:30Z</time>
      </trkpt>
      <trkpt lat="43.75835" lon="3.5707">
        <ele>306.7978515625</ele>
        <time>2014-03-16T10:09:38Z</time>
      </trkpt>
      <trkpt lat="43.7584" lon="3.57079">
        <ele>307.27856445312</ele>
        <time>2014-03-16T10:09:45Z</time>
      </trkpt>
      <trkpt lat="43.75845" lon="3.57086">
        <ele>308.72045898438</ele>
        <time>2014-03-16T10:09:51Z</time>
      </trkpt>
      <trkpt lat="43.75849" lon="3.57083">
        <ele>309.68188476562</ele>
        <time>2014-03-16T10:09:56Z</time>
      </trkpt>
      <trkpt lat="43.75849" lon="3.57079">
        <ele>309.68188476562</ele>
        <time>2014-03-16T10:10:03Z</time>
      </trkpt>
      <trkpt lat="43.7585" lon="3.57083">
        <ele>310.16247558594</ele>
        <time>2014-03-16T10:10:06Z</time>
      </trkpt>
      <trkpt lat="43.75862" lon="3.57098">
        <ele>309.68188476562</ele>
        <time>2014-03-16T10:10:16Z</time>
      </trkpt>
      <trkpt lat="43.75869" lon="3.57106">
        <ele>310.64306640625</ele>
        <time>2014-03-16T10:10:24Z</time>
      </trkpt>
      <trkpt lat="43.75872" lon="3.57108">
        <ele>309.201171875</ele>
        <time>2014-03-16T10:10:27Z</time>
      </trkpt>
      <trkpt lat="43.7588" lon="3.57112">
        <ele>310.16247558594</ele>
        <time>2014-03-16T10:10:35Z</time>
      </trkpt>
      <trkpt lat="43.75881" lon="3.57112">
        <ele>309.201171875</ele>
        <time>2014-03-16T10:10:37Z</time>
      </trkpt>
      <trkpt lat="43.75884" lon="3.57112">
        <ele>309.201171875</ele>
        <time>2014-03-16T10:10:40Z</time>
      </trkpt>
      <trkpt lat="43.75891" lon="3.57113">
        <ele>312.56579589844</ele>
        <time>2014-03-16T10:10:47Z</time>
      </trkpt>
      <trkpt lat="43.75893" lon="3.57114">
        <ele>314.0078125</ele>
        <time>2014-03-16T10:10:49Z</time>
      </trkpt>
      <trkpt lat="43.75895" lon="3.57114">
        <ele>312.56579589844</ele>
        <time>2014-03-16T10:10:52Z</time>
      </trkpt>
      <trkpt lat="43.75901" lon="3.57113">
        <ele>313.52722167969</ele>
        <time>2014-03-16T10:10:59Z</time>
      </trkpt>
      <trkpt lat="43.75906" lon="3.57114">
        <ele>314.96911621094</ele>
        <time>2014-03-16T10:11:04Z</time>
      </trkpt>
      <trkpt lat="43.75916" lon="3.57108">
        <ele>315.93041992188</ele>
        <time>2014-03-16T10:11:13Z</time>
      </trkpt>
      <trkpt lat="43.7592" lon="3.57109">
        <ele>315.93041992188</ele>
        <time>2014-03-16T10:11:17Z</time>
      </trkpt>
      <trkpt lat="43.75926" lon="3.5711">
        <ele>317.37243652344</ele>
        <time>2014-03-16T10:11:23Z</time>
      </trkpt>
      <trkpt lat="43.7593" lon="3.57112">
        <ele>319.29504394531</ele>
        <time>2014-03-16T10:11:27Z</time>
      </trkpt>
      <trkpt lat="43.75935" lon="3.5711">
        <ele>322.65966796875</ele>
        <time>2014-03-16T10:11:32Z</time>
      </trkpt>
      <trkpt lat="43.75943" lon="3.57107">
        <ele>320.25634765625</ele>
        <time>2014-03-16T10:11:39Z</time>
      </trkpt>
      <trkpt lat="43.75946" lon="3.57108">
        <ele>319.77563476562</ele>
        <time>2014-03-16T10:11:42Z</time>
      </trkpt>
      <trkpt lat="43.75957" lon="3.57105">
        <ele>321.2177734375</ele>
        <time>2014-03-16T10:11:51Z</time>
      </trkpt>
      <trkpt lat="43.75962" lon="3.57106">
        <ele>323.14038085938</ele>
        <time>2014-03-16T10:11:55Z</time>
      </trkpt>
      <trkpt lat="43.75965" lon="3.57107">
        <ele>323.62097167969</ele>
        <time>2014-03-16T10:11:57Z</time>
      </trkpt>
      <trkpt lat="43.75967" lon="3.57109">
        <ele>324.1015625</ele>
        <time>2014-03-16T10:11:59Z</time>
      </trkpt>
      <trkpt lat="43.75975" lon="3.57114">
        <ele>324.58227539062</ele>
        <time>2014-03-16T10:12:07Z</time>
      </trkpt>
      <trkpt lat="43.75985" lon="3.57118">
        <ele>324.58227539062</ele>
        <time>2014-03-16T10:12:16Z</time>
      </trkpt>
      <trkpt lat="43.7599" lon="3.57118">
        <ele>326.98559570312</ele>
        <time>2014-03-16T10:12:21Z</time>
      </trkpt>
      <trkpt lat="43.75994" lon="3.57118">
        <ele>325.54357910156</ele>
        <time>2014-03-16T10:12:24Z</time>
      </trkpt>
      <trkpt lat="43.75999" lon="3.5712">
        <ele>328.90832519531</ele>
        <time>2014-03-16T10:12:28Z</time>
      </trkpt>
      <trkpt lat="43.76" lon="3.5712">
        <ele>329.38891601562</ele>
        <time>2014-03-16T10:12:29Z</time>
      </trkpt>
      <trkpt lat="43.76002" lon="3.57121">
        <ele>330.35021972656</ele>
        <time>2014-03-16T10:12:31Z</time>
      </trkpt>
      <trkpt lat="43.76007" lon="3.5712">
        <ele>330.35021972656</ele>
        <time>2014-03-16T10:12:36Z</time>
      </trkpt>
      <trkpt lat="43.76016" lon="3.57123">
        <ele>329.86950683594</ele>
        <time>2014-03-16T10:12:44Z</time>
      </trkpt>
      <trkpt lat="43.7602" lon="3.57124">
        <ele>329.38891601562</ele>
        <time>2014-03-16T10:12:48Z</time>
      </trkpt>
      <trkpt lat="43.76024" lon="3.57127">
        <ele>329.86950683594</ele>
        <time>2014-03-16T10:12:53Z</time>
      </trkpt>
      <trkpt lat="43.76027" lon="3.57135">
        <ele>329.86950683594</ele>
        <time>2014-03-16T10:12:59Z</time>
      </trkpt>
      <trkpt lat="43.76032" lon="3.57138">
        <ele>329.38891601562</ele>
        <time>2014-03-16T10:13:04Z</time>
      </trkpt>
      <trkpt lat="43.76042" lon="3.57147">
        <ele>329.86950683594</ele>
        <time>2014-03-16T10:13:12Z</time>
      </trkpt>
      <trkpt lat="43.76045" lon="3.5715">
        <ele>329.86950683594</ele>
        <time>2014-03-16T10:13:15Z</time>
      </trkpt>
      <trkpt lat="43.76055" lon="3.57158">
        <ele>330.35021972656</ele>
        <time>2014-03-16T10:13:25Z</time>
      </trkpt>
      <trkpt lat="43.76065" lon="3.57167">
        <ele>331.79211425781</ele>
        <time>2014-03-16T10:13:34Z</time>
      </trkpt>
      <trkpt lat="43.76066" lon="3.57168">
        <ele>331.79211425781</ele>
        <time>2014-03-16T10:13:35Z</time>
      </trkpt>
      <trkpt lat="43.76075" lon="3.57171">
        <ele>332.75354003906</ele>
        <time>2014-03-16T10:13:42Z</time>
      </trkpt>
      <trkpt lat="43.76086" lon="3.57173">
        <ele>333.71472167969</ele>
        <time>2014-03-16T10:13:52Z</time>
      </trkpt>
      <trkpt lat="43.76095" lon="3.57172">
        <ele>334.67614746094</ele>
        <time>2014-03-16T10:14:00Z</time>
      </trkpt>
      <trkpt lat="43.761" lon="3.57172">
        <ele>337.56005859375</ele>
        <time>2014-03-16T10:14:07Z</time>
      </trkpt>
      <trkpt lat="43.76101" lon="3.5717">
        <ele>334.19543457031</ele>
        <time>2014-03-16T10:14:21Z</time>
      </trkpt>
      <trkpt lat="43.76103" lon="3.57171">
        <ele>336.1181640625</ele>
        <time>2014-03-16T10:14:56Z</time>
      </trkpt>
      <trkpt lat="43.76112" lon="3.57171">
        <ele>336.59887695312</ele>
        <time>2014-03-16T10:15:04Z</time>
      </trkpt>
      <trkpt lat="43.7612" lon="3.57171">
        <ele>336.59887695312</ele>
        <time>2014-03-16T10:15:11Z</time>
      </trkpt>
      <trkpt lat="43.76122" lon="3.57172">
        <ele>336.1181640625</ele>
        <time>2014-03-16T10:15:13Z</time>
      </trkpt>
      <trkpt lat="43.76132" lon="3.57171">
        <ele>335.63732910156</ele>
        <time>2014-03-16T10:15:21Z</time>
      </trkpt>
      <trkpt lat="43.76139" lon="3.57168">
        <ele>335.63732910156</ele>
        <time>2014-03-16T10:15:27Z</time>
      </trkpt>
      <trkpt lat="43.76144" lon="3.57165">
        <ele>335.63732910156</ele>
        <time>2014-03-16T10:15:32Z</time>
      </trkpt>
      <trkpt lat="43.76145" lon="3.57164">
        <ele>337.07946777344</ele>
        <time>2014-03-16T10:15:33Z</time>
      </trkpt>
      <trkpt lat="43.76148" lon="3.57164">
        <ele>338.04077148438</ele>
        <time>2014-03-16T10:15:35Z</time>
      </trkpt>
      <trkpt lat="43.76149" lon="3.57164">
        <ele>338.04077148438</ele>
        <time>2014-03-16T10:15:36Z</time>
      </trkpt>
      <trkpt lat="43.76155" lon="3.57163">
        <ele>338.521484375</ele>
        <time>2014-03-16T10:15:41Z</time>
      </trkpt>
      <trkpt lat="43.7616" lon="3.57164">
        <ele>338.521484375</ele>
        <time>2014-03-16T10:15:46Z</time>
      </trkpt>
      <trkpt lat="43.76168" lon="3.57157">
        <ele>339.96337890625</ele>
        <time>2014-03-16T10:15:54Z</time>
      </trkpt>
      <trkpt lat="43.76176" lon="3.5715">
        <ele>340.44409179688</ele>
        <time>2014-03-16T10:16:02Z</time>
      </trkpt>
      <trkpt lat="43.76185" lon="3.57151">
        <ele>340.44409179688</ele>
        <time>2014-03-16T10:16:09Z</time>
      </trkpt>
      <trkpt lat="43.76196" lon="3.57153">
        <ele>339.48266601562</ele>
        <time>2014-03-16T10:16:17Z</time>
      </trkpt>
      <trkpt lat="43.76206" lon="3.57151">
        <ele>340.92468261719</ele>
        <time>2014-03-16T10:16:24Z</time>
      </trkpt>
      <trkpt lat="43.76215" lon="3.57152">
        <ele>340.44409179688</ele>
        <time>2014-03-16T10:16:32Z</time>
      </trkpt>
      <trkpt lat="43.76222" lon="3.5715">
        <ele>344.77001953125</ele>
        <time>2014-03-16T10:16:37Z</time>
      </trkpt>
      <trkpt lat="43.76226" lon="3.57148">
        <ele>343.80859375</ele>
        <time>2014-03-16T10:16:40Z</time>
      </trkpt>
      <trkpt lat="43.76235" lon="3.5715">
        <ele>341.88598632812</ele>
        <time>2014-03-16T10:16:48Z</time>
      </trkpt>
      <trkpt lat="43.76238" lon="3.57149">
        <ele>345.25061035156</ele>
        <time>2014-03-16T10:16:50Z</time>
      </trkpt>
      <trkpt lat="43.76239" lon="3.57149">
        <ele>345.73132324219</ele>
        <time>2014-03-16T10:16:51Z</time>
      </trkpt>
      <trkpt lat="43.76248" lon="3.57148">
        <ele>347.17321777344</ele>
        <time>2014-03-16T10:17:00Z</time>
      </trkpt>
      <trkpt lat="43.76251" lon="3.57147">
        <ele>346.21203613281</ele>
        <time>2014-03-16T10:17:03Z</time>
      </trkpt>
      <trkpt lat="43.76252" lon="3.57135">
        <ele>348.13464355469</ele>
        <time>2014-03-16T10:17:11Z</time>
      </trkpt>
      <trkpt lat="43.76252" lon="3.57128">
        <ele>347.65393066406</ele>
        <time>2014-03-16T10:17:16Z</time>
      </trkpt>
      <trkpt lat="43.76254" lon="3.57115">
        <ele>348.13464355469</ele>
        <time>2014-03-16T10:17:25Z</time>
      </trkpt>
      <trkpt lat="43.76258" lon="3.5711">
        <ele>349.57653808594</ele>
        <time>2014-03-16T10:17:31Z</time>
      </trkpt>
      <trkpt lat="43.76261" lon="3.57112">
        <ele>350.53784179688</ele>
        <time>2014-03-16T10:17:36Z</time>
      </trkpt>
      <trkpt lat="43.76264" lon="3.5712">
        <ele>350.53784179688</ele>
        <time>2014-03-16T10:17:42Z</time>
      </trkpt>
      <trkpt lat="43.76265" lon="3.57123">
        <ele>351.49914550781</ele>
        <time>2014-03-16T10:17:44Z</time>
      </trkpt>
      <trkpt lat="43.76269" lon="3.57126">
        <ele>353.421875</ele>
        <time>2014-03-16T10:17:47Z</time>
      </trkpt>
      <trkpt lat="43.76276" lon="3.57133">
        <ele>354.86376953125</ele>
        <time>2014-03-16T10:17:55Z</time>
      </trkpt>
      <trkpt lat="43.76278" lon="3.57136">
        <ele>355.34448242188</ele>
        <time>2014-03-16T10:17:58Z</time>
      </trkpt>
      <trkpt lat="43.76281" lon="3.57137">
        <ele>354.86376953125</ele>
        <time>2014-03-16T10:18:01Z</time>
      </trkpt>
      <trkpt lat="43.76283" lon="3.57139">
        <ele>354.38317871094</ele>
        <time>2014-03-16T10:18:03Z</time>
      </trkpt>
      <trkpt lat="43.76291" lon="3.57142">
        <ele>356.78637695312</ele>
        <time>2014-03-16T10:18:12Z</time>
      </trkpt>
      <trkpt lat="43.76296" lon="3.57143">
        <ele>357.26708984375</ele>
        <time>2014-03-16T10:18:18Z</time>
      </trkpt>
      <trkpt lat="43.76299" lon="3.57137">
        <ele>360.15112304688</ele>
        <time>2014-03-16T10:18:24Z</time>
      </trkpt>
      <trkpt lat="43.76296" lon="3.57127">
        <ele>360.63171386719</ele>
        <time>2014-03-16T10:18:34Z</time>
      </trkpt>
      <trkpt lat="43.76295" lon="3.57125">
        <ele>360.63171386719</ele>
        <time>2014-03-16T10:18:44Z</time>
      </trkpt>
      <trkpt lat="43.76293" lon="3.5711">
        <ele>362.07373046875</ele>
        <time>2014-03-16T10:18:54Z</time>
      </trkpt>
      <trkpt lat="43.76293" lon="3.57097">
        <ele>364.47692871094</ele>
        <time>2014-03-16T10:19:03Z</time>
      </trkpt>
      <trkpt lat="43.76293" lon="3.57096">
        <ele>364.47692871094</ele>
        <time>2014-03-16T10:19:04Z</time>
      </trkpt>
      <trkpt lat="43.76293" lon="3.5709">
        <ele>365.9189453125</ele>
        <time>2014-03-16T10:19:08Z</time>
      </trkpt>
      <trkpt lat="43.76295" lon="3.57079">
        <ele>367.36096191406</ele>
        <time>2014-03-16T10:19:16Z</time>
      </trkpt>
      <trkpt lat="43.76297" lon="3.57073">
        <ele>368.322265625</ele>
        <time>2014-03-16T10:19:21Z</time>
      </trkpt>
      <trkpt lat="43.76297" lon="3.57065">
        <ele>369.28369140625</ele>
        <time>2014-03-16T10:19:26Z</time>
      </trkpt>
      <trkpt lat="43.763" lon="3.57059">
        <ele>371.20629882812</ele>
        <time>2014-03-16T10:19:31Z</time>
      </trkpt>
      <trkpt lat="43.76303" lon="3.57048">
        <ele>373.60949707031</ele>
        <time>2014-03-16T10:19:40Z</time>
      </trkpt>
      <trkpt lat="43.76307" lon="3.57039">
        <ele>374.09008789062</ele>
        <time>2014-03-16T10:19:47Z</time>
      </trkpt>
      <trkpt lat="43.7631" lon="3.5703">
        <ele>376.49353027344</ele>
        <time>2014-03-16T10:19:54Z</time>
      </trkpt>
      <trkpt lat="43.76313" lon="3.57027">
        <ele>377.45483398438</ele>
        <time>2014-03-16T10:19:59Z</time>
      </trkpt>
      <trkpt lat="43.76315" lon="3.57023">
        <ele>378.89685058594</ele>
        <time>2014-03-16T10:20:03Z</time>
      </trkpt>
      <trkpt lat="43.76317" lon="3.57012">
        <ele>379.85803222656</ele>
        <time>2014-03-16T10:20:12Z</time>
      </trkpt>
      <trkpt lat="43.76318" lon="3.57007">
        <ele>380.81945800781</ele>
        <time>2014-03-16T10:20:16Z</time>
      </trkpt>
      <trkpt lat="43.76321" lon="3.57009">
        <ele>381.30004882812</ele>
        <time>2014-03-16T10:20:20Z</time>
      </trkpt>
      <trkpt lat="43.76326" lon="3.57017">
        <ele>383.70324707031</ele>
        <time>2014-03-16T10:20:29Z</time>
      </trkpt>
      <trkpt lat="43.76327" lon="3.57019">
        <ele>386.10668945312</ele>
        <time>2014-03-16T10:20:31Z</time>
      </trkpt>
      <trkpt lat="43.76334" lon="3.57028">
        <ele>388.029296875</ele>
        <time>2014-03-16T10:20:41Z</time>
      </trkpt>
      <trkpt lat="43.76335" lon="3.57033">
        <ele>386.58740234375</ele>
        <time>2014-03-16T10:20:44Z</time>
      </trkpt>
      <trkpt lat="43.76338" lon="3.5704">
        <ele>388.51000976562</ele>
        <time>2014-03-16T10:20:49Z</time>
      </trkpt>
      <trkpt lat="43.76338" lon="3.57045">
        <ele>388.51000976562</ele>
        <time>2014-03-16T10:20:52Z</time>
      </trkpt>
      <trkpt lat="43.76343" lon="3.57052">
        <ele>388.99060058594</ele>
        <time>2014-03-16T10:20:59Z</time>
      </trkpt>
      <trkpt lat="43.76347" lon="3.57055">
        <ele>389.95190429688</ele>
        <time>2014-03-16T10:21:03Z</time>
      </trkpt>
      <trkpt lat="43.76349" lon="3.57057">
        <ele>390.4326171875</ele>
        <time>2014-03-16T10:21:05Z</time>
      </trkpt>
      <trkpt lat="43.76353" lon="3.57057">
        <ele>390.4326171875</ele>
        <time>2014-03-16T10:21:10Z</time>
      </trkpt>
      <trkpt lat="43.76356" lon="3.57058">
        <ele>391.87451171875</ele>
        <time>2014-03-16T10:21:13Z</time>
      </trkpt>
      <trkpt lat="43.76363" lon="3.57058">
        <ele>393.79724121094</ele>
        <time>2014-03-16T10:21:21Z</time>
      </trkpt>
      <trkpt lat="43.76366" lon="3.57057">
        <ele>393.79724121094</ele>
        <time>2014-03-16T10:21:25Z</time>
      </trkpt>
      <trkpt lat="43.76374" lon="3.57055">
        <ele>396.20056152344</ele>
        <time>2014-03-16T10:21:34Z</time>
      </trkpt>
      <trkpt lat="43.76379" lon="3.57054">
        <ele>397.16174316406</ele>
        <time>2014-03-16T10:21:41Z</time>
      </trkpt>
      <trkpt lat="43.76385" lon="3.57055">
        <ele>398.12316894531</ele>
        <time>2014-03-16T10:21:47Z</time>
      </trkpt>
      <trkpt lat="43.76389" lon="3.57054">
        <ele>397.64245605469</ele>
        <time>2014-03-16T10:21:55Z</time>
      </trkpt>
      <trkpt lat="43.76389" lon="3.57054">
        <ele>400.52648925781</ele>
        <time>2014-03-16T10:22:56Z</time>
      </trkpt>
      <trkpt lat="43.76389" lon="3.57054">
        <ele>397.64245605469</ele>
        <time>2014-03-16T10:23:31Z</time>
      </trkpt>
      <trkpt lat="43.76396" lon="3.57055">
        <ele>398.60375976562</ele>
        <time>2014-03-16T10:24:32Z</time>
      </trkpt>
      <trkpt lat="43.764" lon="3.57055">
        <ele>400.0458984375</ele>
        <time>2014-03-16T10:24:35Z</time>
      </trkpt>
      <trkpt lat="43.76413" lon="3.57057">
        <ele>401.48779296875</ele>
        <time>2014-03-16T10:24:46Z</time>
      </trkpt>
      <trkpt lat="43.76424" lon="3.5706">
        <ele>403.41040039062</ele>
        <time>2014-03-16T10:24:56Z</time>
      </trkpt>
      <trkpt lat="43.76425" lon="3.57061">
        <ele>404.37170410156</ele>
        <time>2014-03-16T10:25:03Z</time>
      </trkpt>
      <trkpt lat="43.76427" lon="3.57062">
        <ele>405.3330078125</ele>
        <time>2014-03-16T10:25:10Z</time>
      </trkpt>
      <trkpt lat="43.76434" lon="3.57062">
        <ele>406.29431152344</ele>
        <time>2014-03-16T10:25:18Z</time>
      </trkpt>
      <trkpt lat="43.76445" lon="3.57064">
        <ele>406.77490234375</ele>
        <time>2014-03-16T10:25:27Z</time>
      </trkpt>
      <trkpt lat="43.76455" lon="3.57063">
        <ele>407.736328125</ele>
        <time>2014-03-16T10:25:36Z</time>
      </trkpt>
      <trkpt lat="43.76459" lon="3.57063">
        <ele>408.21704101562</ele>
        <time>2014-03-16T10:25:40Z</time>
      </trkpt>
      <trkpt lat="43.76468" lon="3.57063">
        <ele>409.17834472656</ele>
        <time>2014-03-16T10:25:49Z</time>
      </trkpt>
      <trkpt lat="43.76475" lon="3.5706">
        <ele>409.65905761719</ele>
        <time>2014-03-16T10:25:57Z</time>
      </trkpt>
      <trkpt lat="43.7648" lon="3.57057">
        <ele>410.1396484375</ele>
        <time>2014-03-16T10:26:02Z</time>
      </trkpt>
      <trkpt lat="43.76485" lon="3.57053">
        <ele>411.58166503906</ele>
        <time>2014-03-16T10:26:07Z</time>
      </trkpt>
      <trkpt lat="43.76489" lon="3.57048">
        <ele>413.50427246094</ele>
        <time>2014-03-16T10:26:12Z</time>
      </trkpt>
      <trkpt lat="43.76493" lon="3.57044">
        <ele>415.42687988281</ele>
        <time>2014-03-16T10:26:18Z</time>
      </trkpt>
      <trkpt lat="43.765" lon="3.57039">
        <ele>417.349609375</ele>
        <time>2014-03-16T10:26:27Z</time>
      </trkpt>
      <trkpt lat="43.76507" lon="3.57037">
        <ele>418.79150390625</ele>
        <time>2014-03-16T10:26:35Z</time>
      </trkpt>
      <trkpt lat="43.76507" lon="3.57036">
        <ele>418.79150390625</ele>
        <time>2014-03-16T10:26:36Z</time>
      </trkpt>
      <trkpt lat="43.76516" lon="3.57035">
        <ele>420.71411132812</ele>
        <time>2014-03-16T10:26:44Z</time>
      </trkpt>
      <trkpt lat="43.76527" lon="3.57034">
        <ele>421.67541503906</ele>
        <time>2014-03-16T10:26:53Z</time>
      </trkpt>
      <trkpt lat="43.76535" lon="3.57035">
        <ele>424.07873535156</ele>
        <time>2014-03-16T10:27:01Z</time>
      </trkpt>
      <trkpt lat="43.76536" lon="3.57036">
        <ele>425.04016113281</ele>
        <time>2014-03-16T10:27:03Z</time>
      </trkpt>
      <trkpt lat="43.76537" lon="3.57037">
        <ele>425.04016113281</ele>
        <time>2014-03-16T10:27:05Z</time>
      </trkpt>
      <trkpt lat="43.76541" lon="3.57036">
        <ele>426.48205566406</ele>
        <time>2014-03-16T10:27:09Z</time>
      </trkpt>
      <trkpt lat="43.7654" lon="3.57034">
        <ele>426.96276855469</ele>
        <time>2014-03-16T10:27:11Z</time>
      </trkpt>
      <trkpt lat="43.76538" lon="3.57031">
        <ele>427.92395019531</ele>
        <time>2014-03-16T10:27:14Z</time>
      </trkpt>
      <trkpt lat="43.76537" lon="3.57022">
        <ele>428.88537597656</ele>
        <time>2014-03-16T10:27:23Z</time>
      </trkpt>
      <trkpt lat="43.76539" lon="3.57023">
        <ele>428.88537597656</ele>
        <time>2014-03-16T10:27:26Z</time>
      </trkpt>
      <trkpt lat="43.76541" lon="3.57024">
        <ele>429.84655761719</ele>
        <time>2014-03-16T10:27:28Z</time>
      </trkpt>
      <trkpt lat="43.76546" lon="3.57027">
        <ele>431.28857421875</ele>
        <time>2014-03-16T10:27:33Z</time>
      </trkpt>
      <trkpt lat="43.76552" lon="3.5703">
        <ele>430.80798339844</ele>
        <time>2014-03-16T10:27:40Z</time>
      </trkpt>
      <trkpt lat="43.76554" lon="3.57032">
        <ele>432.25</ele>
        <time>2014-03-16T10:27:43Z</time>
      </trkpt>
      <trkpt lat="43.76555" lon="3.57029">
        <ele>432.73071289062</ele>
        <time>2014-03-16T10:27:45Z</time>
      </trkpt>
      <trkpt lat="43.76552" lon="3.57025">
        <ele>433.69189453125</ele>
        <time>2014-03-16T10:27:49Z</time>
      </trkpt>
      <trkpt lat="43.76549" lon="3.57022">
        <ele>434.6533203125</ele>
        <time>2014-03-16T10:27:53Z</time>
      </trkpt>
      <trkpt lat="43.76547" lon="3.5702">
        <ele>435.13391113281</ele>
        <time>2014-03-16T10:27:55Z</time>
      </trkpt>
      <trkpt lat="43.76547" lon="3.57015">
        <ele>436.57592773438</ele>
        <time>2014-03-16T10:28:02Z</time>
      </trkpt>
      <trkpt lat="43.76555" lon="3.57017">
        <ele>439.45971679688</ele>
        <time>2014-03-16T10:28:11Z</time>
      </trkpt>
      <trkpt lat="43.76556" lon="3.57017">
        <ele>439.9404296875</ele>
        <time>2014-03-16T10:28:12Z</time>
      </trkpt>
      <trkpt lat="43.76562" lon="3.57024">
        <ele>441.86315917969</ele>
        <time>2014-03-16T10:28:20Z</time>
      </trkpt>
      <trkpt lat="43.76564" lon="3.57025">
        <ele>442.34387207031</ele>
        <time>2014-03-16T10:28:22Z</time>
      </trkpt>
      <trkpt lat="43.76568" lon="3.57031">
        <ele>442.34387207031</ele>
        <time>2014-03-16T10:28:26Z</time>
      </trkpt>
      <trkpt lat="43.76574" lon="3.57036">
        <ele>442.34387207031</ele>
        <time>2014-03-16T10:28:33Z</time>
      </trkpt>
      <trkpt lat="43.76582" lon="3.57038">
        <ele>442.82446289062</ele>
        <time>2014-03-16T10:28:40Z</time>
      </trkpt>
      <trkpt lat="43.76589" lon="3.57035">
        <ele>444.7470703125</ele>
        <time>2014-03-16T10:28:46Z</time>
      </trkpt>
      <trkpt lat="43.76593" lon="3.57034">
        <ele>444.7470703125</ele>
        <time>2014-03-16T10:28:50Z</time>
      </trkpt>
      <trkpt lat="43.766" lon="3.57034">
        <ele>444.7470703125</ele>
        <time>2014-03-16T10:28:56Z</time>
      </trkpt>
      <trkpt lat="43.76606" lon="3.57028">
        <ele>446.66967773438</ele>
        <time>2014-03-16T10:29:03Z</time>
      </trkpt>
      <trkpt lat="43.76615" lon="3.5703">
        <ele>446.18908691406</ele>
        <time>2014-03-16T10:29:11Z</time>
      </trkpt>
      <trkpt lat="43.76621" lon="3.5703">
        <ele>446.18908691406</ele>
        <time>2014-03-16T10:29:17Z</time>
      </trkpt>
      <trkpt lat="43.76619" lon="3.57025">
        <ele>446.18908691406</ele>
        <time>2014-03-16T10:29:22Z</time>
      </trkpt>
      <trkpt lat="43.76621" lon="3.5702">
        <ele>446.66967773438</ele>
        <time>2014-03-16T10:29:27Z</time>
      </trkpt>
      <trkpt lat="43.76627" lon="3.5702">
        <ele>450.03442382812</ele>
        <time>2014-03-16T10:29:36Z</time>
      </trkpt>
      <trkpt lat="43.76623" lon="3.57016">
        <ele>451.47631835938</ele>
        <time>2014-03-16T10:29:40Z</time>
      </trkpt>
      <trkpt lat="43.76629" lon="3.57015">
        <ele>453.87963867188</ele>
        <time>2014-03-16T10:29:47Z</time>
      </trkpt>
      <trkpt lat="43.7663" lon="3.57014">
        <ele>453.87963867188</ele>
        <time>2014-03-16T10:29:48Z</time>
      </trkpt>
      <trkpt lat="43.76635" lon="3.57015">
        <ele>453.39892578125</ele>
        <time>2014-03-16T10:29:55Z</time>
      </trkpt>
      <trkpt lat="43.76633" lon="3.5701">
        <ele>454.36022949219</ele>
        <time>2014-03-16T10:30:02Z</time>
      </trkpt>
      <trkpt lat="43.76632" lon="3.57006">
        <ele>454.8408203125</ele>
        <time>2014-03-16T10:30:09Z</time>
      </trkpt>
      <trkpt lat="43.76638" lon="3.57003">
        <ele>455.80224609375</ele>
        <time>2014-03-16T10:30:15Z</time>
      </trkpt>
      <trkpt lat="43.76639" lon="3.57003">
        <ele>456.76354980469</ele>
        <time>2014-03-16T10:30:17Z</time>
      </trkpt>
      <trkpt lat="43.76643" lon="3.57006">
        <ele>458.20556640625</ele>
        <time>2014-03-16T10:30:22Z</time>
      </trkpt>
      <trkpt lat="43.76644" lon="3.57007">
        <ele>459.64758300781</ele>
        <time>2014-03-16T10:30:25Z</time>
      </trkpt>
      <trkpt lat="43.76647" lon="3.57009">
        <ele>461.57019042969</ele>
        <time>2014-03-16T10:30:32Z</time>
      </trkpt>
      <trkpt lat="43.76648" lon="3.56999">
        <ele>462.05078125</ele>
        <time>2014-03-16T10:30:39Z</time>
      </trkpt>
      <trkpt lat="43.76647" lon="3.56994">
        <ele>462.53137207031</ele>
        <time>2014-03-16T10:30:44Z</time>
      </trkpt>
      <trkpt lat="43.76644" lon="3.56992">
        <ele>463.49279785156</ele>
        <time>2014-03-16T10:30:51Z</time>
      </trkpt>
      <trkpt lat="43.76645" lon="3.56992">
        <ele>464.4541015625</ele>
        <time>2014-03-16T10:30:52Z</time>
      </trkpt>
      <trkpt lat="43.76653" lon="3.56997">
        <ele>465.89611816406</ele>
        <time>2014-03-16T10:31:00Z</time>
      </trkpt>
      <trkpt lat="43.76657" lon="3.56996">
        <ele>464.93481445312</ele>
        <time>2014-03-16T10:31:07Z</time>
      </trkpt>
      <trkpt lat="43.76655" lon="3.5699">
        <ele>465.89611816406</ele>
        <time>2014-03-16T10:31:12Z</time>
      </trkpt>
      <trkpt lat="43.76652" lon="3.56987">
        <ele>466.37670898438</ele>
        <time>2014-03-16T10:31:17Z</time>
      </trkpt>
      <trkpt lat="43.76648" lon="3.56981">
        <ele>468.78002929688</ele>
        <time>2014-03-16T10:31:26Z</time>
      </trkpt>
      <trkpt lat="43.76655" lon="3.56981">
        <ele>470.22192382812</ele>
        <time>2014-03-16T10:31:33Z</time>
      </trkpt>
      <trkpt lat="43.76657" lon="3.56983">
        <ele>471.18334960938</ele>
        <time>2014-03-16T10:31:35Z</time>
      </trkpt>
      <trkpt lat="43.76662" lon="3.5698">
        <ele>473.58666992188</ele>
        <time>2014-03-16T10:31:40Z</time>
      </trkpt>
      <trkpt lat="43.76667" lon="3.56982">
        <ele>475.98986816406</ele>
        <time>2014-03-16T10:31:47Z</time>
      </trkpt>
      <trkpt lat="43.76671" lon="3.56985">
        <ele>478.39318847656</ele>
        <time>2014-03-16T10:31:54Z</time>
      </trkpt>
      <trkpt lat="43.76674" lon="3.56982">
        <ele>478.39318847656</ele>
        <time>2014-03-16T10:32:00Z</time>
      </trkpt>
      <trkpt lat="43.76677" lon="3.56983">
        <ele>479.83508300781</ele>
        <time>2014-03-16T10:32:06Z</time>
      </trkpt>
      <trkpt lat="43.76678" lon="3.56989">
        <ele>480.79663085938</ele>
        <time>2014-03-16T10:32:14Z</time>
      </trkpt>
      <trkpt lat="43.76679" lon="3.56999">
        <ele>481.27722167969</ele>
        <time>2014-03-16T10:32:22Z</time>
      </trkpt>
      <trkpt lat="43.76681" lon="3.57001">
        <ele>482.23852539062</ele>
        <time>2014-03-16T10:32:25Z</time>
      </trkpt>
      <trkpt lat="43.76683" lon="3.5701">
        <ele>484.1611328125</ele>
        <time>2014-03-16T10:32:32Z</time>
      </trkpt>
      <trkpt lat="43.76684" lon="3.57018">
        <ele>485.60302734375</ele>
        <time>2014-03-16T10:32:39Z</time>
      </trkpt>
      <trkpt lat="43.76685" lon="3.57019">
        <ele>485.60302734375</ele>
        <time>2014-03-16T10:32:50Z</time>
      </trkpt>
      <trkpt lat="43.76685" lon="3.57019">
        <ele>480.31591796875</ele>
        <time>2014-03-16T10:32:53Z</time>
      </trkpt>
      <trkpt lat="43.76685" lon="3.57019">
        <ele>487.04504394531</ele>
        <time>2014-03-16T10:32:54Z</time>
      </trkpt>
      <trkpt lat="43.76685" lon="3.57019">
        <ele>483.19982910156</ele>
        <time>2014-03-16T10:32:56Z</time>
      </trkpt>
      <trkpt lat="43.76685" lon="3.57019">
        <ele>482.23852539062</ele>
        <time>2014-03-16T10:32:59Z</time>
      </trkpt>
      <trkpt lat="43.76685" lon="3.57019">
        <ele>483.19982910156</ele>
        <time>2014-03-16T10:33:19Z</time>
      </trkpt>
      <trkpt lat="43.76688" lon="3.57018">
        <ele>479.83508300781</ele>
        <time>2014-03-16T10:34:36Z</time>
      </trkpt>
      <trkpt lat="43.76688" lon="3.57017">
        <ele>481.7578125</ele>
        <time>2014-03-16T10:34:49Z</time>
      </trkpt>
      <trkpt lat="43.76688" lon="3.57018">
        <ele>481.7578125</ele>
        <time>2014-03-16T10:35:54Z</time>
      </trkpt>
      <trkpt lat="43.76689" lon="3.57023">
        <ele>481.27722167969</ele>
        <time>2014-03-16T10:37:11Z</time>
      </trkpt>
      <trkpt lat="43.7669" lon="3.57026">
        <ele>481.27722167969</ele>
        <time>2014-03-16T10:37:21Z</time>
      </trkpt>
      <trkpt lat="43.76692" lon="3.5703">
        <ele>483.19982910156</ele>
        <time>2014-03-16T10:37:26Z</time>
      </trkpt>
      <trkpt lat="43.76693" lon="3.57034">
        <ele>484.64184570312</ele>
        <time>2014-03-16T10:37:29Z</time>
      </trkpt>
      <trkpt lat="43.76693" lon="3.57038">
        <ele>486.08374023438</ele>
        <time>2014-03-16T10:37:33Z</time>
      </trkpt>
      <trkpt lat="43.76694" lon="3.57042">
        <ele>486.564453125</ele>
        <time>2014-03-16T10:37:36Z</time>
      </trkpt>
      <trkpt lat="43.76698" lon="3.5705">
        <ele>488.48718261719</ele>
        <time>2014-03-16T10:37:44Z</time>
      </trkpt>
      <trkpt lat="43.76704" lon="3.57054">
        <ele>488.00646972656</ele>
        <time>2014-03-16T10:37:51Z</time>
      </trkpt>
      <trkpt lat="43.76709" lon="3.57055">
        <ele>487.04504394531</ele>
        <time>2014-03-16T10:37:58Z</time>
      </trkpt>
      <trkpt lat="43.76714" lon="3.57058">
        <ele>486.08374023438</ele>
        <time>2014-03-16T10:38:05Z</time>
      </trkpt>
      <trkpt lat="43.76718" lon="3.5706">
        <ele>486.08374023438</ele>
        <time>2014-03-16T10:38:13Z</time>
      </trkpt>
      <trkpt lat="43.76725" lon="3.57062">
        <ele>487.04504394531</ele>
        <time>2014-03-16T10:38:22Z</time>
      </trkpt>
      <trkpt lat="43.76729" lon="3.5706">
        <ele>488.00646972656</ele>
        <time>2014-03-16T10:38:29Z</time>
      </trkpt>
      <trkpt lat="43.76733" lon="3.57059">
        <ele>489.92907714844</ele>
        <time>2014-03-16T10:38:36Z</time>
      </trkpt>
      <trkpt lat="43.76729" lon="3.57051">
        <ele>490.89038085938</ele>
        <time>2014-03-16T10:38:42Z</time>
      </trkpt>
      <trkpt lat="43.76727" lon="3.57044">
        <ele>491.85168457031</ele>
        <time>2014-03-16T10:38:48Z</time>
      </trkpt>
      <trkpt lat="43.7672" lon="3.57032">
        <ele>491.85168457031</ele>
        <time>2014-03-16T10:38:57Z</time>
      </trkpt>
      <trkpt lat="43.76718" lon="3.5702">
        <ele>492.33239746094</ele>
        <time>2014-03-16T10:39:04Z</time>
      </trkpt>
      <trkpt lat="43.76717" lon="3.57007">
        <ele>494.25500488281</ele>
        <time>2014-03-16T10:39:13Z</time>
      </trkpt>
      <trkpt lat="43.76716" lon="3.56999">
        <ele>496.177734375</ele>
        <time>2014-03-16T10:39:20Z</time>
      </trkpt>
      <trkpt lat="43.76716" lon="3.56996">
        <ele>497.61962890625</ele>
        <time>2014-03-16T10:39:25Z</time>
      </trkpt>
      <trkpt lat="43.76724" lon="3.56998">
        <ele>499.0615234375</ele>
        <time>2014-03-16T10:39:34Z</time>
      </trkpt>
      <trkpt lat="43.76724" lon="3.56996">
        <ele>499.54223632812</ele>
        <time>2014-03-16T10:39:35Z</time>
      </trkpt>
      <trkpt lat="43.76722" lon="3.56994">
        <ele>499.0615234375</ele>
        <time>2014-03-16T10:39:37Z</time>
      </trkpt>
      <trkpt lat="43.7672" lon="3.56989">
        <ele>499.54223632812</ele>
        <time>2014-03-16T10:39:43Z</time>
      </trkpt>
      <trkpt lat="43.76721" lon="3.56977">
        <ele>500.50354003906</ele>
        <time>2014-03-16T10:39:52Z</time>
      </trkpt>
      <trkpt lat="43.76726" lon="3.56968">
        <ele>501.46484375</ele>
        <time>2014-03-16T10:40:01Z</time>
      </trkpt>
      <trkpt lat="43.76727" lon="3.56967">
        <ele>501.46484375</ele>
        <time>2014-03-16T10:40:02Z</time>
      </trkpt>
      <trkpt lat="43.76731" lon="3.56968">
        <ele>503.8681640625</ele>
        <time>2014-03-16T10:40:09Z</time>
      </trkpt>
      <trkpt lat="43.76735" lon="3.56975">
        <ele>504.34887695312</ele>
        <time>2014-03-16T10:40:17Z</time>
      </trkpt>
      <trkpt lat="43.76738" lon="3.5698">
        <ele>505.79089355469</ele>
        <time>2014-03-16T10:40:24Z</time>
      </trkpt>
      <trkpt lat="43.76742" lon="3.56984">
        <ele>506.75207519531</ele>
        <time>2014-03-16T10:40:29Z</time>
      </trkpt>
      <trkpt lat="43.76747" lon="3.5699">
        <ele>507.71350097656</ele>
        <time>2014-03-16T10:40:37Z</time>
      </trkpt>
      <trkpt lat="43.76751" lon="3.56994">
        <ele>507.23278808594</ele>
        <time>2014-03-16T10:40:44Z</time>
      </trkpt>
      <trkpt lat="43.76755" lon="3.57003">
        <ele>508.67468261719</ele>
        <time>2014-03-16T10:40:52Z</time>
      </trkpt>
      <trkpt lat="43.76759" lon="3.57006">
        <ele>508.67468261719</ele>
        <time>2014-03-16T10:40:57Z</time>
      </trkpt>
      <trkpt lat="43.76764" lon="3.57011">
        <ele>509.15539550781</ele>
        <time>2014-03-16T10:41:03Z</time>
      </trkpt>
      <trkpt lat="43.76768" lon="3.57013">
        <ele>510.11669921875</ele>
        <time>2014-03-16T10:41:08Z</time>
      </trkpt>
      <trkpt lat="43.76775" lon="3.5702">
        <ele>511.07800292969</ele>
        <time>2014-03-16T10:41:16Z</time>
      </trkpt>
      <trkpt lat="43.76779" lon="3.57024">
        <ele>511.55871582031</ele>
        <time>2014-03-16T10:41:20Z</time>
      </trkpt>
      <trkpt lat="43.76784" lon="3.57029">
        <ele>512.03942871094</ele>
        <time>2014-03-16T10:41:28Z</time>
      </trkpt>
      <trkpt lat="43.76793" lon="3.57035">
        <ele>512.03942871094</ele>
        <time>2014-03-16T10:41:37Z</time>
      </trkpt>
      <trkpt lat="43.76803" lon="3.57038">
        <ele>512.03942871094</ele>
        <time>2014-03-16T10:41:45Z</time>
      </trkpt>
      <trkpt lat="43.76809" lon="3.57041">
        <ele>512.52001953125</ele>
        <time>2014-03-16T10:41:50Z</time>
      </trkpt>
      <trkpt lat="43.76814" lon="3.5704">
        <ele>513.4814453125</ele>
        <time>2014-03-16T10:41:55Z</time>
      </trkpt>
      <trkpt lat="43.76822" lon="3.57042">
        <ele>512.52001953125</ele>
        <time>2014-03-16T10:42:03Z</time>
      </trkpt>
      <trkpt lat="43.76827" lon="3.57047">
        <ele>511.55871582031</ele>
        <time>2014-03-16T10:42:10Z</time>
      </trkpt>
      <trkpt lat="43.76837" lon="3.57047">
        <ele>512.03942871094</ele>
        <time>2014-03-16T10:42:18Z</time>
      </trkpt>
      <trkpt lat="43.76842" lon="3.5705">
        <ele>511.07800292969</ele>
        <time>2014-03-16T10:42:24Z</time>
      </trkpt>
      <trkpt lat="43.76846" lon="3.57055">
        <ele>510.11669921875</ele>
        <time>2014-03-16T10:42:30Z</time>
      </trkpt>
      <trkpt lat="43.76853" lon="3.57059">
        <ele>509.63610839844</ele>
        <time>2014-03-16T10:42:36Z</time>
      </trkpt>
      <trkpt lat="43.76855" lon="3.57061">
        <ele>509.63610839844</ele>
        <time>2014-03-16T10:42:38Z</time>
      </trkpt>
      <trkpt lat="43.76859" lon="3.57065">
        <ele>510.11669921875</ele>
        <time>2014-03-16T10:42:42Z</time>
      </trkpt>
      <trkpt lat="43.76863" lon="3.5707">
        <ele>510.59729003906</ele>
        <time>2014-03-16T10:42:47Z</time>
      </trkpt>
      <trkpt lat="43.76868" lon="3.57072">
        <ele>511.55871582031</ele>
        <time>2014-03-16T10:42:51Z</time>
      </trkpt>
      <trkpt lat="43.76873" lon="3.57079">
        <ele>512.52001953125</ele>
        <time>2014-03-16T10:42:59Z</time>
      </trkpt>
      <trkpt lat="43.76876" lon="3.57085">
        <ele>513.00073242188</ele>
        <time>2014-03-16T10:43:03Z</time>
      </trkpt>
      <trkpt lat="43.76883" lon="3.57095">
        <ele>513.4814453125</ele>
        <time>2014-03-16T10:43:12Z</time>
      </trkpt>
      <trkpt lat="43.76885" lon="3.57097">
        <ele>513.4814453125</ele>
        <time>2014-03-16T10:43:15Z</time>
      </trkpt>
      <trkpt lat="43.76891" lon="3.57101">
        <ele>513.96203613281</ele>
        <time>2014-03-16T10:43:20Z</time>
      </trkpt>
      <trkpt lat="43.76897" lon="3.57108">
        <ele>514.44262695312</ele>
        <time>2014-03-16T10:43:28Z</time>
      </trkpt>
      <trkpt lat="43.76901" lon="3.57114">
        <ele>513.96203613281</ele>
        <time>2014-03-16T10:43:34Z</time>
      </trkpt>
      <trkpt lat="43.7691" lon="3.5712">
        <ele>513.96203613281</ele>
        <time>2014-03-16T10:43:42Z</time>
      </trkpt>
      <trkpt lat="43.76912" lon="3.57122">
        <ele>513.96203613281</ele>
        <time>2014-03-16T10:43:45Z</time>
      </trkpt>
      <trkpt lat="43.76915" lon="3.57132">
        <ele>513.96203613281</ele>
        <time>2014-03-16T10:43:51Z</time>
      </trkpt>
      <trkpt lat="43.76919" lon="3.57135">
        <ele>514.44262695312</ele>
        <time>2014-03-16T10:43:55Z</time>
      </trkpt>
      <trkpt lat="43.76927" lon="3.57145">
        <ele>513.96203613281</ele>
        <time>2014-03-16T10:44:04Z</time>
      </trkpt>
      <trkpt lat="43.76928" lon="3.57146">
        <ele>513.96203613281</ele>
        <time>2014-03-16T10:44:05Z</time>
      </trkpt>
      <trkpt lat="43.7693" lon="3.57153">
        <ele>513.00073242188</ele>
        <time>2014-03-16T10:44:10Z</time>
      </trkpt>
      <trkpt lat="43.76932" lon="3.57155">
        <ele>512.52001953125</ele>
        <time>2014-03-16T10:44:12Z</time>
      </trkpt>
      <trkpt lat="43.76936" lon="3.57159">
        <ele>512.03942871094</ele>
        <time>2014-03-16T10:44:16Z</time>
      </trkpt>
      <trkpt lat="43.76946" lon="3.57162">
        <ele>511.55871582031</ele>
        <time>2014-03-16T10:44:25Z</time>
      </trkpt>
      <trkpt lat="43.76948" lon="3.57163">
        <ele>511.55871582031</ele>
        <time>2014-03-16T10:44:29Z</time>
      </trkpt>
      <trkpt lat="43.76952" lon="3.57166">
        <ele>511.55871582031</ele>
        <time>2014-03-16T10:44:33Z</time>
      </trkpt>
      <trkpt lat="43.76955" lon="3.5717">
        <ele>512.03942871094</ele>
        <time>2014-03-16T10:44:38Z</time>
      </trkpt>
      <trkpt lat="43.76959" lon="3.57175">
        <ele>512.52001953125</ele>
        <time>2014-03-16T10:44:43Z</time>
      </trkpt>
      <trkpt lat="43.76966" lon="3.57181">
        <ele>513.00073242188</ele>
        <time>2014-03-16T10:44:50Z</time>
      </trkpt>
      <trkpt lat="43.76973" lon="3.57189">
        <ele>512.03942871094</ele>
        <time>2014-03-16T10:44:58Z</time>
      </trkpt>
      <trkpt lat="43.76977" lon="3.57192">
        <ele>511.55871582031</ele>
        <time>2014-03-16T10:45:02Z</time>
      </trkpt>
      <trkpt lat="43.76982" lon="3.57197">
        <ele>511.07800292969</ele>
        <time>2014-03-16T10:45:07Z</time>
      </trkpt>
      <trkpt lat="43.76988" lon="3.57203">
        <ele>511.55871582031</ele>
        <time>2014-03-16T10:45:14Z</time>
      </trkpt>
      <trkpt lat="43.76998" lon="3.57206">
        <ele>511.55871582031</ele>
        <time>2014-03-16T10:45:23Z</time>
      </trkpt>
      <trkpt lat="43.77001" lon="3.57206">
        <ele>511.07800292969</ele>
        <time>2014-03-16T10:45:25Z</time>
      </trkpt>
      <trkpt lat="43.77011" lon="3.5721">
        <ele>510.59729003906</ele>
        <time>2014-03-16T10:45:34Z</time>
      </trkpt>
      <trkpt lat="43.7702" lon="3.57211">
        <ele>511.07800292969</ele>
        <time>2014-03-16T10:45:42Z</time>
      </trkpt>
      <trkpt lat="43.77028" lon="3.57212">
        <ele>512.03942871094</ele>
        <time>2014-03-16T10:45:49Z</time>
      </trkpt>
      <trkpt lat="43.77035" lon="3.57213">
        <ele>513.96203613281</ele>
        <time>2014-03-16T10:45:56Z</time>
      </trkpt>
      <trkpt lat="43.77041" lon="3.57216">
        <ele>513.96203613281</ele>
        <time>2014-03-16T10:46:03Z</time>
      </trkpt>
      <trkpt lat="43.77049" lon="3.57215">
        <ele>513.96203613281</ele>
        <time>2014-03-16T10:46:11Z</time>
      </trkpt>
      <trkpt lat="43.77053" lon="3.57213">
        <ele>516.365234375</ele>
        <time>2014-03-16T10:46:18Z</time>
      </trkpt>
      <trkpt lat="43.7706" lon="3.57212">
        <ele>517.32666015625</ele>
        <time>2014-03-16T10:46:26Z</time>
      </trkpt>
      <trkpt lat="43.77066" lon="3.57212">
        <ele>517.80725097656</ele>
        <time>2014-03-16T10:46:32Z</time>
      </trkpt>
      <trkpt lat="43.77069" lon="3.5721">
        <ele>518.28784179688</ele>
        <time>2014-03-16T10:46:35Z</time>
      </trkpt>
      <trkpt lat="43.77076" lon="3.5721">
        <ele>518.7685546875</ele>
        <time>2014-03-16T10:46:42Z</time>
      </trkpt>
      <trkpt lat="43.7708" lon="3.57213">
        <ele>518.7685546875</ele>
        <time>2014-03-16T10:46:46Z</time>
      </trkpt>
      <trkpt lat="43.77089" lon="3.57211">
        <ele>518.7685546875</ele>
        <time>2014-03-16T10:46:54Z</time>
      </trkpt>
      <trkpt lat="43.77096" lon="3.57209">
        <ele>519.24926757812</ele>
        <time>2014-03-16T10:47:00Z</time>
      </trkpt>
      <trkpt lat="43.77098" lon="3.57208">
        <ele>519.72985839844</ele>
        <time>2014-03-16T10:47:02Z</time>
      </trkpt>
      <trkpt lat="43.77106" lon="3.57209">
        <ele>521.65258789062</ele>
        <time>2014-03-16T10:47:10Z</time>
      </trkpt>
      <trkpt lat="43.77116" lon="3.57209">
        <ele>520.21057128906</ele>
        <time>2014-03-16T10:47:18Z</time>
      </trkpt>
      <trkpt lat="43.77123" lon="3.57207">
        <ele>521.65258789062</ele>
        <time>2014-03-16T10:47:25Z</time>
      </trkpt>
      <trkpt lat="43.77127" lon="3.57205">
        <ele>522.61389160156</ele>
        <time>2014-03-16T10:47:29Z</time>
      </trkpt>
      <trkpt lat="43.77129" lon="3.57207">
        <ele>523.09460449219</ele>
        <time>2014-03-16T10:47:32Z</time>
      </trkpt>
      <trkpt lat="43.77138" lon="3.57205">
        <ele>523.09460449219</ele>
        <time>2014-03-16T10:47:39Z</time>
      </trkpt>
      <trkpt lat="43.77145" lon="3.57202">
        <ele>523.09460449219</ele>
        <time>2014-03-16T10:47:47Z</time>
      </trkpt>
      <trkpt lat="43.7715" lon="3.57197">
        <ele>524.53649902344</ele>
        <time>2014-03-16T10:47:53Z</time>
      </trkpt>
      <trkpt lat="43.7716" lon="3.57195">
        <ele>523.5751953125</ele>
        <time>2014-03-16T10:48:01Z</time>
      </trkpt>
      <trkpt lat="43.77167" lon="3.57197">
        <ele>522.61389160156</ele>
        <time>2014-03-16T10:48:09Z</time>
      </trkpt>
      <trkpt lat="43.77175" lon="3.57196">
        <ele>521.65258789062</ele>
        <time>2014-03-16T10:48:15Z</time>
      </trkpt>
      <trkpt lat="43.77178" lon="3.57197">
        <ele>520.69128417969</ele>
        <time>2014-03-16T10:48:19Z</time>
      </trkpt>
      <trkpt lat="43.77182" lon="3.57197">
        <ele>520.69128417969</ele>
        <time>2014-03-16T10:48:23Z</time>
      </trkpt>
      <trkpt lat="43.77191" lon="3.57198">
        <ele>520.21057128906</ele>
        <time>2014-03-16T10:48:32Z</time>
      </trkpt>
      <trkpt lat="43.77199" lon="3.57195">
        <ele>519.72985839844</ele>
        <time>2014-03-16T10:48:39Z</time>
      </trkpt>
      <trkpt lat="43.77207" lon="3.57196">
        <ele>519.24926757812</ele>
        <time>2014-03-16T10:48:46Z</time>
      </trkpt>
      <trkpt lat="43.77217" lon="3.57197">
        <ele>519.72985839844</ele>
        <time>2014-03-16T10:48:55Z</time>
      </trkpt>
      <trkpt lat="43.77226" lon="3.57199">
        <ele>520.69128417969</ele>
        <time>2014-03-16T10:49:04Z</time>
      </trkpt>
      <trkpt lat="43.77231" lon="3.572">
        <ele>521.65258789062</ele>
        <time>2014-03-16T10:49:08Z</time>
      </trkpt>
      <trkpt lat="43.7724" lon="3.57201">
        <ele>520.69128417969</ele>
        <time>2014-03-16T10:49:15Z</time>
      </trkpt>
      <trkpt lat="43.77248" lon="3.57202">
        <ele>522.61389160156</ele>
        <time>2014-03-16T10:49:23Z</time>
      </trkpt>
      <trkpt lat="43.77252" lon="3.57203">
        <ele>524.53649902344</ele>
        <time>2014-03-16T10:49:30Z</time>
      </trkpt>
      <trkpt lat="43.77258" lon="3.57202">
        <ele>524.05578613281</ele>
        <time>2014-03-16T10:49:37Z</time>
      </trkpt>
      <trkpt lat="43.77263" lon="3.57204">
        <ele>526.45910644531</ele>
        <time>2014-03-16T10:49:45Z</time>
      </trkpt>
      <trkpt lat="43.77266" lon="3.57205">
        <ele>527.42041015625</ele>
        <time>2014-03-16T10:49:53Z</time>
      </trkpt>
      <trkpt lat="43.77267" lon="3.57209">
        <ele>527.90100097656</ele>
        <time>2014-03-16T10:50:00Z</time>
      </trkpt>
      <trkpt lat="43.77271" lon="3.57211">
        <ele>527.90100097656</ele>
        <time>2014-03-16T10:50:11Z</time>
      </trkpt>
      <trkpt lat="43.77277" lon="3.57218">
        <ele>530.30444335938</ele>
        <time>2014-03-16T10:50:21Z</time>
      </trkpt>
      <trkpt lat="43.77278" lon="3.57222">
        <ele>532.22705078125</ele>
        <time>2014-03-16T10:50:24Z</time>
      </trkpt>
      <trkpt lat="43.77278" lon="3.57223">
        <ele>532.22705078125</ele>
        <time>2014-03-16T10:50:25Z</time>
      </trkpt>
      <trkpt lat="43.77279" lon="3.57228">
        <ele>532.70776367188</ele>
        <time>2014-03-16T10:50:32Z</time>
      </trkpt>
      <trkpt lat="43.77279" lon="3.5723">
        <ele>532.70776367188</ele>
        <time>2014-03-16T10:50:33Z</time>
      </trkpt>
      <trkpt lat="43.77283" lon="3.57235">
        <ele>532.70776367188</ele>
        <time>2014-03-16T10:50:40Z</time>
      </trkpt>
      <trkpt lat="43.7728" lon="3.57241">
        <ele>535.59155273438</ele>
        <time>2014-03-16T10:50:46Z</time>
      </trkpt>
      <trkpt lat="43.77278" lon="3.57243">
        <ele>537.03369140625</ele>
        <time>2014-03-16T10:50:48Z</time>
      </trkpt>
      <trkpt lat="43.77277" lon="3.57249">
        <ele>534.63037109375</ele>
        <time>2014-03-16T10:50:54Z</time>
      </trkpt>
      <trkpt lat="43.77277" lon="3.57251">
        <ele>535.11096191406</ele>
        <time>2014-03-16T10:50:56Z</time>
      </trkpt>
      <trkpt lat="43.77278" lon="3.57257">
        <ele>539.43688964844</ele>
        <time>2014-03-16T10:51:01Z</time>
      </trkpt>
      <trkpt lat="43.77278" lon="3.57258">
        <ele>538.95629882812</ele>
        <time>2014-03-16T10:51:02Z</time>
      </trkpt>
      <trkpt lat="43.77278" lon="3.57263">
        <ele>538.47570800781</ele>
        <time>2014-03-16T10:51:12Z</time>
      </trkpt>
      <trkpt lat="43.77277" lon="3.57263">
        <ele>538.95629882812</ele>
        <time>2014-03-16T10:51:16Z</time>
      </trkpt>
      <trkpt lat="43.77277" lon="3.57263">
        <ele>541.84020996094</ele>
        <time>2014-03-16T10:51:21Z</time>
      </trkpt>
      <trkpt lat="43.77277" lon="3.57263">
        <ele>545.20483398438</ele>
        <time>2014-03-16T10:51:23Z</time>
      </trkpt>
      <trkpt lat="43.77277" lon="3.57261">
        <ele>540.87890625</ele>
        <time>2014-03-16T10:51:26Z</time>
      </trkpt>
      <trkpt lat="43.77276" lon="3.57261">
        <ele>539.91760253906</ele>
        <time>2014-03-16T10:51:28Z</time>
      </trkpt>
      <trkpt lat="43.77276" lon="3.5726">
        <ele>537.51428222656</ele>
        <time>2014-03-16T10:51:34Z</time>
      </trkpt>
      <trkpt lat="43.77276" lon="3.5726">
        <ele>540.39831542969</ele>
        <time>2014-03-16T10:51:39Z</time>
      </trkpt>
      <trkpt lat="43.77275" lon="3.57263">
        <ele>538.95629882812</ele>
        <time>2014-03-16T10:51:51Z</time>
      </trkpt>
      <trkpt lat="43.77275" lon="3.57264">
        <ele>537.51428222656</ele>
        <time>2014-03-16T10:51:54Z</time>
      </trkpt>
      <trkpt lat="43.77274" lon="3.57265">
        <ele>538.95629882812</ele>
        <time>2014-03-16T10:51:57Z</time>
      </trkpt>
      <trkpt lat="43.77273" lon="3.57265">
        <ele>537.51428222656</ele>
        <time>2014-03-16T10:52:09Z</time>
      </trkpt>
      <trkpt lat="43.77274" lon="3.57266">
        <ele>536.55310058594</ele>
        <time>2014-03-16T10:52:11Z</time>
      </trkpt>
      <trkpt lat="43.77277" lon="3.57267">
        <ele>538.47570800781</ele>
        <time>2014-03-16T10:52:16Z</time>
      </trkpt>
      <trkpt lat="43.77277" lon="3.57266">
        <ele>539.91760253906</ele>
        <time>2014-03-16T10:52:19Z</time>
      </trkpt>
      <trkpt lat="43.77277" lon="3.57266">
        <ele>541.35949707031</ele>
        <time>2014-03-16T10:52:27Z</time>
      </trkpt>
      <trkpt lat="43.77277" lon="3.57266">
        <ele>538.47570800781</ele>
        <time>2014-03-16T10:52:30Z</time>
      </trkpt>
      <trkpt lat="43.77277" lon="3.57266">
        <ele>537.99499511719</ele>
        <time>2014-03-16T10:52:31Z</time>
      </trkpt>
      <trkpt lat="43.77278" lon="3.57266">
        <ele>539.43688964844</ele>
        <time>2014-03-16T10:52:33Z</time>
      </trkpt>
      <trkpt lat="43.77279" lon="3.57266">
        <ele>535.59155273438</ele>
        <time>2014-03-16T10:52:39Z</time>
      </trkpt>
      <trkpt lat="43.77281" lon="3.57266">
        <ele>538.95629882812</ele>
        <time>2014-03-16T10:52:43Z</time>
      </trkpt>
      <trkpt lat="43.77282" lon="3.57268">
        <ele>540.39831542969</ele>
        <time>2014-03-16T10:52:45Z</time>
      </trkpt>
      <trkpt lat="43.77284" lon="3.57268">
        <ele>538.47570800781</ele>
        <time>2014-03-16T10:52:47Z</time>
      </trkpt>
      <trkpt lat="43.77284" lon="3.5727">
        <ele>539.91760253906</ele>
        <time>2014-03-16T10:52:50Z</time>
      </trkpt>
      <trkpt lat="43.77287" lon="3.57271">
        <ele>537.51428222656</ele>
        <time>2014-03-16T10:52:53Z</time>
      </trkpt>
      <trkpt lat="43.7729" lon="3.57272">
        <ele>540.87890625</ele>
        <time>2014-03-16T10:52:55Z</time>
      </trkpt>
      <trkpt lat="43.77296" lon="3.57274">
        <ele>539.91760253906</ele>
        <time>2014-03-16T10:53:01Z</time>
      </trkpt>
      <trkpt lat="43.77301" lon="3.57272">
        <ele>540.87890625</ele>
        <time>2014-03-16T10:53:05Z</time>
      </trkpt>
      <trkpt lat="43.77307" lon="3.57274">
        <ele>538.95629882812</ele>
        <time>2014-03-16T10:53:12Z</time>
      </trkpt>
      <trkpt lat="43.77309" lon="3.57275">
        <ele>543.28210449219</ele>
        <time>2014-03-16T10:53:14Z</time>
      </trkpt>
      <trkpt lat="43.77314" lon="3.57276">
        <ele>539.91760253906</ele>
        <time>2014-03-16T10:53:18Z</time>
      </trkpt>
      <trkpt lat="43.77315" lon="3.57276">
        <ele>540.39831542969</ele>
        <time>2014-03-16T10:53:19Z</time>
      </trkpt>
      <trkpt lat="43.77321" lon="3.57277">
        <ele>540.87890625</ele>
        <time>2014-03-16T10:53:25Z</time>
      </trkpt>
      <trkpt lat="43.77328" lon="3.57275">
        <ele>541.35949707031</ele>
        <time>2014-03-16T10:53:31Z</time>
      </trkpt>
      <trkpt lat="43.77332" lon="3.57276">
        <ele>542.32092285156</ele>
        <time>2014-03-16T10:53:35Z</time>
      </trkpt>
      <trkpt lat="43.77339" lon="3.57271">
        <ele>543.28210449219</ele>
        <time>2014-03-16T10:53:43Z</time>
      </trkpt>
      <trkpt lat="43.77342" lon="3.57271">
        <ele>543.76281738281</ele>
        <time>2014-03-16T10:53:46Z</time>
      </trkpt>
      <trkpt lat="43.77353" lon="3.57273">
        <ele>544.72424316406</ele>
        <time>2014-03-16T10:53:55Z</time>
      </trkpt>
      <trkpt lat="43.77361" lon="3.57272">
        <ele>546.16625976562</ele>
        <time>2014-03-16T10:54:02Z</time>
      </trkpt>
      <trkpt lat="43.77371" lon="3.57271">
        <ele>545.20483398438</ele>
        <time>2014-03-16T10:54:09Z</time>
      </trkpt>
      <trkpt lat="43.77379" lon="3.57271">
        <ele>545.685546875</ele>
        <time>2014-03-16T10:54:16Z</time>
      </trkpt>
      <trkpt lat="43.7738" lon="3.57271">
        <ele>550.01147460938</ele>
        <time>2014-03-16T10:54:17Z</time>
      </trkpt>
      <trkpt lat="43.77382" lon="3.57271">
        <ele>549.05004882812</ele>
        <time>2014-03-16T10:54:18Z</time>
      </trkpt>
      <trkpt lat="43.77384" lon="3.57271">
        <ele>546.64685058594</ele>
        <time>2014-03-16T10:54:20Z</time>
      </trkpt>
      <trkpt lat="43.77388" lon="3.57272">
        <ele>545.685546875</ele>
        <time>2014-03-16T10:54:23Z</time>
      </trkpt>
      <trkpt lat="43.77394" lon="3.57275">
        <ele>545.685546875</ele>
        <time>2014-03-16T10:54:28Z</time>
      </trkpt>
      <trkpt lat="43.774" lon="3.57278">
        <ele>546.64685058594</ele>
        <time>2014-03-16T10:54:33Z</time>
      </trkpt>
      <trkpt lat="43.77402" lon="3.57278">
        <ele>545.685546875</ele>
        <time>2014-03-16T10:54:34Z</time>
      </trkpt>
      <trkpt lat="43.77405" lon="3.5728">
        <ele>547.12744140625</ele>
        <time>2014-03-16T10:54:37Z</time>
      </trkpt>
      <trkpt lat="43.77408" lon="3.57282">
        <ele>543.76281738281</ele>
        <time>2014-03-16T10:54:40Z</time>
      </trkpt>
      <trkpt lat="43.7741" lon="3.57282">
        <ele>543.76281738281</ele>
        <time>2014-03-16T10:54:41Z</time>
      </trkpt>
      <trkpt lat="43.77411" lon="3.57282">
        <ele>548.5693359375</ele>
        <time>2014-03-16T10:54:42Z</time>
      </trkpt>
      <trkpt lat="43.77412" lon="3.57283">
        <ele>552.41455078125</ele>
        <time>2014-03-16T10:54:43Z</time>
      </trkpt>
      <trkpt lat="43.77414" lon="3.57283">
        <ele>550.4921875</ele>
        <time>2014-03-16T10:54:44Z</time>
      </trkpt>
      <trkpt lat="43.77415" lon="3.57283">
        <ele>549.53076171875</ele>
        <time>2014-03-16T10:54:45Z</time>
      </trkpt>
      <trkpt lat="43.77417" lon="3.57282">
        <ele>548.0888671875</ele>
        <time>2014-03-16T10:54:47Z</time>
      </trkpt>
      <trkpt lat="43.77425" lon="3.57284">
        <ele>549.05004882812</ele>
        <time>2014-03-16T10:54:54Z</time>
      </trkpt>
      <trkpt lat="43.77425" lon="3.57283">
        <ele>546.64685058594</ele>
        <time>2014-03-16T10:54:57Z</time>
      </trkpt>
      <trkpt lat="43.77428" lon="3.57282">
        <ele>550.01147460938</ele>
        <time>2014-03-16T10:55:05Z</time>
      </trkpt>
      <trkpt lat="43.77428" lon="3.57282">
        <ele>546.64685058594</ele>
        <time>2014-03-16T10:55:10Z</time>
      </trkpt>
      <trkpt lat="43.77428" lon="3.57282">
        <ele>546.64685058594</ele>
        <time>2014-03-16T10:55:11Z</time>
      </trkpt>
      <trkpt lat="43.77428" lon="3.57282">
        <ele>548.5693359375</ele>
        <time>2014-03-16T10:55:39Z</time>
      </trkpt>
      <trkpt lat="43.77428" lon="3.57282">
        <ele>545.20483398438</ele>
        <time>2014-03-16T10:55:49Z</time>
      </trkpt>
      <trkpt lat="43.77428" lon="3.57282">
        <ele>549.05004882812</ele>
        <time>2014-03-16T10:55:50Z</time>
      </trkpt>
      <trkpt lat="43.77428" lon="3.57281">
        <ele>548.0888671875</ele>
        <time>2014-03-16T10:55:51Z</time>
      </trkpt>
      <trkpt lat="43.77428" lon="3.57282">
        <ele>546.16625976562</ele>
        <time>2014-03-16T10:56:06Z</time>
      </trkpt>
      <trkpt lat="43.77428" lon="3.57282">
        <ele>547.12744140625</ele>
        <time>2014-03-16T10:56:07Z</time>
      </trkpt>
      <trkpt lat="43.77433" lon="3.57281">
        <ele>547.12744140625</ele>
        <time>2014-03-16T10:56:11Z</time>
      </trkpt>
      <trkpt lat="43.77441" lon="3.57279">
        <ele>548.0888671875</ele>
        <time>2014-03-16T10:56:18Z</time>
      </trkpt>
      <trkpt lat="43.7745" lon="3.57276">
        <ele>547.12744140625</ele>
        <time>2014-03-16T10:56:24Z</time>
      </trkpt>
      <trkpt lat="43.77457" lon="3.57272">
        <ele>545.20483398438</ele>
        <time>2014-03-16T10:56:31Z</time>
      </trkpt>
      <trkpt lat="43.77462" lon="3.57271">
        <ele>544.72424316406</ele>
        <time>2014-03-16T10:56:35Z</time>
      </trkpt>
      <trkpt lat="43.77465" lon="3.57272">
        <ele>546.64685058594</ele>
        <time>2014-03-16T10:56:38Z</time>
      </trkpt>
      <trkpt lat="43.77469" lon="3.5727">
        <ele>545.685546875</ele>
        <time>2014-03-16T10:56:43Z</time>
      </trkpt>
      <trkpt lat="43.77472" lon="3.57269">
        <ele>547.60815429688</ele>
        <time>2014-03-16T10:56:46Z</time>
      </trkpt>
      <trkpt lat="43.77475" lon="3.57267">
        <ele>543.76281738281</ele>
        <time>2014-03-16T10:56:49Z</time>
      </trkpt>
      <trkpt lat="43.77476" lon="3.57266">
        <ele>544.72424316406</ele>
        <time>2014-03-16T10:56:50Z</time>
      </trkpt>
      <trkpt lat="43.77478" lon="3.57263">
        <ele>544.24365234375</ele>
        <time>2014-03-16T10:56:53Z</time>
      </trkpt>
      <trkpt lat="43.7748" lon="3.57255">
        <ele>542.32092285156</ele>
        <time>2014-03-16T10:56:57Z</time>
      </trkpt>
      <trkpt lat="43.77481" lon="3.57246">
        <ele>541.84020996094</ele>
        <time>2014-03-16T10:57:01Z</time>
      </trkpt>
      <trkpt lat="43.77482" lon="3.57245">
        <ele>538.47570800781</ele>
        <time>2014-03-16T10:57:02Z</time>
      </trkpt>
      <trkpt lat="43.77483" lon="3.57242">
        <ele>537.51428222656</ele>
        <time>2014-03-16T10:57:04Z</time>
      </trkpt>
      <trkpt lat="43.77485" lon="3.57229">
        <ele>537.99499511719</ele>
        <time>2014-03-16T10:57:12Z</time>
      </trkpt>
      <trkpt lat="43.77485" lon="3.57226">
        <ele>535.11096191406</ele>
        <time>2014-03-16T10:57:14Z</time>
      </trkpt>
      <trkpt lat="43.77485" lon="3.57224">
        <ele>534.63037109375</ele>
        <time>2014-03-16T10:57:15Z</time>
      </trkpt>
      <trkpt lat="43.77485" lon="3.57221">
        <ele>534.14965820312</ele>
        <time>2014-03-16T10:57:17Z</time>
      </trkpt>
      <trkpt lat="43.77483" lon="3.57213">
        <ele>537.99499511719</ele>
        <time>2014-03-16T10:57:21Z</time>
      </trkpt>
      <trkpt lat="43.77483" lon="3.57205">
        <ele>534.14965820312</ele>
        <time>2014-03-16T10:57:25Z</time>
      </trkpt>
      <trkpt lat="43.77483" lon="3.572">
        <ele>530.78515625</ele>
        <time>2014-03-16T10:57:29Z</time>
      </trkpt>
      <trkpt lat="43.77479" lon="3.57185">
        <ele>535.11096191406</ele>
        <time>2014-03-16T10:57:36Z</time>
      </trkpt>
      <trkpt lat="43.77479" lon="3.57184">
        <ele>536.55310058594</ele>
        <time>2014-03-16T10:57:37Z</time>
      </trkpt>
      <trkpt lat="43.77476" lon="3.57178">
        <ele>532.70776367188</ele>
        <time>2014-03-16T10:57:41Z</time>
      </trkpt>
      <trkpt lat="43.77476" lon="3.57176">
        <ele>532.70776367188</ele>
        <time>2014-03-16T10:57:42Z</time>
      </trkpt>
      <trkpt lat="43.77476" lon="3.57161">
        <ele>531.26574707031</ele>
        <time>2014-03-16T10:57:51Z</time>
      </trkpt>
      <trkpt lat="43.77475" lon="3.57155">
        <ele>533.6689453125</ele>
        <time>2014-03-16T10:57:54Z</time>
      </trkpt>
      <trkpt lat="43.7747" lon="3.57143">
        <ele>533.18835449219</ele>
        <time>2014-03-16T10:58:02Z</time>
      </trkpt>
      <trkpt lat="43.77467" lon="3.57141">
        <ele>533.6689453125</ele>
        <time>2014-03-16T10:58:04Z</time>
      </trkpt>
      <trkpt lat="43.77463" lon="3.57131">
        <ele>531.26574707031</ele>
        <time>2014-03-16T10:58:12Z</time>
      </trkpt>
      <trkpt lat="43.77462" lon="3.5713">
        <ele>530.78515625</ele>
        <time>2014-03-16T10:58:14Z</time>
      </trkpt>
      <trkpt lat="43.7746" lon="3.57129">
        <ele>530.78515625</ele>
        <time>2014-03-16T10:58:23Z</time>
      </trkpt>
      <trkpt lat="43.7746" lon="3.57129">
        <ele>534.14965820312</ele>
        <time>2014-03-16T10:58:38Z</time>
      </trkpt>
      <trkpt lat="43.7746" lon="3.57129">
        <ele>530.78515625</ele>
        <time>2014-03-16T10:58:41Z</time>
      </trkpt>
      <trkpt lat="43.7746" lon="3.57129">
        <ele>534.63037109375</ele>
        <time>2014-03-16T10:58:46Z</time>
      </trkpt>
      <trkpt lat="43.7746" lon="3.57129">
        <ele>532.70776367188</ele>
        <time>2014-03-16T10:58:57Z</time>
      </trkpt>
      <trkpt lat="43.7746" lon="3.57129">
        <ele>534.14965820312</ele>
        <time>2014-03-16T10:59:00Z</time>
      </trkpt>
      <trkpt lat="43.7746" lon="3.57129">
        <ele>530.30444335938</ele>
        <time>2014-03-16T10:59:04Z</time>
      </trkpt>
      <trkpt lat="43.7746" lon="3.57129">
        <ele>531.74633789062</ele>
        <time>2014-03-16T10:59:19Z</time>
      </trkpt>
      <trkpt lat="43.7746" lon="3.57129">
        <ele>535.11096191406</ele>
        <time>2014-03-16T10:59:30Z</time>
      </trkpt>
      <trkpt lat="43.77459" lon="3.57128">
        <ele>535.59155273438</ele>
        <time>2014-03-16T10:59:31Z</time>
      </trkpt>
      <trkpt lat="43.77458" lon="3.57125">
        <ele>533.6689453125</ele>
        <time>2014-03-16T10:59:33Z</time>
      </trkpt>
      <trkpt lat="43.77456" lon="3.57122">
        <ele>532.70776367188</ele>
        <time>2014-03-16T10:59:35Z</time>
      </trkpt>
      <trkpt lat="43.77452" lon="3.57115">
        <ele>535.59155273438</ele>
        <time>2014-03-16T10:59:41Z</time>
      </trkpt>
      <trkpt lat="43.77451" lon="3.57114">
        <ele>536.07238769531</ele>
        <time>2014-03-16T10:59:42Z</time>
      </trkpt>
      <trkpt lat="43.77443" lon="3.57105">
        <ele>534.63037109375</ele>
        <time>2014-03-16T10:59:50Z</time>
      </trkpt>
      <trkpt lat="43.77443" lon="3.57104">
        <ele>535.11096191406</ele>
        <time>2014-03-16T10:59:51Z</time>
      </trkpt>
      <trkpt lat="43.77438" lon="3.57101">
        <ele>539.43688964844</ele>
        <time>2014-03-16T10:59:55Z</time>
      </trkpt>
      <trkpt lat="43.77429" lon="3.57096">
        <ele>532.70776367188</ele>
        <time>2014-03-16T11:00:04Z</time>
      </trkpt>
      <trkpt lat="43.77427" lon="3.57096">
        <ele>532.70776367188</ele>
        <time>2014-03-16T11:00:05Z</time>
      </trkpt>
      <trkpt lat="43.77424" lon="3.57093">
        <ele>537.51428222656</ele>
        <time>2014-03-16T11:00:08Z</time>
      </trkpt>
      <trkpt lat="43.77413" lon="3.57093">
        <ele>539.43688964844</ele>
        <time>2014-03-16T11:00:14Z</time>
      </trkpt>
      <trkpt lat="43.77411" lon="3.57092">
        <ele>539.91760253906</ele>
        <time>2014-03-16T11:00:16Z</time>
      </trkpt>
      <trkpt lat="43.774" lon="3.57086">
        <ele>541.84020996094</ele>
        <time>2014-03-16T11:00:26Z</time>
      </trkpt>
      <trkpt lat="43.774" lon="3.57085">
        <ele>541.84020996094</ele>
        <time>2014-03-16T11:00:27Z</time>
      </trkpt>
      <trkpt lat="43.77394" lon="3.57081">
        <ele>538.95629882812</ele>
        <time>2014-03-16T11:00:32Z</time>
      </trkpt>
      <trkpt lat="43.77389" lon="3.57077">
        <ele>542.32092285156</ele>
        <time>2014-03-16T11:00:37Z</time>
      </trkpt>
      <trkpt lat="43.77382" lon="3.57073">
        <ele>543.76281738281</ele>
        <time>2014-03-16T11:00:44Z</time>
      </trkpt>
      <trkpt lat="43.77382" lon="3.57072">
        <ele>543.76281738281</ele>
        <time>2014-03-16T11:00:45Z</time>
      </trkpt>
      <trkpt lat="43.77374" lon="3.57065">
        <ele>544.24365234375</ele>
        <time>2014-03-16T11:00:52Z</time>
      </trkpt>
      <trkpt lat="43.77368" lon="3.5706">
        <ele>545.685546875</ele>
        <time>2014-03-16T11:00:59Z</time>
      </trkpt>
      <trkpt lat="43.77362" lon="3.57054">
        <ele>546.16625976562</ele>
        <time>2014-03-16T11:01:05Z</time>
      </trkpt>
      <trkpt lat="43.77354" lon="3.57048">
        <ele>546.16625976562</ele>
        <time>2014-03-16T11:01:13Z</time>
      </trkpt>
      <trkpt lat="43.77349" lon="3.57044">
        <ele>543.76281738281</ele>
        <time>2014-03-16T11:01:19Z</time>
      </trkpt>
      <trkpt lat="43.77345" lon="3.5704">
        <ele>545.685546875</ele>
        <time>2014-03-16T11:01:24Z</time>
      </trkpt>
      <trkpt lat="43.77345" lon="3.57038">
        <ele>545.20483398438</ele>
        <time>2014-03-16T11:01:25Z</time>
      </trkpt>
      <trkpt lat="43.77342" lon="3.57029">
        <ele>545.20483398438</ele>
        <time>2014-03-16T11:01:32Z</time>
      </trkpt>
      <trkpt lat="43.77339" lon="3.57017">
        <ele>547.12744140625</ele>
        <time>2014-03-16T11:01:41Z</time>
      </trkpt>
      <trkpt lat="43.77338" lon="3.57009">
        <ele>549.53076171875</ele>
        <time>2014-03-16T11:01:47Z</time>
      </trkpt>
      <trkpt lat="43.77334" lon="3.56996">
        <ele>549.05004882812</ele>
        <time>2014-03-16T11:01:56Z</time>
      </trkpt>
      <trkpt lat="43.77333" lon="3.56994">
        <ele>550.4921875</ele>
        <time>2014-03-16T11:01:57Z</time>
      </trkpt>
      <trkpt lat="43.77332" lon="3.56989">
        <ele>552.89526367188</ele>
        <time>2014-03-16T11:02:01Z</time>
      </trkpt>
      <trkpt lat="43.7733" lon="3.56981">
        <ele>552.41455078125</ele>
        <time>2014-03-16T11:02:06Z</time>
      </trkpt>
      <trkpt lat="43.77322" lon="3.56968">
        <ele>553.85668945312</ele>
        <time>2014-03-16T11:02:15Z</time>
      </trkpt>
      <trkpt lat="43.7732" lon="3.56958">
        <ele>556.74072265625</ele>
        <time>2014-03-16T11:02:21Z</time>
      </trkpt>
      <trkpt lat="43.77317" lon="3.56945">
        <ele>558.18286132812</ele>
        <time>2014-03-16T11:02:29Z</time>
      </trkpt>
      <trkpt lat="43.77315" lon="3.56942">
        <ele>559.14404296875</ele>
        <time>2014-03-16T11:02:32Z</time>
      </trkpt>
      <trkpt lat="43.77314" lon="3.56939">
        <ele>559.62475585938</ele>
        <time>2014-03-16T11:02:34Z</time>
      </trkpt>
      <trkpt lat="43.77313" lon="3.56933">
        <ele>556.74072265625</ele>
        <time>2014-03-16T11:02:40Z</time>
      </trkpt>
      <trkpt lat="43.77312" lon="3.56931">
        <ele>556.26000976562</ele>
        <time>2014-03-16T11:02:42Z</time>
      </trkpt>
      <trkpt lat="43.77309" lon="3.56918">
        <ele>555.779296875</ele>
        <time>2014-03-16T11:02:51Z</time>
      </trkpt>
      <trkpt lat="43.77307" lon="3.56916">
        <ele>556.26000976562</ele>
        <time>2014-03-16T11:02:53Z</time>
      </trkpt>
      <trkpt lat="43.77305" lon="3.56906">
        <ele>559.62475585938</ele>
        <time>2014-03-16T11:02:58Z</time>
      </trkpt>
      <trkpt lat="43.77299" lon="3.56894">
        <ele>561.06665039062</ele>
        <time>2014-03-16T11:03:05Z</time>
      </trkpt>
      <trkpt lat="43.77297" lon="3.56885">
        <ele>563.95043945312</ele>
        <time>2014-03-16T11:03:10Z</time>
      </trkpt>
      <trkpt lat="43.77292" lon="3.56878">
        <ele>562.9892578125</ele>
        <time>2014-03-16T11:03:15Z</time>
      </trkpt>
      <trkpt lat="43.77289" lon="3.56873">
        <ele>564.91186523438</ele>
        <time>2014-03-16T11:03:18Z</time>
      </trkpt>
      <trkpt lat="43.77288" lon="3.56869">
        <ele>564.43115234375</ele>
        <time>2014-03-16T11:03:20Z</time>
      </trkpt>
      <trkpt lat="43.77283" lon="3.56859">
        <ele>562.50854492188</ele>
        <time>2014-03-16T11:03:27Z</time>
      </trkpt>
      <trkpt lat="43.77279" lon="3.56855">
        <ele>565.87329101562</ele>
        <time>2014-03-16T11:03:30Z</time>
      </trkpt>
      <trkpt lat="43.77277" lon="3.56852">
        <ele>566.83447265625</ele>
        <time>2014-03-16T11:03:32Z</time>
      </trkpt>
      <trkpt lat="43.77274" lon="3.56846">
        <ele>568.75708007812</ele>
        <time>2014-03-16T11:03:37Z</time>
      </trkpt>
      <trkpt lat="43.77268" lon="3.56839">
        <ele>568.2763671875</ele>
        <time>2014-03-16T11:03:43Z</time>
      </trkpt>
      <trkpt lat="43.77266" lon="3.56835">
        <ele>570.19897460938</ele>
        <time>2014-03-16T11:03:46Z</time>
      </trkpt>
      <trkpt lat="43.77267" lon="3.56831">
        <ele>571.64086914062</ele>
        <time>2014-03-16T11:03:53Z</time>
      </trkpt>
      <trkpt lat="43.7726" lon="3.56823">
        <ele>573.08325195312</ele>
        <time>2014-03-16T11:04:01Z</time>
      </trkpt>
      <trkpt lat="43.77256" lon="3.56817">
        <ele>570.19897460938</ele>
        <time>2014-03-16T11:04:06Z</time>
      </trkpt>
      <trkpt lat="43.77251" lon="3.56808">
        <ele>571.16040039062</ele>
        <time>2014-03-16T11:04:14Z</time>
      </trkpt>
      <trkpt lat="43.77247" lon="3.56801">
        <ele>574.52514648438</ele>
        <time>2014-03-16T11:04:19Z</time>
      </trkpt>
      <trkpt lat="43.7724" lon="3.56792">
        <ele>577.4091796875</ele>
        <time>2014-03-16T11:04:27Z</time>
      </trkpt>
      <trkpt lat="43.77234" lon="3.56786">
        <ele>576.92846679688</ele>
        <time>2014-03-16T11:04:33Z</time>
      </trkpt>
      <trkpt lat="43.7723" lon="3.56783">
        <ele>577.8896484375</ele>
        <time>2014-03-16T11:04:37Z</time>
      </trkpt>
      <trkpt lat="43.77226" lon="3.5678">
        <ele>583.1767578125</ele>
        <time>2014-03-16T11:04:41Z</time>
      </trkpt>
      <trkpt lat="43.77225" lon="3.56778">
        <ele>578.37036132812</ele>
        <time>2014-03-16T11:04:43Z</time>
      </trkpt>
      <trkpt lat="43.77222" lon="3.56776">
        <ele>577.4091796875</ele>
        <time>2014-03-16T11:04:45Z</time>
      </trkpt>
      <trkpt lat="43.77221" lon="3.56775">
        <ele>578.85107421875</ele>
        <time>2014-03-16T11:04:46Z</time>
      </trkpt>
      <trkpt lat="43.7722" lon="3.56773">
        <ele>579.81225585938</ele>
        <time>2014-03-16T11:04:48Z</time>
      </trkpt>
      <trkpt lat="43.77217" lon="3.56771">
        <ele>582.6962890625</ele>
        <time>2014-03-16T11:04:51Z</time>
      </trkpt>
      <trkpt lat="43.77211" lon="3.56768">
        <ele>581.25439453125</ele>
        <time>2014-03-16T11:04:56Z</time>
      </trkpt>
      <trkpt lat="43.7721" lon="3.56767">
        <ele>581.25439453125</ele>
        <time>2014-03-16T11:04:57Z</time>
      </trkpt>
      <trkpt lat="43.77207" lon="3.56766">
        <ele>583.1767578125</ele>
        <time>2014-03-16T11:05:00Z</time>
      </trkpt>
      <trkpt lat="43.77205" lon="3.56765">
        <ele>581.73486328125</ele>
        <time>2014-03-16T11:05:02Z</time>
      </trkpt>
      <trkpt lat="43.77199" lon="3.56763">
        <ele>585.099609375</ele>
        <time>2014-03-16T11:05:07Z</time>
      </trkpt>
      <trkpt lat="43.77191" lon="3.5676">
        <ele>586.54150390625</ele>
        <time>2014-03-16T11:05:15Z</time>
      </trkpt>
      <trkpt lat="43.77183" lon="3.56761">
        <ele>587.50268554688</ele>
        <time>2014-03-16T11:05:22Z</time>
      </trkpt>
      <trkpt lat="43.77176" lon="3.56763">
        <ele>589.90625</ele>
        <time>2014-03-16T11:05:28Z</time>
      </trkpt>
      <trkpt lat="43.77173" lon="3.56765">
        <ele>590.86743164062</ele>
        <time>2014-03-16T11:05:31Z</time>
      </trkpt>
      <trkpt lat="43.77168" lon="3.56769">
        <ele>588.46435546875</ele>
        <time>2014-03-16T11:05:36Z</time>
      </trkpt>
      <trkpt lat="43.77164" lon="3.56771">
        <ele>591.34814453125</ele>
        <time>2014-03-16T11:05:39Z</time>
      </trkpt>
      <trkpt lat="43.77161" lon="3.56772">
        <ele>591.82885742188</ele>
        <time>2014-03-16T11:05:41Z</time>
      </trkpt>
      <trkpt lat="43.7716" lon="3.56776">
        <ele>593.27075195312</ele>
        <time>2014-03-16T11:05:44Z</time>
      </trkpt>
      <trkpt lat="43.77156" lon="3.56779">
        <ele>592.79028320312</ele>
        <time>2014-03-16T11:05:48Z</time>
      </trkpt>
      <trkpt lat="43.77152" lon="3.56779">
        <ele>594.23217773438</ele>
        <time>2014-03-16T11:05:51Z</time>
      </trkpt>
      <trkpt lat="43.77151" lon="3.56779">
        <ele>594.23217773438</ele>
        <time>2014-03-16T11:05:52Z</time>
      </trkpt>
      <trkpt lat="43.77149" lon="3.56779">
        <ele>593.27075195312</ele>
        <time>2014-03-16T11:05:54Z</time>
      </trkpt>
      <trkpt lat="43.77143" lon="3.56775">
        <ele>595.193359375</ele>
        <time>2014-03-16T11:06:01Z</time>
      </trkpt>
      <trkpt lat="43.77137" lon="3.5677">
        <ele>591.34814453125</ele>
        <time>2014-03-16T11:06:09Z</time>
      </trkpt>
      <trkpt lat="43.77134" lon="3.56769">
        <ele>594.71264648438</ele>
        <time>2014-03-16T11:06:13Z</time>
      </trkpt>
      <trkpt lat="43.77133" lon="3.56768">
        <ele>595.193359375</ele>
        <time>2014-03-16T11:06:14Z</time>
      </trkpt>
      <trkpt lat="43.77127" lon="3.56757">
        <ele>597.5966796875</ele>
        <time>2014-03-16T11:06:21Z</time>
      </trkpt>
      <trkpt lat="43.77123" lon="3.56752">
        <ele>598.07739257812</ele>
        <time>2014-03-16T11:06:25Z</time>
      </trkpt>
      <trkpt lat="43.77122" lon="3.56749">
        <ele>598.55786132812</ele>
        <time>2014-03-16T11:06:28Z</time>
      </trkpt>
      <trkpt lat="43.7712" lon="3.56741">
        <ele>600.48071289062</ele>
        <time>2014-03-16T11:06:35Z</time>
      </trkpt>
      <trkpt lat="43.77114" lon="3.56729">
        <ele>600.48071289062</ele>
        <time>2014-03-16T11:06:42Z</time>
      </trkpt>
      <trkpt lat="43.77111" lon="3.56725">
        <ele>601.92260742188</ele>
        <time>2014-03-16T11:06:45Z</time>
      </trkpt>
      <trkpt lat="43.77109" lon="3.56719">
        <ele>604.326171875</ele>
        <time>2014-03-16T11:06:51Z</time>
      </trkpt>
      <trkpt lat="43.77108" lon="3.56717">
        <ele>604.326171875</ele>
        <time>2014-03-16T11:06:52Z</time>
      </trkpt>
      <trkpt lat="43.77104" lon="3.56706">
        <ele>604.326171875</ele>
        <time>2014-03-16T11:06:59Z</time>
      </trkpt>
      <trkpt lat="43.77099" lon="3.56698">
        <ele>606.72924804688</ele>
        <time>2014-03-16T11:07:05Z</time>
      </trkpt>
      <trkpt lat="43.77098" lon="3.56694">
        <ele>605.76806640625</ele>
        <time>2014-03-16T11:07:08Z</time>
      </trkpt>
      <trkpt lat="43.77094" lon="3.56687">
        <ele>605.28735351562</ele>
        <time>2014-03-16T11:07:13Z</time>
      </trkpt>
      <trkpt lat="43.7709" lon="3.56672">
        <ele>608.17138671875</ele>
        <time>2014-03-16T11:07:22Z</time>
      </trkpt>
      <trkpt lat="43.77085" lon="3.56659">
        <ele>608.17138671875</ele>
        <time>2014-03-16T11:07:30Z</time>
      </trkpt>
      <trkpt lat="43.77084" lon="3.56656">
        <ele>607.69067382812</ele>
        <time>2014-03-16T11:07:32Z</time>
      </trkpt>
      <trkpt lat="43.77082" lon="3.56645">
        <ele>610.09375</ele>
        <time>2014-03-16T11:07:38Z</time>
      </trkpt>
      <trkpt lat="43.77078" lon="3.56634">
        <ele>612.4970703125</ele>
        <time>2014-03-16T11:07:45Z</time>
      </trkpt>
      <trkpt lat="43.77075" lon="3.56628">
        <ele>613.93896484375</ele>
        <time>2014-03-16T11:07:49Z</time>
      </trkpt>
      <trkpt lat="43.77067" lon="3.56614">
        <ele>614.41967773438</ele>
        <time>2014-03-16T11:07:59Z</time>
      </trkpt>
      <trkpt lat="43.77063" lon="3.56605">
        <ele>616.82299804688</ele>
        <time>2014-03-16T11:08:05Z</time>
      </trkpt>
      <trkpt lat="43.77059" lon="3.56587">
        <ele>617.3037109375</ele>
        <time>2014-03-16T11:08:15Z</time>
      </trkpt>
      <trkpt lat="43.77058" lon="3.56583">
        <ele>618.74560546875</ele>
        <time>2014-03-16T11:08:18Z</time>
      </trkpt>
      <trkpt lat="43.77056" lon="3.56578">
        <ele>615.38110351562</ele>
        <time>2014-03-16T11:08:21Z</time>
      </trkpt>
      <trkpt lat="43.77056" lon="3.56576">
        <ele>616.34228515625</ele>
        <time>2014-03-16T11:08:22Z</time>
      </trkpt>
      <trkpt lat="43.77055" lon="3.56574">
        <ele>620.18774414062</ele>
        <time>2014-03-16T11:08:24Z</time>
      </trkpt>
      <trkpt lat="43.77053" lon="3.56571">
        <ele>621.14916992188</ele>
        <time>2014-03-16T11:08:26Z</time>
      </trkpt>
      <trkpt lat="43.77049" lon="3.56557">
        <ele>619.70703125</ele>
        <time>2014-03-16T11:08:34Z</time>
      </trkpt>
      <trkpt lat="43.77046" lon="3.56551">
        <ele>624.513671875</ele>
        <time>2014-03-16T11:08:38Z</time>
      </trkpt>
      <trkpt lat="43.77046" lon="3.5655">
        <ele>624.03295898438</ele>
        <time>2014-03-16T11:08:39Z</time>
      </trkpt>
      <trkpt lat="43.77044" lon="3.56544">
        <ele>624.03295898438</ele>
        <time>2014-03-16T11:08:43Z</time>
      </trkpt>
      <trkpt lat="43.77041" lon="3.56535">
        <ele>627.39770507812</ele>
        <time>2014-03-16T11:08:49Z</time>
      </trkpt>
      <trkpt lat="43.77038" lon="3.56526">
        <ele>623.55249023438</ele>
        <time>2014-03-16T11:08:54Z</time>
      </trkpt>
      <trkpt lat="43.77036" lon="3.56523">
        <ele>626.9169921875</ele>
        <time>2014-03-16T11:08:56Z</time>
      </trkpt>
      <trkpt lat="43.77031" lon="3.56512">
        <ele>629.32006835938</ele>
        <time>2014-03-16T11:09:04Z</time>
      </trkpt>
      <trkpt lat="43.77028" lon="3.56499">
        <ele>629.80078125</ele>
        <time>2014-03-16T11:09:12Z</time>
      </trkpt>
      <trkpt lat="43.77022" lon="3.56485">
        <ele>630.76220703125</ele>
        <time>2014-03-16T11:09:20Z</time>
      </trkpt>
      <trkpt lat="43.77016" lon="3.56472">
        <ele>631.24291992188</ele>
        <time>2014-03-16T11:09:28Z</time>
      </trkpt>
      <trkpt lat="43.77014" lon="3.56468">
        <ele>631.72338867188</ele>
        <time>2014-03-16T11:09:31Z</time>
      </trkpt>
      <trkpt lat="43.77009" lon="3.56453">
        <ele>634.12670898438</ele>
        <time>2014-03-16T11:09:40Z</time>
      </trkpt>
      <trkpt lat="43.77009" lon="3.56451">
        <ele>634.12670898438</ele>
        <time>2014-03-16T11:09:41Z</time>
      </trkpt>
      <trkpt lat="43.77003" lon="3.56435">
        <ele>635.08813476562</ele>
        <time>2014-03-16T11:09:51Z</time>
      </trkpt>
      <trkpt lat="43.76997" lon="3.56421">
        <ele>635.08813476562</ele>
        <time>2014-03-16T11:09:59Z</time>
      </trkpt>
      <trkpt lat="43.76996" lon="3.56418">
        <ele>635.56860351562</ele>
        <time>2014-03-16T11:10:01Z</time>
      </trkpt>
      <trkpt lat="43.76993" lon="3.56408">
        <ele>637.0107421875</ele>
        <time>2014-03-16T11:10:08Z</time>
      </trkpt>
      <trkpt lat="43.76991" lon="3.56403">
        <ele>637.0107421875</ele>
        <time>2014-03-16T11:10:11Z</time>
      </trkpt>
      <trkpt lat="43.76989" lon="3.56398">
        <ele>637.49145507812</ele>
        <time>2014-03-16T11:10:15Z</time>
      </trkpt>
      <trkpt lat="43.76988" lon="3.56396">
        <ele>637.49145507812</ele>
        <time>2014-03-16T11:10:17Z</time>
      </trkpt>
      <trkpt lat="43.76987" lon="3.56381">
        <ele>638.93359375</ele>
        <time>2014-03-16T11:10:26Z</time>
      </trkpt>
      <trkpt lat="43.76987" lon="3.5638">
        <ele>638.93359375</ele>
        <time>2014-03-16T11:10:27Z</time>
      </trkpt>
      <trkpt lat="43.76987" lon="3.56375">
        <ele>639.4140625</ele>
        <time>2014-03-16T11:10:35Z</time>
      </trkpt>
      <trkpt lat="43.76992" lon="3.56368">
        <ele>640.37548828125</ele>
        <time>2014-03-16T11:10:44Z</time>
      </trkpt>
      <trkpt lat="43.76992" lon="3.56368">
        <ele>640.37548828125</ele>
        <time>2014-03-16T11:10:57Z</time>
      </trkpt>
      <trkpt lat="43.76991" lon="3.56369">
        <ele>638.45288085938</ele>
        <time>2014-03-16T11:11:12Z</time>
      </trkpt>
      <trkpt lat="43.76991" lon="3.56366">
        <ele>639.4140625</ele>
        <time>2014-03-16T11:11:49Z</time>
      </trkpt>
      <trkpt lat="43.76992" lon="3.56366">
        <ele>636.5302734375</ele>
        <time>2014-03-16T11:12:55Z</time>
      </trkpt>
      <trkpt lat="43.76992" lon="3.56366">
        <ele>639.4140625</ele>
        <time>2014-03-16T11:12:58Z</time>
      </trkpt>
      <trkpt lat="43.76992" lon="3.56366">
        <ele>637.49145507812</ele>
        <time>2014-03-16T11:13:01Z</time>
      </trkpt>
      <trkpt lat="43.76992" lon="3.56366">
        <ele>637.97216796875</ele>
        <time>2014-03-16T11:13:10Z</time>
      </trkpt>
      <trkpt lat="43.76992" lon="3.56366">
        <ele>640.85595703125</ele>
        <time>2014-03-16T11:13:51Z</time>
      </trkpt>
      <trkpt lat="43.76992" lon="3.56366">
        <ele>639.89477539062</ele>
        <time>2014-03-16T11:14:38Z</time>
      </trkpt>
      <trkpt lat="43.76992" lon="3.56366">
        <ele>638.93359375</ele>
        <time>2014-03-16T11:14:51Z</time>
      </trkpt>
      <trkpt lat="43.76992" lon="3.56366">
        <ele>640.85595703125</ele>
        <time>2014-03-16T11:15:14Z</time>
      </trkpt>
      <trkpt lat="43.7699" lon="3.56368">
        <ele>640.37548828125</ele>
        <time>2014-03-16T11:15:35Z</time>
      </trkpt>
      <trkpt lat="43.76989" lon="3.56369">
        <ele>638.45288085938</ele>
        <time>2014-03-16T11:15:48Z</time>
      </trkpt>
      <trkpt lat="43.76989" lon="3.56369">
        <ele>637.0107421875</ele>
        <time>2014-03-16T11:15:57Z</time>
      </trkpt>
      <trkpt lat="43.76989" lon="3.56369">
        <ele>638.45288085938</ele>
        <time>2014-03-16T11:16:00Z</time>
      </trkpt>
      <trkpt lat="43.76989" lon="3.56367">
        <ele>636.04956054688</ele>
        <time>2014-03-16T11:16:53Z</time>
      </trkpt>
      <trkpt lat="43.76989" lon="3.56366">
        <ele>638.93359375</ele>
        <time>2014-03-16T11:16:57Z</time>
      </trkpt>
      <trkpt lat="43.76989" lon="3.56366">
        <ele>637.0107421875</ele>
        <time>2014-03-16T11:17:01Z</time>
      </trkpt>
      <trkpt lat="43.76988" lon="3.56365">
        <ele>639.89477539062</ele>
        <time>2014-03-16T11:17:20Z</time>
      </trkpt>
      <trkpt lat="43.76986" lon="3.56364">
        <ele>638.45288085938</ele>
        <time>2014-03-16T11:17:23Z</time>
      </trkpt>
      <trkpt lat="43.76978" lon="3.56351">
        <ele>637.0107421875</ele>
        <time>2014-03-16T11:17:32Z</time>
      </trkpt>
      <trkpt lat="43.76974" lon="3.56347">
        <ele>637.49145507812</ele>
        <time>2014-03-16T11:17:35Z</time>
      </trkpt>
      <trkpt lat="43.76965" lon="3.56337">
        <ele>636.5302734375</ele>
        <time>2014-03-16T11:17:44Z</time>
      </trkpt>
      <trkpt lat="43.76963" lon="3.56334">
        <ele>637.0107421875</ele>
        <time>2014-03-16T11:17:46Z</time>
      </trkpt>
      <trkpt lat="43.7696" lon="3.56329">
        <ele>634.607421875</ele>
        <time>2014-03-16T11:17:50Z</time>
      </trkpt>
      <trkpt lat="43.76956" lon="3.56324">
        <ele>637.0107421875</ele>
        <time>2014-03-16T11:17:54Z</time>
      </trkpt>
      <trkpt lat="43.76953" lon="3.56317">
        <ele>637.0107421875</ele>
        <time>2014-03-16T11:17:59Z</time>
      </trkpt>
      <trkpt lat="43.76946" lon="3.56307">
        <ele>638.93359375</ele>
        <time>2014-03-16T11:18:07Z</time>
      </trkpt>
      <trkpt lat="43.76941" lon="3.56301">
        <ele>637.97216796875</ele>
        <time>2014-03-16T11:18:12Z</time>
      </trkpt>
      <trkpt lat="43.7694" lon="3.56299">
        <ele>637.49145507812</ele>
        <time>2014-03-16T11:18:14Z</time>
      </trkpt>
      <trkpt lat="43.76932" lon="3.56286">
        <ele>638.93359375</ele>
        <time>2014-03-16T11:18:23Z</time>
      </trkpt>
      <trkpt lat="43.76927" lon="3.56272">
        <ele>639.89477539062</ele>
        <time>2014-03-16T11:18:32Z</time>
      </trkpt>
      <trkpt lat="43.76923" lon="3.56255">
        <ele>640.37548828125</ele>
        <time>2014-03-16T11:18:42Z</time>
      </trkpt>
      <trkpt lat="43.76922" lon="3.5625">
        <ele>639.4140625</ele>
        <time>2014-03-16T11:18:46Z</time>
      </trkpt>
      <trkpt lat="43.76924" lon="3.56243">
        <ele>640.37548828125</ele>
        <time>2014-03-16T11:18:50Z</time>
      </trkpt>
      <trkpt lat="43.76926" lon="3.5623">
        <ele>639.89477539062</ele>
        <time>2014-03-16T11:18:58Z</time>
      </trkpt>
      <trkpt lat="43.76928" lon="3.56215">
        <ele>641.33666992188</ele>
        <time>2014-03-16T11:19:07Z</time>
      </trkpt>
      <trkpt lat="43.76929" lon="3.56208">
        <ele>641.8173828125</ele>
        <time>2014-03-16T11:19:13Z</time>
      </trkpt>
      <trkpt lat="43.7693" lon="3.56191">
        <ele>642.77880859375</ele>
        <time>2014-03-16T11:19:22Z</time>
      </trkpt>
      <trkpt lat="43.76928" lon="3.56182">
        <ele>642.77880859375</ele>
        <time>2014-03-16T11:19:27Z</time>
      </trkpt>
      <trkpt lat="43.76927" lon="3.56176">
        <ele>643.25927734375</ele>
        <time>2014-03-16T11:19:31Z</time>
      </trkpt>
      <trkpt lat="43.76929" lon="3.56169">
        <ele>643.25927734375</ele>
        <time>2014-03-16T11:19:35Z</time>
      </trkpt>
      <trkpt lat="43.76931" lon="3.56159">
        <ele>643.25927734375</ele>
        <time>2014-03-16T11:19:42Z</time>
      </trkpt>
      <trkpt lat="43.76934" lon="3.56152">
        <ele>644.701171875</ele>
        <time>2014-03-16T11:19:45Z</time>
      </trkpt>
      <trkpt lat="43.76931" lon="3.56139">
        <ele>645.18188476562</ele>
        <time>2014-03-16T11:19:52Z</time>
      </trkpt>
      <trkpt lat="43.76923" lon="3.56129">
        <ele>644.220703125</ele>
        <time>2014-03-16T11:19:59Z</time>
      </trkpt>
      <trkpt lat="43.7692" lon="3.56127">
        <ele>644.701171875</ele>
        <time>2014-03-16T11:20:02Z</time>
      </trkpt>
      <trkpt lat="43.76907" lon="3.56126">
        <ele>644.701171875</ele>
        <time>2014-03-16T11:20:09Z</time>
      </trkpt>
      <trkpt lat="43.76899" lon="3.56121">
        <ele>644.701171875</ele>
        <time>2014-03-16T11:20:16Z</time>
      </trkpt>
      <trkpt lat="43.76894" lon="3.56117">
        <ele>646.14331054688</ele>
        <time>2014-03-16T11:20:21Z</time>
      </trkpt>
      <trkpt lat="43.76888" lon="3.56107">
        <ele>643.73999023438</ele>
        <time>2014-03-16T11:20:29Z</time>
      </trkpt>
      <trkpt lat="43.76885" lon="3.56102">
        <ele>644.701171875</ele>
        <time>2014-03-16T11:20:33Z</time>
      </trkpt>
      <trkpt lat="43.76883" lon="3.56092">
        <ele>645.18188476562</ele>
        <time>2014-03-16T11:20:39Z</time>
      </trkpt>
      <trkpt lat="43.76883" lon="3.56086">
        <ele>645.66259765625</ele>
        <time>2014-03-16T11:20:43Z</time>
      </trkpt>
      <trkpt lat="43.76885" lon="3.56079">
        <ele>642.77880859375</ele>
        <time>2014-03-16T11:20:47Z</time>
      </trkpt>
      <trkpt lat="43.76883" lon="3.56063">
        <ele>646.14331054688</ele>
        <time>2014-03-16T11:20:55Z</time>
      </trkpt>
      <trkpt lat="43.76881" lon="3.56055">
        <ele>646.14331054688</ele>
        <time>2014-03-16T11:20:59Z</time>
      </trkpt>
      <trkpt lat="43.76872" lon="3.5604">
        <ele>646.14331054688</ele>
        <time>2014-03-16T11:21:09Z</time>
      </trkpt>
      <trkpt lat="43.76871" lon="3.56039">
        <ele>646.14331054688</ele>
        <time>2014-03-16T11:21:10Z</time>
      </trkpt>
      <trkpt lat="43.76862" lon="3.56031">
        <ele>648.06591796875</ele>
        <time>2014-03-16T11:21:18Z</time>
      </trkpt>
      <trkpt lat="43.76855" lon="3.56027">
        <ele>645.18188476562</ele>
        <time>2014-03-16T11:21:23Z</time>
      </trkpt>
      <trkpt lat="43.76844" lon="3.5602">
        <ele>644.220703125</ele>
        <time>2014-03-16T11:21:32Z</time>
      </trkpt>
      <trkpt lat="43.76839" lon="3.56015">
        <ele>645.66259765625</ele>
        <time>2014-03-16T11:21:39Z</time>
      </trkpt>
      <trkpt lat="43.76834" lon="3.56022">
        <ele>645.18188476562</ele>
        <time>2014-03-16T11:21:46Z</time>
      </trkpt>
      <trkpt lat="43.76833" lon="3.56023">
        <ele>646.14331054688</ele>
        <time>2014-03-16T11:21:47Z</time>
      </trkpt>
      <trkpt lat="43.76833" lon="3.56027">
        <ele>647.1044921875</ele>
        <time>2014-03-16T11:21:50Z</time>
      </trkpt>
      <trkpt lat="43.76834" lon="3.56038">
        <ele>649.02709960938</ele>
        <time>2014-03-16T11:21:57Z</time>
      </trkpt>
      <trkpt lat="43.76835" lon="3.56041">
        <ele>648.54638671875</ele>
        <time>2014-03-16T11:21:59Z</time>
      </trkpt>
      <trkpt lat="43.76832" lon="3.56047">
        <ele>650.46923828125</ele>
        <time>2014-03-16T11:22:06Z</time>
      </trkpt>
      <trkpt lat="43.76831" lon="3.5605">
        <ele>650.46923828125</ele>
        <time>2014-03-16T11:22:09Z</time>
      </trkpt>
      <trkpt lat="43.7683" lon="3.56059">
        <ele>652.87255859375</ele>
        <time>2014-03-16T11:22:15Z</time>
      </trkpt>
      <trkpt lat="43.7683" lon="3.5606">
        <ele>652.39184570312</ele>
        <time>2014-03-16T11:22:16Z</time>
      </trkpt>
      <trkpt lat="43.76831" lon="3.56069">
        <ele>654.79516601562</ele>
        <time>2014-03-16T11:22:21Z</time>
      </trkpt>
      <trkpt lat="43.76829" lon="3.56077">
        <ele>655.27587890625</ele>
        <time>2014-03-16T11:22:27Z</time>
      </trkpt>
      <trkpt lat="43.76823" lon="3.56081">
        <ele>656.23706054688</ele>
        <time>2014-03-16T11:22:32Z</time>
      </trkpt>
      <trkpt lat="43.76822" lon="3.56082">
        <ele>656.23706054688</ele>
        <time>2014-03-16T11:22:33Z</time>
      </trkpt>
      <trkpt lat="43.76819" lon="3.56084">
        <ele>657.67919921875</ele>
        <time>2014-03-16T11:22:36Z</time>
      </trkpt>
      <trkpt lat="43.76814" lon="3.56085">
        <ele>660.08227539062</ele>
        <time>2014-03-16T11:22:40Z</time>
      </trkpt>
      <trkpt lat="43.76806" lon="3.5609">
        <ele>662.00512695312</ele>
        <time>2014-03-16T11:22:48Z</time>
      </trkpt>
      <trkpt lat="43.76802" lon="3.56095">
        <ele>663.92749023438</ele>
        <time>2014-03-16T11:22:53Z</time>
      </trkpt>
      <trkpt lat="43.76796" lon="3.561">
        <ele>664.88891601562</ele>
        <time>2014-03-16T11:23:00Z</time>
      </trkpt>
      <trkpt lat="43.76793" lon="3.56102">
        <ele>666.8115234375</ele>
        <time>2014-03-16T11:23:04Z</time>
      </trkpt>
      <trkpt lat="43.76791" lon="3.5611">
        <ele>668.734375</ele>
        <time>2014-03-16T11:23:10Z</time>
      </trkpt>
      <trkpt lat="43.76789" lon="3.56112">
        <ele>668.734375</ele>
        <time>2014-03-16T11:23:12Z</time>
      </trkpt>
      <trkpt lat="43.76787" lon="3.56114">
        <ele>667.77270507812</ele>
        <time>2014-03-16T11:23:15Z</time>
      </trkpt>
      <trkpt lat="43.76783" lon="3.56119">
        <ele>671.6181640625</ele>
        <time>2014-03-16T11:23:21Z</time>
      </trkpt>
      <trkpt lat="43.7678" lon="3.56123">
        <ele>672.09887695312</ele>
        <time>2014-03-16T11:23:26Z</time>
      </trkpt>
      <trkpt lat="43.76777" lon="3.56129">
        <ele>672.57958984375</ele>
        <time>2014-03-16T11:23:33Z</time>
      </trkpt>
      <trkpt lat="43.76775" lon="3.5613">
        <ele>674.021484375</ele>
        <time>2014-03-16T11:23:35Z</time>
      </trkpt>
      <trkpt lat="43.76774" lon="3.56132">
        <ele>674.98291015625</ele>
        <time>2014-03-16T11:23:37Z</time>
      </trkpt>
      <trkpt lat="43.76773" lon="3.56135">
        <ele>675.46337890625</ele>
        <time>2014-03-16T11:23:39Z</time>
      </trkpt>
      <trkpt lat="43.76772" lon="3.56138">
        <ele>676.90551757812</ele>
        <time>2014-03-16T11:23:41Z</time>
      </trkpt>
      <trkpt lat="43.76772" lon="3.5614">
        <ele>676.90551757812</ele>
        <time>2014-03-16T11:23:42Z</time>
      </trkpt>
      <trkpt lat="43.76774" lon="3.56148">
        <ele>678.34741210938</ele>
        <time>2014-03-16T11:23:47Z</time>
      </trkpt>
      <trkpt lat="43.76775" lon="3.56155">
        <ele>681.7119140625</ele>
        <time>2014-03-16T11:23:52Z</time>
      </trkpt>
      <trkpt lat="43.76775" lon="3.5616">
        <ele>682.67333984375</ele>
        <time>2014-03-16T11:23:55Z</time>
      </trkpt>
      <trkpt lat="43.76775" lon="3.56168">
        <ele>684.11547851562</ele>
        <time>2014-03-16T11:24:03Z</time>
      </trkpt>
      <trkpt lat="43.76776" lon="3.5617">
        <ele>684.59619140625</ele>
        <time>2014-03-16T11:24:18Z</time>
      </trkpt>
      <trkpt lat="43.76776" lon="3.56177">
        <ele>685.55737304688</ele>
        <time>2014-03-16T11:24:23Z</time>
      </trkpt>
      <trkpt lat="43.76775" lon="3.56185">
        <ele>686.99926757812</ele>
        <time>2014-03-16T11:24:30Z</time>
      </trkpt>
      <trkpt lat="43.76775" lon="3.56186">
        <ele>686.99926757812</ele>
        <time>2014-03-16T11:24:31Z</time>
      </trkpt>
      <trkpt lat="43.76774" lon="3.56191">
        <ele>690.84448242188</ele>
        <time>2014-03-16T11:24:36Z</time>
      </trkpt>
      <trkpt lat="43.76774" lon="3.56192">
        <ele>689.88330078125</ele>
        <time>2014-03-16T11:24:37Z</time>
      </trkpt>
      <trkpt lat="43.76774" lon="3.56195">
        <ele>688.92211914062</ele>
        <time>2014-03-16T11:24:39Z</time>
      </trkpt>
      <trkpt lat="43.76773" lon="3.56198">
        <ele>690.36401367188</ele>
        <time>2014-03-16T11:24:41Z</time>
      </trkpt>
      <trkpt lat="43.76773" lon="3.56204">
        <ele>692.28662109375</ele>
        <time>2014-03-16T11:24:46Z</time>
      </trkpt>
      <trkpt lat="43.76772" lon="3.56206">
        <ele>692.76733398438</ele>
        <time>2014-03-16T11:24:53Z</time>
      </trkpt>
      <trkpt lat="43.76771" lon="3.56212">
        <ele>694.20922851562</ele>
        <time>2014-03-16T11:24:59Z</time>
      </trkpt>
      <trkpt lat="43.76768" lon="3.56218">
        <ele>694.68969726562</ele>
        <time>2014-03-16T11:25:07Z</time>
      </trkpt>
      <trkpt lat="43.76769" lon="3.5622">
        <ele>695.65112304688</ele>
        <time>2014-03-16T11:25:09Z</time>
      </trkpt>
      <trkpt lat="43.76769" lon="3.56227">
        <ele>696.61254882812</ele>
        <time>2014-03-16T11:25:16Z</time>
      </trkpt>
      <trkpt lat="43.76769" lon="3.56229">
        <ele>698.53491210938</ele>
        <time>2014-03-16T11:25:18Z</time>
      </trkpt>
      <trkpt lat="43.7677" lon="3.56231">
        <ele>700.9384765625</ele>
        <time>2014-03-16T11:25:21Z</time>
      </trkpt>
      <trkpt lat="43.76771" lon="3.56236">
        <ele>699.97705078125</ele>
        <time>2014-03-16T11:25:26Z</time>
      </trkpt>
      <trkpt lat="43.76771" lon="3.56246">
        <ele>704.78369140625</ele>
        <time>2014-03-16T11:25:35Z</time>
      </trkpt>
      <trkpt lat="43.76773" lon="3.5625">
        <ele>704.78369140625</ele>
        <time>2014-03-16T11:25:41Z</time>
      </trkpt>
      <trkpt lat="43.76775" lon="3.56252">
        <ele>706.70629882812</ele>
        <time>2014-03-16T11:25:43Z</time>
      </trkpt>
      <trkpt lat="43.76778" lon="3.56255">
        <ele>706.70629882812</ele>
        <time>2014-03-16T11:25:48Z</time>
      </trkpt>
      <trkpt lat="43.76779" lon="3.56262">
        <ele>707.18701171875</ele>
        <time>2014-03-16T11:25:54Z</time>
      </trkpt>
      <trkpt lat="43.76781" lon="3.56264">
        <ele>710.07080078125</ele>
        <time>2014-03-16T11:25:57Z</time>
      </trkpt>
      <trkpt lat="43.76784" lon="3.56268">
        <ele>708.62890625</ele>
        <time>2014-03-16T11:26:04Z</time>
      </trkpt>
      <trkpt lat="43.76785" lon="3.56269">
        <ele>711.99365234375</ele>
        <time>2014-03-16T11:26:05Z</time>
      </trkpt>
      <trkpt lat="43.76788" lon="3.56272">
        <ele>711.99365234375</ele>
        <time>2014-03-16T11:26:08Z</time>
      </trkpt>
      <trkpt lat="43.76791" lon="3.56279">
        <ele>713.435546875</ele>
        <time>2014-03-16T11:26:15Z</time>
      </trkpt>
      <trkpt lat="43.76792" lon="3.5628">
        <ele>712.95483398438</ele>
        <time>2014-03-16T11:26:17Z</time>
      </trkpt>
      <trkpt lat="43.76796" lon="3.56277">
        <ele>716.31958007812</ele>
        <time>2014-03-16T11:26:25Z</time>
      </trkpt>
      <trkpt lat="43.768" lon="3.56275">
        <ele>715.35815429688</ele>
        <time>2014-03-16T11:26:31Z</time>
      </trkpt>
      <trkpt lat="43.76804" lon="3.56275">
        <ele>715.35815429688</ele>
        <time>2014-03-16T11:26:38Z</time>
      </trkpt>
      <trkpt lat="43.76806" lon="3.56274">
        <ele>717.28100585938</ele>
        <time>2014-03-16T11:26:41Z</time>
      </trkpt>
      <trkpt lat="43.76812" lon="3.56278">
        <ele>717.76147460938</ele>
        <time>2014-03-16T11:26:49Z</time>
      </trkpt>
      <trkpt lat="43.76813" lon="3.56279">
        <ele>718.72290039062</ele>
        <time>2014-03-16T11:26:51Z</time>
      </trkpt>
      <trkpt lat="43.76814" lon="3.5628">
        <ele>717.76147460938</ele>
        <time>2014-03-16T11:26:59Z</time>
      </trkpt>
      <trkpt lat="43.76814" lon="3.5628">
        <ele>720.16479492188</ele>
        <time>2014-03-16T11:27:12Z</time>
      </trkpt>
      <trkpt lat="43.76814" lon="3.5628">
        <ele>716.80029296875</ele>
        <time>2014-03-16T11:27:23Z</time>
      </trkpt>
      <trkpt lat="43.76814" lon="3.5628">
        <ele>721.60668945312</ele>
        <time>2014-03-16T11:27:25Z</time>
      </trkpt>
      <trkpt lat="43.76814" lon="3.5628">
        <ele>720.6455078125</ele>
        <time>2014-03-16T11:27:26Z</time>
      </trkpt>
      <trkpt lat="43.76814" lon="3.5628">
        <ele>717.76147460938</ele>
        <time>2014-03-16T11:27:28Z</time>
      </trkpt>
      <trkpt lat="43.76814" lon="3.5628">
        <ele>721.12622070312</ele>
        <time>2014-03-16T11:27:37Z</time>
      </trkpt>
      <trkpt lat="43.76814" lon="3.5628">
        <ele>715.8388671875</ele>
        <time>2014-03-16T11:27:39Z</time>
      </trkpt>
      <trkpt lat="43.76814" lon="3.5628">
        <ele>713.435546875</ele>
        <time>2014-03-16T11:27:43Z</time>
      </trkpt>
      <trkpt lat="43.76814" lon="3.5628">
        <ele>718.72290039062</ele>
        <time>2014-03-16T11:27:44Z</time>
      </trkpt>
      <trkpt lat="43.76814" lon="3.5628">
        <ele>714.87744140625</ele>
        <time>2014-03-16T11:27:45Z</time>
      </trkpt>
      <trkpt lat="43.76814" lon="3.5628">
        <ele>718.2421875</ele>
        <time>2014-03-16T11:27:46Z</time>
      </trkpt>
      <trkpt lat="43.76814" lon="3.5628">
        <ele>714.87744140625</ele>
        <time>2014-03-16T11:27:53Z</time>
      </trkpt>
      <trkpt lat="43.76814" lon="3.5628">
        <ele>717.28100585938</ele>
        <time>2014-03-16T11:27:54Z</time>
      </trkpt>
      <trkpt lat="43.76814" lon="3.5628">
        <ele>721.12622070312</ele>
        <time>2014-03-16T11:27:56Z</time>
      </trkpt>
      <trkpt lat="43.76814" lon="3.5628">
        <ele>717.76147460938</ele>
        <time>2014-03-16T11:27:57Z</time>
      </trkpt>
      <trkpt lat="43.76814" lon="3.5628">
        <ele>716.80029296875</ele>
        <time>2014-03-16T11:27:59Z</time>
      </trkpt>
      <trkpt lat="43.76814" lon="3.5628">
        <ele>714.39672851562</ele>
        <time>2014-03-16T11:28:09Z</time>
      </trkpt>
      <trkpt lat="43.76814" lon="3.5628">
        <ele>716.31958007812</ele>
        <time>2014-03-16T11:28:11Z</time>
      </trkpt>
      <trkpt lat="43.76814" lon="3.5628">
        <ele>719.20361328125</ele>
        <time>2014-03-16T11:28:15Z</time>
      </trkpt>
      <trkpt lat="43.76814" lon="3.5628">
        <ele>715.8388671875</ele>
        <time>2014-03-16T11:28:33Z</time>
      </trkpt>
      <trkpt lat="43.76814" lon="3.5628">
        <ele>717.28100585938</ele>
        <time>2014-03-16T11:28:41Z</time>
      </trkpt>
      <trkpt lat="43.76814" lon="3.5628">
        <ele>720.16479492188</ele>
        <time>2014-03-16T11:28:45Z</time>
      </trkpt>
      <trkpt lat="43.76814" lon="3.5628">
        <ele>716.80029296875</ele>
        <time>2014-03-16T11:28:50Z</time>
      </trkpt>
      <trkpt lat="43.76814" lon="3.5628">
        <ele>713.916015625</ele>
        <time>2014-03-16T11:28:51Z</time>
      </trkpt>
      <trkpt lat="43.76814" lon="3.5628">
        <ele>716.31958007812</ele>
        <time>2014-03-16T11:28:52Z</time>
      </trkpt>
      <trkpt lat="43.76814" lon="3.5628">
        <ele>713.916015625</ele>
        <time>2014-03-16T11:28:55Z</time>
      </trkpt>
      <trkpt lat="43.76814" lon="3.5628">
        <ele>710.55151367188</ele>
        <time>2014-03-16T11:28:56Z</time>
      </trkpt>
      <trkpt lat="43.76814" lon="3.5628">
        <ele>714.39672851562</ele>
        <time>2014-03-16T11:28:58Z</time>
      </trkpt>
      <trkpt lat="43.76814" lon="3.5628">
        <ele>713.435546875</ele>
        <time>2014-03-16T11:28:59Z</time>
      </trkpt>
      <trkpt lat="43.76813" lon="3.5628">
        <ele>719.20361328125</ele>
        <time>2014-03-16T11:29:02Z</time>
      </trkpt>
      <trkpt lat="43.76813" lon="3.56279">
        <ele>714.87744140625</ele>
        <time>2014-03-16T11:29:03Z</time>
      </trkpt>
      <trkpt lat="43.76813" lon="3.5628">
        <ele>723.52954101562</ele>
        <time>2014-03-16T11:29:05Z</time>
      </trkpt>
      <trkpt lat="43.76813" lon="3.5628">
        <ele>722.08740234375</ele>
        <time>2014-03-16T11:29:06Z</time>
      </trkpt>
      <trkpt lat="43.76813" lon="3.5628">
        <ele>722.56811523438</ele>
        <time>2014-03-16T11:29:10Z</time>
      </trkpt>
      <trkpt lat="43.76813" lon="3.56279">
        <ele>715.8388671875</ele>
        <time>2014-03-16T11:29:11Z</time>
      </trkpt>
      <trkpt lat="43.76813" lon="3.56279">
        <ele>711.0322265625</ele>
        <time>2014-03-16T11:29:14Z</time>
      </trkpt>
      <trkpt lat="43.76813" lon="3.56279">
        <ele>711.99365234375</ele>
        <time>2014-03-16T11:29:15Z</time>
      </trkpt>
      <trkpt lat="43.76813" lon="3.56279">
        <ele>718.72290039062</ele>
        <time>2014-03-16T11:29:16Z</time>
      </trkpt>
      <trkpt lat="43.76813" lon="3.56279">
        <ele>718.72290039062</ele>
        <time>2014-03-16T11:29:17Z</time>
      </trkpt>
      <trkpt lat="43.76813" lon="3.56279">
        <ele>721.12622070312</ele>
        <time>2014-03-16T11:29:20Z</time>
      </trkpt>
      <trkpt lat="43.76813" lon="3.56279">
        <ele>717.76147460938</ele>
        <time>2014-03-16T11:29:21Z</time>
      </trkpt>
      <trkpt lat="43.76812" lon="3.56278">
        <ele>716.80029296875</ele>
        <time>2014-03-16T11:29:23Z</time>
      </trkpt>
      <trkpt lat="43.76812" lon="3.56278">
        <ele>713.435546875</ele>
        <time>2014-03-16T11:29:32Z</time>
      </trkpt>
      <trkpt lat="43.76812" lon="3.56277">
        <ele>713.916015625</ele>
        <time>2014-03-16T11:29:44Z</time>
      </trkpt>
      <trkpt lat="43.76812" lon="3.56277">
        <ele>710.55151367188</ele>
        <time>2014-03-16T11:29:46Z</time>
      </trkpt>
      <trkpt lat="43.76812" lon="3.56277">
        <ele>713.916015625</ele>
        <time>2014-03-16T11:29:47Z</time>
      </trkpt>
      <trkpt lat="43.76812" lon="3.56277">
        <ele>716.80029296875</ele>
        <time>2014-03-16T11:30:00Z</time>
      </trkpt>
      <trkpt lat="43.76812" lon="3.56277">
        <ele>720.16479492188</ele>
        <time>2014-03-16T11:30:02Z</time>
      </trkpt>
      <trkpt lat="43.76812" lon="3.56277">
        <ele>716.31958007812</ele>
        <time>2014-03-16T11:30:03Z</time>
      </trkpt>
      <trkpt lat="43.76812" lon="3.56277">
        <ele>719.68432617188</ele>
        <time>2014-03-16T11:30:13Z</time>
      </trkpt>
      <trkpt lat="43.76812" lon="3.56277">
        <ele>717.28100585938</ele>
        <time>2014-03-16T11:30:18Z</time>
      </trkpt>
      <trkpt lat="43.76812" lon="3.56277">
        <ele>715.8388671875</ele>
        <time>2014-03-16T11:30:23Z</time>
      </trkpt>
      <trkpt lat="43.76809" lon="3.56272">
        <ele>713.435546875</ele>
        <time>2014-03-16T11:30:36Z</time>
      </trkpt>
      <trkpt lat="43.76808" lon="3.56272">
        <ele>710.55151367188</ele>
        <time>2014-03-16T11:31:17Z</time>
      </trkpt>
      <trkpt lat="43.76805" lon="3.56273">
        <ele>711.0322265625</ele>
        <time>2014-03-16T11:31:55Z</time>
      </trkpt>
      <trkpt lat="43.768" lon="3.56275">
        <ele>708.62890625</ele>
        <time>2014-03-16T11:32:32Z</time>
      </trkpt>
      <trkpt lat="43.76794" lon="3.56276">
        <ele>708.1484375</ele>
        <time>2014-03-16T11:32:40Z</time>
      </trkpt>
      <trkpt lat="43.76788" lon="3.5627">
        <ele>705.26440429688</ele>
        <time>2014-03-16T11:32:49Z</time>
      </trkpt>
      <trkpt lat="43.76785" lon="3.56269">
        <ele>704.78369140625</ele>
        <time>2014-03-16T11:32:54Z</time>
      </trkpt>
      <trkpt lat="43.76783" lon="3.56264">
        <ele>703.82250976562</ele>
        <time>2014-03-16T11:32:58Z</time>
      </trkpt>
      <trkpt lat="43.76781" lon="3.56263">
        <ele>704.78369140625</ele>
        <time>2014-03-16T11:33:00Z</time>
      </trkpt>
      <trkpt lat="43.76778" lon="3.56265">
        <ele>704.78369140625</ele>
        <time>2014-03-16T11:33:03Z</time>
      </trkpt>
      <trkpt lat="43.76776" lon="3.56267">
        <ele>703.341796875</ele>
        <time>2014-03-16T11:33:05Z</time>
      </trkpt>
      <trkpt lat="43.76776" lon="3.56269">
        <ele>706.70629882812</ele>
        <time>2014-03-16T11:33:07Z</time>
      </trkpt>
      <trkpt lat="43.76773" lon="3.56273">
        <ele>704.78369140625</ele>
        <time>2014-03-16T11:33:11Z</time>
      </trkpt>
      <trkpt lat="43.76768" lon="3.56281">
        <ele>704.30322265625</ele>
        <time>2014-03-16T11:33:19Z</time>
      </trkpt>
      <trkpt lat="43.76768" lon="3.56282">
        <ele>704.30322265625</ele>
        <time>2014-03-16T11:33:20Z</time>
      </trkpt>
      <trkpt lat="43.76765" lon="3.56285">
        <ele>706.2255859375</ele>
        <time>2014-03-16T11:33:23Z</time>
      </trkpt>
      <trkpt lat="43.76761" lon="3.56291">
        <ele>702.38037109375</ele>
        <time>2014-03-16T11:33:29Z</time>
      </trkpt>
      <trkpt lat="43.76759" lon="3.56291">
        <ele>703.82250976562</ele>
        <time>2014-03-16T11:33:31Z</time>
      </trkpt>
      <trkpt lat="43.76756" lon="3.56294">
        <ele>700.4580078125</ele>
        <time>2014-03-16T11:33:35Z</time>
      </trkpt>
      <trkpt lat="43.76751" lon="3.563">
        <ele>701.41918945312</ele>
        <time>2014-03-16T11:33:43Z</time>
      </trkpt>
      <trkpt lat="43.7675" lon="3.56302">
        <ele>700.4580078125</ele>
        <time>2014-03-16T11:33:45Z</time>
      </trkpt>
      <trkpt lat="43.76741" lon="3.56304">
        <ele>700.4580078125</ele>
        <time>2014-03-16T11:33:53Z</time>
      </trkpt>
      <trkpt lat="43.76736" lon="3.56308">
        <ele>699.015625</ele>
        <time>2014-03-16T11:33:58Z</time>
      </trkpt>
      <trkpt lat="43.76734" lon="3.56314">
        <ele>698.05444335938</ele>
        <time>2014-03-16T11:34:03Z</time>
      </trkpt>
      <trkpt lat="43.76733" lon="3.56316">
        <ele>701.41918945312</ele>
        <time>2014-03-16T11:34:05Z</time>
      </trkpt>
      <trkpt lat="43.76734" lon="3.56322">
        <ele>700.4580078125</ele>
        <time>2014-03-16T11:34:11Z</time>
      </trkpt>
      <trkpt lat="43.76739" lon="3.56322">
        <ele>700.9384765625</ele>
        <time>2014-03-16T11:34:17Z</time>
      </trkpt>
      <trkpt lat="43.76741" lon="3.56322">
        <ele>700.9384765625</ele>
        <time>2014-03-16T11:34:19Z</time>
      </trkpt>
      <trkpt lat="43.76745" lon="3.56319">
        <ele>699.49633789062</ele>
        <time>2014-03-16T11:34:27Z</time>
      </trkpt>
      <trkpt lat="43.76744" lon="3.56319">
        <ele>701.89990234375</ele>
        <time>2014-03-16T11:35:07Z</time>
      </trkpt>
      <trkpt lat="43.76744" lon="3.56319">
        <ele>699.97705078125</ele>
        <time>2014-03-16T11:35:09Z</time>
      </trkpt>
      <trkpt lat="43.76744" lon="3.56319">
        <ele>698.53491210938</ele>
        <time>2014-03-16T11:35:12Z</time>
      </trkpt>
      <trkpt lat="43.76744" lon="3.56319">
        <ele>700.9384765625</ele>
        <time>2014-03-16T11:35:15Z</time>
      </trkpt>
      <trkpt lat="43.76744" lon="3.56319">
        <ele>698.05444335938</ele>
        <time>2014-03-16T11:35:23Z</time>
      </trkpt>
      <trkpt lat="43.76744" lon="3.56319">
        <ele>698.05444335938</ele>
        <time>2014-03-16T11:35:24Z</time>
      </trkpt>
      <trkpt lat="43.76744" lon="3.56319">
        <ele>701.89990234375</ele>
        <time>2014-03-16T11:35:28Z</time>
      </trkpt>
      <trkpt lat="43.76744" lon="3.56319">
        <ele>698.53491210938</ele>
        <time>2014-03-16T11:35:45Z</time>
      </trkpt>
      <trkpt lat="43.76744" lon="3.56319">
        <ele>697.57373046875</ele>
        <time>2014-03-16T11:36:18Z</time>
      </trkpt>
      <trkpt lat="43.76744" lon="3.56319">
        <ele>700.9384765625</ele>
        <time>2014-03-16T11:36:23Z</time>
      </trkpt>
      <trkpt lat="43.76744" lon="3.56319">
        <ele>699.49633789062</ele>
        <time>2014-03-16T11:36:24Z</time>
      </trkpt>
      <trkpt lat="43.76744" lon="3.56319">
        <ele>698.53491210938</ele>
        <time>2014-03-16T11:36:26Z</time>
      </trkpt>
      <trkpt lat="43.76744" lon="3.56319">
        <ele>700.4580078125</ele>
        <time>2014-03-16T11:36:28Z</time>
      </trkpt>
      <trkpt lat="43.76744" lon="3.56319">
        <ele>700.4580078125</ele>
        <time>2014-03-16T11:36:36Z</time>
      </trkpt>
      <trkpt lat="43.76744" lon="3.56319">
        <ele>696.61254882812</ele>
        <time>2014-03-16T11:36:52Z</time>
      </trkpt>
      <trkpt lat="43.76744" lon="3.56319">
        <ele>699.97705078125</ele>
        <time>2014-03-16T11:36:55Z</time>
      </trkpt>
      <trkpt lat="43.76744" lon="3.56319">
        <ele>699.49633789062</ele>
        <time>2014-03-16T11:36:56Z</time>
      </trkpt>
      <trkpt lat="43.76744" lon="3.56319">
        <ele>698.53491210938</ele>
        <time>2014-03-16T11:37:12Z</time>
      </trkpt>
      <trkpt lat="43.76744" lon="3.56319">
        <ele>698.53491210938</ele>
        <time>2014-03-16T11:37:25Z</time>
      </trkpt>
      <trkpt lat="43.76744" lon="3.56319">
        <ele>698.53491210938</ele>
        <time>2014-03-16T11:37:36Z</time>
      </trkpt>
      <trkpt lat="43.76744" lon="3.56319">
        <ele>699.49633789062</ele>
        <time>2014-03-16T11:37:38Z</time>
      </trkpt>
      <trkpt lat="43.76744" lon="3.56319">
        <ele>697.57373046875</ele>
        <time>2014-03-16T11:37:44Z</time>
      </trkpt>
      <trkpt lat="43.76744" lon="3.56319">
        <ele>697.57373046875</ele>
        <time>2014-03-16T11:37:50Z</time>
      </trkpt>
      <trkpt lat="43.76744" lon="3.56319">
        <ele>695.65112304688</ele>
        <time>2014-03-16T11:39:28Z</time>
      </trkpt>
      <trkpt lat="43.76744" lon="3.56319">
        <ele>699.015625</ele>
        <time>2014-03-16T11:39:31Z</time>
      </trkpt>
      <trkpt lat="43.76744" lon="3.56318">
        <ele>696.61254882812</ele>
        <time>2014-03-16T11:39:40Z</time>
      </trkpt>
      <trkpt lat="43.76744" lon="3.56318">
        <ele>695.17041015625</ele>
        <time>2014-03-16T11:39:56Z</time>
      </trkpt>
      <trkpt lat="43.76744" lon="3.56318">
        <ele>698.05444335938</ele>
        <time>2014-03-16T11:39:59Z</time>
      </trkpt>
      <trkpt lat="43.76744" lon="3.56318">
        <ele>698.53491210938</ele>
        <time>2014-03-16T11:40:00Z</time>
      </trkpt>
      <trkpt lat="43.76743" lon="3.56318">
        <ele>696.1318359375</ele>
        <time>2014-03-16T11:40:31Z</time>
      </trkpt>
      <trkpt lat="43.76743" lon="3.56318">
        <ele>701.41918945312</ele>
        <time>2014-03-16T11:40:32Z</time>
      </trkpt>
      <trkpt lat="43.76743" lon="3.56318">
        <ele>698.53491210938</ele>
        <time>2014-03-16T11:40:34Z</time>
      </trkpt>
      <trkpt lat="43.76743" lon="3.56318">
        <ele>698.05444335938</ele>
        <time>2014-03-16T11:40:39Z</time>
      </trkpt>
      <trkpt lat="43.76743" lon="3.56318">
        <ele>695.65112304688</ele>
        <time>2014-03-16T11:40:53Z</time>
      </trkpt>
      <trkpt lat="43.76743" lon="3.56318">
        <ele>698.05444335938</ele>
        <time>2014-03-16T11:41:09Z</time>
      </trkpt>
      <trkpt lat="43.76743" lon="3.56318">
        <ele>698.05444335938</ele>
        <time>2014-03-16T11:41:26Z</time>
      </trkpt>
      <trkpt lat="43.76743" lon="3.56318">
        <ele>698.53491210938</ele>
        <time>2014-03-16T11:41:46Z</time>
      </trkpt>
      <trkpt lat="43.76743" lon="3.56318">
        <ele>698.53491210938</ele>
        <time>2014-03-16T11:42:37Z</time>
      </trkpt>
      <trkpt lat="43.76743" lon="3.56318">
        <ele>699.49633789062</ele>
        <time>2014-03-16T11:42:42Z</time>
      </trkpt>
      <trkpt lat="43.76743" lon="3.56318">
        <ele>699.49633789062</ele>
        <time>2014-03-16T11:42:47Z</time>
      </trkpt>
      <trkpt lat="43.76743" lon="3.56318">
        <ele>696.61254882812</ele>
        <time>2014-03-16T11:43:10Z</time>
      </trkpt>
      <trkpt lat="43.76743" lon="3.56318">
        <ele>700.4580078125</ele>
        <time>2014-03-16T11:43:13Z</time>
      </trkpt>
      <trkpt lat="43.76743" lon="3.56318">
        <ele>700.4580078125</ele>
        <time>2014-03-16T11:43:14Z</time>
      </trkpt>
      <trkpt lat="43.76742" lon="3.56318">
        <ele>699.49633789062</ele>
        <time>2014-03-16T11:43:28Z</time>
      </trkpt>
      <trkpt lat="43.76742" lon="3.56318">
        <ele>699.97705078125</ele>
        <time>2014-03-16T11:43:45Z</time>
      </trkpt>
      <trkpt lat="43.76742" lon="3.56318">
        <ele>698.05444335938</ele>
        <time>2014-03-16T11:43:47Z</time>
      </trkpt>
      <trkpt lat="43.76742" lon="3.56318">
        <ele>699.49633789062</ele>
        <time>2014-03-16T11:43:49Z</time>
      </trkpt>
      <trkpt lat="43.76742" lon="3.56318">
        <ele>697.57373046875</ele>
        <time>2014-03-16T11:43:58Z</time>
      </trkpt>
      <trkpt lat="43.76742" lon="3.56318">
        <ele>699.97705078125</ele>
        <time>2014-03-16T11:44:13Z</time>
      </trkpt>
      <trkpt lat="43.76742" lon="3.56318">
        <ele>698.05444335938</ele>
        <time>2014-03-16T11:44:30Z</time>
      </trkpt>
      <trkpt lat="43.76742" lon="3.56318">
        <ele>697.57373046875</ele>
        <time>2014-03-16T11:44:40Z</time>
      </trkpt>
      <trkpt lat="43.76742" lon="3.56318">
        <ele>699.49633789062</ele>
        <time>2014-03-16T11:44:43Z</time>
      </trkpt>
      <trkpt lat="43.76742" lon="3.56318">
        <ele>699.49633789062</ele>
        <time>2014-03-16T11:44:48Z</time>
      </trkpt>
      <trkpt lat="43.76742" lon="3.56318">
        <ele>698.53491210938</ele>
        <time>2014-03-16T11:44:56Z</time>
      </trkpt>
      <trkpt lat="43.76742" lon="3.56318">
        <ele>697.09301757812</ele>
        <time>2014-03-16T11:44:59Z</time>
      </trkpt>
      <trkpt lat="43.76742" lon="3.56319">
        <ele>701.41918945312</ele>
        <time>2014-03-16T11:45:06Z</time>
      </trkpt>
      <trkpt lat="43.76742" lon="3.56319">
        <ele>700.9384765625</ele>
        <time>2014-03-16T11:45:07Z</time>
      </trkpt>
      <trkpt lat="43.76742" lon="3.56319">
        <ele>697.09301757812</ele>
        <time>2014-03-16T11:45:09Z</time>
      </trkpt>
      <trkpt lat="43.76742" lon="3.56319">
        <ele>699.97705078125</ele>
        <time>2014-03-16T11:45:14Z</time>
      </trkpt>
      <trkpt lat="43.76742" lon="3.56319">
        <ele>697.09301757812</ele>
        <time>2014-03-16T11:45:19Z</time>
      </trkpt>
      <trkpt lat="43.76742" lon="3.56319">
        <ele>697.09301757812</ele>
        <time>2014-03-16T11:45:30Z</time>
      </trkpt>
      <trkpt lat="43.76742" lon="3.56319">
        <ele>696.61254882812</ele>
        <time>2014-03-16T11:45:51Z</time>
      </trkpt>
      <trkpt lat="43.76742" lon="3.56319">
        <ele>698.53491210938</ele>
        <time>2014-03-16T11:46:10Z</time>
      </trkpt>
      <trkpt lat="43.76742" lon="3.56319">
        <ele>695.17041015625</ele>
        <time>2014-03-16T11:46:24Z</time>
      </trkpt>
      <trkpt lat="43.76742" lon="3.56319">
        <ele>698.53491210938</ele>
        <time>2014-03-16T11:46:26Z</time>
      </trkpt>
      <trkpt lat="43.76742" lon="3.56319">
        <ele>698.53491210938</ele>
        <time>2014-03-16T11:46:27Z</time>
      </trkpt>
      <trkpt lat="43.76742" lon="3.56319">
        <ele>695.17041015625</ele>
        <time>2014-03-16T11:46:29Z</time>
      </trkpt>
      <trkpt lat="43.76742" lon="3.56319">
        <ele>697.09301757812</ele>
        <time>2014-03-16T11:46:30Z</time>
      </trkpt>
      <trkpt lat="43.76742" lon="3.56319">
        <ele>698.53491210938</ele>
        <time>2014-03-16T11:46:41Z</time>
      </trkpt>
      <trkpt lat="43.76742" lon="3.56319">
        <ele>697.57373046875</ele>
        <time>2014-03-16T11:47:01Z</time>
      </trkpt>
      <trkpt lat="43.76742" lon="3.56319">
        <ele>698.05444335938</ele>
        <time>2014-03-16T11:47:11Z</time>
      </trkpt>
      <trkpt lat="43.76742" lon="3.56319">
        <ele>695.65112304688</ele>
        <time>2014-03-16T11:47:34Z</time>
      </trkpt>
      <trkpt lat="43.76742" lon="3.56319">
        <ele>698.53491210938</ele>
        <time>2014-03-16T11:47:39Z</time>
      </trkpt>
      <trkpt lat="43.76742" lon="3.56319">
        <ele>696.61254882812</ele>
        <time>2014-03-16T11:47:54Z</time>
      </trkpt>
      <trkpt lat="43.76742" lon="3.56319">
        <ele>699.97705078125</ele>
        <time>2014-03-16T11:47:56Z</time>
      </trkpt>
      <trkpt lat="43.76742" lon="3.56319">
        <ele>699.49633789062</ele>
        <time>2014-03-16T11:47:57Z</time>
      </trkpt>
      <trkpt lat="43.76742" lon="3.56319">
        <ele>697.57373046875</ele>
        <time>2014-03-16T11:47:59Z</time>
      </trkpt>
      <trkpt lat="43.76742" lon="3.56319">
        <ele>698.05444335938</ele>
        <time>2014-03-16T11:48:13Z</time>
      </trkpt>
      <trkpt lat="43.76742" lon="3.56319">
        <ele>694.68969726562</ele>
        <time>2014-03-16T11:48:16Z</time>
      </trkpt>
      <trkpt lat="43.76742" lon="3.56319">
        <ele>698.53491210938</ele>
        <time>2014-03-16T11:48:18Z</time>
      </trkpt>
      <trkpt lat="43.76742" lon="3.56319">
        <ele>697.09301757812</ele>
        <time>2014-03-16T11:48:19Z</time>
      </trkpt>
      <trkpt lat="43.76742" lon="3.56319">
        <ele>695.65112304688</ele>
        <time>2014-03-16T11:48:30Z</time>
      </trkpt>
      <trkpt lat="43.76742" lon="3.56319">
        <ele>695.65112304688</ele>
        <time>2014-03-16T11:48:48Z</time>
      </trkpt>
      <trkpt lat="43.76742" lon="3.56319">
        <ele>697.09301757812</ele>
        <time>2014-03-16T11:48:50Z</time>
      </trkpt>
      <trkpt lat="43.76742" lon="3.56319">
        <ele>696.61254882812</ele>
        <time>2014-03-16T11:48:58Z</time>
      </trkpt>
      <trkpt lat="43.76742" lon="3.56319">
        <ele>697.09301757812</ele>
        <time>2014-03-16T11:49:03Z</time>
      </trkpt>
      <trkpt lat="43.76742" lon="3.56319">
        <ele>696.1318359375</ele>
        <time>2014-03-16T11:49:11Z</time>
      </trkpt>
      <trkpt lat="43.76742" lon="3.56319">
        <ele>699.015625</ele>
        <time>2014-03-16T11:49:29Z</time>
      </trkpt>
      <trkpt lat="43.76742" lon="3.56319">
        <ele>699.015625</ele>
        <time>2014-03-16T11:49:37Z</time>
      </trkpt>
      <trkpt lat="43.76742" lon="3.56319">
        <ele>696.61254882812</ele>
        <time>2014-03-16T11:49:41Z</time>
      </trkpt>
      <trkpt lat="43.76742" lon="3.56319">
        <ele>698.05444335938</ele>
        <time>2014-03-16T11:49:51Z</time>
      </trkpt>
      <trkpt lat="43.76742" lon="3.56319">
        <ele>694.20922851562</ele>
        <time>2014-03-16T11:50:37Z</time>
      </trkpt>
      <trkpt lat="43.76742" lon="3.56319">
        <ele>699.015625</ele>
        <time>2014-03-16T11:50:38Z</time>
      </trkpt>
      <trkpt lat="43.76742" lon="3.56319">
        <ele>696.61254882812</ele>
        <time>2014-03-16T11:50:42Z</time>
      </trkpt>
      <trkpt lat="43.76742" lon="3.56319">
        <ele>695.17041015625</ele>
        <time>2014-03-16T11:51:00Z</time>
      </trkpt>
      <trkpt lat="43.76742" lon="3.56319">
        <ele>697.09301757812</ele>
        <time>2014-03-16T11:51:03Z</time>
      </trkpt>
      <trkpt lat="43.76742" lon="3.56319">
        <ele>695.17041015625</ele>
        <time>2014-03-16T11:51:41Z</time>
      </trkpt>
      <trkpt lat="43.76742" lon="3.56319">
        <ele>699.015625</ele>
        <time>2014-03-16T11:51:49Z</time>
      </trkpt>
      <trkpt lat="43.76742" lon="3.56319">
        <ele>698.05444335938</ele>
        <time>2014-03-16T11:51:50Z</time>
      </trkpt>
      <trkpt lat="43.76742" lon="3.56319">
        <ele>696.1318359375</ele>
        <time>2014-03-16T11:51:55Z</time>
      </trkpt>
      <trkpt lat="43.76741" lon="3.56319">
        <ele>696.61254882812</ele>
        <time>2014-03-16T11:52:07Z</time>
      </trkpt>
      <trkpt lat="43.76741" lon="3.56319">
        <ele>698.05444335938</ele>
        <time>2014-03-16T11:52:12Z</time>
      </trkpt>
      <trkpt lat="43.76741" lon="3.56319">
        <ele>694.68969726562</ele>
        <time>2014-03-16T11:52:29Z</time>
      </trkpt>
      <trkpt lat="43.76741" lon="3.56319">
        <ele>698.05444335938</ele>
        <time>2014-03-16T11:52:30Z</time>
      </trkpt>
      <trkpt lat="43.76741" lon="3.56319">
        <ele>696.61254882812</ele>
        <time>2014-03-16T11:52:31Z</time>
      </trkpt>
      <trkpt lat="43.76741" lon="3.56319">
        <ele>695.17041015625</ele>
        <time>2014-03-16T11:52:46Z</time>
      </trkpt>
      <trkpt lat="43.76741" lon="3.56318">
        <ele>697.57373046875</ele>
        <time>2014-03-16T11:54:14Z</time>
      </trkpt>
      <trkpt lat="43.76741" lon="3.56318">
        <ele>696.1318359375</ele>
        <time>2014-03-16T11:54:24Z</time>
      </trkpt>
      <trkpt lat="43.7674" lon="3.56318">
        <ele>695.65112304688</ele>
        <time>2014-03-16T11:54:49Z</time>
      </trkpt>
      <trkpt lat="43.7674" lon="3.56317">
        <ele>697.09301757812</ele>
        <time>2014-03-16T11:54:52Z</time>
      </trkpt>
      <trkpt lat="43.7674" lon="3.56317">
        <ele>696.1318359375</ele>
        <time>2014-03-16T11:54:54Z</time>
      </trkpt>
      <trkpt lat="43.7674" lon="3.56317">
        <ele>697.09301757812</ele>
        <time>2014-03-16T11:55:06Z</time>
      </trkpt>
      <trkpt lat="43.7674" lon="3.56317">
        <ele>696.61254882812</ele>
        <time>2014-03-16T11:55:31Z</time>
      </trkpt>
      <trkpt lat="43.7674" lon="3.56317">
        <ele>698.53491210938</ele>
        <time>2014-03-16T11:55:35Z</time>
      </trkpt>
      <trkpt lat="43.7674" lon="3.56317">
        <ele>694.20922851562</ele>
        <time>2014-03-16T11:55:39Z</time>
      </trkpt>
      <trkpt lat="43.7674" lon="3.56317">
        <ele>695.17041015625</ele>
        <time>2014-03-16T11:55:40Z</time>
      </trkpt>
      <trkpt lat="43.7674" lon="3.56317">
        <ele>696.1318359375</ele>
        <time>2014-03-16T11:55:42Z</time>
      </trkpt>
      <trkpt lat="43.7674" lon="3.56317">
        <ele>695.65112304688</ele>
        <time>2014-03-16T11:55:57Z</time>
      </trkpt>
      <trkpt lat="43.7674" lon="3.56317">
        <ele>698.05444335938</ele>
        <time>2014-03-16T11:56:00Z</time>
      </trkpt>
      <trkpt lat="43.7674" lon="3.56317">
        <ele>695.65112304688</ele>
        <time>2014-03-16T11:56:02Z</time>
      </trkpt>
      <trkpt lat="43.7674" lon="3.56317">
        <ele>697.57373046875</ele>
        <time>2014-03-16T11:56:18Z</time>
      </trkpt>
      <trkpt lat="43.7674" lon="3.56317">
        <ele>695.65112304688</ele>
        <time>2014-03-16T11:56:22Z</time>
      </trkpt>
      <trkpt lat="43.7674" lon="3.56317">
        <ele>694.68969726562</ele>
        <time>2014-03-16T11:56:37Z</time>
      </trkpt>
      <trkpt lat="43.7674" lon="3.56317">
        <ele>696.61254882812</ele>
        <time>2014-03-16T11:56:39Z</time>
      </trkpt>
      <trkpt lat="43.7674" lon="3.56317">
        <ele>696.61254882812</ele>
        <time>2014-03-16T11:57:17Z</time>
      </trkpt>
      <trkpt lat="43.76739" lon="3.56317">
        <ele>698.05444335938</ele>
        <time>2014-03-16T11:57:30Z</time>
      </trkpt>
      <trkpt lat="43.76739" lon="3.56317">
        <ele>696.61254882812</ele>
        <time>2014-03-16T11:57:34Z</time>
      </trkpt>
      <trkpt lat="43.76739" lon="3.56317">
        <ele>694.20922851562</ele>
        <time>2014-03-16T11:57:40Z</time>
      </trkpt>
      <trkpt lat="43.76739" lon="3.56317">
        <ele>696.61254882812</ele>
        <time>2014-03-16T11:57:42Z</time>
      </trkpt>
      <trkpt lat="43.76739" lon="3.56317">
        <ele>694.68969726562</ele>
        <time>2014-03-16T11:57:46Z</time>
      </trkpt>
      <trkpt lat="43.76739" lon="3.56317">
        <ele>697.57373046875</ele>
        <time>2014-03-16T11:57:48Z</time>
      </trkpt>
      <trkpt lat="43.76739" lon="3.56317">
        <ele>697.57373046875</ele>
        <time>2014-03-16T11:57:49Z</time>
      </trkpt>
      <trkpt lat="43.76739" lon="3.56317">
        <ele>694.20922851562</ele>
        <time>2014-03-16T11:58:14Z</time>
      </trkpt>
      <trkpt lat="43.76739" lon="3.56317">
        <ele>696.1318359375</ele>
        <time>2014-03-16T11:58:18Z</time>
      </trkpt>
      <trkpt lat="43.76739" lon="3.56317">
        <ele>695.17041015625</ele>
        <time>2014-03-16T11:58:37Z</time>
      </trkpt>
      <trkpt lat="43.76739" lon="3.56317">
        <ele>694.68969726562</ele>
        <time>2014-03-16T11:58:55Z</time>
      </trkpt>
      <trkpt lat="43.76739" lon="3.56317">
        <ele>696.1318359375</ele>
        <time>2014-03-16T11:58:58Z</time>
      </trkpt>
      <trkpt lat="43.76739" lon="3.56316">
        <ele>695.17041015625</ele>
        <time>2014-03-16T11:59:37Z</time>
      </trkpt>
      <trkpt lat="43.76739" lon="3.56315">
        <ele>695.65112304688</ele>
        <time>2014-03-16T12:00:27Z</time>
      </trkpt>
      <trkpt lat="43.76739" lon="3.56315">
        <ele>694.20922851562</ele>
        <time>2014-03-16T12:00:36Z</time>
      </trkpt>
      <trkpt lat="43.76739" lon="3.56315">
        <ele>698.53491210938</ele>
        <time>2014-03-16T12:00:38Z</time>
      </trkpt>
      <trkpt lat="43.76739" lon="3.56315">
        <ele>697.57373046875</ele>
        <time>2014-03-16T12:00:39Z</time>
      </trkpt>
      <trkpt lat="43.76738" lon="3.56315">
        <ele>696.1318359375</ele>
        <time>2014-03-16T12:00:41Z</time>
      </trkpt>
      <trkpt lat="43.76738" lon="3.56315">
        <ele>696.61254882812</ele>
        <time>2014-03-16T12:00:50Z</time>
      </trkpt>
      <trkpt lat="43.76738" lon="3.56315">
        <ele>694.20922851562</ele>
        <time>2014-03-16T12:00:58Z</time>
      </trkpt>
      <trkpt lat="43.76738" lon="3.56315">
        <ele>696.61254882812</ele>
        <time>2014-03-16T12:01:40Z</time>
      </trkpt>
      <trkpt lat="43.76738" lon="3.56315">
        <ele>695.17041015625</ele>
        <time>2014-03-16T12:01:50Z</time>
      </trkpt>
      <trkpt lat="43.76738" lon="3.56315">
        <ele>696.61254882812</ele>
        <time>2014-03-16T12:01:56Z</time>
      </trkpt>
      <trkpt lat="43.76738" lon="3.56315">
        <ele>696.61254882812</ele>
        <time>2014-03-16T12:02:25Z</time>
      </trkpt>
      <trkpt lat="43.76738" lon="3.56315">
        <ele>691.80590820312</ele>
        <time>2014-03-16T12:02:34Z</time>
      </trkpt>
      <trkpt lat="43.76738" lon="3.56315">
        <ele>695.17041015625</ele>
        <time>2014-03-16T12:02:35Z</time>
      </trkpt>
      <trkpt lat="43.76738" lon="3.56315">
        <ele>695.65112304688</ele>
        <time>2014-03-16T12:02:37Z</time>
      </trkpt>
      <trkpt lat="43.76737" lon="3.56315">
        <ele>696.1318359375</ele>
        <time>2014-03-16T12:03:19Z</time>
      </trkpt>
      <trkpt lat="43.76737" lon="3.56315">
        <ele>694.20922851562</ele>
        <time>2014-03-16T12:03:23Z</time>
      </trkpt>
      <trkpt lat="43.76737" lon="3.56315">
        <ele>697.09301757812</ele>
        <time>2014-03-16T12:03:27Z</time>
      </trkpt>
      <trkpt lat="43.76737" lon="3.56315">
        <ele>698.05444335938</ele>
        <time>2014-03-16T12:03:40Z</time>
      </trkpt>
      <trkpt lat="43.76737" lon="3.56315">
        <ele>696.61254882812</ele>
        <time>2014-03-16T12:03:43Z</time>
      </trkpt>
      <trkpt lat="43.76737" lon="3.56315">
        <ele>696.61254882812</ele>
        <time>2014-03-16T12:03:52Z</time>
      </trkpt>
      <trkpt lat="43.76737" lon="3.56315">
        <ele>691.3251953125</ele>
        <time>2014-03-16T12:03:53Z</time>
      </trkpt>
      <trkpt lat="43.76737" lon="3.56315">
        <ele>693.24780273438</ele>
        <time>2014-03-16T12:03:54Z</time>
      </trkpt>
      <trkpt lat="43.76737" lon="3.56315">
        <ele>696.1318359375</ele>
        <time>2014-03-16T12:03:56Z</time>
      </trkpt>
      <trkpt lat="43.76737" lon="3.56315">
        <ele>696.61254882812</ele>
        <time>2014-03-16T12:03:57Z</time>
      </trkpt>
      <trkpt lat="43.76737" lon="3.56315">
        <ele>696.1318359375</ele>
        <time>2014-03-16T12:04:03Z</time>
      </trkpt>
      <trkpt lat="43.76737" lon="3.56316">
        <ele>697.57373046875</ele>
        <time>2014-03-16T12:04:08Z</time>
      </trkpt>
      <trkpt lat="43.76737" lon="3.56316">
        <ele>694.68969726562</ele>
        <time>2014-03-16T12:04:14Z</time>
      </trkpt>
      <trkpt lat="43.76736" lon="3.56316">
        <ele>697.09301757812</ele>
        <time>2014-03-16T12:04:18Z</time>
      </trkpt>
      <trkpt lat="43.76736" lon="3.56316">
        <ele>696.61254882812</ele>
        <time>2014-03-16T12:04:56Z</time>
      </trkpt>
      <trkpt lat="43.76736" lon="3.56316">
        <ele>695.17041015625</ele>
        <time>2014-03-16T12:05:06Z</time>
      </trkpt>
      <trkpt lat="43.76737" lon="3.56318">
        <ele>697.09301757812</ele>
        <time>2014-03-16T12:05:22Z</time>
      </trkpt>
      <trkpt lat="43.76739" lon="3.56318">
        <ele>697.09301757812</ele>
        <time>2014-03-16T12:05:33Z</time>
      </trkpt>
      <trkpt lat="43.76739" lon="3.56318">
        <ele>695.17041015625</ele>
        <time>2014-03-16T12:05:37Z</time>
      </trkpt>
      <trkpt lat="43.76738" lon="3.56318">
        <ele>696.1318359375</ele>
        <time>2014-03-16T12:05:49Z</time>
      </trkpt>
      <trkpt lat="43.76736" lon="3.56317">
        <ele>697.09301757812</ele>
        <time>2014-03-16T12:06:02Z</time>
      </trkpt>
      <trkpt lat="43.76736" lon="3.56316">
        <ele>695.65112304688</ele>
        <time>2014-03-16T12:06:06Z</time>
      </trkpt>
      <trkpt lat="43.76734" lon="3.56316">
        <ele>695.17041015625</ele>
        <time>2014-03-16T12:06:14Z</time>
      </trkpt>
      <trkpt lat="43.76734" lon="3.56315">
        <ele>696.61254882812</ele>
        <time>2014-03-16T12:06:18Z</time>
      </trkpt>
      <trkpt lat="43.76733" lon="3.56315">
        <ele>695.65112304688</ele>
        <time>2014-03-16T12:06:20Z</time>
      </trkpt>
      <trkpt lat="43.76733" lon="3.56315">
        <ele>697.09301757812</ele>
        <time>2014-03-16T12:06:22Z</time>
      </trkpt>
      <trkpt lat="43.76731" lon="3.56314">
        <ele>697.57373046875</ele>
        <time>2014-03-16T12:06:48Z</time>
      </trkpt>
      <trkpt lat="43.7673" lon="3.56314">
        <ele>696.1318359375</ele>
        <time>2014-03-16T12:06:50Z</time>
      </trkpt>
      <trkpt lat="43.7673" lon="3.56313">
        <ele>698.05444335938</ele>
        <time>2014-03-16T12:06:56Z</time>
      </trkpt>
      <trkpt lat="43.76731" lon="3.56311">
        <ele>696.61254882812</ele>
        <time>2014-03-16T12:07:18Z</time>
      </trkpt>
      <trkpt lat="43.76731" lon="3.56311">
        <ele>695.65112304688</ele>
        <time>2014-03-16T12:07:23Z</time>
      </trkpt>
      <trkpt lat="43.76731" lon="3.56311">
        <ele>696.1318359375</ele>
        <time>2014-03-16T12:07:25Z</time>
      </trkpt>
      <trkpt lat="43.76732" lon="3.56311">
        <ele>696.1318359375</ele>
        <time>2014-03-16T12:07:41Z</time>
      </trkpt>
      <trkpt lat="43.76733" lon="3.5631">
        <ele>698.53491210938</ele>
        <time>2014-03-16T12:08:40Z</time>
      </trkpt>
      <trkpt lat="43.76733" lon="3.5631">
        <ele>697.09301757812</ele>
        <time>2014-03-16T12:08:42Z</time>
      </trkpt>
      <trkpt lat="43.76733" lon="3.5631">
        <ele>697.57373046875</ele>
        <time>2014-03-16T12:08:49Z</time>
      </trkpt>
      <trkpt lat="43.76733" lon="3.5631">
        <ele>695.65112304688</ele>
        <time>2014-03-16T12:09:25Z</time>
      </trkpt>
      <trkpt lat="43.76733" lon="3.5631">
        <ele>697.57373046875</ele>
        <time>2014-03-16T12:09:27Z</time>
      </trkpt>
      <trkpt lat="43.76733" lon="3.5631">
        <ele>696.1318359375</ele>
        <time>2014-03-16T12:09:31Z</time>
      </trkpt>
      <trkpt lat="43.76732" lon="3.5631">
        <ele>697.09301757812</ele>
        <time>2014-03-16T12:09:47Z</time>
      </trkpt>
      <trkpt lat="43.76733" lon="3.5631">
        <ele>696.1318359375</ele>
        <time>2014-03-16T12:09:56Z</time>
      </trkpt>
      <trkpt lat="43.76733" lon="3.5631">
        <ele>696.61254882812</ele>
        <time>2014-03-16T12:10:04Z</time>
      </trkpt>
      <trkpt lat="43.76733" lon="3.5631">
        <ele>695.65112304688</ele>
        <time>2014-03-16T12:10:10Z</time>
      </trkpt>
      <trkpt lat="43.76732" lon="3.5631">
        <ele>697.57373046875</ele>
        <time>2014-03-16T12:10:44Z</time>
      </trkpt>
      <trkpt lat="43.76732" lon="3.5631">
        <ele>698.53491210938</ele>
        <time>2014-03-16T12:10:51Z</time>
      </trkpt>
      <trkpt lat="43.76732" lon="3.5631">
        <ele>697.09301757812</ele>
        <time>2014-03-16T12:10:55Z</time>
      </trkpt>
      <trkpt lat="43.76732" lon="3.5631">
        <ele>700.9384765625</ele>
        <time>2014-03-16T12:11:41Z</time>
      </trkpt>
      <trkpt lat="43.76732" lon="3.5631">
        <ele>700.4580078125</ele>
        <time>2014-03-16T12:11:42Z</time>
      </trkpt>
      <trkpt lat="43.76732" lon="3.5631">
        <ele>699.49633789062</ele>
        <time>2014-03-16T12:12:03Z</time>
      </trkpt>
      <trkpt lat="43.76732" lon="3.5631">
        <ele>699.49633789062</ele>
        <time>2014-03-16T12:12:16Z</time>
      </trkpt>
      <trkpt lat="43.76732" lon="3.5631">
        <ele>698.53491210938</ele>
        <time>2014-03-16T12:12:35Z</time>
      </trkpt>
      <trkpt lat="43.76732" lon="3.5631">
        <ele>700.9384765625</ele>
        <time>2014-03-16T12:12:46Z</time>
      </trkpt>
      <trkpt lat="43.76732" lon="3.5631">
        <ele>699.97705078125</ele>
        <time>2014-03-16T12:13:28Z</time>
      </trkpt>
      <trkpt lat="43.76732" lon="3.5631">
        <ele>701.41918945312</ele>
        <time>2014-03-16T12:13:30Z</time>
      </trkpt>
      <trkpt lat="43.76732" lon="3.5631">
        <ele>699.97705078125</ele>
        <time>2014-03-16T12:13:37Z</time>
      </trkpt>
      <trkpt lat="43.76732" lon="3.5631">
        <ele>699.49633789062</ele>
        <time>2014-03-16T12:13:52Z</time>
      </trkpt>
      <trkpt lat="43.76732" lon="3.5631">
        <ele>699.49633789062</ele>
        <time>2014-03-16T12:14:07Z</time>
      </trkpt>
      <trkpt lat="43.76732" lon="3.5631">
        <ele>698.53491210938</ele>
        <time>2014-03-16T12:14:09Z</time>
      </trkpt>
      <trkpt lat="43.76732" lon="3.5631">
        <ele>699.49633789062</ele>
        <time>2014-03-16T12:14:27Z</time>
      </trkpt>
      <trkpt lat="43.76732" lon="3.56311">
        <ele>698.53491210938</ele>
        <time>2014-03-16T12:14:50Z</time>
      </trkpt>
      <trkpt lat="43.76733" lon="3.56311">
        <ele>700.9384765625</ele>
        <time>2014-03-16T12:14:59Z</time>
      </trkpt>
      <trkpt lat="43.76733" lon="3.56311">
        <ele>699.49633789062</ele>
        <time>2014-03-16T12:15:01Z</time>
      </trkpt>
      <trkpt lat="43.76733" lon="3.56312">
        <ele>698.05444335938</ele>
        <time>2014-03-16T12:15:27Z</time>
      </trkpt>
      <trkpt lat="43.76733" lon="3.56312">
        <ele>701.41918945312</ele>
        <time>2014-03-16T12:15:37Z</time>
      </trkpt>
      <trkpt lat="43.76733" lon="3.56312">
        <ele>700.4580078125</ele>
        <time>2014-03-16T12:15:44Z</time>
      </trkpt>
      <trkpt lat="43.76733" lon="3.56313">
        <ele>700.9384765625</ele>
        <time>2014-03-16T12:15:54Z</time>
      </trkpt>
      <trkpt lat="43.76733" lon="3.56314">
        <ele>700.4580078125</ele>
        <time>2014-03-16T12:16:22Z</time>
      </trkpt>
      <trkpt lat="43.76733" lon="3.56315">
        <ele>699.015625</ele>
        <time>2014-03-16T12:16:33Z</time>
      </trkpt>
      <trkpt lat="43.76733" lon="3.56315">
        <ele>700.4580078125</ele>
        <time>2014-03-16T12:16:35Z</time>
      </trkpt>
      <trkpt lat="43.76733" lon="3.56315">
        <ele>701.41918945312</ele>
        <time>2014-03-16T12:16:41Z</time>
      </trkpt>
      <trkpt lat="43.76732" lon="3.56316">
        <ele>699.97705078125</ele>
        <time>2014-03-16T12:16:55Z</time>
      </trkpt>
      <trkpt lat="43.76732" lon="3.56316">
        <ele>699.97705078125</ele>
        <time>2014-03-16T12:17:00Z</time>
      </trkpt>
      <trkpt lat="43.76731" lon="3.56316">
        <ele>701.89990234375</ele>
        <time>2014-03-16T12:17:16Z</time>
      </trkpt>
      <trkpt lat="43.76732" lon="3.56316">
        <ele>699.97705078125</ele>
        <time>2014-03-16T12:17:42Z</time>
      </trkpt>
      <trkpt lat="43.76732" lon="3.56316">
        <ele>701.89990234375</ele>
        <time>2014-03-16T12:17:53Z</time>
      </trkpt>
      <trkpt lat="43.76732" lon="3.56315">
        <ele>701.41918945312</ele>
        <time>2014-03-16T12:18:10Z</time>
      </trkpt>
      <trkpt lat="43.76733" lon="3.56315">
        <ele>702.86108398438</ele>
        <time>2014-03-16T12:18:30Z</time>
      </trkpt>
      <trkpt lat="43.76733" lon="3.56315">
        <ele>699.49633789062</ele>
        <time>2014-03-16T12:18:33Z</time>
      </trkpt>
      <trkpt lat="43.76733" lon="3.56315">
        <ele>700.4580078125</ele>
        <time>2014-03-16T12:18:38Z</time>
      </trkpt>
      <trkpt lat="43.76733" lon="3.56315">
        <ele>701.41918945312</ele>
        <time>2014-03-16T12:18:52Z</time>
      </trkpt>
      <trkpt lat="43.76733" lon="3.56315">
        <ele>702.38037109375</ele>
        <time>2014-03-16T12:18:58Z</time>
      </trkpt>
      <trkpt lat="43.76733" lon="3.56315">
        <ele>703.341796875</ele>
        <time>2014-03-16T12:19:06Z</time>
      </trkpt>
      <trkpt lat="43.76733" lon="3.56315">
        <ele>700.9384765625</ele>
        <time>2014-03-16T12:19:08Z</time>
      </trkpt>
      <trkpt lat="43.76734" lon="3.56313">
        <ele>699.97705078125</ele>
        <time>2014-03-16T12:19:21Z</time>
      </trkpt>
      <trkpt lat="43.76734" lon="3.56313">
        <ele>701.89990234375</ele>
        <time>2014-03-16T12:19:23Z</time>
      </trkpt>
      <trkpt lat="43.76734" lon="3.56313">
        <ele>700.4580078125</ele>
        <time>2014-03-16T12:19:28Z</time>
      </trkpt>
      <trkpt lat="43.76734" lon="3.56313">
        <ele>704.30322265625</ele>
        <time>2014-03-16T12:19:30Z</time>
      </trkpt>
      <trkpt lat="43.76734" lon="3.56313">
        <ele>703.82250976562</ele>
        <time>2014-03-16T12:19:31Z</time>
      </trkpt>
      <trkpt lat="43.76734" lon="3.56313">
        <ele>702.38037109375</ele>
        <time>2014-03-16T12:19:33Z</time>
      </trkpt>
      <trkpt lat="43.76734" lon="3.56313">
        <ele>699.49633789062</ele>
        <time>2014-03-16T12:19:37Z</time>
      </trkpt>
      <trkpt lat="43.76734" lon="3.56313">
        <ele>702.38037109375</ele>
        <time>2014-03-16T12:19:40Z</time>
      </trkpt>
      <trkpt lat="43.76734" lon="3.56313">
        <ele>700.9384765625</ele>
        <time>2014-03-16T12:19:43Z</time>
      </trkpt>
      <trkpt lat="43.76734" lon="3.56313">
        <ele>702.86108398438</ele>
        <time>2014-03-16T12:19:55Z</time>
      </trkpt>
      <trkpt lat="43.76734" lon="3.56313">
        <ele>700.9384765625</ele>
        <time>2014-03-16T12:19:59Z</time>
      </trkpt>
      <trkpt lat="43.76734" lon="3.56313">
        <ele>701.41918945312</ele>
        <time>2014-03-16T12:20:10Z</time>
      </trkpt>
      <trkpt lat="43.76734" lon="3.56313">
        <ele>700.4580078125</ele>
        <time>2014-03-16T12:20:47Z</time>
      </trkpt>
      <trkpt lat="43.76734" lon="3.56313">
        <ele>699.49633789062</ele>
        <time>2014-03-16T12:20:52Z</time>
      </trkpt>
      <trkpt lat="43.76734" lon="3.56313">
        <ele>700.9384765625</ele>
        <time>2014-03-16T12:20:54Z</time>
      </trkpt>
      <trkpt lat="43.76734" lon="3.56313">
        <ele>701.41918945312</ele>
        <time>2014-03-16T12:21:11Z</time>
      </trkpt>
      <trkpt lat="43.76735" lon="3.56312">
        <ele>704.78369140625</ele>
        <time>2014-03-16T12:21:35Z</time>
      </trkpt>
      <trkpt lat="43.76735" lon="3.56312">
        <ele>702.86108398438</ele>
        <time>2014-03-16T12:21:36Z</time>
      </trkpt>
      <trkpt lat="43.76735" lon="3.56312">
        <ele>700.9384765625</ele>
        <time>2014-03-16T12:21:40Z</time>
      </trkpt>
      <trkpt lat="43.76735" lon="3.56312">
        <ele>703.341796875</ele>
        <time>2014-03-16T12:21:43Z</time>
      </trkpt>
      <trkpt lat="43.76735" lon="3.56312">
        <ele>699.97705078125</ele>
        <time>2014-03-16T12:21:45Z</time>
      </trkpt>
      <trkpt lat="43.76734" lon="3.56312">
        <ele>703.341796875</ele>
        <time>2014-03-16T12:21:48Z</time>
      </trkpt>
      <trkpt lat="43.76734" lon="3.56312">
        <ele>701.89990234375</ele>
        <time>2014-03-16T12:21:51Z</time>
      </trkpt>
      <trkpt lat="43.76734" lon="3.56313">
        <ele>703.82250976562</ele>
        <time>2014-03-16T12:22:14Z</time>
      </trkpt>
      <trkpt lat="43.76734" lon="3.56313">
        <ele>704.30322265625</ele>
        <time>2014-03-16T12:22:19Z</time>
      </trkpt>
      <trkpt lat="43.76734" lon="3.56313">
        <ele>700.9384765625</ele>
        <time>2014-03-16T12:22:20Z</time>
      </trkpt>
      <trkpt lat="43.76734" lon="3.56313">
        <ele>702.38037109375</ele>
        <time>2014-03-16T12:22:21Z</time>
      </trkpt>
      <trkpt lat="43.76734" lon="3.56313">
        <ele>702.86108398438</ele>
        <time>2014-03-16T12:22:23Z</time>
      </trkpt>
      <trkpt lat="43.76734" lon="3.56313">
        <ele>701.41918945312</ele>
        <time>2014-03-16T12:22:25Z</time>
      </trkpt>
      <trkpt lat="43.76734" lon="3.56313">
        <ele>702.38037109375</ele>
        <time>2014-03-16T12:22:37Z</time>
      </trkpt>
      <trkpt lat="43.76734" lon="3.56313">
        <ele>699.97705078125</ele>
        <time>2014-03-16T12:22:44Z</time>
      </trkpt>
      <trkpt lat="43.76734" lon="3.56313">
        <ele>701.41918945312</ele>
        <time>2014-03-16T12:22:50Z</time>
      </trkpt>
      <trkpt lat="43.76734" lon="3.56313">
        <ele>700.4580078125</ele>
        <time>2014-03-16T12:22:55Z</time>
      </trkpt>
      <trkpt lat="43.76734" lon="3.56313">
        <ele>701.89990234375</ele>
        <time>2014-03-16T12:22:58Z</time>
      </trkpt>
      <trkpt lat="43.76734" lon="3.56313">
        <ele>702.86108398438</ele>
        <time>2014-03-16T12:23:12Z</time>
      </trkpt>
      <trkpt lat="43.76734" lon="3.56313">
        <ele>698.53491210938</ele>
        <time>2014-03-16T12:23:37Z</time>
      </trkpt>
      <trkpt lat="43.76734" lon="3.56313">
        <ele>702.38037109375</ele>
        <time>2014-03-16T12:23:39Z</time>
      </trkpt>
      <trkpt lat="43.76734" lon="3.56313">
        <ele>702.38037109375</ele>
        <time>2014-03-16T12:23:40Z</time>
      </trkpt>
      <trkpt lat="43.76734" lon="3.56313">
        <ele>703.82250976562</ele>
        <time>2014-03-16T12:23:58Z</time>
      </trkpt>
      <trkpt lat="43.76734" lon="3.56313">
        <ele>702.38037109375</ele>
        <time>2014-03-16T12:24:00Z</time>
      </trkpt>
      <trkpt lat="43.76734" lon="3.56313">
        <ele>702.86108398438</ele>
        <time>2014-03-16T12:24:18Z</time>
      </trkpt>
      <trkpt lat="43.76735" lon="3.56313">
        <ele>701.41918945312</ele>
        <time>2014-03-16T12:24:29Z</time>
      </trkpt>
      <trkpt lat="43.76735" lon="3.56314">
        <ele>700.9384765625</ele>
        <time>2014-03-16T12:24:38Z</time>
      </trkpt>
      <trkpt lat="43.76735" lon="3.56314">
        <ele>702.38037109375</ele>
        <time>2014-03-16T12:24:41Z</time>
      </trkpt>
      <trkpt lat="43.76735" lon="3.56314">
        <ele>700.4580078125</ele>
        <time>2014-03-16T12:25:20Z</time>
      </trkpt>
      <trkpt lat="43.76735" lon="3.56314">
        <ele>703.82250976562</ele>
        <time>2014-03-16T12:25:23Z</time>
      </trkpt>
      <trkpt lat="43.76735" lon="3.56314">
        <ele>700.9384765625</ele>
        <time>2014-03-16T12:25:27Z</time>
      </trkpt>
      <trkpt lat="43.76735" lon="3.56314">
        <ele>702.38037109375</ele>
        <time>2014-03-16T12:25:29Z</time>
      </trkpt>
      <trkpt lat="43.76735" lon="3.56314">
        <ele>701.41918945312</ele>
        <time>2014-03-16T12:25:49Z</time>
      </trkpt>
      <trkpt lat="43.76735" lon="3.56314">
        <ele>704.30322265625</ele>
        <time>2014-03-16T12:25:52Z</time>
      </trkpt>
      <trkpt lat="43.76735" lon="3.56314">
        <ele>702.38037109375</ele>
        <time>2014-03-16T12:25:55Z</time>
      </trkpt>
      <trkpt lat="43.76735" lon="3.56314">
        <ele>698.05444335938</ele>
        <time>2014-03-16T12:25:58Z</time>
      </trkpt>
      <trkpt lat="43.76735" lon="3.56314">
        <ele>702.38037109375</ele>
        <time>2014-03-16T12:26:00Z</time>
      </trkpt>
      <trkpt lat="43.76735" lon="3.56314">
        <ele>702.38037109375</ele>
        <time>2014-03-16T12:26:04Z</time>
      </trkpt>
      <trkpt lat="43.76735" lon="3.56314">
        <ele>699.015625</ele>
        <time>2014-03-16T12:26:16Z</time>
      </trkpt>
      <trkpt lat="43.76735" lon="3.56314">
        <ele>702.38037109375</ele>
        <time>2014-03-16T12:26:19Z</time>
      </trkpt>
      <trkpt lat="43.76735" lon="3.56314">
        <ele>700.4580078125</ele>
        <time>2014-03-16T12:26:22Z</time>
      </trkpt>
      <trkpt lat="43.76735" lon="3.56314">
        <ele>701.89990234375</ele>
        <time>2014-03-16T12:26:24Z</time>
      </trkpt>
      <trkpt lat="43.76735" lon="3.56315">
        <ele>702.38037109375</ele>
        <time>2014-03-16T12:26:40Z</time>
      </trkpt>
      <trkpt lat="43.76736" lon="3.56315">
        <ele>701.89990234375</ele>
        <time>2014-03-16T12:26:57Z</time>
      </trkpt>
      <trkpt lat="43.76736" lon="3.56315">
        <ele>700.4580078125</ele>
        <time>2014-03-16T12:27:03Z</time>
      </trkpt>
      <trkpt lat="43.76736" lon="3.56315">
        <ele>701.89990234375</ele>
        <time>2014-03-16T12:27:07Z</time>
      </trkpt>
      <trkpt lat="43.76736" lon="3.56315">
        <ele>703.341796875</ele>
        <time>2014-03-16T12:27:20Z</time>
      </trkpt>
      <trkpt lat="43.76736" lon="3.56315">
        <ele>699.97705078125</ele>
        <time>2014-03-16T12:27:29Z</time>
      </trkpt>
      <trkpt lat="43.76736" lon="3.56315">
        <ele>703.82250976562</ele>
        <time>2014-03-16T12:27:39Z</time>
      </trkpt>
      <trkpt lat="43.76736" lon="3.56315">
        <ele>702.38037109375</ele>
        <time>2014-03-16T12:27:40Z</time>
      </trkpt>
      <trkpt lat="43.76736" lon="3.56315">
        <ele>702.38037109375</ele>
        <time>2014-03-16T12:27:47Z</time>
      </trkpt>
      <trkpt lat="43.76736" lon="3.56315">
        <ele>702.86108398438</ele>
        <time>2014-03-16T12:27:56Z</time>
      </trkpt>
      <trkpt lat="43.76736" lon="3.56315">
        <ele>700.9384765625</ele>
        <time>2014-03-16T12:27:59Z</time>
      </trkpt>
      <trkpt lat="43.76736" lon="3.56315">
        <ele>697.57373046875</ele>
        <time>2014-03-16T12:28:07Z</time>
      </trkpt>
      <trkpt lat="43.76736" lon="3.56315">
        <ele>702.86108398438</ele>
        <time>2014-03-16T12:28:08Z</time>
      </trkpt>
      <trkpt lat="43.76736" lon="3.56315">
        <ele>704.30322265625</ele>
        <time>2014-03-16T12:28:11Z</time>
      </trkpt>
      <trkpt lat="43.76736" lon="3.56315">
        <ele>701.89990234375</ele>
        <time>2014-03-16T12:28:14Z</time>
      </trkpt>
      <trkpt lat="43.76736" lon="3.56315">
        <ele>701.41918945312</ele>
        <time>2014-03-16T12:28:31Z</time>
      </trkpt>
      <trkpt lat="43.76736" lon="3.56315">
        <ele>700.4580078125</ele>
        <time>2014-03-16T12:28:36Z</time>
      </trkpt>
      <trkpt lat="43.76736" lon="3.56315">
        <ele>703.82250976562</ele>
        <time>2014-03-16T12:28:41Z</time>
      </trkpt>
      <trkpt lat="43.76736" lon="3.56315">
        <ele>703.341796875</ele>
        <time>2014-03-16T12:28:42Z</time>
      </trkpt>
      <trkpt lat="43.76736" lon="3.56315">
        <ele>700.4580078125</ele>
        <time>2014-03-16T12:28:45Z</time>
      </trkpt>
      <trkpt lat="43.76736" lon="3.56315">
        <ele>701.89990234375</ele>
        <time>2014-03-16T12:28:47Z</time>
      </trkpt>
      <trkpt lat="43.76737" lon="3.56315">
        <ele>702.86108398438</ele>
        <time>2014-03-16T12:29:17Z</time>
      </trkpt>
      <trkpt lat="43.76737" lon="3.56315">
        <ele>701.89990234375</ele>
        <time>2014-03-16T12:29:23Z</time>
      </trkpt>
      <trkpt lat="43.76738" lon="3.56316">
        <ele>700.9384765625</ele>
        <time>2014-03-16T12:30:04Z</time>
      </trkpt>
      <trkpt lat="43.76739" lon="3.56316">
        <ele>702.86108398438</ele>
        <time>2014-03-16T12:30:06Z</time>
      </trkpt>
      <trkpt lat="43.76739" lon="3.56316">
        <ele>702.86108398438</ele>
        <time>2014-03-16T12:30:10Z</time>
      </trkpt>
      <trkpt lat="43.76742" lon="3.56315">
        <ele>701.89990234375</ele>
        <time>2014-03-16T12:30:29Z</time>
      </trkpt>
      <trkpt lat="43.76742" lon="3.56315">
        <ele>702.86108398438</ele>
        <time>2014-03-16T12:30:35Z</time>
      </trkpt>
      <trkpt lat="43.76743" lon="3.56316">
        <ele>699.49633789062</ele>
        <time>2014-03-16T12:30:47Z</time>
      </trkpt>
      <trkpt lat="43.76744" lon="3.56315">
        <ele>701.41918945312</ele>
        <time>2014-03-16T12:30:51Z</time>
      </trkpt>
      <trkpt lat="43.76745" lon="3.56316">
        <ele>702.38037109375</ele>
        <time>2014-03-16T12:31:07Z</time>
      </trkpt>
      <trkpt lat="43.76745" lon="3.56316">
        <ele>703.341796875</ele>
        <time>2014-03-16T12:31:21Z</time>
      </trkpt>
      <trkpt lat="43.76745" lon="3.56316">
        <ele>699.015625</ele>
        <time>2014-03-16T12:31:30Z</time>
      </trkpt>
      <trkpt lat="43.76746" lon="3.56316">
        <ele>702.38037109375</ele>
        <time>2014-03-16T12:31:42Z</time>
      </trkpt>
      <trkpt lat="43.76745" lon="3.56316">
        <ele>699.97705078125</ele>
        <time>2014-03-16T12:31:46Z</time>
      </trkpt>
      <trkpt lat="43.76745" lon="3.56317">
        <ele>700.9384765625</ele>
        <time>2014-03-16T12:31:57Z</time>
      </trkpt>
      <trkpt lat="43.76745" lon="3.56316">
        <ele>699.97705078125</ele>
        <time>2014-03-16T12:32:08Z</time>
      </trkpt>
      <trkpt lat="43.76745" lon="3.56316">
        <ele>701.41918945312</ele>
        <time>2014-03-16T12:32:18Z</time>
      </trkpt>
      <trkpt lat="43.76746" lon="3.56315">
        <ele>700.4580078125</ele>
        <time>2014-03-16T12:34:14Z</time>
      </trkpt>
      <trkpt lat="43.76746" lon="3.56315">
        <ele>698.53491210938</ele>
        <time>2014-03-16T12:34:18Z</time>
      </trkpt>
      <trkpt lat="43.76746" lon="3.56315">
        <ele>699.97705078125</ele>
        <time>2014-03-16T12:34:41Z</time>
      </trkpt>
      <trkpt lat="43.76746" lon="3.56316">
        <ele>704.30322265625</ele>
        <time>2014-03-16T12:34:51Z</time>
      </trkpt>
      <trkpt lat="43.76745" lon="3.56316">
        <ele>704.30322265625</ele>
        <time>2014-03-16T12:34:52Z</time>
      </trkpt>
      <trkpt lat="43.76745" lon="3.56316">
        <ele>700.9384765625</ele>
        <time>2014-03-16T12:34:54Z</time>
      </trkpt>
      <trkpt lat="43.76745" lon="3.56316">
        <ele>700.4580078125</ele>
        <time>2014-03-16T12:35:20Z</time>
      </trkpt>
      <trkpt lat="43.76745" lon="3.56316">
        <ele>699.97705078125</ele>
        <time>2014-03-16T12:35:38Z</time>
      </trkpt>
      <trkpt lat="43.76745" lon="3.56316">
        <ele>702.86108398438</ele>
        <time>2014-03-16T12:36:02Z</time>
      </trkpt>
      <trkpt lat="43.76745" lon="3.56316">
        <ele>703.82250976562</ele>
        <time>2014-03-16T12:36:12Z</time>
      </trkpt>
      <trkpt lat="43.76745" lon="3.56316">
        <ele>698.53491210938</ele>
        <time>2014-03-16T12:36:14Z</time>
      </trkpt>
      <trkpt lat="43.76745" lon="3.56316">
        <ele>698.05444335938</ele>
        <time>2014-03-16T12:36:15Z</time>
      </trkpt>
      <trkpt lat="43.76745" lon="3.56316">
        <ele>701.41918945312</ele>
        <time>2014-03-16T12:36:16Z</time>
      </trkpt>
      <trkpt lat="43.76745" lon="3.56316">
        <ele>704.30322265625</ele>
        <time>2014-03-16T12:36:18Z</time>
      </trkpt>
      <trkpt lat="43.76745" lon="3.56316">
        <ele>701.41918945312</ele>
        <time>2014-03-16T12:36:24Z</time>
      </trkpt>
      <trkpt lat="43.76745" lon="3.56316">
        <ele>702.38037109375</ele>
        <time>2014-03-16T12:36:28Z</time>
      </trkpt>
      <trkpt lat="43.76745" lon="3.56316">
        <ele>700.9384765625</ele>
        <time>2014-03-16T12:36:32Z</time>
      </trkpt>
      <trkpt lat="43.76745" lon="3.56316">
        <ele>704.30322265625</ele>
        <time>2014-03-16T12:36:36Z</time>
      </trkpt>
      <trkpt lat="43.76745" lon="3.56316">
        <ele>701.41918945312</ele>
        <time>2014-03-16T12:36:37Z</time>
      </trkpt>
      <trkpt lat="43.76745" lon="3.56316">
        <ele>700.9384765625</ele>
        <time>2014-03-16T12:36:47Z</time>
      </trkpt>
      <trkpt lat="43.76745" lon="3.56316">
        <ele>703.341796875</ele>
        <time>2014-03-16T12:36:51Z</time>
      </trkpt>
      <trkpt lat="43.76745" lon="3.56316">
        <ele>701.89990234375</ele>
        <time>2014-03-16T12:36:54Z</time>
      </trkpt>
      <trkpt lat="43.76745" lon="3.56316">
        <ele>701.41918945312</ele>
        <time>2014-03-16T12:37:01Z</time>
      </trkpt>
      <trkpt lat="43.76745" lon="3.56315">
        <ele>702.86108398438</ele>
        <time>2014-03-16T12:37:22Z</time>
      </trkpt>
      <trkpt lat="43.76745" lon="3.56314">
        <ele>699.97705078125</ele>
        <time>2014-03-16T12:37:25Z</time>
      </trkpt>
      <trkpt lat="43.76745" lon="3.56314">
        <ele>704.30322265625</ele>
        <time>2014-03-16T12:37:29Z</time>
      </trkpt>
      <trkpt lat="43.76745" lon="3.56313">
        <ele>704.30322265625</ele>
        <time>2014-03-16T12:37:30Z</time>
      </trkpt>
      <trkpt lat="43.76744" lon="3.56312">
        <ele>700.9384765625</ele>
        <time>2014-03-16T12:37:32Z</time>
      </trkpt>
      <trkpt lat="43.76744" lon="3.56311">
        <ele>700.9384765625</ele>
        <time>2014-03-16T12:37:33Z</time>
      </trkpt>
      <trkpt lat="43.76744" lon="3.56306">
        <ele>700.4580078125</ele>
        <time>2014-03-16T12:37:39Z</time>
      </trkpt>
      <trkpt lat="43.76751" lon="3.56302">
        <ele>701.89990234375</ele>
        <time>2014-03-16T12:37:46Z</time>
      </trkpt>
      <trkpt lat="43.76753" lon="3.56301">
        <ele>701.41918945312</ele>
        <time>2014-03-16T12:37:48Z</time>
      </trkpt>
      <trkpt lat="43.76759" lon="3.56293">
        <ele>702.38037109375</ele>
        <time>2014-03-16T12:37:56Z</time>
      </trkpt>
      <trkpt lat="43.76762" lon="3.56291">
        <ele>702.86108398438</ele>
        <time>2014-03-16T12:38:00Z</time>
      </trkpt>
      <trkpt lat="43.76767" lon="3.56288">
        <ele>703.341796875</ele>
        <time>2014-03-16T12:38:07Z</time>
      </trkpt>
      <trkpt lat="43.7677" lon="3.56288">
        <ele>706.70629882812</ele>
        <time>2014-03-16T12:38:11Z</time>
      </trkpt>
      <trkpt lat="43.76775" lon="3.56292">
        <ele>705.7451171875</ele>
        <time>2014-03-16T12:38:16Z</time>
      </trkpt>
      <trkpt lat="43.76775" lon="3.56291">
        <ele>706.2255859375</ele>
        <time>2014-03-16T12:38:19Z</time>
      </trkpt>
      <trkpt lat="43.76771" lon="3.56288">
        <ele>704.78369140625</ele>
        <time>2014-03-16T12:38:24Z</time>
      </trkpt>
      <trkpt lat="43.76772" lon="3.56286">
        <ele>705.7451171875</ele>
        <time>2014-03-16T12:38:26Z</time>
      </trkpt>
      <trkpt lat="43.7677" lon="3.56284">
        <ele>704.78369140625</ele>
        <time>2014-03-16T12:38:28Z</time>
      </trkpt>
      <trkpt lat="43.7677" lon="3.5628">
        <ele>706.70629882812</ele>
        <time>2014-03-16T12:38:30Z</time>
      </trkpt>
      <trkpt lat="43.76771" lon="3.56272">
        <ele>706.2255859375</ele>
        <time>2014-03-16T12:38:36Z</time>
      </trkpt>
      <trkpt lat="43.76777" lon="3.56264">
        <ele>705.26440429688</ele>
        <time>2014-03-16T12:38:43Z</time>
      </trkpt>
      <trkpt lat="43.76776" lon="3.5626">
        <ele>702.38037109375</ele>
        <time>2014-03-16T12:38:48Z</time>
      </trkpt>
      <trkpt lat="43.76775" lon="3.56253">
        <ele>701.41918945312</ele>
        <time>2014-03-16T12:38:55Z</time>
      </trkpt>
      <trkpt lat="43.76774" lon="3.56251">
        <ele>699.97705078125</ele>
        <time>2014-03-16T12:38:57Z</time>
      </trkpt>
      <trkpt lat="43.76769" lon="3.56245">
        <ele>698.53491210938</ele>
        <time>2014-03-16T12:39:03Z</time>
      </trkpt>
      <trkpt lat="43.76768" lon="3.56242">
        <ele>696.61254882812</ele>
        <time>2014-03-16T12:39:05Z</time>
      </trkpt>
      <trkpt lat="43.76769" lon="3.56234">
        <ele>696.1318359375</ele>
        <time>2014-03-16T12:39:11Z</time>
      </trkpt>
      <trkpt lat="43.76769" lon="3.56231">
        <ele>694.68969726562</ele>
        <time>2014-03-16T12:39:14Z</time>
      </trkpt>
      <trkpt lat="43.76769" lon="3.56225">
        <ele>692.76733398438</ele>
        <time>2014-03-16T12:39:19Z</time>
      </trkpt>
      <trkpt lat="43.76767" lon="3.56218">
        <ele>689.40258789062</ele>
        <time>2014-03-16T12:39:25Z</time>
      </trkpt>
      <trkpt lat="43.7677" lon="3.56211">
        <ele>686.51879882812</ele>
        <time>2014-03-16T12:39:31Z</time>
      </trkpt>
      <trkpt lat="43.76771" lon="3.56207">
        <ele>686.0380859375</ele>
        <time>2014-03-16T12:39:40Z</time>
      </trkpt>
      <trkpt lat="43.76773" lon="3.56201">
        <ele>685.07690429688</ele>
        <time>2014-03-16T12:39:51Z</time>
      </trkpt>
      <trkpt lat="43.76774" lon="3.56198">
        <ele>683.15380859375</ele>
        <time>2014-03-16T12:39:54Z</time>
      </trkpt>
      <trkpt lat="43.76775" lon="3.56185">
        <ele>680.75073242188</ele>
        <time>2014-03-16T12:40:02Z</time>
      </trkpt>
      <trkpt lat="43.76776" lon="3.56177">
        <ele>678.828125</ele>
        <time>2014-03-16T12:40:07Z</time>
      </trkpt>
      <trkpt lat="43.76775" lon="3.56171">
        <ele>680.27001953125</ele>
        <time>2014-03-16T12:40:11Z</time>
      </trkpt>
      <trkpt lat="43.76773" lon="3.56165">
        <ele>682.19262695312</ele>
        <time>2014-03-16T12:40:15Z</time>
      </trkpt>
      <trkpt lat="43.76773" lon="3.56164">
        <ele>677.86669921875</ele>
        <time>2014-03-16T12:40:16Z</time>
      </trkpt>
      <trkpt lat="43.76772" lon="3.56162">
        <ele>677.38623046875</ele>
        <time>2014-03-16T12:40:17Z</time>
      </trkpt>
      <trkpt lat="43.76774" lon="3.56155">
        <ele>675.94409179688</ele>
        <time>2014-03-16T12:40:23Z</time>
      </trkpt>
      <trkpt lat="43.76773" lon="3.5615">
        <ele>674.50219726562</ele>
        <time>2014-03-16T12:40:26Z</time>
      </trkpt>
      <trkpt lat="43.76773" lon="3.56146">
        <ele>671.1376953125</ele>
        <time>2014-03-16T12:40:29Z</time>
      </trkpt>
      <trkpt lat="43.76771" lon="3.56141">
        <ele>669.21508789062</ele>
        <time>2014-03-16T12:40:34Z</time>
      </trkpt>
      <trkpt lat="43.76772" lon="3.56134">
        <ele>671.6181640625</ele>
        <time>2014-03-16T12:40:39Z</time>
      </trkpt>
      <trkpt lat="43.76775" lon="3.56132">
        <ele>670.17626953125</ele>
        <time>2014-03-16T12:40:42Z</time>
      </trkpt>
      <trkpt lat="43.76779" lon="3.56126">
        <ele>666.8115234375</ele>
        <time>2014-03-16T12:40:47Z</time>
      </trkpt>
      <trkpt lat="43.7678" lon="3.5612">
        <ele>665.85034179688</ele>
        <time>2014-03-16T12:40:51Z</time>
      </trkpt>
      <trkpt lat="43.76781" lon="3.56119">
        <ele>666.8115234375</ele>
        <time>2014-03-16T12:40:52Z</time>
      </trkpt>
      <trkpt lat="43.76785" lon="3.56113">
        <ele>664.408203125</ele>
        <time>2014-03-16T12:40:57Z</time>
      </trkpt>
      <trkpt lat="43.76789" lon="3.56113">
        <ele>663.92749023438</ele>
        <time>2014-03-16T12:41:00Z</time>
      </trkpt>
      <trkpt lat="43.76791" lon="3.56112">
        <ele>664.88891601562</ele>
        <time>2014-03-16T12:41:02Z</time>
      </trkpt>
      <trkpt lat="43.76794" lon="3.56107">
        <ele>661.5244140625</ele>
        <time>2014-03-16T12:41:07Z</time>
      </trkpt>
      <trkpt lat="43.76796" lon="3.56105">
        <ele>663.44702148438</ele>
        <time>2014-03-16T12:41:11Z</time>
      </trkpt>
      <trkpt lat="43.76804" lon="3.56101">
        <ele>659.12109375</ele>
        <time>2014-03-16T12:41:19Z</time>
      </trkpt>
      <trkpt lat="43.76808" lon="3.56098">
        <ele>656.23706054688</ele>
        <time>2014-03-16T12:41:24Z</time>
      </trkpt>
      <trkpt lat="43.7681" lon="3.56097">
        <ele>656.7177734375</ele>
        <time>2014-03-16T12:41:26Z</time>
      </trkpt>
      <trkpt lat="43.76813" lon="3.56094">
        <ele>653.35327148438</ele>
        <time>2014-03-16T12:41:31Z</time>
      </trkpt>
      <trkpt lat="43.76819" lon="3.56091">
        <ele>651.9111328125</ele>
        <time>2014-03-16T12:41:39Z</time>
      </trkpt>
      <trkpt lat="43.76823" lon="3.56089">
        <ele>648.54638671875</ele>
        <time>2014-03-16T12:41:43Z</time>
      </trkpt>
      <trkpt lat="43.76828" lon="3.56082">
        <ele>648.54638671875</ele>
        <time>2014-03-16T12:41:49Z</time>
      </trkpt>
      <trkpt lat="43.76828" lon="3.56077">
        <ele>647.1044921875</ele>
        <time>2014-03-16T12:41:53Z</time>
      </trkpt>
      <trkpt lat="43.76829" lon="3.56065">
        <ele>645.18188476562</ele>
        <time>2014-03-16T12:42:02Z</time>
      </trkpt>
      <trkpt lat="43.76829" lon="3.56064">
        <ele>643.25927734375</ele>
        <time>2014-03-16T12:42:05Z</time>
      </trkpt>
      <trkpt lat="43.7683" lon="3.56061">
        <ele>645.66259765625</ele>
        <time>2014-03-16T12:42:08Z</time>
      </trkpt>
      <trkpt lat="43.76832" lon="3.5605">
        <ele>643.73999023438</ele>
        <time>2014-03-16T12:42:18Z</time>
      </trkpt>
      <trkpt lat="43.76833" lon="3.56035">
        <ele>642.77880859375</ele>
        <time>2014-03-16T12:42:27Z</time>
      </trkpt>
      <trkpt lat="43.76833" lon="3.56026">
        <ele>639.89477539062</ele>
        <time>2014-03-16T12:42:32Z</time>
      </trkpt>
      <trkpt lat="43.76834" lon="3.56023">
        <ele>640.37548828125</ele>
        <time>2014-03-16T12:42:34Z</time>
      </trkpt>
      <trkpt lat="43.76834" lon="3.56017">
        <ele>641.33666992188</ele>
        <time>2014-03-16T12:42:37Z</time>
      </trkpt>
      <trkpt lat="43.76835" lon="3.56014">
        <ele>638.93359375</ele>
        <time>2014-03-16T12:42:39Z</time>
      </trkpt>
      <trkpt lat="43.76837" lon="3.56006">
        <ele>638.93359375</ele>
        <time>2014-03-16T12:42:45Z</time>
      </trkpt>
      <trkpt lat="43.76836" lon="3.55997">
        <ele>638.93359375</ele>
        <time>2014-03-16T12:42:51Z</time>
      </trkpt>
      <trkpt lat="43.7683" lon="3.5599">
        <ele>638.93359375</ele>
        <time>2014-03-16T12:42:57Z</time>
      </trkpt>
      <trkpt lat="43.76829" lon="3.55988">
        <ele>638.93359375</ele>
        <time>2014-03-16T12:42:58Z</time>
      </trkpt>
      <trkpt lat="43.76827" lon="3.55971">
        <ele>640.85595703125</ele>
        <time>2014-03-16T12:43:07Z</time>
      </trkpt>
      <trkpt lat="43.76826" lon="3.55966">
        <ele>641.8173828125</ele>
        <time>2014-03-16T12:43:10Z</time>
      </trkpt>
      <trkpt lat="43.76827" lon="3.55956">
        <ele>639.89477539062</ele>
        <time>2014-03-16T12:43:16Z</time>
      </trkpt>
      <trkpt lat="43.76828" lon="3.55951">
        <ele>641.8173828125</ele>
        <time>2014-03-16T12:43:21Z</time>
      </trkpt>
      <trkpt lat="43.76829" lon="3.55948">
        <ele>639.89477539062</ele>
        <time>2014-03-16T12:43:23Z</time>
      </trkpt>
      <trkpt lat="43.76834" lon="3.55936">
        <ele>641.8173828125</ele>
        <time>2014-03-16T12:43:31Z</time>
      </trkpt>
      <trkpt lat="43.76841" lon="3.55928">
        <ele>639.89477539062</ele>
        <time>2014-03-16T12:43:38Z</time>
      </trkpt>
      <trkpt lat="43.76841" lon="3.55926">
        <ele>641.33666992188</ele>
        <time>2014-03-16T12:43:39Z</time>
      </trkpt>
      <trkpt lat="43.76847" lon="3.55912">
        <ele>641.33666992188</ele>
        <time>2014-03-16T12:43:47Z</time>
      </trkpt>
      <trkpt lat="43.7685" lon="3.55905">
        <ele>641.8173828125</ele>
        <time>2014-03-16T12:43:53Z</time>
      </trkpt>
      <trkpt lat="43.7685" lon="3.55905">
        <ele>639.89477539062</ele>
        <time>2014-03-16T12:43:56Z</time>
      </trkpt>
      <trkpt lat="43.7685" lon="3.55904">
        <ele>639.89477539062</ele>
        <time>2014-03-16T12:44:12Z</time>
      </trkpt>
      <trkpt lat="43.7685" lon="3.55904">
        <ele>639.4140625</ele>
        <time>2014-03-16T12:44:38Z</time>
      </trkpt>
      <trkpt lat="43.7685" lon="3.55904">
        <ele>641.8173828125</ele>
        <time>2014-03-16T12:44:40Z</time>
      </trkpt>
      <trkpt lat="43.7685" lon="3.55904">
        <ele>640.37548828125</ele>
        <time>2014-03-16T12:44:47Z</time>
      </trkpt>
      <trkpt lat="43.76851" lon="3.55904">
        <ele>642.29809570312</ele>
        <time>2014-03-16T12:44:50Z</time>
      </trkpt>
      <trkpt lat="43.76854" lon="3.55902">
        <ele>642.77880859375</ele>
        <time>2014-03-16T12:45:11Z</time>
      </trkpt>
      <trkpt lat="43.7686" lon="3.55898">
        <ele>643.25927734375</ele>
        <time>2014-03-16T12:45:16Z</time>
      </trkpt>
      <trkpt lat="43.76865" lon="3.55888">
        <ele>641.8173828125</ele>
        <time>2014-03-16T12:45:24Z</time>
      </trkpt>
      <trkpt lat="43.76867" lon="3.55879">
        <ele>639.4140625</ele>
        <time>2014-03-16T12:45:28Z</time>
      </trkpt>
      <trkpt lat="43.76867" lon="3.55877">
        <ele>639.4140625</ele>
        <time>2014-03-16T12:45:29Z</time>
      </trkpt>
      <trkpt lat="43.76869" lon="3.55873">
        <ele>644.701171875</ele>
        <time>2014-03-16T12:45:31Z</time>
      </trkpt>
      <trkpt lat="43.76869" lon="3.55871">
        <ele>643.25927734375</ele>
        <time>2014-03-16T12:45:32Z</time>
      </trkpt>
      <trkpt lat="43.7687" lon="3.55869">
        <ele>642.77880859375</ele>
        <time>2014-03-16T12:45:33Z</time>
      </trkpt>
      <trkpt lat="43.76872" lon="3.55859">
        <ele>644.701171875</ele>
        <time>2014-03-16T12:45:39Z</time>
      </trkpt>
      <trkpt lat="43.76871" lon="3.55847">
        <ele>641.8173828125</ele>
        <time>2014-03-16T12:45:46Z</time>
      </trkpt>
      <trkpt lat="43.76873" lon="3.55839">
        <ele>642.77880859375</ele>
        <time>2014-03-16T12:45:53Z</time>
      </trkpt>
      <trkpt lat="43.76872" lon="3.5584">
        <ele>642.77880859375</ele>
        <time>2014-03-16T12:45:59Z</time>
      </trkpt>
      <trkpt lat="43.76872" lon="3.55839">
        <ele>644.220703125</ele>
        <time>2014-03-16T12:46:21Z</time>
      </trkpt>
      <trkpt lat="43.76872" lon="3.55839">
        <ele>644.220703125</ele>
        <time>2014-03-16T12:46:37Z</time>
      </trkpt>
      <trkpt lat="43.76872" lon="3.55839">
        <ele>642.29809570312</ele>
        <time>2014-03-16T12:46:55Z</time>
      </trkpt>
      <trkpt lat="43.76872" lon="3.55839">
        <ele>641.33666992188</ele>
        <time>2014-03-16T12:47:08Z</time>
      </trkpt>
      <trkpt lat="43.76873" lon="3.55838">
        <ele>641.33666992188</ele>
        <time>2014-03-16T12:47:21Z</time>
      </trkpt>
      <trkpt lat="43.76873" lon="3.55838">
        <ele>641.8173828125</ele>
        <time>2014-03-16T12:47:32Z</time>
      </trkpt>
      <trkpt lat="43.76873" lon="3.55838">
        <ele>644.701171875</ele>
        <time>2014-03-16T12:47:39Z</time>
      </trkpt>
      <trkpt lat="43.76873" lon="3.55836">
        <ele>642.77880859375</ele>
        <time>2014-03-16T12:47:43Z</time>
      </trkpt>
      <trkpt lat="43.76871" lon="3.55828">
        <ele>639.89477539062</ele>
        <time>2014-03-16T12:47:49Z</time>
      </trkpt>
      <trkpt lat="43.76871" lon="3.55826">
        <ele>639.89477539062</ele>
        <time>2014-03-16T12:47:50Z</time>
      </trkpt>
      <trkpt lat="43.7687" lon="3.55824">
        <ele>645.18188476562</ele>
        <time>2014-03-16T12:47:51Z</time>
      </trkpt>
      <trkpt lat="43.7687" lon="3.55823">
        <ele>643.73999023438</ele>
        <time>2014-03-16T12:47:52Z</time>
      </trkpt>
      <trkpt lat="43.76866" lon="3.55814">
        <ele>645.18188476562</ele>
        <time>2014-03-16T12:47:58Z</time>
      </trkpt>
      <trkpt lat="43.76863" lon="3.55809">
        <ele>646.14331054688</ele>
        <time>2014-03-16T12:48:03Z</time>
      </trkpt>
      <trkpt lat="43.76859" lon="3.55806">
        <ele>642.29809570312</ele>
        <time>2014-03-16T12:48:07Z</time>
      </trkpt>
      <trkpt lat="43.76856" lon="3.55806">
        <ele>645.66259765625</ele>
        <time>2014-03-16T12:48:10Z</time>
      </trkpt>
      <trkpt lat="43.76853" lon="3.55804">
        <ele>645.66259765625</ele>
        <time>2014-03-16T12:48:14Z</time>
      </trkpt>
      <trkpt lat="43.76851" lon="3.55803">
        <ele>644.701171875</ele>
        <time>2014-03-16T12:48:15Z</time>
      </trkpt>
      <trkpt lat="43.76841" lon="3.55797">
        <ele>643.25927734375</ele>
        <time>2014-03-16T12:48:24Z</time>
      </trkpt>
      <trkpt lat="43.76837" lon="3.55797">
        <ele>644.701171875</ele>
        <time>2014-03-16T12:48:27Z</time>
      </trkpt>
      <trkpt lat="43.76833" lon="3.558">
        <ele>646.14331054688</ele>
        <time>2014-03-16T12:48:31Z</time>
      </trkpt>
      <trkpt lat="43.76829" lon="3.55811">
        <ele>643.73999023438</ele>
        <time>2014-03-16T12:48:39Z</time>
      </trkpt>
      <trkpt lat="43.76823" lon="3.55824">
        <ele>643.73999023438</ele>
        <time>2014-03-16T12:48:47Z</time>
      </trkpt>
      <trkpt lat="43.76821" lon="3.55829">
        <ele>642.29809570312</ele>
        <time>2014-03-16T12:48:50Z</time>
      </trkpt>
      <trkpt lat="43.76817" lon="3.55839">
        <ele>639.89477539062</ele>
        <time>2014-03-16T12:48:57Z</time>
      </trkpt>
      <trkpt lat="43.76815" lon="3.55842">
        <ele>641.8173828125</ele>
        <time>2014-03-16T12:49:01Z</time>
      </trkpt>
      <trkpt lat="43.76809" lon="3.55856">
        <ele>639.4140625</ele>
        <time>2014-03-16T12:49:10Z</time>
      </trkpt>
      <trkpt lat="43.76804" lon="3.55863">
        <ele>638.93359375</ele>
        <time>2014-03-16T12:49:16Z</time>
      </trkpt>
      <trkpt lat="43.76798" lon="3.55866">
        <ele>637.0107421875</ele>
        <time>2014-03-16T12:49:21Z</time>
      </trkpt>
      <trkpt lat="43.76791" lon="3.55867">
        <ele>637.49145507812</ele>
        <time>2014-03-16T12:49:27Z</time>
      </trkpt>
      <trkpt lat="43.7679" lon="3.55867">
        <ele>637.0107421875</ele>
        <time>2014-03-16T12:49:28Z</time>
      </trkpt>
      <trkpt lat="43.76782" lon="3.55872">
        <ele>634.607421875</ele>
        <time>2014-03-16T12:49:34Z</time>
      </trkpt>
      <trkpt lat="43.76781" lon="3.55873">
        <ele>635.08813476562</ele>
        <time>2014-03-16T12:49:35Z</time>
      </trkpt>
      <trkpt lat="43.76771" lon="3.5588">
        <ele>633.64599609375</ele>
        <time>2014-03-16T12:49:45Z</time>
      </trkpt>
      <trkpt lat="43.76769" lon="3.55882">
        <ele>632.68481445312</ele>
        <time>2014-03-16T12:49:47Z</time>
      </trkpt>
      <trkpt lat="43.76764" lon="3.55888">
        <ele>631.24291992188</ele>
        <time>2014-03-16T12:49:54Z</time>
      </trkpt>
      <trkpt lat="43.7676" lon="3.55891">
        <ele>633.64599609375</ele>
        <time>2014-03-16T12:49:58Z</time>
      </trkpt>
      <trkpt lat="43.76757" lon="3.55893">
        <ele>632.2041015625</ele>
        <time>2014-03-16T12:50:01Z</time>
      </trkpt>
      <trkpt lat="43.76747" lon="3.55897">
        <ele>630.28149414062</ele>
        <time>2014-03-16T12:50:09Z</time>
      </trkpt>
      <trkpt lat="43.76741" lon="3.55901">
        <ele>629.80078125</ele>
        <time>2014-03-16T12:50:16Z</time>
      </trkpt>
      <trkpt lat="43.76736" lon="3.55905">
        <ele>631.72338867188</ele>
        <time>2014-03-16T12:50:24Z</time>
      </trkpt>
      <trkpt lat="43.76736" lon="3.55905">
        <ele>629.80078125</ele>
        <time>2014-03-16T12:50:36Z</time>
      </trkpt>
      <trkpt lat="43.76736" lon="3.55905">
        <ele>631.24291992188</ele>
        <time>2014-03-16T12:50:38Z</time>
      </trkpt>
      <trkpt lat="43.76734" lon="3.55907">
        <ele>630.76220703125</ele>
        <time>2014-03-16T12:50:43Z</time>
      </trkpt>
      <trkpt lat="43.76728" lon="3.55916">
        <ele>631.24291992188</ele>
        <time>2014-03-16T12:50:50Z</time>
      </trkpt>
      <trkpt lat="43.76721" lon="3.55932">
        <ele>629.32006835938</ele>
        <time>2014-03-16T12:51:00Z</time>
      </trkpt>
      <trkpt lat="43.76721" lon="3.55934">
        <ele>629.80078125</ele>
        <time>2014-03-16T12:51:01Z</time>
      </trkpt>
      <trkpt lat="43.76713" lon="3.55947">
        <ele>627.87817382812</ele>
        <time>2014-03-16T12:51:11Z</time>
      </trkpt>
      <trkpt lat="43.7671" lon="3.55949">
        <ele>626.9169921875</ele>
        <time>2014-03-16T12:51:15Z</time>
      </trkpt>
      <trkpt lat="43.76706" lon="3.55948">
        <ele>628.83959960938</ele>
        <time>2014-03-16T12:51:18Z</time>
      </trkpt>
      <trkpt lat="43.76703" lon="3.55947">
        <ele>625.95556640625</ele>
        <time>2014-03-16T12:51:21Z</time>
      </trkpt>
      <trkpt lat="43.76703" lon="3.55948">
        <ele>625.95556640625</ele>
        <time>2014-03-16T12:51:22Z</time>
      </trkpt>
      <trkpt lat="43.76695" lon="3.55947">
        <ele>624.99438476562</ele>
        <time>2014-03-16T12:51:30Z</time>
      </trkpt>
      <trkpt lat="43.76694" lon="3.55946">
        <ele>624.99438476562</ele>
        <time>2014-03-16T12:51:31Z</time>
      </trkpt>
      <trkpt lat="43.76693" lon="3.55946">
        <ele>625.47485351562</ele>
        <time>2014-03-16T12:51:32Z</time>
      </trkpt>
      <trkpt lat="43.76687" lon="3.55947">
        <ele>627.39770507812</ele>
        <time>2014-03-16T12:51:36Z</time>
      </trkpt>
      <trkpt lat="43.76677" lon="3.55949">
        <ele>626.9169921875</ele>
        <time>2014-03-16T12:51:44Z</time>
      </trkpt>
      <trkpt lat="43.7667" lon="3.55948">
        <ele>626.43627929688</ele>
        <time>2014-03-16T12:51:50Z</time>
      </trkpt>
      <trkpt lat="43.76658" lon="3.5595">
        <ele>627.39770507812</ele>
        <time>2014-03-16T12:51:58Z</time>
      </trkpt>
      <trkpt lat="43.76651" lon="3.55948">
        <ele>627.87817382812</ele>
        <time>2014-03-16T12:52:05Z</time>
      </trkpt>
      <trkpt lat="43.76652" lon="3.55947">
        <ele>626.43627929688</ele>
        <time>2014-03-16T12:52:06Z</time>
      </trkpt>
      <trkpt lat="43.76654" lon="3.55944">
        <ele>628.35888671875</ele>
        <time>2014-03-16T12:52:10Z</time>
      </trkpt>
      <trkpt lat="43.76657" lon="3.55942">
        <ele>626.43627929688</ele>
        <time>2014-03-16T12:52:13Z</time>
      </trkpt>
      <trkpt lat="43.7666" lon="3.5594">
        <ele>624.99438476562</ele>
        <time>2014-03-16T12:52:16Z</time>
      </trkpt>
      <trkpt lat="43.76665" lon="3.55934">
        <ele>625.47485351562</ele>
        <time>2014-03-16T12:52:22Z</time>
      </trkpt>
      <trkpt lat="43.76667" lon="3.55932">
        <ele>621.62963867188</ele>
        <time>2014-03-16T12:52:25Z</time>
      </trkpt>
      <trkpt lat="43.76672" lon="3.55927">
        <ele>619.70703125</ele>
        <time>2014-03-16T12:52:31Z</time>
      </trkpt>
      <trkpt lat="43.76677" lon="3.55922">
        <ele>618.74560546875</ele>
        <time>2014-03-16T12:52:36Z</time>
      </trkpt>
      <trkpt lat="43.76688" lon="3.55917">
        <ele>617.3037109375</ele>
        <time>2014-03-16T12:52:44Z</time>
      </trkpt>
      <trkpt lat="43.76695" lon="3.55913">
        <ele>617.7841796875</ele>
        <time>2014-03-16T12:52:50Z</time>
      </trkpt>
      <trkpt lat="43.76696" lon="3.5591">
        <ele>615.86181640625</ele>
        <time>2014-03-16T12:52:52Z</time>
      </trkpt>
      <trkpt lat="43.76697" lon="3.55907">
        <ele>616.34228515625</ele>
        <time>2014-03-16T12:52:54Z</time>
      </trkpt>
      <trkpt lat="43.76699" lon="3.55902">
        <ele>617.3037109375</ele>
        <time>2014-03-16T12:52:57Z</time>
      </trkpt>
      <trkpt lat="43.76701" lon="3.55896">
        <ele>615.86181640625</ele>
        <time>2014-03-16T12:53:01Z</time>
      </trkpt>
      <trkpt lat="43.76704" lon="3.55889">
        <ele>616.34228515625</ele>
        <time>2014-03-16T12:53:08Z</time>
      </trkpt>
      <trkpt lat="43.76704" lon="3.55889">
        <ele>617.7841796875</ele>
        <time>2014-03-16T12:53:20Z</time>
      </trkpt>
      <trkpt lat="43.76704" lon="3.55889">
        <ele>615.86181640625</ele>
        <time>2014-03-16T12:53:22Z</time>
      </trkpt>
      <trkpt lat="43.76704" lon="3.55889">
        <ele>613.93896484375</ele>
        <time>2014-03-16T12:53:35Z</time>
      </trkpt>
      <trkpt lat="43.76704" lon="3.55889">
        <ele>617.3037109375</ele>
        <time>2014-03-16T12:53:38Z</time>
      </trkpt>
      <trkpt lat="43.76704" lon="3.55889">
        <ele>617.3037109375</ele>
        <time>2014-03-16T12:53:39Z</time>
      </trkpt>
      <trkpt lat="43.76704" lon="3.55889">
        <ele>613.93896484375</ele>
        <time>2014-03-16T12:53:54Z</time>
      </trkpt>
      <trkpt lat="43.76704" lon="3.55889">
        <ele>617.3037109375</ele>
        <time>2014-03-16T12:53:56Z</time>
      </trkpt>
      <trkpt lat="43.76704" lon="3.55889">
        <ele>616.82299804688</ele>
        <time>2014-03-16T12:53:57Z</time>
      </trkpt>
      <trkpt lat="43.76704" lon="3.55889">
        <ele>614.41967773438</ele>
        <time>2014-03-16T12:54:07Z</time>
      </trkpt>
      <trkpt lat="43.76704" lon="3.55889">
        <ele>615.38110351562</ele>
        <time>2014-03-16T12:54:11Z</time>
      </trkpt>
      <trkpt lat="43.76704" lon="3.55889">
        <ele>617.7841796875</ele>
        <time>2014-03-16T12:54:17Z</time>
      </trkpt>
      <trkpt lat="43.76704" lon="3.55889">
        <ele>615.38110351562</ele>
        <time>2014-03-16T12:54:21Z</time>
      </trkpt>
      <trkpt lat="43.76704" lon="3.55889">
        <ele>618.26489257812</ele>
        <time>2014-03-16T12:54:25Z</time>
      </trkpt>
      <trkpt lat="43.76704" lon="3.55889">
        <ele>613.93896484375</ele>
        <time>2014-03-16T12:54:29Z</time>
      </trkpt>
      <trkpt lat="43.76704" lon="3.55889">
        <ele>617.3037109375</ele>
        <time>2014-03-16T12:54:33Z</time>
      </trkpt>
      <trkpt lat="43.76704" lon="3.55889">
        <ele>615.38110351562</ele>
        <time>2014-03-16T12:54:39Z</time>
      </trkpt>
      <trkpt lat="43.76704" lon="3.55889">
        <ele>617.7841796875</ele>
        <time>2014-03-16T12:54:42Z</time>
      </trkpt>
      <trkpt lat="43.76704" lon="3.55889">
        <ele>615.86181640625</ele>
        <time>2014-03-16T12:54:45Z</time>
      </trkpt>
      <trkpt lat="43.76704" lon="3.55889">
        <ele>619.22631835938</ele>
        <time>2014-03-16T12:54:50Z</time>
      </trkpt>
      <trkpt lat="43.76704" lon="3.55889">
        <ele>615.86181640625</ele>
        <time>2014-03-16T12:54:51Z</time>
      </trkpt>
      <trkpt lat="43.76704" lon="3.55889">
        <ele>616.34228515625</ele>
        <time>2014-03-16T12:55:03Z</time>
      </trkpt>
      <trkpt lat="43.76704" lon="3.55889">
        <ele>615.38110351562</ele>
        <time>2014-03-16T12:55:20Z</time>
      </trkpt>
      <trkpt lat="43.76704" lon="3.55889">
        <ele>616.82299804688</ele>
        <time>2014-03-16T12:55:22Z</time>
      </trkpt>
      <trkpt lat="43.76709" lon="3.55887">
        <ele>615.86181640625</ele>
        <time>2014-03-16T12:55:39Z</time>
      </trkpt>
      <trkpt lat="43.7671" lon="3.55886">
        <ele>616.82299804688</ele>
        <time>2014-03-16T12:55:40Z</time>
      </trkpt>
      <trkpt lat="43.76718" lon="3.55878">
        <ele>615.38110351562</ele>
        <time>2014-03-16T12:55:48Z</time>
      </trkpt>
      <trkpt lat="43.76724" lon="3.55871">
        <ele>611.53588867188</ele>
        <time>2014-03-16T12:55:57Z</time>
      </trkpt>
      <trkpt lat="43.76726" lon="3.55868">
        <ele>611.05517578125</ele>
        <time>2014-03-16T12:55:59Z</time>
      </trkpt>
      <trkpt lat="43.76728" lon="3.55865">
        <ele>615.38110351562</ele>
        <time>2014-03-16T12:56:02Z</time>
      </trkpt>
      <trkpt lat="43.7673" lon="3.55865">
        <ele>614.900390625</ele>
        <time>2014-03-16T12:56:03Z</time>
      </trkpt>
      <trkpt lat="43.76734" lon="3.55858">
        <ele>611.53588867188</ele>
        <time>2014-03-16T12:56:09Z</time>
      </trkpt>
      <trkpt lat="43.76736" lon="3.55854">
        <ele>613.93896484375</ele>
        <time>2014-03-16T12:56:12Z</time>
      </trkpt>
      <trkpt lat="43.7674" lon="3.55849">
        <ele>612.0166015625</ele>
        <time>2014-03-16T12:56:16Z</time>
      </trkpt>
      <trkpt lat="43.76744" lon="3.55838">
        <ele>612.0166015625</ele>
        <time>2014-03-16T12:56:24Z</time>
      </trkpt>
      <trkpt lat="43.76747" lon="3.55833">
        <ele>612.0166015625</ele>
        <time>2014-03-16T12:56:29Z</time>
      </trkpt>
      <trkpt lat="43.7675" lon="3.55822">
        <ele>611.53588867188</ele>
        <time>2014-03-16T12:56:37Z</time>
      </trkpt>
      <trkpt lat="43.76755" lon="3.55811">
        <ele>611.05517578125</ele>
        <time>2014-03-16T12:56:45Z</time>
      </trkpt>
      <trkpt lat="43.76761" lon="3.55802">
        <ele>610.09375</ele>
        <time>2014-03-16T12:56:53Z</time>
      </trkpt>
      <trkpt lat="43.76766" lon="3.55791">
        <ele>609.13256835938</ele>
        <time>2014-03-16T12:57:01Z</time>
      </trkpt>
      <trkpt lat="43.76772" lon="3.55781">
        <ele>610.57446289062</ele>
        <time>2014-03-16T12:57:10Z</time>
      </trkpt>
      <trkpt lat="43.76773" lon="3.55773">
        <ele>607.2099609375</ele>
        <time>2014-03-16T12:57:14Z</time>
      </trkpt>
      <trkpt lat="43.76773" lon="3.5576">
        <ele>609.13256835938</ele>
        <time>2014-03-16T12:57:20Z</time>
      </trkpt>
      <trkpt lat="43.76773" lon="3.5575">
        <ele>610.09375</ele>
        <time>2014-03-16T12:57:27Z</time>
      </trkpt>
      <trkpt lat="43.76776" lon="3.55744">
        <ele>608.65185546875</ele>
        <time>2014-03-16T12:57:37Z</time>
      </trkpt>
      <trkpt lat="43.76777" lon="3.55739">
        <ele>610.09375</ele>
        <time>2014-03-16T12:57:40Z</time>
      </trkpt>
      <trkpt lat="43.76778" lon="3.55729">
        <ele>609.13256835938</ele>
        <time>2014-03-16T12:57:47Z</time>
      </trkpt>
      <trkpt lat="43.76776" lon="3.55718">
        <ele>609.13256835938</ele>
        <time>2014-03-16T12:57:54Z</time>
      </trkpt>
      <trkpt lat="43.76772" lon="3.55713">
        <ele>607.69067382812</ele>
        <time>2014-03-16T12:58:01Z</time>
      </trkpt>
      <trkpt lat="43.76768" lon="3.55707">
        <ele>606.24853515625</ele>
        <time>2014-03-16T12:58:07Z</time>
      </trkpt>
      <trkpt lat="43.76762" lon="3.55698">
        <ele>604.806640625</ele>
        <time>2014-03-16T12:58:16Z</time>
      </trkpt>
      <trkpt lat="43.76748" lon="3.55693">
        <ele>603.84521484375</ele>
        <time>2014-03-16T12:58:24Z</time>
      </trkpt>
      <trkpt lat="43.76743" lon="3.55688">
        <ele>602.8837890625</ele>
        <time>2014-03-16T12:58:28Z</time>
      </trkpt>
      <trkpt lat="43.76734" lon="3.55692">
        <ele>602.40307617188</ele>
        <time>2014-03-16T12:58:33Z</time>
      </trkpt>
      <trkpt lat="43.76732" lon="3.55691">
        <ele>601.44189453125</ele>
        <time>2014-03-16T12:58:35Z</time>
      </trkpt>
      <trkpt lat="43.76725" lon="3.55684">
        <ele>602.40307617188</ele>
        <time>2014-03-16T12:58:42Z</time>
      </trkpt>
      <trkpt lat="43.76722" lon="3.55681">
        <ele>600.96118164062</ele>
        <time>2014-03-16T12:58:45Z</time>
      </trkpt>
      <trkpt lat="43.76719" lon="3.55681">
        <ele>600.96118164062</ele>
        <time>2014-03-16T12:58:48Z</time>
      </trkpt>
      <trkpt lat="43.76711" lon="3.55682">
        <ele>598.07739257812</ele>
        <time>2014-03-16T12:58:55Z</time>
      </trkpt>
      <trkpt lat="43.767" lon="3.55672">
        <ele>598.07739257812</ele>
        <time>2014-03-16T12:59:06Z</time>
      </trkpt>
      <trkpt lat="43.76691" lon="3.55664">
        <ele>596.15478515625</ele>
        <time>2014-03-16T12:59:14Z</time>
      </trkpt>
      <trkpt lat="43.76691" lon="3.55662">
        <ele>594.71264648438</ele>
        <time>2014-03-16T12:59:16Z</time>
      </trkpt>
      <trkpt lat="43.76689" lon="3.55657">
        <ele>592.79028320312</ele>
        <time>2014-03-16T12:59:20Z</time>
      </trkpt>
      <trkpt lat="43.76685" lon="3.55652">
        <ele>595.67407226562</ele>
        <time>2014-03-16T12:59:25Z</time>
      </trkpt>
      <trkpt lat="43.76683" lon="3.55649">
        <ele>597.11596679688</ele>
        <time>2014-03-16T12:59:27Z</time>
      </trkpt>
      <trkpt lat="43.76681" lon="3.55639">
        <ele>594.71264648438</ele>
        <time>2014-03-16T12:59:33Z</time>
      </trkpt>
      <trkpt lat="43.7668" lon="3.55634">
        <ele>592.3095703125</ele>
        <time>2014-03-16T12:59:36Z</time>
      </trkpt>
      <trkpt lat="43.7668" lon="3.5563">
        <ele>591.82885742188</ele>
        <time>2014-03-16T12:59:38Z</time>
      </trkpt>
      <trkpt lat="43.76679" lon="3.55621">
        <ele>592.79028320312</ele>
        <time>2014-03-16T12:59:45Z</time>
      </trkpt>
      <trkpt lat="43.76678" lon="3.55614">
        <ele>593.75146484375</ele>
        <time>2014-03-16T13:00:00Z</time>
      </trkpt>
      <trkpt lat="43.7668" lon="3.55603">
        <ele>593.75146484375</ele>
        <time>2014-03-16T13:00:08Z</time>
      </trkpt>
      <trkpt lat="43.76683" lon="3.55587">
        <ele>594.71264648438</ele>
        <time>2014-03-16T13:00:17Z</time>
      </trkpt>
      <trkpt lat="43.76686" lon="3.55579">
        <ele>591.82885742188</ele>
        <time>2014-03-16T13:00:24Z</time>
      </trkpt>
      <trkpt lat="43.76688" lon="3.5557">
        <ele>594.23217773438</ele>
        <time>2014-03-16T13:00:31Z</time>
      </trkpt>
      <trkpt lat="43.76688" lon="3.55567">
        <ele>594.71264648438</ele>
        <time>2014-03-16T13:00:33Z</time>
      </trkpt>
      <trkpt lat="43.76693" lon="3.55555">
        <ele>593.75146484375</ele>
        <time>2014-03-16T13:00:41Z</time>
      </trkpt>
      <trkpt lat="43.76698" lon="3.55546">
        <ele>592.79028320312</ele>
        <time>2014-03-16T13:00:48Z</time>
      </trkpt>
      <trkpt lat="43.76703" lon="3.55535">
        <ele>591.82885742188</ele>
        <time>2014-03-16T13:00:56Z</time>
      </trkpt>
      <trkpt lat="43.76705" lon="3.55526">
        <ele>591.82885742188</ele>
        <time>2014-03-16T13:01:04Z</time>
      </trkpt>
      <trkpt lat="43.76705" lon="3.5552">
        <ele>592.3095703125</ele>
        <time>2014-03-16T13:01:08Z</time>
      </trkpt>
      <trkpt lat="43.76706" lon="3.55509">
        <ele>591.82885742188</ele>
        <time>2014-03-16T13:01:15Z</time>
      </trkpt>
      <trkpt lat="43.76706" lon="3.55505">
        <ele>592.3095703125</ele>
        <time>2014-03-16T13:01:25Z</time>
      </trkpt>
      <trkpt lat="43.76705" lon="3.55505">
        <ele>592.3095703125</ele>
        <time>2014-03-16T13:02:20Z</time>
      </trkpt>
      <trkpt lat="43.76703" lon="3.55509">
        <ele>590.86743164062</ele>
        <time>2014-03-16T13:03:12Z</time>
      </trkpt>
      <trkpt lat="43.76702" lon="3.55513">
        <ele>591.34814453125</ele>
        <time>2014-03-16T13:03:17Z</time>
      </trkpt>
      <trkpt lat="43.76698" lon="3.55527">
        <ele>591.34814453125</ele>
        <time>2014-03-16T13:03:26Z</time>
      </trkpt>
      <trkpt lat="43.76695" lon="3.55539">
        <ele>589.42553710938</ele>
        <time>2014-03-16T13:03:34Z</time>
      </trkpt>
      <trkpt lat="43.76695" lon="3.5554">
        <ele>589.42553710938</ele>
        <time>2014-03-16T13:03:35Z</time>
      </trkpt>
      <trkpt lat="43.76692" lon="3.55545">
        <ele>590.86743164062</ele>
        <time>2014-03-16T13:03:40Z</time>
      </trkpt>
      <trkpt lat="43.76684" lon="3.55553">
        <ele>589.42553710938</ele>
        <time>2014-03-16T13:03:49Z</time>
      </trkpt>
      <trkpt lat="43.76678" lon="3.55562">
        <ele>586.54150390625</ele>
        <time>2014-03-16T13:03:56Z</time>
      </trkpt>
      <trkpt lat="43.76672" lon="3.55573">
        <ele>586.54150390625</ele>
        <time>2014-03-16T13:04:05Z</time>
      </trkpt>
      <trkpt lat="43.76671" lon="3.55575">
        <ele>586.06079101562</ele>
        <time>2014-03-16T13:04:06Z</time>
      </trkpt>
      <trkpt lat="43.76667" lon="3.55586">
        <ele>587.50268554688</ele>
        <time>2014-03-16T13:04:14Z</time>
      </trkpt>
      <trkpt lat="43.76665" lon="3.55595">
        <ele>585.099609375</ele>
        <time>2014-03-16T13:04:20Z</time>
      </trkpt>
      <trkpt lat="43.76662" lon="3.55602">
        <ele>583.1767578125</ele>
        <time>2014-03-16T13:04:26Z</time>
      </trkpt>
      <trkpt lat="43.76657" lon="3.55617">
        <ele>582.6962890625</ele>
        <time>2014-03-16T13:04:36Z</time>
      </trkpt>
      <trkpt lat="43.76654" lon="3.5563">
        <ele>583.1767578125</ele>
        <time>2014-03-16T13:04:43Z</time>
      </trkpt>
      <trkpt lat="43.76656" lon="3.55641">
        <ele>580.29296875</ele>
        <time>2014-03-16T13:04:48Z</time>
      </trkpt>
      <trkpt lat="43.76656" lon="3.55642">
        <ele>579.81225585938</ele>
        <time>2014-03-16T13:04:49Z</time>
      </trkpt>
      <trkpt lat="43.76657" lon="3.55661">
        <ele>579.81225585938</ele>
        <time>2014-03-16T13:05:00Z</time>
      </trkpt>
      <trkpt lat="43.76657" lon="3.55675">
        <ele>578.85107421875</ele>
        <time>2014-03-16T13:05:08Z</time>
      </trkpt>
      <trkpt lat="43.76657" lon="3.55687">
        <ele>577.8896484375</ele>
        <time>2014-03-16T13:05:15Z</time>
      </trkpt>
      <trkpt lat="43.76656" lon="3.55698">
        <ele>577.4091796875</ele>
        <time>2014-03-16T13:05:22Z</time>
      </trkpt>
      <trkpt lat="43.76656" lon="3.55704">
        <ele>577.8896484375</ele>
        <time>2014-03-16T13:05:26Z</time>
      </trkpt>
      <trkpt lat="43.7666" lon="3.55713">
        <ele>575.486328125</ele>
        <time>2014-03-16T13:05:32Z</time>
      </trkpt>
      <trkpt lat="43.76658" lon="3.5571">
        <ele>575.96704101562</ele>
        <time>2014-03-16T13:05:39Z</time>
      </trkpt>
      <trkpt lat="43.76653" lon="3.55705">
        <ele>574.52514648438</ele>
        <time>2014-03-16T13:05:47Z</time>
      </trkpt>
      <trkpt lat="43.76649" lon="3.55698">
        <ele>572.6025390625</ele>
        <time>2014-03-16T13:05:55Z</time>
      </trkpt>
      <trkpt lat="43.76648" lon="3.55697">
        <ele>571.64086914062</ele>
        <time>2014-03-16T13:05:56Z</time>
      </trkpt>
      <trkpt lat="43.76642" lon="3.55686">
        <ele>570.6796875</ele>
        <time>2014-03-16T13:06:05Z</time>
      </trkpt>
      <trkpt lat="43.76639" lon="3.5568">
        <ele>569.23779296875</ele>
        <time>2014-03-16T13:06:10Z</time>
      </trkpt>
      <trkpt lat="43.76637" lon="3.55675">
        <ele>567.79565429688</ele>
        <time>2014-03-16T13:06:14Z</time>
      </trkpt>
      <trkpt lat="43.76633" lon="3.55664">
        <ele>565.392578125</ele>
        <time>2014-03-16T13:06:24Z</time>
      </trkpt>
      <trkpt lat="43.7663" lon="3.55656">
        <ele>562.9892578125</ele>
        <time>2014-03-16T13:06:30Z</time>
      </trkpt>
      <trkpt lat="43.76627" lon="3.55649">
        <ele>561.06665039062</ele>
        <time>2014-03-16T13:06:36Z</time>
      </trkpt>
      <trkpt lat="43.76623" lon="3.55637">
        <ele>560.10522460938</ele>
        <time>2014-03-16T13:06:44Z</time>
      </trkpt>
      <trkpt lat="43.76621" lon="3.55631">
        <ele>557.22143554688</ele>
        <time>2014-03-16T13:06:49Z</time>
      </trkpt>
      <trkpt lat="43.76617" lon="3.55619">
        <ele>556.26000976562</ele>
        <time>2014-03-16T13:06:57Z</time>
      </trkpt>
      <trkpt lat="43.76617" lon="3.55612">
        <ele>558.66333007812</ele>
        <time>2014-03-16T13:07:01Z</time>
      </trkpt>
      <trkpt lat="43.76616" lon="3.55608">
        <ele>556.74072265625</ele>
        <time>2014-03-16T13:07:04Z</time>
      </trkpt>
      <trkpt lat="43.76614" lon="3.55603">
        <ele>554.81787109375</ele>
        <time>2014-03-16T13:07:07Z</time>
      </trkpt>
      <trkpt lat="43.76613" lon="3.55594">
        <ele>551.45336914062</ele>
        <time>2014-03-16T13:07:15Z</time>
      </trkpt>
      <trkpt lat="43.76612" lon="3.5559">
        <ele>550.97265625</ele>
        <time>2014-03-16T13:07:17Z</time>
      </trkpt>
      <trkpt lat="43.76611" lon="3.55574">
        <ele>550.01147460938</ele>
        <time>2014-03-16T13:07:26Z</time>
      </trkpt>
      <trkpt lat="43.76608" lon="3.55561">
        <ele>547.60815429688</ele>
        <time>2014-03-16T13:07:39Z</time>
      </trkpt>
      <trkpt lat="43.76608" lon="3.55561">
        <ele>547.60815429688</ele>
        <time>2014-03-16T13:07:40Z</time>
      </trkpt>
      <trkpt lat="43.76602" lon="3.55548">
        <ele>548.5693359375</ele>
        <time>2014-03-16T13:07:49Z</time>
      </trkpt>
      <trkpt lat="43.76601" lon="3.55544">
        <ele>545.20483398438</ele>
        <time>2014-03-16T13:07:52Z</time>
      </trkpt>
      <trkpt lat="43.766" lon="3.55542">
        <ele>545.20483398438</ele>
        <time>2014-03-16T13:07:53Z</time>
      </trkpt>
      <trkpt lat="43.766" lon="3.55538">
        <ele>548.0888671875</ele>
        <time>2014-03-16T13:07:55Z</time>
      </trkpt>
      <trkpt lat="43.76599" lon="3.55537">
        <ele>548.0888671875</ele>
        <time>2014-03-16T13:07:56Z</time>
      </trkpt>
      <trkpt lat="43.76598" lon="3.55523">
        <ele>545.685546875</ele>
        <time>2014-03-16T13:08:05Z</time>
      </trkpt>
      <trkpt lat="43.76601" lon="3.55506">
        <ele>547.12744140625</ele>
        <time>2014-03-16T13:08:15Z</time>
      </trkpt>
      <trkpt lat="43.76601" lon="3.555">
        <ele>545.685546875</ele>
        <time>2014-03-16T13:08:21Z</time>
      </trkpt>
      <trkpt lat="43.76604" lon="3.55489">
        <ele>545.685546875</ele>
        <time>2014-03-16T13:08:29Z</time>
      </trkpt>
      <trkpt lat="43.76604" lon="3.55486">
        <ele>545.20483398438</ele>
        <time>2014-03-16T13:08:31Z</time>
      </trkpt>
      <trkpt lat="43.76603" lon="3.55482">
        <ele>544.24365234375</ele>
        <time>2014-03-16T13:08:34Z</time>
      </trkpt>
      <trkpt lat="43.76599" lon="3.55477">
        <ele>544.24365234375</ele>
        <time>2014-03-16T13:08:39Z</time>
      </trkpt>
      <trkpt lat="43.76595" lon="3.55471">
        <ele>545.20483398438</ele>
        <time>2014-03-16T13:08:45Z</time>
      </trkpt>
      <trkpt lat="43.76589" lon="3.55468">
        <ele>543.28210449219</ele>
        <time>2014-03-16T13:08:52Z</time>
      </trkpt>
      <trkpt lat="43.76586" lon="3.55469">
        <ele>542.32092285156</ele>
        <time>2014-03-16T13:08:55Z</time>
      </trkpt>
      <trkpt lat="43.76577" lon="3.55475">
        <ele>540.87890625</ele>
        <time>2014-03-16T13:09:03Z</time>
      </trkpt>
      <trkpt lat="43.7657" lon="3.55473">
        <ele>540.39831542969</ele>
        <time>2014-03-16T13:09:12Z</time>
      </trkpt>
      <trkpt lat="43.7656" lon="3.55468">
        <ele>537.99499511719</ele>
        <time>2014-03-16T13:09:21Z</time>
      </trkpt>
      <trkpt lat="43.76555" lon="3.55464">
        <ele>536.55310058594</ele>
        <time>2014-03-16T13:09:28Z</time>
      </trkpt>
      <trkpt lat="43.76547" lon="3.55457">
        <ele>534.63037109375</ele>
        <time>2014-03-16T13:09:37Z</time>
      </trkpt>
      <trkpt lat="43.76543" lon="3.55456">
        <ele>533.6689453125</ele>
        <time>2014-03-16T13:09:43Z</time>
      </trkpt>
      <trkpt lat="43.76534" lon="3.5545">
        <ele>532.22705078125</ele>
        <time>2014-03-16T13:09:52Z</time>
      </trkpt>
      <trkpt lat="43.76533" lon="3.55448">
        <ele>531.74633789062</ele>
        <time>2014-03-16T13:09:59Z</time>
      </trkpt>
      <trkpt lat="43.76532" lon="3.55447">
        <ele>530.78515625</ele>
        <time>2014-03-16T13:10:14Z</time>
      </trkpt>
      <trkpt lat="43.76532" lon="3.55448">
        <ele>534.14965820312</ele>
        <time>2014-03-16T13:10:50Z</time>
      </trkpt>
      <trkpt lat="43.76532" lon="3.55446">
        <ele>530.78515625</ele>
        <time>2014-03-16T13:12:08Z</time>
      </trkpt>
      <trkpt lat="43.76526" lon="3.55439">
        <ele>530.30444335938</ele>
        <time>2014-03-16T13:12:16Z</time>
      </trkpt>
      <trkpt lat="43.76521" lon="3.55437">
        <ele>529.82373046875</ele>
        <time>2014-03-16T13:12:26Z</time>
      </trkpt>
      <trkpt lat="43.76518" lon="3.55437">
        <ele>528.3818359375</ele>
        <time>2014-03-16T13:12:38Z</time>
      </trkpt>
      <trkpt lat="43.76509" lon="3.55435">
        <ele>528.3818359375</ele>
        <time>2014-03-16T13:12:47Z</time>
      </trkpt>
      <trkpt lat="43.76504" lon="3.55436">
        <ele>525.97839355469</ele>
        <time>2014-03-16T13:12:53Z</time>
      </trkpt>
      <trkpt lat="43.76497" lon="3.55435">
        <ele>524.05578613281</ele>
        <time>2014-03-16T13:13:00Z</time>
      </trkpt>
      <trkpt lat="43.7649" lon="3.5544">
        <ele>522.61389160156</ele>
        <time>2014-03-16T13:13:09Z</time>
      </trkpt>
      <trkpt lat="43.76475" lon="3.55444">
        <ele>521.17199707031</ele>
        <time>2014-03-16T13:13:21Z</time>
      </trkpt>
      <trkpt lat="43.76464" lon="3.55452">
        <ele>518.7685546875</ele>
        <time>2014-03-16T13:13:30Z</time>
      </trkpt>
      <trkpt lat="43.76459" lon="3.55457">
        <ele>517.32666015625</ele>
        <time>2014-03-16T13:13:39Z</time>
      </trkpt>
      <trkpt lat="43.76459" lon="3.55457">
        <ele>516.365234375</ele>
        <time>2014-03-16T13:13:41Z</time>
      </trkpt>
      <trkpt lat="43.7645" lon="3.55459">
        <ele>514.92333984375</ele>
        <time>2014-03-16T13:13:47Z</time>
      </trkpt>
      <trkpt lat="43.7644" lon="3.55461">
        <ele>511.55871582031</ele>
        <time>2014-03-16T13:13:56Z</time>
      </trkpt>
      <trkpt lat="43.76431" lon="3.55459">
        <ele>511.07800292969</ele>
        <time>2014-03-16T13:14:03Z</time>
      </trkpt>
      <trkpt lat="43.76427" lon="3.5546">
        <ele>512.03942871094</ele>
        <time>2014-03-16T13:14:05Z</time>
      </trkpt>
      <trkpt lat="43.76417" lon="3.55462">
        <ele>511.55871582031</ele>
        <time>2014-03-16T13:14:13Z</time>
      </trkpt>
      <trkpt lat="43.76414" lon="3.55462">
        <ele>512.52001953125</ele>
        <time>2014-03-16T13:19:18Z</time>
      </trkpt>
      <trkpt lat="43.76418" lon="3.55462">
        <ele>513.96203613281</ele>
        <time>2014-03-16T13:22:03Z</time>
      </trkpt>
      <trkpt lat="43.76419" lon="3.55462">
        <ele>513.00073242188</ele>
        <time>2014-03-16T13:22:50Z</time>
      </trkpt>
      <trkpt lat="43.7642" lon="3.55459">
        <ele>512.52001953125</ele>
        <time>2014-03-16T13:22:53Z</time>
      </trkpt>
      <trkpt lat="43.76421" lon="3.55452">
        <ele>512.52001953125</ele>
        <time>2014-03-16T13:22:57Z</time>
      </trkpt>
      <trkpt lat="43.76422" lon="3.55442">
        <ele>511.07800292969</ele>
        <time>2014-03-16T13:23:04Z</time>
      </trkpt>
      <trkpt lat="43.7642" lon="3.55431">
        <ele>510.59729003906</ele>
        <time>2014-03-16T13:23:12Z</time>
      </trkpt>
      <trkpt lat="43.76417" lon="3.55423">
        <ele>508.19409179688</ele>
        <time>2014-03-16T13:23:18Z</time>
      </trkpt>
      <trkpt lat="43.76414" lon="3.55421">
        <ele>508.67468261719</ele>
        <time>2014-03-16T13:23:20Z</time>
      </trkpt>
      <trkpt lat="43.76408" lon="3.5541">
        <ele>507.23278808594</ele>
        <time>2014-03-16T13:23:28Z</time>
      </trkpt>
      <trkpt lat="43.76406" lon="3.55402">
        <ele>505.79089355469</ele>
        <time>2014-03-16T13:23:33Z</time>
      </trkpt>
      <trkpt lat="43.76403" lon="3.554">
        <ele>504.82946777344</ele>
        <time>2014-03-16T13:23:35Z</time>
      </trkpt>
      <trkpt lat="43.76399" lon="3.55393">
        <ele>503.38745117188</ele>
        <time>2014-03-16T13:23:39Z</time>
      </trkpt>
      <trkpt lat="43.76392" lon="3.55386">
        <ele>502.90673828125</ele>
        <time>2014-03-16T13:23:45Z</time>
      </trkpt>
      <trkpt lat="43.7639" lon="3.55386">
        <ele>504.34887695312</ele>
        <time>2014-03-16T13:23:48Z</time>
      </trkpt>
      <trkpt lat="43.76387" lon="3.55383">
        <ele>502.90673828125</ele>
        <time>2014-03-16T13:23:50Z</time>
      </trkpt>
      <trkpt lat="43.76381" lon="3.55382">
        <ele>502.90673828125</ele>
        <time>2014-03-16T13:23:54Z</time>
      </trkpt>
      <trkpt lat="43.76377" lon="3.55381">
        <ele>500.98413085938</ele>
        <time>2014-03-16T13:23:58Z</time>
      </trkpt>
      <trkpt lat="43.76372" lon="3.55381">
        <ele>500.02294921875</ele>
        <time>2014-03-16T13:24:04Z</time>
      </trkpt>
      <trkpt lat="43.76367" lon="3.55374">
        <ele>498.58093261719</ele>
        <time>2014-03-16T13:24:11Z</time>
      </trkpt>
      <trkpt lat="43.76366" lon="3.55374">
        <ele>498.58093261719</ele>
        <time>2014-03-16T13:24:12Z</time>
      </trkpt>
      <trkpt lat="43.76356" lon="3.55376">
        <ele>497.61962890625</ele>
        <time>2014-03-16T13:24:16Z</time>
      </trkpt>
      <trkpt lat="43.76352" lon="3.55373">
        <ele>496.177734375</ele>
        <time>2014-03-16T13:24:20Z</time>
      </trkpt>
      <trkpt lat="43.76347" lon="3.55375">
        <ele>496.65832519531</ele>
        <time>2014-03-16T13:24:22Z</time>
      </trkpt>
      <trkpt lat="43.76344" lon="3.55373">
        <ele>496.65832519531</ele>
        <time>2014-03-16T13:24:24Z</time>
      </trkpt>
      <trkpt lat="43.76342" lon="3.55383">
        <ele>496.65832519531</ele>
        <time>2014-03-16T13:24:29Z</time>
      </trkpt>
      <trkpt lat="43.7635" lon="3.55391">
        <ele>497.13891601562</ele>
        <time>2014-03-16T13:24:37Z</time>
      </trkpt>
      <trkpt lat="43.76353" lon="3.55395">
        <ele>495.21618652344</ele>
        <time>2014-03-16T13:24:45Z</time>
      </trkpt>
      <trkpt lat="43.76358" lon="3.55399">
        <ele>494.73559570312</ele>
        <time>2014-03-16T13:24:56Z</time>
      </trkpt>
      <trkpt lat="43.76363" lon="3.55404">
        <ele>493.29357910156</ele>
        <time>2014-03-16T13:25:02Z</time>
      </trkpt>
      <trkpt lat="43.76368" lon="3.55413">
        <ele>492.81298828125</ele>
        <time>2014-03-16T13:25:08Z</time>
      </trkpt>
      <trkpt lat="43.7637" lon="3.55415">
        <ele>492.81298828125</ele>
        <time>2014-03-16T13:25:10Z</time>
      </trkpt>
      <trkpt lat="43.76374" lon="3.55421">
        <ele>491.37097167969</ele>
        <time>2014-03-16T13:25:14Z</time>
      </trkpt>
      <trkpt lat="43.76377" lon="3.55424">
        <ele>490.40979003906</ele>
        <time>2014-03-16T13:25:18Z</time>
      </trkpt>
      <trkpt lat="43.76381" lon="3.55431">
        <ele>488.9677734375</ele>
        <time>2014-03-16T13:25:24Z</time>
      </trkpt>
      <trkpt lat="43.76383" lon="3.55434">
        <ele>489.44836425781</ele>
        <time>2014-03-16T13:25:26Z</time>
      </trkpt>
      <trkpt lat="43.76389" lon="3.5544">
        <ele>488.9677734375</ele>
        <time>2014-03-16T13:25:33Z</time>
      </trkpt>
      <trkpt lat="43.7639" lon="3.55446">
        <ele>488.9677734375</ele>
        <time>2014-03-16T13:25:40Z</time>
      </trkpt>
      <trkpt lat="43.76389" lon="3.55444">
        <ele>489.44836425781</ele>
        <time>2014-03-16T13:25:43Z</time>
      </trkpt>
      <trkpt lat="43.76381" lon="3.55436">
        <ele>487.52563476562</ele>
        <time>2014-03-16T13:25:51Z</time>
      </trkpt>
      <trkpt lat="43.76376" lon="3.55435">
        <ele>486.564453125</ele>
        <time>2014-03-16T13:25:56Z</time>
      </trkpt>
      <trkpt lat="43.76372" lon="3.55432">
        <ele>483.68041992188</ele>
        <time>2014-03-16T13:26:04Z</time>
      </trkpt>
      <trkpt lat="43.76366" lon="3.55432">
        <ele>483.19982910156</ele>
        <time>2014-03-16T13:26:11Z</time>
      </trkpt>
      <trkpt lat="43.76361" lon="3.55431">
        <ele>481.7578125</ele>
        <time>2014-03-16T13:26:15Z</time>
      </trkpt>
      <trkpt lat="43.76353" lon="3.55433">
        <ele>479.83508300781</ele>
        <time>2014-03-16T13:26:22Z</time>
      </trkpt>
      <trkpt lat="43.76353" lon="3.55431">
        <ele>479.3544921875</ele>
        <time>2014-03-16T13:26:23Z</time>
      </trkpt>
      <trkpt lat="43.76351" lon="3.55428">
        <ele>478.39318847656</ele>
        <time>2014-03-16T13:26:25Z</time>
      </trkpt>
      <trkpt lat="43.76349" lon="3.55427">
        <ele>477.43188476562</ele>
        <time>2014-03-16T13:26:27Z</time>
      </trkpt>
      <trkpt lat="43.76345" lon="3.55427">
        <ele>475.98986816406</ele>
        <time>2014-03-16T13:26:30Z</time>
      </trkpt>
      <trkpt lat="43.76333" lon="3.55427">
        <ele>476.95129394531</ele>
        <time>2014-03-16T13:26:41Z</time>
      </trkpt>
      <trkpt lat="43.76331" lon="3.55427">
        <ele>477.43188476562</ele>
        <time>2014-03-16T13:26:43Z</time>
      </trkpt>
      <trkpt lat="43.76326" lon="3.55423">
        <ele>475.98986816406</ele>
        <time>2014-03-16T13:26:48Z</time>
      </trkpt>
      <trkpt lat="43.76322" lon="3.55413">
        <ele>475.02868652344</ele>
        <time>2014-03-16T13:26:55Z</time>
      </trkpt>
      <trkpt lat="43.76316" lon="3.55405">
        <ele>475.02868652344</ele>
        <time>2014-03-16T13:27:01Z</time>
      </trkpt>
      <trkpt lat="43.7631" lon="3.55399">
        <ele>472.62536621094</ele>
        <time>2014-03-16T13:27:09Z</time>
      </trkpt>
      <trkpt lat="43.76303" lon="3.55392">
        <ele>472.62536621094</ele>
        <time>2014-03-16T13:27:17Z</time>
      </trkpt>
      <trkpt lat="43.76295" lon="3.5539">
        <ele>470.22192382812</ele>
        <time>2014-03-16T13:27:27Z</time>
      </trkpt>
      <trkpt lat="43.76287" lon="3.55399">
        <ele>467.33813476562</ele>
        <time>2014-03-16T13:27:37Z</time>
      </trkpt>
      <trkpt lat="43.76285" lon="3.55401">
        <ele>467.33813476562</ele>
        <time>2014-03-16T13:27:38Z</time>
      </trkpt>
      <trkpt lat="43.7627" lon="3.55415">
        <ele>464.4541015625</ele>
        <time>2014-03-16T13:27:45Z</time>
      </trkpt>
      <trkpt lat="43.76262" lon="3.55426">
        <ele>462.53137207031</ele>
        <time>2014-03-16T13:27:53Z</time>
      </trkpt>
      <trkpt lat="43.7626" lon="3.5543">
        <ele>459.16687011719</ele>
        <time>2014-03-16T13:27:56Z</time>
      </trkpt>
      <trkpt lat="43.76254" lon="3.55431">
        <ele>460.12817382812</ele>
        <time>2014-03-16T13:28:03Z</time>
      </trkpt>
      <trkpt lat="43.76247" lon="3.55432">
        <ele>460.60876464844</ele>
        <time>2014-03-16T13:28:09Z</time>
      </trkpt>
      <trkpt lat="43.76238" lon="3.55432">
        <ele>457.24426269531</ele>
        <time>2014-03-16T13:28:18Z</time>
      </trkpt>
      <trkpt lat="43.76236" lon="3.55432">
        <ele>456.28295898438</ele>
        <time>2014-03-16T13:28:20Z</time>
      </trkpt>
      <trkpt lat="43.76233" lon="3.55434">
        <ele>455.32153320312</ele>
        <time>2014-03-16T13:28:23Z</time>
      </trkpt>
      <trkpt lat="43.76225" lon="3.55441">
        <ele>453.87963867188</ele>
        <time>2014-03-16T13:28:32Z</time>
      </trkpt>
      <trkpt lat="43.76224" lon="3.55443">
        <ele>454.8408203125</ele>
        <time>2014-03-16T13:28:34Z</time>
      </trkpt>
      <trkpt lat="43.76217" lon="3.55451">
        <ele>452.91821289062</ele>
        <time>2014-03-16T13:28:42Z</time>
      </trkpt>
      <trkpt lat="43.76211" lon="3.55456">
        <ele>451.47631835938</ele>
        <time>2014-03-16T13:28:49Z</time>
      </trkpt>
      <trkpt lat="43.76204" lon="3.55459">
        <ele>447.15026855469</ele>
        <time>2014-03-16T13:28:55Z</time>
      </trkpt>
      <trkpt lat="43.76201" lon="3.5546">
        <ele>443.78576660156</ele>
        <time>2014-03-16T13:28:58Z</time>
      </trkpt>
      <trkpt lat="43.762" lon="3.55462">
        <ele>443.78576660156</ele>
        <time>2014-03-16T13:28:59Z</time>
      </trkpt>
      <trkpt lat="43.76191" lon="3.55474">
        <ele>443.30505371094</ele>
        <time>2014-03-16T13:29:09Z</time>
      </trkpt>
      <trkpt lat="43.76184" lon="3.55485">
        <ele>442.82446289062</ele>
        <time>2014-03-16T13:29:18Z</time>
      </trkpt>
      <trkpt lat="43.76177" lon="3.55498">
        <ele>441.38244628906</ele>
        <time>2014-03-16T13:29:27Z</time>
      </trkpt>
      <trkpt lat="43.76169" lon="3.55501">
        <ele>439.9404296875</ele>
        <time>2014-03-16T13:29:34Z</time>
      </trkpt>
      <trkpt lat="43.76166" lon="3.55503">
        <ele>439.9404296875</ele>
        <time>2014-03-16T13:29:37Z</time>
      </trkpt>
      <trkpt lat="43.76163" lon="3.55509">
        <ele>438.49853515625</ele>
        <time>2014-03-16T13:29:43Z</time>
      </trkpt>
      <trkpt lat="43.76158" lon="3.55516">
        <ele>437.537109375</ele>
        <time>2014-03-16T13:29:48Z</time>
      </trkpt>
      <trkpt lat="43.76156" lon="3.55519">
        <ele>436.57592773438</ele>
        <time>2014-03-16T13:29:50Z</time>
      </trkpt>
      <trkpt lat="43.76155" lon="3.5552">
        <ele>436.09521484375</ele>
        <time>2014-03-16T13:29:51Z</time>
      </trkpt>
      <trkpt lat="43.76152" lon="3.55525">
        <ele>431.76916503906</ele>
        <time>2014-03-16T13:29:56Z</time>
      </trkpt>
      <trkpt lat="43.7615" lon="3.55528">
        <ele>431.28857421875</ele>
        <time>2014-03-16T13:30:00Z</time>
      </trkpt>
      <trkpt lat="43.76146" lon="3.55533">
        <ele>427.92395019531</ele>
        <time>2014-03-16T13:30:05Z</time>
      </trkpt>
      <trkpt lat="43.76144" lon="3.55536">
        <ele>426.48205566406</ele>
        <time>2014-03-16T13:30:07Z</time>
      </trkpt>
      <trkpt lat="43.76142" lon="3.5554">
        <ele>430.32727050781</ele>
        <time>2014-03-16T13:30:10Z</time>
      </trkpt>
      <trkpt lat="43.76142" lon="3.55541">
        <ele>430.32727050781</ele>
        <time>2014-03-16T13:30:11Z</time>
      </trkpt>
      <trkpt lat="43.76142" lon="3.55544">
        <ele>429.84655761719</ele>
        <time>2014-03-16T13:30:13Z</time>
      </trkpt>
      <trkpt lat="43.76141" lon="3.55545">
        <ele>429.84655761719</ele>
        <time>2014-03-16T13:30:15Z</time>
      </trkpt>
      <trkpt lat="43.76135" lon="3.55545">
        <ele>427.443359375</ele>
        <time>2014-03-16T13:30:24Z</time>
      </trkpt>
      <trkpt lat="43.76134" lon="3.55545">
        <ele>427.92395019531</ele>
        <time>2014-03-16T13:30:25Z</time>
      </trkpt>
      <trkpt lat="43.76129" lon="3.55543">
        <ele>428.40466308594</ele>
        <time>2014-03-16T13:30:31Z</time>
      </trkpt>
      <trkpt lat="43.76126" lon="3.55543">
        <ele>427.443359375</ele>
        <time>2014-03-16T13:30:34Z</time>
      </trkpt>
      <trkpt lat="43.76118" lon="3.5555">
        <ele>426.00134277344</ele>
        <time>2014-03-16T13:30:43Z</time>
      </trkpt>
      <trkpt lat="43.76112" lon="3.55555">
        <ele>422.63671875</ele>
        <time>2014-03-16T13:30:48Z</time>
      </trkpt>
      <trkpt lat="43.76106" lon="3.55559">
        <ele>422.15600585938</ele>
        <time>2014-03-16T13:30:54Z</time>
      </trkpt>
      <trkpt lat="43.76098" lon="3.55566">
        <ele>422.63671875</ele>
        <time>2014-03-16T13:31:01Z</time>
      </trkpt>
      <trkpt lat="43.76094" lon="3.5557">
        <ele>418.79150390625</ele>
        <time>2014-03-16T13:31:06Z</time>
      </trkpt>
      <trkpt lat="43.76093" lon="3.55571">
        <ele>417.349609375</ele>
        <time>2014-03-16T13:31:08Z</time>
      </trkpt>
      <trkpt lat="43.76087" lon="3.55576">
        <ele>418.31079101562</ele>
        <time>2014-03-16T13:31:14Z</time>
      </trkpt>
      <trkpt lat="43.76077" lon="3.55582">
        <ele>416.38818359375</ele>
        <time>2014-03-16T13:31:22Z</time>
      </trkpt>
      <trkpt lat="43.76068" lon="3.55587">
        <ele>415.90747070312</ele>
        <time>2014-03-16T13:31:28Z</time>
      </trkpt>
      <trkpt lat="43.76063" lon="3.55588">
        <ele>415.90747070312</ele>
        <time>2014-03-16T13:31:35Z</time>
      </trkpt>
      <trkpt lat="43.7606" lon="3.55592">
        <ele>415.90747070312</ele>
        <time>2014-03-16T13:31:39Z</time>
      </trkpt>
      <trkpt lat="43.76051" lon="3.55602">
        <ele>413.02355957031</ele>
        <time>2014-03-16T13:31:48Z</time>
      </trkpt>
      <trkpt lat="43.7605" lon="3.55605">
        <ele>412.54284667969</ele>
        <time>2014-03-16T13:31:50Z</time>
      </trkpt>
      <trkpt lat="43.76047" lon="3.55614">
        <ele>410.62023925781</ele>
        <time>2014-03-16T13:31:56Z</time>
      </trkpt>
      <trkpt lat="43.76041" lon="3.55622">
        <ele>409.17834472656</ele>
        <time>2014-03-16T13:32:04Z</time>
      </trkpt>
      <trkpt lat="43.76034" lon="3.55631">
        <ele>408.69763183594</ele>
        <time>2014-03-16T13:32:13Z</time>
      </trkpt>
      <trkpt lat="43.76032" lon="3.55634">
        <ele>407.25561523438</ele>
        <time>2014-03-16T13:32:16Z</time>
      </trkpt>
      <trkpt lat="43.76028" lon="3.55639">
        <ele>405.3330078125</ele>
        <time>2014-03-16T13:32:20Z</time>
      </trkpt>
      <trkpt lat="43.76023" lon="3.55647">
        <ele>403.89111328125</ele>
        <time>2014-03-16T13:32:27Z</time>
      </trkpt>
      <trkpt lat="43.76018" lon="3.55659">
        <ele>402.44909667969</ele>
        <time>2014-03-16T13:32:36Z</time>
      </trkpt>
      <trkpt lat="43.76022" lon="3.55678">
        <ele>401.96850585938</ele>
        <time>2014-03-16T13:32:47Z</time>
      </trkpt>
      <trkpt lat="43.76022" lon="3.55683">
        <ele>401.96850585938</ele>
        <time>2014-03-16T13:32:50Z</time>
      </trkpt>
      <trkpt lat="43.76026" lon="3.55693">
        <ele>399.56506347656</ele>
        <time>2014-03-16T13:32:57Z</time>
      </trkpt>
      <trkpt lat="43.76031" lon="3.55707">
        <ele>396.68115234375</ele>
        <time>2014-03-16T13:33:05Z</time>
      </trkpt>
      <trkpt lat="43.76031" lon="3.5571">
        <ele>395.71984863281</ele>
        <time>2014-03-16T13:33:07Z</time>
      </trkpt>
      <trkpt lat="43.76035" lon="3.55721">
        <ele>394.75854492188</ele>
        <time>2014-03-16T13:33:16Z</time>
      </trkpt>
      <trkpt lat="43.76037" lon="3.55729">
        <ele>396.68115234375</ele>
        <time>2014-03-16T13:33:21Z</time>
      </trkpt>
      <trkpt lat="43.76038" lon="3.5574">
        <ele>396.68115234375</ele>
        <time>2014-03-16T13:33:29Z</time>
      </trkpt>
      <trkpt lat="43.76037" lon="3.55745">
        <ele>394.75854492188</ele>
        <time>2014-03-16T13:33:33Z</time>
      </trkpt>
      <trkpt lat="43.76039" lon="3.55748">
        <ele>392.8359375</ele>
        <time>2014-03-16T13:33:36Z</time>
      </trkpt>
      <trkpt lat="43.76039" lon="3.55752">
        <ele>395.71984863281</ele>
        <time>2014-03-16T13:33:40Z</time>
      </trkpt>
      <trkpt lat="43.76038" lon="3.5576">
        <ele>394.27795410156</ele>
        <time>2014-03-16T13:33:45Z</time>
      </trkpt>
      <trkpt lat="43.76037" lon="3.55769">
        <ele>392.35534667969</ele>
        <time>2014-03-16T13:33:51Z</time>
      </trkpt>
      <trkpt lat="43.76035" lon="3.5578">
        <ele>391.87451171875</ele>
        <time>2014-03-16T13:33:59Z</time>
      </trkpt>
      <trkpt lat="43.76035" lon="3.55781">
        <ele>391.39379882812</ele>
        <time>2014-03-16T13:34:00Z</time>
      </trkpt>
      <trkpt lat="43.76033" lon="3.55784">
        <ele>390.4326171875</ele>
        <time>2014-03-16T13:34:03Z</time>
      </trkpt>
      <trkpt lat="43.76032" lon="3.55795">
        <ele>389.95190429688</ele>
        <time>2014-03-16T13:34:09Z</time>
      </trkpt>
      <trkpt lat="43.76029" lon="3.55801">
        <ele>388.51000976562</ele>
        <time>2014-03-16T13:34:14Z</time>
      </trkpt>
      <trkpt lat="43.76024" lon="3.55807">
        <ele>390.4326171875</ele>
        <time>2014-03-16T13:34:19Z</time>
      </trkpt>
      <trkpt lat="43.76024" lon="3.55811">
        <ele>388.99060058594</ele>
        <time>2014-03-16T13:34:22Z</time>
      </trkpt>
      <trkpt lat="43.76021" lon="3.55822">
        <ele>388.029296875</ele>
        <time>2014-03-16T13:34:30Z</time>
      </trkpt>
      <trkpt lat="43.76021" lon="3.55827">
        <ele>387.06799316406</ele>
        <time>2014-03-16T13:34:34Z</time>
      </trkpt>
      <trkpt lat="43.76022" lon="3.5583">
        <ele>383.70324707031</ele>
        <time>2014-03-16T13:34:37Z</time>
      </trkpt>
      <trkpt lat="43.76023" lon="3.5584">
        <ele>386.10668945312</ele>
        <time>2014-03-16T13:34:45Z</time>
      </trkpt>
      <trkpt lat="43.76021" lon="3.55843">
        <ele>384.66479492188</ele>
        <time>2014-03-16T13:34:48Z</time>
      </trkpt>
      <trkpt lat="43.7602" lon="3.55856">
        <ele>383.70324707031</ele>
        <time>2014-03-16T13:34:55Z</time>
      </trkpt>
      <trkpt lat="43.7602" lon="3.55857">
        <ele>383.22265625</ele>
        <time>2014-03-16T13:34:56Z</time>
      </trkpt>
      <trkpt lat="43.76018" lon="3.55867">
        <ele>379.37744140625</ele>
        <time>2014-03-16T13:35:03Z</time>
      </trkpt>
      <trkpt lat="43.76018" lon="3.55868">
        <ele>379.85803222656</ele>
        <time>2014-03-16T13:35:04Z</time>
      </trkpt>
      <trkpt lat="43.76016" lon="3.55873">
        <ele>378.89685058594</ele>
        <time>2014-03-16T13:35:08Z</time>
      </trkpt>
      <trkpt lat="43.76011" lon="3.55883">
        <ele>377.45483398438</ele>
        <time>2014-03-16T13:35:18Z</time>
      </trkpt>
      <trkpt lat="43.76013" lon="3.5589">
        <ele>378.41613769531</ele>
        <time>2014-03-16T13:35:22Z</time>
      </trkpt>
      <trkpt lat="43.76014" lon="3.55892">
        <ele>377.93542480469</ele>
        <time>2014-03-16T13:35:23Z</time>
      </trkpt>
      <trkpt lat="43.7601" lon="3.55901">
        <ele>374.09008789062</ele>
        <time>2014-03-16T13:35:30Z</time>
      </trkpt>
      <trkpt lat="43.76003" lon="3.55915">
        <ele>374.57080078125</ele>
        <time>2014-03-16T13:35:39Z</time>
      </trkpt>
      <trkpt lat="43.76" lon="3.55926">
        <ele>375.05151367188</ele>
        <time>2014-03-16T13:35:46Z</time>
      </trkpt>
      <trkpt lat="43.76" lon="3.55929">
        <ele>373.60949707031</ele>
        <time>2014-03-16T13:35:48Z</time>
      </trkpt>
      <trkpt lat="43.75998" lon="3.55932">
        <ele>372.64819335938</ele>
        <time>2014-03-16T13:35:50Z</time>
      </trkpt>
      <trkpt lat="43.75997" lon="3.55937">
        <ele>368.322265625</ele>
        <time>2014-03-16T13:35:53Z</time>
      </trkpt>
      <trkpt lat="43.75996" lon="3.55939">
        <ele>366.88024902344</ele>
        <time>2014-03-16T13:35:55Z</time>
      </trkpt>
      <trkpt lat="43.75994" lon="3.55948">
        <ele>367.36096191406</ele>
        <time>2014-03-16T13:36:03Z</time>
      </trkpt>
      <trkpt lat="43.75995" lon="3.55952">
        <ele>367.36096191406</ele>
        <time>2014-03-16T13:36:06Z</time>
      </trkpt>
      <trkpt lat="43.75993" lon="3.55964">
        <ele>366.88024902344</ele>
        <time>2014-03-16T13:36:14Z</time>
      </trkpt>
      <trkpt lat="43.75992" lon="3.55971">
        <ele>363.99633789062</ele>
        <time>2014-03-16T13:36:19Z</time>
      </trkpt>
      <trkpt lat="43.7599" lon="3.55983">
        <ele>363.51574707031</ele>
        <time>2014-03-16T13:36:27Z</time>
      </trkpt>
      <trkpt lat="43.75988" lon="3.55986">
        <ele>363.51574707031</ele>
        <time>2014-03-16T13:36:31Z</time>
      </trkpt>
      <trkpt lat="43.75986" lon="3.55989">
        <ele>363.51574707031</ele>
        <time>2014-03-16T13:36:34Z</time>
      </trkpt>
      <trkpt lat="43.75985" lon="3.56003">
        <ele>363.03503417969</ele>
        <time>2014-03-16T13:36:42Z</time>
      </trkpt>
      <trkpt lat="43.75981" lon="3.56015">
        <ele>362.07373046875</ele>
        <time>2014-03-16T13:36:50Z</time>
      </trkpt>
      <trkpt lat="43.75976" lon="3.56022">
        <ele>361.59313964844</ele>
        <time>2014-03-16T13:36:56Z</time>
      </trkpt>
      <trkpt lat="43.75972" lon="3.56029">
        <ele>361.11242675781</ele>
        <time>2014-03-16T13:37:02Z</time>
      </trkpt>
      <trkpt lat="43.75966" lon="3.56039">
        <ele>357.74780273438</ele>
        <time>2014-03-16T13:37:09Z</time>
      </trkpt>
      <trkpt lat="43.75965" lon="3.5604">
        <ele>357.26708984375</ele>
        <time>2014-03-16T13:37:10Z</time>
      </trkpt>
      <trkpt lat="43.7596" lon="3.56048">
        <ele>356.78637695312</ele>
        <time>2014-03-16T13:37:18Z</time>
      </trkpt>
      <trkpt lat="43.75955" lon="3.56056">
        <ele>354.86376953125</ele>
        <time>2014-03-16T13:37:25Z</time>
      </trkpt>
      <trkpt lat="43.75952" lon="3.56059">
        <ele>354.86376953125</ele>
        <time>2014-03-16T13:37:28Z</time>
      </trkpt>
      <trkpt lat="43.75948" lon="3.56068">
        <ele>355.8251953125</ele>
        <time>2014-03-16T13:37:35Z</time>
      </trkpt>
      <trkpt lat="43.75947" lon="3.56071">
        <ele>355.8251953125</ele>
        <time>2014-03-16T13:37:37Z</time>
      </trkpt>
      <trkpt lat="43.75942" lon="3.56081">
        <ele>354.38317871094</ele>
        <time>2014-03-16T13:37:44Z</time>
      </trkpt>
      <trkpt lat="43.75939" lon="3.56086">
        <ele>352.94116210938</ele>
        <time>2014-03-16T13:37:47Z</time>
      </trkpt>
      <trkpt lat="43.75934" lon="3.56095">
        <ele>351.97985839844</ele>
        <time>2014-03-16T13:37:56Z</time>
      </trkpt>
      <trkpt lat="43.7593" lon="3.56109">
        <ele>350.53784179688</ele>
        <time>2014-03-16T13:38:04Z</time>
      </trkpt>
      <trkpt lat="43.75926" lon="3.56117">
        <ele>350.05725097656</ele>
        <time>2014-03-16T13:38:12Z</time>
      </trkpt>
      <trkpt lat="43.75921" lon="3.56128">
        <ele>346.69262695312</ele>
        <time>2014-03-16T13:38:19Z</time>
      </trkpt>
      <trkpt lat="43.75921" lon="3.5613">
        <ele>346.69262695312</ele>
        <time>2014-03-16T13:38:20Z</time>
      </trkpt>
      <trkpt lat="43.7592" lon="3.56133">
        <ele>347.17321777344</ele>
        <time>2014-03-16T13:38:22Z</time>
      </trkpt>
      <trkpt lat="43.75918" lon="3.5614">
        <ele>345.25061035156</ele>
        <time>2014-03-16T13:38:26Z</time>
      </trkpt>
      <trkpt lat="43.75915" lon="3.56144">
        <ele>346.69262695312</ele>
        <time>2014-03-16T13:38:29Z</time>
      </trkpt>
      <trkpt lat="43.75911" lon="3.56151">
        <ele>344.77001953125</ele>
        <time>2014-03-16T13:38:36Z</time>
      </trkpt>
      <trkpt lat="43.75909" lon="3.56156">
        <ele>344.28942871094</ele>
        <time>2014-03-16T13:38:40Z</time>
      </trkpt>
      <trkpt lat="43.75903" lon="3.56169">
        <ele>343.80859375</ele>
        <time>2014-03-16T13:38:50Z</time>
      </trkpt>
      <trkpt lat="43.75901" lon="3.56173">
        <ele>342.84729003906</ele>
        <time>2014-03-16T13:38:54Z</time>
      </trkpt>
      <trkpt lat="43.75899" lon="3.5618">
        <ele>341.4052734375</ele>
        <time>2014-03-16T13:38:58Z</time>
      </trkpt>
      <trkpt lat="43.75899" lon="3.56181">
        <ele>341.88598632812</ele>
        <time>2014-03-16T13:38:59Z</time>
      </trkpt>
      <trkpt lat="43.75895" lon="3.56191">
        <ele>340.92468261719</ele>
        <time>2014-03-16T13:39:07Z</time>
      </trkpt>
      <trkpt lat="43.75892" lon="3.56196">
        <ele>339.96337890625</ele>
        <time>2014-03-16T13:39:13Z</time>
      </trkpt>
      <trkpt lat="43.75889" lon="3.56199">
        <ele>337.56005859375</ele>
        <time>2014-03-16T13:39:17Z</time>
      </trkpt>
      <trkpt lat="43.75879" lon="3.56198">
        <ele>339.00207519531</ele>
        <time>2014-03-16T13:39:26Z</time>
      </trkpt>
      <trkpt lat="43.75875" lon="3.56194">
        <ele>335.63732910156</ele>
        <time>2014-03-16T13:39:31Z</time>
      </trkpt>
      <trkpt lat="43.75873" lon="3.56192">
        <ele>335.15673828125</ele>
        <time>2014-03-16T13:39:33Z</time>
      </trkpt>
      <trkpt lat="43.75865" lon="3.56187">
        <ele>336.59887695312</ele>
        <time>2014-03-16T13:39:40Z</time>
      </trkpt>
      <trkpt lat="43.75858" lon="3.56181">
        <ele>336.1181640625</ele>
        <time>2014-03-16T13:39:48Z</time>
      </trkpt>
      <trkpt lat="43.75854" lon="3.56174">
        <ele>335.63732910156</ele>
        <time>2014-03-16T13:39:54Z</time>
      </trkpt>
      <trkpt lat="43.75852" lon="3.56171">
        <ele>333.23413085938</ele>
        <time>2014-03-16T13:40:02Z</time>
      </trkpt>
      <trkpt lat="43.75844" lon="3.56175">
        <ele>331.3115234375</ele>
        <time>2014-03-16T13:40:10Z</time>
      </trkpt>
      <trkpt lat="43.75841" lon="3.5618">
        <ele>331.3115234375</ele>
        <time>2014-03-16T13:40:15Z</time>
      </trkpt>
      <trkpt lat="43.75835" lon="3.56192">
        <ele>329.86950683594</ele>
        <time>2014-03-16T13:40:24Z</time>
      </trkpt>
      <trkpt lat="43.75834" lon="3.56198">
        <ele>326.5048828125</ele>
        <time>2014-03-16T13:40:27Z</time>
      </trkpt>
      <trkpt lat="43.75832" lon="3.56201">
        <ele>327.94677734375</ele>
        <time>2014-03-16T13:40:30Z</time>
      </trkpt>
      <trkpt lat="43.75827" lon="3.56206">
        <ele>328.42761230469</ele>
        <time>2014-03-16T13:40:38Z</time>
      </trkpt>
      <trkpt lat="43.75823" lon="3.56208">
        <ele>327.94677734375</ele>
        <time>2014-03-16T13:40:45Z</time>
      </trkpt>
      <trkpt lat="43.75824" lon="3.56208">
        <ele>329.38891601562</ele>
        <time>2014-03-16T13:41:02Z</time>
      </trkpt>
      <trkpt lat="43.75823" lon="3.56208">
        <ele>326.02416992188</ele>
        <time>2014-03-16T13:41:52Z</time>
      </trkpt>
      <trkpt lat="43.75822" lon="3.56213">
        <ele>329.38891601562</ele>
        <time>2014-03-16T13:42:22Z</time>
      </trkpt>
      <trkpt lat="43.7582" lon="3.56215">
        <ele>326.02416992188</ele>
        <time>2014-03-16T13:42:59Z</time>
      </trkpt>
      <trkpt lat="43.7582" lon="3.56215">
        <ele>327.46618652344</ele>
        <time>2014-03-16T13:43:02Z</time>
      </trkpt>
      <trkpt lat="43.7582" lon="3.56214">
        <ele>327.94677734375</ele>
        <time>2014-03-16T13:43:14Z</time>
      </trkpt>
      <trkpt lat="43.75822" lon="3.56212">
        <ele>329.38891601562</ele>
        <time>2014-03-16T13:43:35Z</time>
      </trkpt>
      <trkpt lat="43.75822" lon="3.56212">
        <ele>326.02416992188</ele>
        <time>2014-03-16T13:43:47Z</time>
      </trkpt>
      <trkpt lat="43.75822" lon="3.56212">
        <ele>326.02416992188</ele>
        <time>2014-03-16T13:43:48Z</time>
      </trkpt>
      <trkpt lat="43.75822" lon="3.56211">
        <ele>327.46618652344</ele>
        <time>2014-03-16T13:43:59Z</time>
      </trkpt>
      <trkpt lat="43.75822" lon="3.56211">
        <ele>327.94677734375</ele>
        <time>2014-03-16T13:44:45Z</time>
      </trkpt>
      <trkpt lat="43.75822" lon="3.56211">
        <ele>325.54357910156</ele>
        <time>2014-03-16T13:45:23Z</time>
      </trkpt>
      <trkpt lat="43.75822" lon="3.56211">
        <ele>326.98559570312</ele>
        <time>2014-03-16T13:45:26Z</time>
      </trkpt>
      <trkpt lat="43.75819" lon="3.5621">
        <ele>326.98559570312</ele>
        <time>2014-03-16T13:48:09Z</time>
      </trkpt>
      <trkpt lat="43.75819" lon="3.5621">
        <ele>330.35021972656</ele>
        <time>2014-03-16T13:48:41Z</time>
      </trkpt>
      <trkpt lat="43.75819" lon="3.5621">
        <ele>330.35021972656</ele>
        <time>2014-03-16T13:48:42Z</time>
      </trkpt>
      <trkpt lat="43.7582" lon="3.5621">
        <ele>326.98559570312</ele>
        <time>2014-03-16T13:49:25Z</time>
      </trkpt>
      <trkpt lat="43.75825" lon="3.56209">
        <ele>328.42761230469</ele>
        <time>2014-03-16T13:49:38Z</time>
      </trkpt>
      <trkpt lat="43.7583" lon="3.56205">
        <ele>328.42761230469</ele>
        <time>2014-03-16T13:49:44Z</time>
      </trkpt>
      <trkpt lat="43.75833" lon="3.56199">
        <ele>328.42761230469</ele>
        <time>2014-03-16T13:49:50Z</time>
      </trkpt>
      <trkpt lat="43.75836" lon="3.56195">
        <ele>329.86950683594</ele>
        <time>2014-03-16T13:49:57Z</time>
      </trkpt>
      <trkpt lat="43.7584" lon="3.56188">
        <ele>331.3115234375</ele>
        <time>2014-03-16T13:50:02Z</time>
      </trkpt>
      <trkpt lat="43.75841" lon="3.56185">
        <ele>332.27282714844</ele>
        <time>2014-03-16T13:50:04Z</time>
      </trkpt>
      <trkpt lat="43.75844" lon="3.56174">
        <ele>332.27282714844</ele>
        <time>2014-03-16T13:50:12Z</time>
      </trkpt>
      <trkpt lat="43.75844" lon="3.56172">
        <ele>332.27282714844</ele>
        <time>2014-03-16T13:50:14Z</time>
      </trkpt>
      <trkpt lat="43.75846" lon="3.56169">
        <ele>333.71472167969</ele>
        <time>2014-03-16T13:50:17Z</time>
      </trkpt>
      <trkpt lat="43.75848" lon="3.56168">
        <ele>333.71472167969</ele>
        <time>2014-03-16T13:50:18Z</time>
      </trkpt>
      <trkpt lat="43.75856" lon="3.56177">
        <ele>334.19543457031</ele>
        <time>2014-03-16T13:50:26Z</time>
      </trkpt>
      <trkpt lat="43.75858" lon="3.56178">
        <ele>334.67614746094</ele>
        <time>2014-03-16T13:50:28Z</time>
      </trkpt>
      <trkpt lat="43.75859" lon="3.56181">
        <ele>335.15673828125</ele>
        <time>2014-03-16T13:50:30Z</time>
      </trkpt>
      <trkpt lat="43.75864" lon="3.56188">
        <ele>338.04077148438</ele>
        <time>2014-03-16T13:50:37Z</time>
      </trkpt>
      <trkpt lat="43.75868" lon="3.5619">
        <ele>335.63732910156</ele>
        <time>2014-03-16T13:50:41Z</time>
      </trkpt>
      <trkpt lat="43.75877" lon="3.56197">
        <ele>336.59887695312</ele>
        <time>2014-03-16T13:50:49Z</time>
      </trkpt>
      <trkpt lat="43.75883" lon="3.56202">
        <ele>338.04077148438</ele>
        <time>2014-03-16T13:50:56Z</time>
      </trkpt>
      <trkpt lat="43.75883" lon="3.56201">
        <ele>335.63732910156</ele>
        <time>2014-03-16T13:51:02Z</time>
      </trkpt>
      <trkpt lat="43.75883" lon="3.56201">
        <ele>339.00207519531</ele>
        <time>2014-03-16T13:51:04Z</time>
      </trkpt>
      <trkpt lat="43.75883" lon="3.56201">
        <ele>339.00207519531</ele>
        <time>2014-03-16T13:51:05Z</time>
      </trkpt>
      <trkpt lat="43.75886" lon="3.56201">
        <ele>338.04077148438</ele>
        <time>2014-03-16T13:51:19Z</time>
      </trkpt>
      <trkpt lat="43.75888" lon="3.56202">
        <ele>339.96337890625</ele>
        <time>2014-03-16T13:51:28Z</time>
      </trkpt>
      <trkpt lat="43.75888" lon="3.56202">
        <ele>339.96337890625</ele>
        <time>2014-03-16T13:51:41Z</time>
      </trkpt>
      <trkpt lat="43.75888" lon="3.56202">
        <ele>337.56005859375</ele>
        <time>2014-03-16T13:51:47Z</time>
      </trkpt>
      <trkpt lat="43.75891" lon="3.56199">
        <ele>340.44409179688</ele>
        <time>2014-03-16T13:51:54Z</time>
      </trkpt>
      <trkpt lat="43.75892" lon="3.56196">
        <ele>340.44409179688</ele>
        <time>2014-03-16T13:52:05Z</time>
      </trkpt>
      <trkpt lat="43.75892" lon="3.56196">
        <ele>338.04077148438</ele>
        <time>2014-03-16T13:52:09Z</time>
      </trkpt>
      <trkpt lat="43.75893" lon="3.56196">
        <ele>341.4052734375</ele>
        <time>2014-03-16T13:52:16Z</time>
      </trkpt>
      <trkpt lat="43.75892" lon="3.56195">
        <ele>341.88598632812</ele>
        <time>2014-03-16T13:52:17Z</time>
      </trkpt>
      <trkpt lat="43.75895" lon="3.56196">
        <ele>341.4052734375</ele>
        <time>2014-03-16T13:52:23Z</time>
      </trkpt>
      <trkpt lat="43.75901" lon="3.56197">
        <ele>339.48266601562</ele>
        <time>2014-03-16T13:52:28Z</time>
      </trkpt>
      <trkpt lat="43.75905" lon="3.56195">
        <ele>340.44409179688</ele>
        <time>2014-03-16T13:52:32Z</time>
      </trkpt>
      <trkpt lat="43.75914" lon="3.56194">
        <ele>340.92468261719</ele>
        <time>2014-03-16T13:52:41Z</time>
      </trkpt>
      <trkpt lat="43.75921" lon="3.56191">
        <ele>338.521484375</ele>
        <time>2014-03-16T13:52:50Z</time>
      </trkpt>
      <trkpt lat="43.75926" lon="3.56186">
        <ele>337.07946777344</ele>
        <time>2014-03-16T13:52:58Z</time>
      </trkpt>
      <trkpt lat="43.75928" lon="3.56181">
        <ele>335.63732910156</ele>
        <time>2014-03-16T13:53:06Z</time>
      </trkpt>
      <trkpt lat="43.75928" lon="3.56178">
        <ele>336.1181640625</ele>
        <time>2014-03-16T13:53:12Z</time>
      </trkpt>
      <trkpt lat="43.7593" lon="3.56176">
        <ele>333.71472167969</ele>
        <time>2014-03-16T13:53:16Z</time>
      </trkpt>
      <trkpt lat="43.75931" lon="3.56171">
        <ele>334.67614746094</ele>
        <time>2014-03-16T13:53:22Z</time>
      </trkpt>
      <trkpt lat="43.7593" lon="3.56169">
        <ele>335.15673828125</ele>
        <time>2014-03-16T13:53:31Z</time>
      </trkpt>
      <trkpt lat="43.75931" lon="3.56171">
        <ele>332.75354003906</ele>
        <time>2014-03-16T13:53:39Z</time>
      </trkpt>
      <trkpt lat="43.7593" lon="3.56171">
        <ele>334.67614746094</ele>
        <time>2014-03-16T13:53:51Z</time>
      </trkpt>
      <trkpt lat="43.75932" lon="3.56173">
        <ele>331.79211425781</ele>
        <time>2014-03-16T13:54:04Z</time>
      </trkpt>
      <trkpt lat="43.75935" lon="3.56173">
        <ele>331.3115234375</ele>
        <time>2014-03-16T13:54:11Z</time>
      </trkpt>
      <trkpt lat="43.75936" lon="3.56174">
        <ele>332.27282714844</ele>
        <time>2014-03-16T13:54:27Z</time>
      </trkpt>
      <trkpt lat="43.75937" lon="3.56173">
        <ele>328.42761230469</ele>
        <time>2014-03-16T13:54:37Z</time>
      </trkpt>
      <trkpt lat="43.75938" lon="3.56172">
        <ele>332.27282714844</ele>
        <time>2014-03-16T13:54:41Z</time>
      </trkpt>
      <trkpt lat="43.75938" lon="3.56172">
        <ele>329.38891601562</ele>
        <time>2014-03-16T13:54:45Z</time>
      </trkpt>
      <trkpt lat="43.7594" lon="3.56172">
        <ele>328.42761230469</ele>
        <time>2014-03-16T13:55:09Z</time>
      </trkpt>
      <trkpt lat="43.7594" lon="3.56172">
        <ele>328.42761230469</ele>
        <time>2014-03-16T13:55:48Z</time>
      </trkpt>
      <trkpt lat="43.75932" lon="3.56169">
        <ele>327.94677734375</ele>
        <time>2014-03-16T13:57:31Z</time>
      </trkpt>
      <trkpt lat="43.75931" lon="3.56169">
        <ele>331.3115234375</ele>
        <time>2014-03-16T13:57:48Z</time>
      </trkpt>
      <trkpt lat="43.75932" lon="3.56169">
        <ele>327.46618652344</ele>
        <time>2014-03-16T13:58:02Z</time>
      </trkpt>
      <trkpt lat="43.75932" lon="3.56169">
        <ele>327.46618652344</ele>
        <time>2014-03-16T13:58:03Z</time>
      </trkpt>
      <trkpt lat="43.75932" lon="3.56169">
        <ele>329.38891601562</ele>
        <time>2014-03-16T13:58:10Z</time>
      </trkpt>
      <trkpt lat="43.75932" lon="3.56169">
        <ele>330.83093261719</ele>
        <time>2014-03-16T13:58:18Z</time>
      </trkpt>
      <trkpt lat="43.75933" lon="3.56169">
        <ele>329.38891601562</ele>
        <time>2014-03-16T13:58:47Z</time>
      </trkpt>
      <trkpt lat="43.75933" lon="3.56169">
        <ele>326.02416992188</ele>
        <time>2014-03-16T13:59:13Z</time>
      </trkpt>
      <trkpt lat="43.75933" lon="3.56169">
        <ele>326.02416992188</ele>
        <time>2014-03-16T13:59:14Z</time>
      </trkpt>
      <trkpt lat="43.75933" lon="3.56169">
        <ele>328.42761230469</ele>
        <time>2014-03-16T13:59:18Z</time>
      </trkpt>
      <trkpt lat="43.75933" lon="3.56169">
        <ele>330.35021972656</ele>
        <time>2014-03-16T13:59:44Z</time>
      </trkpt>
      <trkpt lat="43.75933" lon="3.56169">
        <ele>328.90832519531</ele>
        <time>2014-03-16T14:00:14Z</time>
      </trkpt>
      <trkpt lat="43.75933" lon="3.56169">
        <ele>326.02416992188</ele>
        <time>2014-03-16T14:00:51Z</time>
      </trkpt>
      <trkpt lat="43.75933" lon="3.56169">
        <ele>326.02416992188</ele>
        <time>2014-03-16T14:00:52Z</time>
      </trkpt>
      <trkpt lat="43.75933" lon="3.56169">
        <ele>328.90832519531</ele>
        <time>2014-03-16T14:00:56Z</time>
      </trkpt>
      <trkpt lat="43.75933" lon="3.56169">
        <ele>328.90832519531</ele>
        <time>2014-03-16T14:01:21Z</time>
      </trkpt>
      <trkpt lat="43.75933" lon="3.56169">
        <ele>329.86950683594</ele>
        <time>2014-03-16T14:01:33Z</time>
      </trkpt>
      <trkpt lat="43.75933" lon="3.56169">
        <ele>329.38891601562</ele>
        <time>2014-03-16T14:02:15Z</time>
      </trkpt>
      <trkpt lat="43.75933" lon="3.56169">
        <ele>331.3115234375</ele>
        <time>2014-03-16T14:02:18Z</time>
      </trkpt>
      <trkpt lat="43.75933" lon="3.56169">
        <ele>327.94677734375</ele>
        <time>2014-03-16T14:02:43Z</time>
      </trkpt>
      <trkpt lat="43.75933" lon="3.56169">
        <ele>326.5048828125</ele>
        <time>2014-03-16T14:02:46Z</time>
      </trkpt>
      <trkpt lat="43.75933" lon="3.56169">
        <ele>329.38891601562</ele>
        <time>2014-03-16T14:02:58Z</time>
      </trkpt>
      <trkpt lat="43.75933" lon="3.56169">
        <ele>325.54357910156</ele>
        <time>2014-03-16T14:03:22Z</time>
      </trkpt>
      <trkpt lat="43.75933" lon="3.5617">
        <ele>325.54357910156</ele>
        <time>2014-03-16T14:03:23Z</time>
      </trkpt>
      <trkpt lat="43.75933" lon="3.5617">
        <ele>328.90832519531</ele>
        <time>2014-03-16T14:03:26Z</time>
      </trkpt>
      <trkpt lat="43.75933" lon="3.5617">
        <ele>329.86950683594</ele>
        <time>2014-03-16T14:03:28Z</time>
      </trkpt>
      <trkpt lat="43.75933" lon="3.5617">
        <ele>326.5048828125</ele>
        <time>2014-03-16T14:03:52Z</time>
      </trkpt>
      <trkpt lat="43.75933" lon="3.5617">
        <ele>327.46618652344</ele>
        <time>2014-03-16T14:03:57Z</time>
      </trkpt>
      <trkpt lat="43.75934" lon="3.5617">
        <ele>330.83093261719</ele>
        <time>2014-03-16T14:04:40Z</time>
      </trkpt>
      <trkpt lat="43.75934" lon="3.5617">
        <ele>326.98559570312</ele>
        <time>2014-03-16T14:04:52Z</time>
      </trkpt>
      <trkpt lat="43.75934" lon="3.5617">
        <ele>329.86950683594</ele>
        <time>2014-03-16T14:04:55Z</time>
      </trkpt>
      <trkpt lat="43.75934" lon="3.5617">
        <ele>329.86950683594</ele>
        <time>2014-03-16T14:05:35Z</time>
      </trkpt>
      <trkpt lat="43.75935" lon="3.56171">
        <ele>328.42761230469</ele>
        <time>2014-03-16T14:06:13Z</time>
      </trkpt>
      <trkpt lat="43.75932" lon="3.56171">
        <ele>324.1015625</ele>
        <time>2014-03-16T14:07:33Z</time>
      </trkpt>
      <trkpt lat="43.75932" lon="3.56171">
        <ele>321.69836425781</ele>
        <time>2014-03-16T14:07:36Z</time>
      </trkpt>
      <trkpt lat="43.75932" lon="3.56171">
        <ele>325.54357910156</ele>
        <time>2014-03-16T14:07:41Z</time>
      </trkpt>
      <trkpt lat="43.75931" lon="3.56171">
        <ele>327.46618652344</ele>
        <time>2014-03-16T14:07:45Z</time>
      </trkpt>
      <trkpt lat="43.75929" lon="3.56169">
        <ele>327.94677734375</ele>
        <time>2014-03-16T14:08:33Z</time>
      </trkpt>
      <trkpt lat="43.75928" lon="3.56168">
        <ele>331.3115234375</ele>
        <time>2014-03-16T14:08:56Z</time>
      </trkpt>
      <trkpt lat="43.75928" lon="3.56168">
        <ele>331.3115234375</ele>
        <time>2014-03-16T14:08:57Z</time>
      </trkpt>
      <trkpt lat="43.75928" lon="3.56168">
        <ele>329.86950683594</ele>
        <time>2014-03-16T14:09:02Z</time>
      </trkpt>
      <trkpt lat="43.75928" lon="3.56169">
        <ele>326.5048828125</ele>
        <time>2014-03-16T14:09:23Z</time>
      </trkpt>
      <trkpt lat="43.75928" lon="3.56169">
        <ele>324.58227539062</ele>
        <time>2014-03-16T14:09:43Z</time>
      </trkpt>
      <trkpt lat="43.75928" lon="3.56169">
        <ele>327.46618652344</ele>
        <time>2014-03-16T14:09:47Z</time>
      </trkpt>
      <trkpt lat="43.75929" lon="3.5617">
        <ele>324.58227539062</ele>
        <time>2014-03-16T14:10:33Z</time>
      </trkpt>
      <trkpt lat="43.7593" lon="3.5617">
        <ele>327.94677734375</ele>
        <time>2014-03-16T14:10:43Z</time>
      </trkpt>
      <trkpt lat="43.75932" lon="3.5617">
        <ele>327.46618652344</ele>
        <time>2014-03-16T14:11:15Z</time>
      </trkpt>
      <trkpt lat="43.75934" lon="3.5617">
        <ele>326.5048828125</ele>
        <time>2014-03-16T14:11:27Z</time>
      </trkpt>
      <trkpt lat="43.75939" lon="3.56169">
        <ele>326.02416992188</ele>
        <time>2014-03-16T14:11:57Z</time>
      </trkpt>
      <trkpt lat="43.75939" lon="3.5617">
        <ele>325.06298828125</ele>
        <time>2014-03-16T14:12:05Z</time>
      </trkpt>
      <trkpt lat="43.75939" lon="3.5617">
        <ele>328.42761230469</ele>
        <time>2014-03-16T14:12:08Z</time>
      </trkpt>
      <trkpt lat="43.75939" lon="3.5617">
        <ele>325.54357910156</ele>
        <time>2014-03-16T14:12:11Z</time>
      </trkpt>
      <trkpt lat="43.75939" lon="3.5617">
        <ele>325.54357910156</ele>
        <time>2014-03-16T14:12:21Z</time>
      </trkpt>
      <trkpt lat="43.75938" lon="3.56171">
        <ele>322.65966796875</ele>
        <time>2014-03-16T14:12:48Z</time>
      </trkpt>
      <trkpt lat="43.75938" lon="3.56171">
        <ele>326.02416992188</ele>
        <time>2014-03-16T14:12:55Z</time>
      </trkpt>
      <trkpt lat="43.75941" lon="3.56174">
        <ele>326.98559570312</ele>
        <time>2014-03-16T14:13:33Z</time>
      </trkpt>
      <trkpt lat="43.75943" lon="3.56174">
        <ele>325.06298828125</ele>
        <time>2014-03-16T14:13:55Z</time>
      </trkpt>
      <trkpt lat="43.75944" lon="3.56173">
        <ele>322.65966796875</ele>
        <time>2014-03-16T14:14:06Z</time>
      </trkpt>
      <trkpt lat="43.75944" lon="3.56173">
        <ele>324.1015625</ele>
        <time>2014-03-16T14:14:08Z</time>
      </trkpt>
      <trkpt lat="43.75945" lon="3.56174">
        <ele>327.46618652344</ele>
        <time>2014-03-16T14:14:29Z</time>
      </trkpt>
      <trkpt lat="43.75946" lon="3.56175">
        <ele>324.1015625</ele>
        <time>2014-03-16T14:14:55Z</time>
      </trkpt>
      <trkpt lat="43.75946" lon="3.56175">
        <ele>323.62097167969</ele>
        <time>2014-03-16T14:15:10Z</time>
      </trkpt>
      <trkpt lat="43.75946" lon="3.56175">
        <ele>324.58227539062</ele>
        <time>2014-03-16T14:15:12Z</time>
      </trkpt>
      <trkpt lat="43.75946" lon="3.56175">
        <ele>324.58227539062</ele>
        <time>2014-03-16T14:15:27Z</time>
      </trkpt>
      <trkpt lat="43.75945" lon="3.56175">
        <ele>324.1015625</ele>
        <time>2014-03-16T14:15:42Z</time>
      </trkpt>
      <trkpt lat="43.75945" lon="3.56175">
        <ele>327.46618652344</ele>
        <time>2014-03-16T14:15:52Z</time>
      </trkpt>
      <trkpt lat="43.75945" lon="3.56175">
        <ele>326.98559570312</ele>
        <time>2014-03-16T14:15:53Z</time>
      </trkpt>
      <trkpt lat="43.75945" lon="3.56175">
        <ele>326.02416992188</ele>
        <time>2014-03-16T14:15:55Z</time>
      </trkpt>
      <trkpt lat="43.75942" lon="3.56175">
        <ele>327.94677734375</ele>
        <time>2014-03-16T14:16:38Z</time>
      </trkpt>
      <trkpt lat="43.75941" lon="3.56175">
        <ele>324.58227539062</ele>
        <time>2014-03-16T14:16:48Z</time>
      </trkpt>
      <trkpt lat="43.75941" lon="3.56175">
        <ele>322.65966796875</ele>
        <time>2014-03-16T14:16:55Z</time>
      </trkpt>
      <trkpt lat="43.7594" lon="3.56175">
        <ele>325.54357910156</ele>
        <time>2014-03-16T14:17:01Z</time>
      </trkpt>
      <trkpt lat="43.75939" lon="3.56175">
        <ele>324.1015625</ele>
        <time>2014-03-16T14:17:42Z</time>
      </trkpt>
      <trkpt lat="43.75939" lon="3.56175">
        <ele>325.54357910156</ele>
        <time>2014-03-16T14:17:47Z</time>
      </trkpt>
      <trkpt lat="43.75938" lon="3.56174">
        <ele>328.42761230469</ele>
        <time>2014-03-16T14:18:18Z</time>
      </trkpt>
      <trkpt lat="43.75938" lon="3.56174">
        <ele>325.06298828125</ele>
        <time>2014-03-16T14:18:23Z</time>
      </trkpt>
      <trkpt lat="43.75938" lon="3.56174">
        <ele>325.06298828125</ele>
        <time>2014-03-16T14:18:24Z</time>
      </trkpt>
      <trkpt lat="43.75938" lon="3.56174">
        <ele>325.54357910156</ele>
        <time>2014-03-16T14:18:38Z</time>
      </trkpt>
      <trkpt lat="43.75938" lon="3.56172">
        <ele>325.06298828125</ele>
        <time>2014-03-16T14:19:10Z</time>
      </trkpt>
      <trkpt lat="43.75937" lon="3.56172">
        <ele>325.54357910156</ele>
        <time>2014-03-16T14:19:24Z</time>
      </trkpt>
      <trkpt lat="43.75926" lon="3.56176">
        <ele>326.98559570312</ele>
        <time>2014-03-16T14:21:05Z</time>
      </trkpt>
      <trkpt lat="43.75933" lon="3.56178">
        <ele>326.5048828125</ele>
        <time>2014-03-16T14:21:49Z</time>
      </trkpt>
      <trkpt lat="43.75938" lon="3.56178">
        <ele>325.54357910156</ele>
        <time>2014-03-16T14:22:23Z</time>
      </trkpt>
      <trkpt lat="43.75942" lon="3.56175">
        <ele>325.54357910156</ele>
        <time>2014-03-16T14:22:56Z</time>
      </trkpt>
      <trkpt lat="43.75942" lon="3.56175">
        <ele>323.62097167969</ele>
        <time>2014-03-16T14:23:03Z</time>
      </trkpt>
      <trkpt lat="43.75942" lon="3.56175">
        <ele>326.5048828125</ele>
        <time>2014-03-16T14:23:07Z</time>
      </trkpt>
      <trkpt lat="43.75941" lon="3.56175">
        <ele>326.02416992188</ele>
        <time>2014-03-16T14:23:17Z</time>
      </trkpt>
      <trkpt lat="43.7594" lon="3.56176">
        <ele>325.06298828125</ele>
        <time>2014-03-16T14:23:30Z</time>
      </trkpt>
      <trkpt lat="43.75939" lon="3.56176">
        <ele>327.46618652344</ele>
        <time>2014-03-16T14:23:51Z</time>
      </trkpt>
      <trkpt lat="43.75939" lon="3.56177">
        <ele>325.06298828125</ele>
        <time>2014-03-16T14:24:01Z</time>
      </trkpt>
      <trkpt lat="43.75938" lon="3.56178">
        <ele>326.5048828125</ele>
        <time>2014-03-16T14:24:33Z</time>
      </trkpt>
      <trkpt lat="43.75933" lon="3.56184">
        <ele>323.14038085938</ele>
        <time>2014-03-16T14:25:26Z</time>
      </trkpt>
      <trkpt lat="43.75933" lon="3.56184">
        <ele>322.65966796875</ele>
        <time>2014-03-16T14:25:27Z</time>
      </trkpt>
      <trkpt lat="43.75933" lon="3.56185">
        <ele>326.02416992188</ele>
        <time>2014-03-16T14:25:33Z</time>
      </trkpt>
      <trkpt lat="43.75934" lon="3.56185">
        <ele>327.46618652344</ele>
        <time>2014-03-16T14:25:35Z</time>
      </trkpt>
      <trkpt lat="43.75946" lon="3.56181">
        <ele>324.58227539062</ele>
        <time>2014-03-16T14:26:49Z</time>
      </trkpt>
      <trkpt lat="43.75946" lon="3.56181">
        <ele>327.94677734375</ele>
        <time>2014-03-16T14:27:09Z</time>
      </trkpt>
      <trkpt lat="43.75948" lon="3.5618">
        <ele>326.98559570312</ele>
        <time>2014-03-16T14:28:10Z</time>
      </trkpt>
      <trkpt lat="43.75946" lon="3.56181">
        <ele>325.06298828125</ele>
        <time>2014-03-16T14:28:26Z</time>
      </trkpt>
      <trkpt lat="43.75946" lon="3.56181">
        <ele>324.58227539062</ele>
        <time>2014-03-16T14:28:40Z</time>
      </trkpt>
      <trkpt lat="43.75948" lon="3.56181">
        <ele>323.14038085938</ele>
        <time>2014-03-16T14:28:52Z</time>
      </trkpt>
      <trkpt lat="43.75948" lon="3.5618">
        <ele>320.73706054688</ele>
        <time>2014-03-16T14:28:55Z</time>
      </trkpt>
      <trkpt lat="43.75948" lon="3.5618">
        <ele>324.1015625</ele>
        <time>2014-03-16T14:28:59Z</time>
      </trkpt>
      <trkpt lat="43.75949" lon="3.5618">
        <ele>326.98559570312</ele>
        <time>2014-03-16T14:29:15Z</time>
      </trkpt>
      <trkpt lat="43.75948" lon="3.56178">
        <ele>323.62097167969</ele>
        <time>2014-03-16T14:29:47Z</time>
      </trkpt>
      <trkpt lat="43.75948" lon="3.56178">
        <ele>323.62097167969</ele>
        <time>2014-03-16T14:29:48Z</time>
      </trkpt>
      <trkpt lat="43.75947" lon="3.56178">
        <ele>326.98559570312</ele>
        <time>2014-03-16T14:30:02Z</time>
      </trkpt>
      <trkpt lat="43.75946" lon="3.56177">
        <ele>326.5048828125</ele>
        <time>2014-03-16T14:30:16Z</time>
      </trkpt>
      <trkpt lat="43.75945" lon="3.56177">
        <ele>327.46618652344</ele>
        <time>2014-03-16T14:30:18Z</time>
      </trkpt>
      <trkpt lat="43.75944" lon="3.56177">
        <ele>326.02416992188</ele>
        <time>2014-03-16T14:30:24Z</time>
      </trkpt>
      <trkpt lat="43.75941" lon="3.5617">
        <ele>326.02416992188</ele>
        <time>2014-03-16T14:32:04Z</time>
      </trkpt>
      <trkpt lat="43.75941" lon="3.56172">
        <ele>327.46618652344</ele>
        <time>2014-03-16T14:32:52Z</time>
      </trkpt>
      <trkpt lat="43.75945" lon="3.56172">
        <ele>327.46618652344</ele>
        <time>2014-03-16T14:35:49Z</time>
      </trkpt>
      <trkpt lat="43.75944" lon="3.56171">
        <ele>330.83093261719</ele>
        <time>2014-03-16T14:35:57Z</time>
      </trkpt>
      <trkpt lat="43.75935" lon="3.56172">
        <ele>331.3115234375</ele>
        <time>2014-03-16T14:36:15Z</time>
      </trkpt>
      <trkpt lat="43.75936" lon="3.56174">
        <ele>329.38891601562</ele>
        <time>2014-03-16T14:36:28Z</time>
      </trkpt>
      <trkpt lat="43.75937" lon="3.56173">
        <ele>332.27282714844</ele>
        <time>2014-03-16T14:36:57Z</time>
      </trkpt>
      <trkpt lat="43.75938" lon="3.56173">
        <ele>328.42761230469</ele>
        <time>2014-03-16T14:37:02Z</time>
      </trkpt>
      <trkpt lat="43.75938" lon="3.56173">
        <ele>329.38891601562</ele>
        <time>2014-03-16T14:37:06Z</time>
      </trkpt>
      <trkpt lat="43.75937" lon="3.56173">
        <ele>331.79211425781</ele>
        <time>2014-03-16T14:37:26Z</time>
      </trkpt>
      <trkpt lat="43.75937" lon="3.56173">
        <ele>331.79211425781</ele>
        <time>2014-03-16T14:37:27Z</time>
      </trkpt>
      <trkpt lat="43.75931" lon="3.56178">
        <ele>333.23413085938</ele>
        <time>2014-03-16T14:37:45Z</time>
      </trkpt>
      <trkpt lat="43.75929" lon="3.5618">
        <ele>334.19543457031</ele>
        <time>2014-03-16T14:37:51Z</time>
      </trkpt>
      <trkpt lat="43.75926" lon="3.56184">
        <ele>333.71472167969</ele>
        <time>2014-03-16T14:37:58Z</time>
      </trkpt>
      <trkpt lat="43.75924" lon="3.56185">
        <ele>337.07946777344</ele>
        <time>2014-03-16T14:38:04Z</time>
      </trkpt>
      <trkpt lat="43.7592" lon="3.56188">
        <ele>339.48266601562</ele>
        <time>2014-03-16T14:38:13Z</time>
      </trkpt>
      <trkpt lat="43.75918" lon="3.56189">
        <ele>339.48266601562</ele>
        <time>2014-03-16T14:38:16Z</time>
      </trkpt>
      <trkpt lat="43.75912" lon="3.56189">
        <ele>339.96337890625</ele>
        <time>2014-03-16T14:38:24Z</time>
      </trkpt>
      <trkpt lat="43.75911" lon="3.56189">
        <ele>339.48266601562</ele>
        <time>2014-03-16T14:38:25Z</time>
      </trkpt>
      <trkpt lat="43.75903" lon="3.56195">
        <ele>339.96337890625</ele>
        <time>2014-03-16T14:38:32Z</time>
      </trkpt>
      <trkpt lat="43.75897" lon="3.56196">
        <ele>338.521484375</ele>
        <time>2014-03-16T14:38:39Z</time>
      </trkpt>
      <trkpt lat="43.75898" lon="3.56196">
        <ele>338.04077148438</ele>
        <time>2014-03-16T14:38:43Z</time>
      </trkpt>
      <trkpt lat="43.75895" lon="3.56197">
        <ele>340.92468261719</ele>
        <time>2014-03-16T14:38:53Z</time>
      </trkpt>
      <trkpt lat="43.75891" lon="3.56196">
        <ele>340.44409179688</ele>
        <time>2014-03-16T14:39:18Z</time>
      </trkpt>
      <trkpt lat="43.75892" lon="3.56195">
        <ele>339.48266601562</ele>
        <time>2014-03-16T14:39:26Z</time>
      </trkpt>
      <trkpt lat="43.75891" lon="3.56197">
        <ele>337.07946777344</ele>
        <time>2014-03-16T14:39:39Z</time>
      </trkpt>
      <trkpt lat="43.75889" lon="3.56199">
        <ele>338.04077148438</ele>
        <time>2014-03-16T14:39:44Z</time>
      </trkpt>
      <trkpt lat="43.75887" lon="3.56201">
        <ele>338.521484375</ele>
        <time>2014-03-16T14:39:47Z</time>
      </trkpt>
      <trkpt lat="43.75886" lon="3.56201">
        <ele>339.48266601562</ele>
        <time>2014-03-16T14:39:49Z</time>
      </trkpt>
      <trkpt lat="43.75878" lon="3.56199">
        <ele>338.04077148438</ele>
        <time>2014-03-16T14:39:57Z</time>
      </trkpt>
      <trkpt lat="43.75877" lon="3.56199">
        <ele>338.521484375</ele>
        <time>2014-03-16T14:39:58Z</time>
      </trkpt>
      <trkpt lat="43.75874" lon="3.56196">
        <ele>336.59887695312</ele>
        <time>2014-03-16T14:40:02Z</time>
      </trkpt>
      <trkpt lat="43.75871" lon="3.56195">
        <ele>335.63732910156</ele>
        <time>2014-03-16T14:40:05Z</time>
      </trkpt>
      <trkpt lat="43.7587" lon="3.56193">
        <ele>335.15673828125</ele>
        <time>2014-03-16T14:40:07Z</time>
      </trkpt>
      <trkpt lat="43.75864" lon="3.56189">
        <ele>335.15673828125</ele>
        <time>2014-03-16T14:40:14Z</time>
      </trkpt>
      <trkpt lat="43.75858" lon="3.56184">
        <ele>333.71472167969</ele>
        <time>2014-03-16T14:40:21Z</time>
      </trkpt>
      <trkpt lat="43.75854" lon="3.56177">
        <ele>331.79211425781</ele>
        <time>2014-03-16T14:40:28Z</time>
      </trkpt>
      <trkpt lat="43.75845" lon="3.56172">
        <ele>331.3115234375</ele>
        <time>2014-03-16T14:40:37Z</time>
      </trkpt>
      <trkpt lat="43.7584" lon="3.5618">
        <ele>330.35021972656</ele>
        <time>2014-03-16T14:40:44Z</time>
      </trkpt>
      <trkpt lat="43.75839" lon="3.56184">
        <ele>328.90832519531</ele>
        <time>2014-03-16T14:40:47Z</time>
      </trkpt>
      <trkpt lat="43.75833" lon="3.56196">
        <ele>329.38891601562</ele>
        <time>2014-03-16T14:40:56Z</time>
      </trkpt>
      <trkpt lat="43.75827" lon="3.56205">
        <ele>327.94677734375</ele>
        <time>2014-03-16T14:41:03Z</time>
      </trkpt>
      <trkpt lat="43.75825" lon="3.5621">
        <ele>325.06298828125</ele>
        <time>2014-03-16T14:41:09Z</time>
      </trkpt>
      <trkpt lat="43.7582" lon="3.56214">
        <ele>325.54357910156</ele>
        <time>2014-03-16T14:41:32Z</time>
      </trkpt>
      <trkpt lat="43.7582" lon="3.56214">
        <ele>325.54357910156</ele>
        <time>2014-03-16T14:41:33Z</time>
      </trkpt>
      <trkpt lat="43.7582" lon="3.56214">
        <ele>324.58227539062</ele>
        <time>2014-03-16T14:41:40Z</time>
      </trkpt>
      <trkpt lat="43.7582" lon="3.56215">
        <ele>327.46618652344</ele>
        <time>2014-03-16T14:41:44Z</time>
      </trkpt>
      <trkpt lat="43.7582" lon="3.56216">
        <ele>326.5048828125</ele>
        <time>2014-03-16T14:41:54Z</time>
      </trkpt>
      <trkpt lat="43.75815" lon="3.56223">
        <ele>326.5048828125</ele>
        <time>2014-03-16T14:42:03Z</time>
      </trkpt>
      <trkpt lat="43.75809" lon="3.56232">
        <ele>325.54357910156</ele>
        <time>2014-03-16T14:42:11Z</time>
      </trkpt>
      <trkpt lat="43.75804" lon="3.56244">
        <ele>325.06298828125</ele>
        <time>2014-03-16T14:42:21Z</time>
      </trkpt>
      <trkpt lat="43.75799" lon="3.5625">
        <ele>322.65966796875</ele>
        <time>2014-03-16T14:42:27Z</time>
      </trkpt>
      <trkpt lat="43.75794" lon="3.56254">
        <ele>324.58227539062</ele>
        <time>2014-03-16T14:42:33Z</time>
      </trkpt>
      <trkpt lat="43.75787" lon="3.56261">
        <ele>321.2177734375</ele>
        <time>2014-03-16T14:42:40Z</time>
      </trkpt>
      <trkpt lat="43.75784" lon="3.56263">
        <ele>317.85302734375</ele>
        <time>2014-03-16T14:42:45Z</time>
      </trkpt>
      <trkpt lat="43.75781" lon="3.56265">
        <ele>322.65966796875</ele>
        <time>2014-03-16T14:42:48Z</time>
      </trkpt>
      <trkpt lat="43.7578" lon="3.56267">
        <ele>322.65966796875</ele>
        <time>2014-03-16T14:42:49Z</time>
      </trkpt>
      <trkpt lat="43.75776" lon="3.56269">
        <ele>320.73706054688</ele>
        <time>2014-03-16T14:42:53Z</time>
      </trkpt>
      <trkpt lat="43.75765" lon="3.5627">
        <ele>321.69836425781</ele>
        <time>2014-03-16T14:43:02Z</time>
      </trkpt>
      <trkpt lat="43.75759" lon="3.56266">
        <ele>320.73706054688</ele>
        <time>2014-03-16T14:43:09Z</time>
      </trkpt>
      <trkpt lat="43.75757" lon="3.56265">
        <ele>318.81433105469</ele>
        <time>2014-03-16T14:43:13Z</time>
      </trkpt>
      <trkpt lat="43.75749" lon="3.56263">
        <ele>316.89172363281</ele>
        <time>2014-03-16T14:43:20Z</time>
      </trkpt>
      <trkpt lat="43.75743" lon="3.56264">
        <ele>316.41101074219</ele>
        <time>2014-03-16T14:43:29Z</time>
      </trkpt>
      <trkpt lat="43.75742" lon="3.56265">
        <ele>315.93041992188</ele>
        <time>2014-03-16T14:43:30Z</time>
      </trkpt>
      <trkpt lat="43.75736" lon="3.56275">
        <ele>316.41101074219</ele>
        <time>2014-03-16T14:43:40Z</time>
      </trkpt>
      <trkpt lat="43.75728" lon="3.56286">
        <ele>314.48840332031</ele>
        <time>2014-03-16T14:43:50Z</time>
      </trkpt>
      <trkpt lat="43.75727" lon="3.56285">
        <ele>313.04650878906</ele>
        <time>2014-03-16T14:43:53Z</time>
      </trkpt>
      <trkpt lat="43.75723" lon="3.56278">
        <ele>313.52722167969</ele>
        <time>2014-03-16T14:44:00Z</time>
      </trkpt>
      <trkpt lat="43.75718" lon="3.5627">
        <ele>311.6044921875</ele>
        <time>2014-03-16T14:44:07Z</time>
      </trkpt>
      <trkpt lat="43.75716" lon="3.5626">
        <ele>311.6044921875</ele>
        <time>2014-03-16T14:44:15Z</time>
      </trkpt>
      <trkpt lat="43.75715" lon="3.56244">
        <ele>312.56579589844</ele>
        <time>2014-03-16T14:44:25Z</time>
      </trkpt>
      <trkpt lat="43.75715" lon="3.56237">
        <ele>311.6044921875</ele>
        <time>2014-03-16T14:44:31Z</time>
      </trkpt>
      <trkpt lat="43.7571" lon="3.56227">
        <ele>311.12377929688</ele>
        <time>2014-03-16T14:44:39Z</time>
      </trkpt>
      <trkpt lat="43.75705" lon="3.5622">
        <ele>310.16247558594</ele>
        <time>2014-03-16T14:44:45Z</time>
      </trkpt>
      <trkpt lat="43.75695" lon="3.56214">
        <ele>309.201171875</ele>
        <time>2014-03-16T14:44:54Z</time>
      </trkpt>
      <trkpt lat="43.75691" lon="3.56213">
        <ele>309.68188476562</ele>
        <time>2014-03-16T14:44:59Z</time>
      </trkpt>
      <trkpt lat="43.75687" lon="3.56213">
        <ele>308.72045898438</ele>
        <time>2014-03-16T14:45:03Z</time>
      </trkpt>
      <trkpt lat="43.75678" lon="3.56216">
        <ele>307.75927734375</ele>
        <time>2014-03-16T14:45:12Z</time>
      </trkpt>
      <trkpt lat="43.75676" lon="3.56215">
        <ele>307.75927734375</ele>
        <time>2014-03-16T14:45:14Z</time>
      </trkpt>
      <trkpt lat="43.75668" lon="3.5622">
        <ele>308.23986816406</ele>
        <time>2014-03-16T14:45:22Z</time>
      </trkpt>
      <trkpt lat="43.75668" lon="3.56221">
        <ele>307.75927734375</ele>
        <time>2014-03-16T14:45:31Z</time>
      </trkpt>
      <trkpt lat="43.75666" lon="3.56221">
        <ele>306.7978515625</ele>
        <time>2014-03-16T14:45:34Z</time>
      </trkpt>
      <trkpt lat="43.75656" lon="3.56221">
        <ele>305.35595703125</ele>
        <time>2014-03-16T14:45:44Z</time>
      </trkpt>
      <trkpt lat="43.75651" lon="3.56221">
        <ele>303.43322753906</ele>
        <time>2014-03-16T14:45:48Z</time>
      </trkpt>
      <trkpt lat="43.75648" lon="3.56221">
        <ele>304.87524414062</ele>
        <time>2014-03-16T14:45:51Z</time>
      </trkpt>
      <trkpt lat="43.75641" lon="3.56225">
        <ele>302.47192382812</ele>
        <time>2014-03-16T14:46:01Z</time>
      </trkpt>
      <trkpt lat="43.75635" lon="3.56227">
        <ele>301.02990722656</ele>
        <time>2014-03-16T14:46:06Z</time>
      </trkpt>
      <trkpt lat="43.75629" lon="3.56234">
        <ele>299.58801269531</ele>
        <time>2014-03-16T14:46:14Z</time>
      </trkpt>
      <trkpt lat="43.75629" lon="3.56238">
        <ele>300.06872558594</ele>
        <time>2014-03-16T14:46:17Z</time>
      </trkpt>
      <trkpt lat="43.7563" lon="3.56246">
        <ele>298.62670898438</ele>
        <time>2014-03-16T14:46:22Z</time>
      </trkpt>
      <trkpt lat="43.75636" lon="3.56255">
        <ele>297.66540527344</ele>
        <time>2014-03-16T14:46:31Z</time>
      </trkpt>
      <trkpt lat="43.75642" lon="3.56258">
        <ele>297.18469238281</ele>
        <time>2014-03-16T14:46:38Z</time>
      </trkpt>
      <trkpt lat="43.75645" lon="3.56267">
        <ele>296.7041015625</ele>
        <time>2014-03-16T14:46:46Z</time>
      </trkpt>
      <trkpt lat="43.75646" lon="3.56273">
        <ele>295.26196289062</ele>
        <time>2014-03-16T14:46:52Z</time>
      </trkpt>
      <trkpt lat="43.75639" lon="3.56288">
        <ele>292.37817382812</ele>
        <time>2014-03-16T14:47:04Z</time>
      </trkpt>
      <trkpt lat="43.75638" lon="3.563">
        <ele>293.33935546875</ele>
        <time>2014-03-16T14:47:13Z</time>
      </trkpt>
      <trkpt lat="43.75638" lon="3.563">
        <ele>294.30078125</ele>
        <time>2014-03-16T14:47:28Z</time>
      </trkpt>
      <trkpt lat="43.75636" lon="3.56303">
        <ele>294.78137207031</ele>
        <time>2014-03-16T14:47:36Z</time>
      </trkpt>
      <trkpt lat="43.7563" lon="3.5631">
        <ele>291.41674804688</ele>
        <time>2014-03-16T14:47:42Z</time>
      </trkpt>
      <trkpt lat="43.75627" lon="3.56317">
        <ele>291.8974609375</ele>
        <time>2014-03-16T14:47:48Z</time>
      </trkpt>
      <trkpt lat="43.75628" lon="3.56317">
        <ele>292.85876464844</ele>
        <time>2014-03-16T14:47:58Z</time>
      </trkpt>
      <trkpt lat="43.75626" lon="3.56321">
        <ele>292.37817382812</ele>
        <time>2014-03-16T14:48:08Z</time>
      </trkpt>
      <trkpt lat="43.75622" lon="3.56328">
        <ele>293.82006835938</ele>
        <time>2014-03-16T14:48:17Z</time>
      </trkpt>
      <trkpt lat="43.7562" lon="3.56334">
        <ele>291.41674804688</ele>
        <time>2014-03-16T14:48:24Z</time>
      </trkpt>
      <trkpt lat="43.75616" lon="3.56346">
        <ele>292.85876464844</ele>
        <time>2014-03-16T14:48:33Z</time>
      </trkpt>
      <trkpt lat="43.75616" lon="3.56352">
        <ele>290.45556640625</ele>
        <time>2014-03-16T14:48:37Z</time>
      </trkpt>
      <trkpt lat="43.75616" lon="3.56354">
        <ele>289.97485351562</ele>
        <time>2014-03-16T14:48:38Z</time>
      </trkpt>
      <trkpt lat="43.75614" lon="3.56358">
        <ele>292.85876464844</ele>
        <time>2014-03-16T14:48:41Z</time>
      </trkpt>
      <trkpt lat="43.75611" lon="3.56365">
        <ele>289.494140625</ele>
        <time>2014-03-16T14:48:51Z</time>
      </trkpt>
      <trkpt lat="43.75613" lon="3.56374">
        <ele>287.0908203125</ele>
        <time>2014-03-16T14:48:59Z</time>
      </trkpt>
      <trkpt lat="43.75613" lon="3.56378">
        <ele>287.0908203125</ele>
        <time>2014-03-16T14:49:02Z</time>
      </trkpt>
      <trkpt lat="43.75617" lon="3.56389">
        <ele>287.0908203125</ele>
        <time>2014-03-16T14:49:11Z</time>
      </trkpt>
      <trkpt lat="43.75616" lon="3.56392">
        <ele>286.12951660156</ele>
        <time>2014-03-16T14:49:14Z</time>
      </trkpt>
      <trkpt lat="43.75613" lon="3.56387">
        <ele>285.16821289062</ele>
        <time>2014-03-16T14:49:21Z</time>
      </trkpt>
      <trkpt lat="43.75612" lon="3.56386">
        <ele>284.68762207031</ele>
        <time>2014-03-16T14:49:22Z</time>
      </trkpt>
      <trkpt lat="43.75608" lon="3.56379">
        <ele>283.72619628906</ele>
        <time>2014-03-16T14:49:28Z</time>
      </trkpt>
      <trkpt lat="43.75605" lon="3.56377">
        <ele>281.32299804688</ele>
        <time>2014-03-16T14:49:35Z</time>
      </trkpt>
      <trkpt lat="43.75601" lon="3.56376">
        <ele>280.84240722656</ele>
        <time>2014-03-16T14:49:40Z</time>
      </trkpt>
      <trkpt lat="43.75595" lon="3.5637">
        <ele>279.880859375</ele>
        <time>2014-03-16T14:49:47Z</time>
      </trkpt>
      <trkpt lat="43.7559" lon="3.56366">
        <ele>276.9970703125</ele>
        <time>2014-03-16T14:49:55Z</time>
      </trkpt>
      <trkpt lat="43.75585" lon="3.5636">
        <ele>276.03564453125</ele>
        <time>2014-03-16T14:50:04Z</time>
      </trkpt>
      <trkpt lat="43.75581" lon="3.56363">
        <ele>274.11303710938</ele>
        <time>2014-03-16T14:50:09Z</time>
      </trkpt>
      <trkpt lat="43.75577" lon="3.56374">
        <ele>272.1904296875</ele>
        <time>2014-03-16T14:50:18Z</time>
      </trkpt>
      <trkpt lat="43.75575" lon="3.56383">
        <ele>270.74841308594</ele>
        <time>2014-03-16T14:50:27Z</time>
      </trkpt>
      <trkpt lat="43.75573" lon="3.56382">
        <ele>269.787109375</ele>
        <time>2014-03-16T14:50:29Z</time>
      </trkpt>
      <trkpt lat="43.75568" lon="3.56374">
        <ele>269.787109375</ele>
        <time>2014-03-16T14:50:37Z</time>
      </trkpt>
      <trkpt lat="43.75564" lon="3.56376">
        <ele>269.30651855469</ele>
        <time>2014-03-16T14:50:42Z</time>
      </trkpt>
      <trkpt lat="43.75564" lon="3.56383">
        <ele>265.46130371094</ele>
        <time>2014-03-16T14:50:47Z</time>
      </trkpt>
      <trkpt lat="43.75564" lon="3.56384">
        <ele>265.46130371094</ele>
        <time>2014-03-16T14:50:48Z</time>
      </trkpt>
      <trkpt lat="43.75567" lon="3.56389">
        <ele>263.05786132812</ele>
        <time>2014-03-16T14:50:52Z</time>
      </trkpt>
      <trkpt lat="43.75571" lon="3.56394">
        <ele>265.94189453125</ele>
        <time>2014-03-16T14:50:56Z</time>
      </trkpt>
      <trkpt lat="43.75572" lon="3.56396">
        <ele>265.94189453125</ele>
        <time>2014-03-16T14:50:57Z</time>
      </trkpt>
      <trkpt lat="43.75576" lon="3.56401">
        <ele>266.42248535156</ele>
        <time>2014-03-16T14:51:02Z</time>
      </trkpt>
      <trkpt lat="43.75578" lon="3.56403">
        <ele>264.98059082031</ele>
        <time>2014-03-16T14:51:05Z</time>
      </trkpt>
      <trkpt lat="43.75587" lon="3.56412">
        <ele>264.49987792969</ele>
        <time>2014-03-16T14:51:14Z</time>
      </trkpt>
      <trkpt lat="43.75595" lon="3.56424">
        <ele>263.05786132812</ele>
        <time>2014-03-16T14:51:24Z</time>
      </trkpt>
      <trkpt lat="43.756" lon="3.56436">
        <ele>262.5771484375</ele>
        <time>2014-03-16T14:51:32Z</time>
      </trkpt>
      <trkpt lat="43.75598" lon="3.56445">
        <ele>261.61596679688</ele>
        <time>2014-03-16T14:51:41Z</time>
      </trkpt>
      <trkpt lat="43.75597" lon="3.56449">
        <ele>260.65454101562</ele>
        <time>2014-03-16T14:51:48Z</time>
      </trkpt>
      <trkpt lat="43.75597" lon="3.56448">
        <ele>260.17395019531</ele>
        <time>2014-03-16T14:51:49Z</time>
      </trkpt>
      <trkpt lat="43.75594" lon="3.56438">
        <ele>259.693359375</ele>
        <time>2014-03-16T14:51:57Z</time>
      </trkpt>
      <trkpt lat="43.75589" lon="3.56433">
        <ele>257.77075195312</ele>
        <time>2014-03-16T14:52:03Z</time>
      </trkpt>
      <trkpt lat="43.75582" lon="3.56428">
        <ele>256.32873535156</ele>
        <time>2014-03-16T14:52:10Z</time>
      </trkpt>
      <trkpt lat="43.75573" lon="3.56422">
        <ele>254.88659667969</ele>
        <time>2014-03-16T14:52:18Z</time>
      </trkpt>
      <trkpt lat="43.75566" lon="3.56419">
        <ele>254.88659667969</ele>
        <time>2014-03-16T14:52:26Z</time>
      </trkpt>
      <trkpt lat="43.75562" lon="3.5642">
        <ele>253.44470214844</ele>
        <time>2014-03-16T14:52:32Z</time>
      </trkpt>
      <trkpt lat="43.75572" lon="3.56428">
        <ele>252.4833984375</ele>
        <time>2014-03-16T14:52:41Z</time>
      </trkpt>
      <trkpt lat="43.75578" lon="3.5644">
        <ele>250.56079101562</ele>
        <time>2014-03-16T14:52:50Z</time>
      </trkpt>
      <trkpt lat="43.75579" lon="3.56441">
        <ele>250.08020019531</ele>
        <time>2014-03-16T14:52:51Z</time>
      </trkpt>
      <trkpt lat="43.75579" lon="3.56446">
        <ele>250.08020019531</ele>
        <time>2014-03-16T14:52:55Z</time>
      </trkpt>
      <trkpt lat="43.75577" lon="3.56456">
        <ele>248.63818359375</ele>
        <time>2014-03-16T14:53:04Z</time>
      </trkpt>
      <trkpt lat="43.75574" lon="3.56458">
        <ele>246.71545410156</ele>
        <time>2014-03-16T14:53:12Z</time>
      </trkpt>
      <trkpt lat="43.75571" lon="3.56453">
        <ele>244.31225585938</ele>
        <time>2014-03-16T14:53:20Z</time>
      </trkpt>
      <trkpt lat="43.75563" lon="3.56446">
        <ele>241.90893554688</ele>
        <time>2014-03-16T14:53:29Z</time>
      </trkpt>
      <trkpt lat="43.75563" lon="3.5645">
        <ele>240.94763183594</ele>
        <time>2014-03-16T14:53:34Z</time>
      </trkpt>
      <trkpt lat="43.75565" lon="3.56458">
        <ele>239.02490234375</ele>
        <time>2014-03-16T14:53:42Z</time>
      </trkpt>
      <trkpt lat="43.75564" lon="3.56468">
        <ele>238.06359863281</ele>
        <time>2014-03-16T14:53:49Z</time>
      </trkpt>
      <trkpt lat="43.75562" lon="3.56478">
        <ele>236.62170410156</ele>
        <time>2014-03-16T14:53:57Z</time>
      </trkpt>
      <trkpt lat="43.75558" lon="3.56485">
        <ele>236.14099121094</ele>
        <time>2014-03-16T14:54:04Z</time>
      </trkpt>
      <trkpt lat="43.75556" lon="3.56495">
        <ele>234.69909667969</ele>
        <time>2014-03-16T14:54:11Z</time>
      </trkpt>
      <trkpt lat="43.75556" lon="3.56497">
        <ele>234.21838378906</ele>
        <time>2014-03-16T14:54:12Z</time>
      </trkpt>
      <trkpt lat="43.75556" lon="3.56494">
        <ele>234.21838378906</ele>
        <time>2014-03-16T14:54:18Z</time>
      </trkpt>
      <trkpt lat="43.75556" lon="3.56492">
        <ele>233.73767089844</ele>
        <time>2014-03-16T14:54:20Z</time>
      </trkpt>
      <trkpt lat="43.75556" lon="3.56488">
        <ele>232.77648925781</ele>
        <time>2014-03-16T14:54:23Z</time>
      </trkpt>
      <trkpt lat="43.75555" lon="3.56483">
        <ele>231.81494140625</ele>
        <time>2014-03-16T14:54:27Z</time>
      </trkpt>
      <trkpt lat="43.75554" lon="3.56471">
        <ele>229.41174316406</ele>
        <time>2014-03-16T14:54:36Z</time>
      </trkpt>
      <trkpt lat="43.75551" lon="3.56464">
        <ele>227.9697265625</ele>
        <time>2014-03-16T14:54:44Z</time>
      </trkpt>
      <trkpt lat="43.7555" lon="3.56463">
        <ele>227.9697265625</ele>
        <time>2014-03-16T14:54:45Z</time>
      </trkpt>
      <trkpt lat="43.75545" lon="3.56463">
        <ele>226.52783203125</ele>
        <time>2014-03-16T14:54:54Z</time>
      </trkpt>
      <trkpt lat="43.75547" lon="3.56466">
        <ele>225.56652832031</ele>
        <time>2014-03-16T14:54:58Z</time>
      </trkpt>
      <trkpt lat="43.75546" lon="3.56475">
        <ele>224.60522460938</ele>
        <time>2014-03-16T14:55:06Z</time>
      </trkpt>
      <trkpt lat="43.75542" lon="3.56473">
        <ele>223.64379882812</ele>
        <time>2014-03-16T14:55:11Z</time>
      </trkpt>
      <trkpt lat="43.75538" lon="3.56473">
        <ele>222.20178222656</ele>
        <time>2014-03-16T14:55:19Z</time>
      </trkpt>
      <trkpt lat="43.75538" lon="3.56473">
        <ele>221.72119140625</ele>
        <time>2014-03-16T14:55:21Z</time>
      </trkpt>
      <trkpt lat="43.75536" lon="3.56487">
        <ele>220.27917480469</ele>
        <time>2014-03-16T14:55:29Z</time>
      </trkpt>
      <trkpt lat="43.75534" lon="3.56492">
        <ele>220.27917480469</ele>
        <time>2014-03-16T14:55:33Z</time>
      </trkpt>
      <trkpt lat="43.75536" lon="3.56505">
        <ele>220.27917480469</ele>
        <time>2014-03-16T14:55:42Z</time>
      </trkpt>
      <trkpt lat="43.75538" lon="3.56512">
        <ele>219.79858398438</ele>
        <time>2014-03-16T14:55:48Z</time>
      </trkpt>
      <trkpt lat="43.7554" lon="3.56521">
        <ele>217.8759765625</ele>
        <time>2014-03-16T14:55:57Z</time>
      </trkpt>
      <trkpt lat="43.7554" lon="3.56532">
        <ele>215.95324707031</ele>
        <time>2014-03-16T14:56:05Z</time>
      </trkpt>
      <trkpt lat="43.75543" lon="3.56539">
        <ele>214.51123046875</ele>
        <time>2014-03-16T14:56:11Z</time>
      </trkpt>
      <trkpt lat="43.7554" lon="3.56537">
        <ele>213.0693359375</ele>
        <time>2014-03-16T14:56:19Z</time>
      </trkpt>
      <trkpt lat="43.7554" lon="3.56535">
        <ele>212.58862304688</ele>
        <time>2014-03-16T14:56:21Z</time>
      </trkpt>
      <trkpt lat="43.75538" lon="3.56532">
        <ele>212.10803222656</ele>
        <time>2014-03-16T14:56:23Z</time>
      </trkpt>
      <trkpt lat="43.75537" lon="3.56525">
        <ele>212.58862304688</ele>
        <time>2014-03-16T14:56:29Z</time>
      </trkpt>
      <trkpt lat="43.75537" lon="3.56522">
        <ele>212.10803222656</ele>
        <time>2014-03-16T14:56:32Z</time>
      </trkpt>
      <trkpt lat="43.75533" lon="3.56514">
        <ele>211.62744140625</ele>
        <time>2014-03-16T14:56:39Z</time>
      </trkpt>
      <trkpt lat="43.75529" lon="3.56509">
        <ele>209.70483398438</ele>
        <time>2014-03-16T14:56:46Z</time>
      </trkpt>
      <trkpt lat="43.75526" lon="3.56502">
        <ele>208.26281738281</ele>
        <time>2014-03-16T14:56:54Z</time>
      </trkpt>
      <trkpt lat="43.7552" lon="3.56494">
        <ele>207.30139160156</ele>
        <time>2014-03-16T14:57:01Z</time>
      </trkpt>
      <trkpt lat="43.75516" lon="3.56489">
        <ele>206.82067871094</ele>
        <time>2014-03-16T14:57:05Z</time>
      </trkpt>
      <trkpt lat="43.75514" lon="3.56488">
        <ele>206.34008789062</ele>
        <time>2014-03-16T14:57:07Z</time>
      </trkpt>
      <trkpt lat="43.75513" lon="3.56484">
        <ele>205.85949707031</ele>
        <time>2014-03-16T14:57:10Z</time>
      </trkpt>
      <trkpt lat="43.75509" lon="3.56476">
        <ele>204.89807128906</ele>
        <time>2014-03-16T14:57:17Z</time>
      </trkpt>
      <trkpt lat="43.75503" lon="3.56467">
        <ele>203.45617675781</ele>
        <time>2014-03-16T14:57:24Z</time>
      </trkpt>
      <trkpt lat="43.75503" lon="3.56465">
        <ele>202.97546386719</ele>
        <time>2014-03-16T14:57:26Z</time>
      </trkpt>
      <trkpt lat="43.75501" lon="3.5646">
        <ele>202.49487304688</ele>
        <time>2014-03-16T14:57:29Z</time>
      </trkpt>
      <trkpt lat="43.75491" lon="3.56454">
        <ele>202.97546386719</ele>
        <time>2014-03-16T14:57:36Z</time>
      </trkpt>
      <trkpt lat="43.75489" lon="3.56451">
        <ele>202.49487304688</ele>
        <time>2014-03-16T14:57:40Z</time>
      </trkpt>
      <trkpt lat="43.75481" lon="3.5644">
        <ele>202.49487304688</ele>
        <time>2014-03-16T14:57:51Z</time>
      </trkpt>
      <trkpt lat="43.75474" lon="3.56427">
        <ele>200.09167480469</ele>
        <time>2014-03-16T14:58:02Z</time>
      </trkpt>
      <trkpt lat="43.75468" lon="3.56416">
        <ele>197.68823242188</ele>
        <time>2014-03-16T14:58:13Z</time>
      </trkpt>
      <trkpt lat="43.75468" lon="3.56415">
        <ele>197.20751953125</ele>
        <time>2014-03-16T14:58:14Z</time>
      </trkpt>
      <trkpt lat="43.75465" lon="3.5641">
        <ele>196.24633789062</ele>
        <time>2014-03-16T14:58:17Z</time>
      </trkpt>
      <trkpt lat="43.75462" lon="3.56409">
        <ele>196.24633789062</ele>
        <time>2014-03-16T14:58:20Z</time>
      </trkpt>
      <trkpt lat="43.75454" lon="3.56402">
        <ele>196.72692871094</ele>
        <time>2014-03-16T14:58:24Z</time>
      </trkpt>
      <trkpt lat="43.75447" lon="3.56391">
        <ele>197.20751953125</ele>
        <time>2014-03-16T14:58:31Z</time>
      </trkpt>
      <trkpt lat="43.75441" lon="3.56385">
        <ele>197.68823242188</ele>
        <time>2014-03-16T14:58:37Z</time>
      </trkpt>
      <trkpt lat="43.75436" lon="3.56383">
        <ele>197.68823242188</ele>
        <time>2014-03-16T14:58:40Z</time>
      </trkpt>
      <trkpt lat="43.7543" lon="3.56375">
        <ele>197.68823242188</ele>
        <time>2014-03-16T14:58:46Z</time>
      </trkpt>
      <trkpt lat="43.75427" lon="3.56372">
        <ele>197.68823242188</ele>
        <time>2014-03-16T14:58:48Z</time>
      </trkpt>
      <trkpt lat="43.75426" lon="3.56371">
        <ele>197.68823242188</ele>
        <time>2014-03-16T14:58:50Z</time>
      </trkpt>
      <trkpt lat="43.75422" lon="3.56368">
        <ele>198.64953613281</ele>
        <time>2014-03-16T14:58:53Z</time>
      </trkpt>
      <trkpt lat="43.75412" lon="3.56365">
        <ele>199.13012695312</ele>
        <time>2014-03-16T14:58:59Z</time>
      </trkpt>
      <trkpt lat="43.75406" lon="3.56364">
        <ele>197.20751953125</ele>
        <time>2014-03-16T14:59:03Z</time>
      </trkpt>
      <trkpt lat="43.75402" lon="3.56361">
        <ele>195.765625</ele>
        <time>2014-03-16T14:59:10Z</time>
      </trkpt>
      <trkpt lat="43.754" lon="3.56358">
        <ele>194.80432128906</ele>
        <time>2014-03-16T14:59:13Z</time>
      </trkpt>
      <trkpt lat="43.75393" lon="3.56356">
        <ele>194.80432128906</ele>
        <time>2014-03-16T14:59:18Z</time>
      </trkpt>
      <trkpt lat="43.75379" lon="3.56355">
        <ele>194.80432128906</ele>
        <time>2014-03-16T14:59:27Z</time>
      </trkpt>
      <trkpt lat="43.75374" lon="3.56355">
        <ele>194.80432128906</ele>
        <time>2014-03-16T14:59:32Z</time>
      </trkpt>
      <trkpt lat="43.75366" lon="3.56352">
        <ele>194.32373046875</ele>
        <time>2014-03-16T14:59:40Z</time>
      </trkpt>
      <trkpt lat="43.75362" lon="3.56348">
        <ele>194.32373046875</ele>
        <time>2014-03-16T14:59:45Z</time>
      </trkpt>
      <trkpt lat="43.75361" lon="3.56342">
        <ele>194.32373046875</ele>
        <time>2014-03-16T14:59:50Z</time>
      </trkpt>
      <trkpt lat="43.75357" lon="3.56331">
        <ele>194.80432128906</ele>
        <time>2014-03-16T14:59:57Z</time>
      </trkpt>
      <trkpt lat="43.75356" lon="3.56323">
        <ele>194.80432128906</ele>
        <time>2014-03-16T15:00:02Z</time>
      </trkpt>
      <trkpt lat="43.75354" lon="3.56318">
        <ele>194.80432128906</ele>
        <time>2014-03-16T15:00:06Z</time>
      </trkpt>
      <trkpt lat="43.75352" lon="3.56311">
        <ele>194.80432128906</ele>
        <time>2014-03-16T15:00:12Z</time>
      </trkpt>
      <trkpt lat="43.75348" lon="3.56303">
        <ele>194.32373046875</ele>
        <time>2014-03-16T15:00:19Z</time>
      </trkpt>
      <trkpt lat="43.75343" lon="3.56297">
        <ele>193.3623046875</ele>
        <time>2014-03-16T15:00:26Z</time>
      </trkpt>
      <trkpt lat="43.75342" lon="3.56293">
        <ele>193.3623046875</ele>
        <time>2014-03-16T15:00:29Z</time>
      </trkpt>
      <trkpt lat="43.75341" lon="3.5629">
        <ele>193.3623046875</ele>
        <time>2014-03-16T15:00:31Z</time>
      </trkpt>
      <trkpt lat="43.7534" lon="3.56281">
        <ele>192.88171386719</ele>
        <time>2014-03-16T15:00:36Z</time>
      </trkpt>
      <trkpt lat="43.75331" lon="3.56278">
        <ele>191.43957519531</ele>
        <time>2014-03-16T15:00:45Z</time>
      </trkpt>
      <trkpt lat="43.7532" lon="3.56281">
        <ele>190.47839355469</ele>
        <time>2014-03-16T15:00:51Z</time>
      </trkpt>
      <trkpt lat="43.75313" lon="3.56285">
        <ele>189.03637695312</ele>
        <time>2014-03-16T15:00:59Z</time>
      </trkpt>
      <trkpt lat="43.75309" lon="3.56287">
        <ele>188.55578613281</ele>
        <time>2014-03-16T15:01:04Z</time>
      </trkpt>
      <trkpt lat="43.75306" lon="3.56286">
        <ele>187.59436035156</ele>
        <time>2014-03-16T15:01:07Z</time>
      </trkpt>
      <trkpt lat="43.75303" lon="3.56284">
        <ele>187.11376953125</ele>
        <time>2014-03-16T15:01:09Z</time>
      </trkpt>
      <trkpt lat="43.753" lon="3.56283">
        <ele>186.63317871094</ele>
        <time>2014-03-16T15:01:12Z</time>
      </trkpt>
      <trkpt lat="43.7529" lon="3.56281">
        <ele>184.71057128906</ele>
        <time>2014-03-16T15:01:21Z</time>
      </trkpt>
      <trkpt lat="43.75285" lon="3.56281">
        <ele>183.7490234375</ele>
        <time>2014-03-16T15:01:28Z</time>
      </trkpt>
      <trkpt lat="43.75279" lon="3.56279">
        <ele>181.82641601562</ele>
        <time>2014-03-16T15:01:36Z</time>
      </trkpt>
      <trkpt lat="43.75276" lon="3.56281">
        <ele>179.42321777344</ele>
        <time>2014-03-16T15:01:44Z</time>
      </trkpt>
      <trkpt lat="43.75269" lon="3.56282">
        <ele>178.94262695312</ele>
        <time>2014-03-16T15:01:53Z</time>
      </trkpt>
      <trkpt lat="43.75268" lon="3.56282">
        <ele>178.94262695312</ele>
        <time>2014-03-16T15:01:54Z</time>
      </trkpt>
      <trkpt lat="43.75264" lon="3.56278">
        <ele>177.50061035156</ele>
        <time>2014-03-16T15:02:01Z</time>
      </trkpt>
      <trkpt lat="43.75264" lon="3.56273">
        <ele>177.02001953125</ele>
        <time>2014-03-16T15:02:05Z</time>
      </trkpt>
      <trkpt lat="43.7526" lon="3.56266">
        <ele>174.61657714844</ele>
        <time>2014-03-16T15:02:14Z</time>
      </trkpt>
      <trkpt lat="43.75252" lon="3.56258">
        <ele>173.17468261719</ele>
        <time>2014-03-16T15:02:24Z</time>
      </trkpt>
      <trkpt lat="43.75245" lon="3.56249">
        <ele>170.77136230469</ele>
        <time>2014-03-16T15:02:35Z</time>
      </trkpt>
      <trkpt lat="43.75236" lon="3.56241">
        <ele>168.84875488281</ele>
        <time>2014-03-16T15:02:45Z</time>
      </trkpt>
      <trkpt lat="43.7523" lon="3.56236">
        <ele>167.40673828125</ele>
        <time>2014-03-16T15:02:53Z</time>
      </trkpt>
      <trkpt lat="43.75223" lon="3.5623">
        <ele>166.4453125</ele>
        <time>2014-03-16T15:03:00Z</time>
      </trkpt>
      <trkpt lat="43.75222" lon="3.56223">
        <ele>165.48413085938</ele>
        <time>2014-03-16T15:03:06Z</time>
      </trkpt>
      <trkpt lat="43.7522" lon="3.56214">
        <ele>163.5615234375</ele>
        <time>2014-03-16T15:03:13Z</time>
      </trkpt>
      <trkpt lat="43.75215" lon="3.5621">
        <ele>163.08081054688</ele>
        <time>2014-03-16T15:03:17Z</time>
      </trkpt>
      <trkpt lat="43.75214" lon="3.56209">
        <ele>163.08081054688</ele>
        <time>2014-03-16T15:03:19Z</time>
      </trkpt>
      <trkpt lat="43.75211" lon="3.56204">
        <ele>161.63891601562</ele>
        <time>2014-03-16T15:03:26Z</time>
      </trkpt>
      <trkpt lat="43.7521" lon="3.56201">
        <ele>161.158203125</ele>
        <time>2014-03-16T15:03:28Z</time>
      </trkpt>
      <trkpt lat="43.75203" lon="3.56196">
        <ele>160.19689941406</ele>
        <time>2014-03-16T15:03:34Z</time>
      </trkpt>
      <trkpt lat="43.75199" lon="3.56191">
        <ele>158.27416992188</ele>
        <time>2014-03-16T15:03:41Z</time>
      </trkpt>
      <trkpt lat="43.75192" lon="3.56181">
        <ele>155.87097167969</ele>
        <time>2014-03-16T15:03:52Z</time>
      </trkpt>
      <trkpt lat="43.7519" lon="3.56177">
        <ele>154.42895507812</ele>
        <time>2014-03-16T15:03:56Z</time>
      </trkpt>
      <trkpt lat="43.75181" lon="3.56171">
        <ele>152.98693847656</ele>
        <time>2014-03-16T15:04:03Z</time>
      </trkpt>
      <trkpt lat="43.7518" lon="3.5617">
        <ele>152.98693847656</ele>
        <time>2014-03-16T15:04:04Z</time>
      </trkpt>
      <trkpt lat="43.75176" lon="3.56167">
        <ele>152.98693847656</ele>
        <time>2014-03-16T15:04:07Z</time>
      </trkpt>
      <trkpt lat="43.75173" lon="3.56165">
        <ele>152.50634765625</ele>
        <time>2014-03-16T15:04:10Z</time>
      </trkpt>
      <trkpt lat="43.75162" lon="3.56162">
        <ele>152.02575683594</ele>
        <time>2014-03-16T15:04:17Z</time>
      </trkpt>
      <trkpt lat="43.7515" lon="3.56155">
        <ele>151.544921875</ele>
        <time>2014-03-16T15:04:25Z</time>
      </trkpt>
      <trkpt lat="43.75137" lon="3.56154">
        <ele>152.02575683594</ele>
        <time>2014-03-16T15:04:31Z</time>
      </trkpt>
      <trkpt lat="43.75128" lon="3.56155">
        <ele>151.06420898438</ele>
        <time>2014-03-16T15:04:37Z</time>
      </trkpt>
      <trkpt lat="43.75122" lon="3.56155">
        <ele>150.10302734375</ele>
        <time>2014-03-16T15:04:42Z</time>
      </trkpt>
      <trkpt lat="43.75114" lon="3.56149">
        <ele>150.10302734375</ele>
        <time>2014-03-16T15:04:50Z</time>
      </trkpt>
      <trkpt lat="43.75105" lon="3.56146">
        <ele>149.1416015625</ele>
        <time>2014-03-16T15:04:57Z</time>
      </trkpt>
      <trkpt lat="43.75103" lon="3.56143">
        <ele>149.1416015625</ele>
        <time>2014-03-16T15:04:59Z</time>
      </trkpt>
      <trkpt lat="43.75094" lon="3.56137">
        <ele>147.21899414062</ele>
        <time>2014-03-16T15:05:08Z</time>
      </trkpt>
      <trkpt lat="43.7509" lon="3.56135">
        <ele>146.73840332031</ele>
        <time>2014-03-16T15:05:12Z</time>
      </trkpt>
      <trkpt lat="43.75083" lon="3.56134">
        <ele>144.81579589844</ele>
        <time>2014-03-16T15:05:20Z</time>
      </trkpt>
      <trkpt lat="43.75076" lon="3.5613">
        <ele>143.85437011719</ele>
        <time>2014-03-16T15:05:27Z</time>
      </trkpt>
      <trkpt lat="43.75069" lon="3.56128">
        <ele>143.37365722656</ele>
        <time>2014-03-16T15:05:32Z</time>
      </trkpt>
      <trkpt lat="43.75061" lon="3.56135">
        <ele>141.93176269531</ele>
        <time>2014-03-16T15:05:40Z</time>
      </trkpt>
      <trkpt lat="43.75056" lon="3.56147">
        <ele>140.48986816406</ele>
        <time>2014-03-16T15:05:49Z</time>
      </trkpt>
      <trkpt lat="43.75054" lon="3.56147">
        <ele>139.0478515625</ele>
        <time>2014-03-16T15:05:54Z</time>
      </trkpt>
      <trkpt lat="43.75051" lon="3.56136">
        <ele>137.12524414062</ele>
        <time>2014-03-16T15:06:04Z</time>
      </trkpt>
      <trkpt lat="43.75049" lon="3.56123">
        <ele>133.76049804688</ele>
        <time>2014-03-16T15:06:15Z</time>
      </trkpt>
      <trkpt lat="43.75051" lon="3.56111">
        <ele>131.35729980469</ele>
        <time>2014-03-16T15:06:29Z</time>
      </trkpt>
      <trkpt lat="43.75052" lon="3.56108">
        <ele>129.91528320312</ele>
        <time>2014-03-16T15:06:36Z</time>
      </trkpt>
      <trkpt lat="43.75046" lon="3.56116">
        <ele>127.99255371094</ele>
        <time>2014-03-16T15:06:45Z</time>
      </trkpt>
      <trkpt lat="43.75044" lon="3.5611">
        <ele>127.03137207031</ele>
        <time>2014-03-16T15:06:51Z</time>
      </trkpt>
      <trkpt lat="43.75045" lon="3.56109">
        <ele>127.03137207031</ele>
        <time>2014-03-16T15:06:52Z</time>
      </trkpt>
      <trkpt lat="43.75047" lon="3.56106">
        <ele>126.55065917969</ele>
        <time>2014-03-16T15:06:55Z</time>
      </trkpt>
      <trkpt lat="43.7505" lon="3.56098">
        <ele>125.58935546875</ele>
        <time>2014-03-16T15:07:02Z</time>
      </trkpt>
      <trkpt lat="43.75047" lon="3.56096">
        <ele>123.66674804688</ele>
        <time>2014-03-16T15:07:09Z</time>
      </trkpt>
      <trkpt lat="43.75046" lon="3.56098">
        <ele>123.18615722656</ele>
        <time>2014-03-16T15:07:11Z</time>
      </trkpt>
      <trkpt lat="43.7504" lon="3.56105">
        <ele>120.78283691406</ele>
        <time>2014-03-16T15:07:19Z</time>
      </trkpt>
      <trkpt lat="43.75039" lon="3.56108">
        <ele>120.30212402344</ele>
        <time>2014-03-16T15:07:21Z</time>
      </trkpt>
      <trkpt lat="43.75034" lon="3.56113">
        <ele>118.86010742188</ele>
        <time>2014-03-16T15:07:28Z</time>
      </trkpt>
      <trkpt lat="43.75033" lon="3.56116">
        <ele>118.37939453125</ele>
        <time>2014-03-16T15:07:32Z</time>
      </trkpt>
      <trkpt lat="43.75025" lon="3.5613">
        <ele>117.89880371094</ele>
        <time>2014-03-16T15:07:43Z</time>
      </trkpt>
      <trkpt lat="43.75026" lon="3.56143">
        <ele>116.9375</ele>
        <time>2014-03-16T15:07:51Z</time>
      </trkpt>
      <trkpt lat="43.75026" lon="3.5615">
        <ele>116.45678710938</ele>
        <time>2014-03-16T15:07:55Z</time>
      </trkpt>
      <trkpt lat="43.75027" lon="3.56157">
        <ele>115.97619628906</ele>
        <time>2014-03-16T15:07:59Z</time>
      </trkpt>
      <trkpt lat="43.75028" lon="3.56165">
        <ele>115.01489257812</ele>
        <time>2014-03-16T15:08:05Z</time>
      </trkpt>
      <trkpt lat="43.75028" lon="3.56176">
        <ele>114.05358886719</ele>
        <time>2014-03-16T15:08:13Z</time>
      </trkpt>
      <trkpt lat="43.75026" lon="3.56181">
        <ele>113.09228515625</ele>
        <time>2014-03-16T15:08:22Z</time>
      </trkpt>
      <trkpt lat="43.7502" lon="3.56185">
        <ele>112.13098144531</ele>
        <time>2014-03-16T15:08:28Z</time>
      </trkpt>
      <trkpt lat="43.75003" lon="3.56189">
        <ele>111.65026855469</ele>
        <time>2014-03-16T15:08:34Z</time>
      </trkpt>
      <trkpt lat="43.74995" lon="3.56193">
        <ele>111.65026855469</ele>
        <time>2014-03-16T15:08:42Z</time>
      </trkpt>
      <trkpt lat="43.74986" lon="3.56198">
        <ele>112.13098144531</ele>
        <time>2014-03-16T15:08:49Z</time>
      </trkpt>
      <trkpt lat="43.74975" lon="3.56204">
        <ele>111.65026855469</ele>
        <time>2014-03-16T15:08:57Z</time>
      </trkpt>
      <trkpt lat="43.74966" lon="3.56206">
        <ele>110.20825195312</ele>
        <time>2014-03-16T15:09:04Z</time>
      </trkpt>
      <trkpt lat="43.74959" lon="3.56204">
        <ele>109.24694824219</ele>
        <time>2014-03-16T15:09:10Z</time>
      </trkpt>
      <trkpt lat="43.74951" lon="3.56198">
        <ele>108.28564453125</ele>
        <time>2014-03-16T15:09:17Z</time>
      </trkpt>
      <trkpt lat="43.74946" lon="3.56194">
        <ele>108.28564453125</ele>
        <time>2014-03-16T15:09:21Z</time>
      </trkpt>
      <trkpt lat="43.7494" lon="3.56189">
        <ele>108.28564453125</ele>
        <time>2014-03-16T15:09:29Z</time>
      </trkpt>
      <trkpt lat="43.74926" lon="3.56189">
        <ele>107.32434082031</ele>
        <time>2014-03-16T15:09:41Z</time>
      </trkpt>
      <trkpt lat="43.74923" lon="3.56187">
        <ele>106.84362792969</ele>
        <time>2014-03-16T15:09:44Z</time>
      </trkpt>
      <trkpt lat="43.74916" lon="3.56182">
        <ele>106.36303710938</ele>
        <time>2014-03-16T15:09:53Z</time>
      </trkpt>
      <trkpt lat="43.7491" lon="3.56172">
        <ele>106.84362792969</ele>
        <time>2014-03-16T15:10:02Z</time>
      </trkpt>
      <trkpt lat="43.74909" lon="3.56167">
        <ele>106.36303710938</ele>
        <time>2014-03-16T15:10:06Z</time>
      </trkpt>
      <trkpt lat="43.74906" lon="3.56164">
        <ele>105.88244628906</ele>
        <time>2014-03-16T15:10:09Z</time>
      </trkpt>
      <trkpt lat="43.74905" lon="3.5616">
        <ele>105.40173339844</ele>
        <time>2014-03-16T15:10:12Z</time>
      </trkpt>
      <trkpt lat="43.74897" lon="3.56151">
        <ele>104.4404296875</ele>
        <time>2014-03-16T15:10:21Z</time>
      </trkpt>
      <trkpt lat="43.74894" lon="3.56148">
        <ele>103.95971679688</ele>
        <time>2014-03-16T15:10:24Z</time>
      </trkpt>
      <trkpt lat="43.74892" lon="3.56146">
        <ele>103.95971679688</ele>
        <time>2014-03-16T15:10:26Z</time>
      </trkpt>
      <trkpt lat="43.7489" lon="3.56141">
        <ele>104.4404296875</ele>
        <time>2014-03-16T15:10:30Z</time>
      </trkpt>
      <trkpt lat="43.74882" lon="3.56138">
        <ele>104.4404296875</ele>
        <time>2014-03-16T15:10:37Z</time>
      </trkpt>
      <trkpt lat="43.74872" lon="3.56133">
        <ele>102.99829101562</ele>
        <time>2014-03-16T15:10:44Z</time>
      </trkpt>
      <trkpt lat="43.74869" lon="3.56124">
        <ele>102.51770019531</ele>
        <time>2014-03-16T15:10:52Z</time>
      </trkpt>
      <trkpt lat="43.74862" lon="3.56117">
        <ele>102.99829101562</ele>
        <time>2014-03-16T15:11:00Z</time>
      </trkpt>
      <trkpt lat="43.74857" lon="3.56114">
        <ele>103.47900390625</ele>
        <time>2014-03-16T15:11:03Z</time>
      </trkpt>
      <trkpt lat="43.74849" lon="3.56109">
        <ele>103.47900390625</ele>
        <time>2014-03-16T15:11:10Z</time>
      </trkpt>
      <trkpt lat="43.74846" lon="3.56107">
        <ele>102.51770019531</ele>
        <time>2014-03-16T15:11:14Z</time>
      </trkpt>
      <trkpt lat="43.74837" lon="3.56098">
        <ele>102.037109375</ele>
        <time>2014-03-16T15:11:24Z</time>
      </trkpt>
      <trkpt lat="43.7483" lon="3.56092">
        <ele>101.55639648438</ele>
        <time>2014-03-16T15:11:32Z</time>
      </trkpt>
      <trkpt lat="43.74827" lon="3.56088">
        <ele>101.55639648438</ele>
        <time>2014-03-16T15:11:35Z</time>
      </trkpt>
      <trkpt lat="43.74817" lon="3.56083">
        <ele>100.59509277344</ele>
        <time>2014-03-16T15:11:44Z</time>
      </trkpt>
      <trkpt lat="43.74806" lon="3.56084">
        <ele>100.59509277344</ele>
        <time>2014-03-16T15:11:51Z</time>
      </trkpt>
      <trkpt lat="43.74794" lon="3.56081">
        <ele>99.6337890625</ele>
        <time>2014-03-16T15:12:01Z</time>
      </trkpt>
      <trkpt lat="43.74788" lon="3.56081">
        <ele>99.153076171875</ele>
        <time>2014-03-16T15:12:07Z</time>
      </trkpt>
      <trkpt lat="43.74783" lon="3.56081">
        <ele>99.153076171875</ele>
        <time>2014-03-16T15:12:14Z</time>
      </trkpt>
      <trkpt lat="43.74779" lon="3.56082">
        <ele>99.153076171875</ele>
        <time>2014-03-16T15:12:23Z</time>
      </trkpt>
      <trkpt lat="43.74777" lon="3.56084">
        <ele>98.19189453125</ele>
        <time>2014-03-16T15:17:51Z</time>
      </trkpt>
      <trkpt lat="43.74777" lon="3.56085">
        <ele>98.19189453125</ele>
        <time>2014-03-16T15:17:56Z</time>
      </trkpt>
      <trkpt lat="43.74779" lon="3.56082">
        <ele>98.19189453125</ele>
        <time>2014-03-16T15:17:58Z</time>
      </trkpt>
      <trkpt lat="43.74783" lon="3.56082">
        <ele>98.672485351562</ele>
        <time>2014-03-16T15:18:05Z</time>
      </trkpt>
      <trkpt lat="43.74781" lon="3.56085">
        <ele>98.672485351562</ele>
        <time>2014-03-16T15:18:11Z</time>
      </trkpt>
      <trkpt lat="43.74776" lon="3.56087">
        <ele>98.19189453125</ele>
        <time>2014-03-16T15:18:18Z</time>
      </trkpt>
      <trkpt lat="43.74773" lon="3.56088">
        <ele>98.19189453125</ele>
        <time>2014-03-16T15:18:21Z</time>
      </trkpt>
      <trkpt lat="43.74766" lon="3.5609">
        <ele>98.672485351562</ele>
        <time>2014-03-16T15:18:29Z</time>
      </trkpt>
      <trkpt lat="43.74759" lon="3.56093">
        <ele>98.672485351562</ele>
        <time>2014-03-16T15:18:37Z</time>
      </trkpt>
      <trkpt lat="43.74756" lon="3.56095">
        <ele>98.672485351562</ele>
        <time>2014-03-16T15:18:41Z</time>
      </trkpt>
      <trkpt lat="43.74748" lon="3.561">
        <ele>99.153076171875</ele>
        <time>2014-03-16T15:18:50Z</time>
      </trkpt>
      <trkpt lat="43.74741" lon="3.56103">
        <ele>98.19189453125</ele>
        <time>2014-03-16T15:18:57Z</time>
      </trkpt>
      <trkpt lat="43.74737" lon="3.56107">
        <ele>98.672485351562</ele>
        <time>2014-03-16T15:19:02Z</time>
      </trkpt>
      <trkpt lat="43.74732" lon="3.56113">
        <ele>98.672485351562</ele>
        <time>2014-03-16T15:19:09Z</time>
      </trkpt>
      <trkpt lat="43.74725" lon="3.56118">
        <ele>98.672485351562</ele>
        <time>2014-03-16T15:19:16Z</time>
      </trkpt>
      <trkpt lat="43.7472" lon="3.56125">
        <ele>98.19189453125</ele>
        <time>2014-03-16T15:19:24Z</time>
      </trkpt>
      <trkpt lat="43.74719" lon="3.56129">
        <ele>98.19189453125</ele>
        <time>2014-03-16T15:19:28Z</time>
      </trkpt>
      <trkpt lat="43.74712" lon="3.56141">
        <ele>97.23046875</ele>
        <time>2014-03-16T15:19:38Z</time>
      </trkpt>
      <trkpt lat="43.74707" lon="3.56148">
        <ele>96.269287109375</ele>
        <time>2014-03-16T15:19:43Z</time>
      </trkpt>
      <trkpt lat="43.74701" lon="3.56162">
        <ele>96.269287109375</ele>
        <time>2014-03-16T15:19:54Z</time>
      </trkpt>
      <trkpt lat="43.74698" lon="3.56173">
        <ele>96.269287109375</ele>
        <time>2014-03-16T15:20:02Z</time>
      </trkpt>
      <trkpt lat="43.74687" lon="3.56177">
        <ele>95.788452148438</ele>
        <time>2014-03-16T15:20:08Z</time>
      </trkpt>
      <trkpt lat="43.74678" lon="3.56186">
        <ele>94.8271484375</ele>
        <time>2014-03-16T15:20:16Z</time>
      </trkpt>
      <trkpt lat="43.74676" lon="3.56188">
        <ele>94.8271484375</ele>
        <time>2014-03-16T15:20:19Z</time>
      </trkpt>
      <trkpt lat="43.74671" lon="3.56194">
        <ele>95.307739257812</ele>
        <time>2014-03-16T15:20:27Z</time>
      </trkpt>
      <trkpt lat="43.74664" lon="3.56202">
        <ele>95.307739257812</ele>
        <time>2014-03-16T15:20:35Z</time>
      </trkpt>
      <trkpt lat="43.74658" lon="3.5621">
        <ele>94.8271484375</ele>
        <time>2014-03-16T15:20:42Z</time>
      </trkpt>
      <trkpt lat="43.74654" lon="3.56215">
        <ele>94.346557617188</ele>
        <time>2014-03-16T15:20:46Z</time>
      </trkpt>
      <trkpt lat="43.74649" lon="3.56235">
        <ele>94.8271484375</ele>
        <time>2014-03-16T15:20:56Z</time>
      </trkpt>
      <trkpt lat="43.74649" lon="3.56239">
        <ele>94.346557617188</ele>
        <time>2014-03-16T15:20:58Z</time>
      </trkpt>
      <trkpt lat="43.74648" lon="3.5625">
        <ele>95.307739257812</ele>
        <time>2014-03-16T15:21:05Z</time>
      </trkpt>
      <trkpt lat="43.74647" lon="3.5626">
        <ele>94.8271484375</ele>
        <time>2014-03-16T15:21:12Z</time>
      </trkpt>
      <trkpt lat="43.74647" lon="3.56266">
        <ele>94.346557617188</ele>
        <time>2014-03-16T15:21:15Z</time>
      </trkpt>
      <trkpt lat="43.7465" lon="3.56278">
        <ele>93.865844726562</ele>
        <time>2014-03-16T15:21:22Z</time>
      </trkpt>
      <trkpt lat="43.74651" lon="3.5628">
        <ele>93.865844726562</ele>
        <time>2014-03-16T15:21:23Z</time>
      </trkpt>
      <trkpt lat="43.74651" lon="3.56285">
        <ele>93.865844726562</ele>
        <time>2014-03-16T15:21:29Z</time>
      </trkpt>
      <trkpt lat="43.74654" lon="3.56293">
        <ele>92.904541015625</ele>
        <time>2014-03-16T15:21:35Z</time>
      </trkpt>
      <trkpt lat="43.74656" lon="3.56305">
        <ele>91.943237304688</ele>
        <time>2014-03-16T15:21:45Z</time>
      </trkpt>
      <trkpt lat="43.74656" lon="3.56315">
        <ele>92.423950195312</ele>
        <time>2014-03-16T15:21:51Z</time>
      </trkpt>
      <trkpt lat="43.74656" lon="3.56318">
        <ele>91.943237304688</ele>
        <time>2014-03-16T15:21:53Z</time>
      </trkpt>
      <trkpt lat="43.74653" lon="3.56328">
        <ele>92.904541015625</ele>
        <time>2014-03-16T15:21:59Z</time>
      </trkpt>
      <trkpt lat="43.74647" lon="3.56338">
        <ele>92.904541015625</ele>
        <time>2014-03-16T15:22:07Z</time>
      </trkpt>
      <trkpt lat="43.74645" lon="3.56339">
        <ele>92.904541015625</ele>
        <time>2014-03-16T15:22:09Z</time>
      </trkpt>
      <trkpt lat="43.74637" lon="3.56337">
        <ele>92.423950195312</ele>
        <time>2014-03-16T15:22:17Z</time>
      </trkpt>
      <trkpt lat="43.74632" lon="3.56337">
        <ele>91.462524414062</ele>
        <time>2014-03-16T15:22:23Z</time>
      </trkpt>
      <trkpt lat="43.74622" lon="3.5633">
        <ele>89.059326171875</ele>
        <time>2014-03-16T15:22:31Z</time>
      </trkpt>
      <trkpt lat="43.74616" lon="3.56324">
        <ele>90.020629882812</ele>
        <time>2014-03-16T15:22:39Z</time>
      </trkpt>
      <trkpt lat="43.74608" lon="3.56318">
        <ele>89.539916992188</ele>
        <time>2014-03-16T15:22:45Z</time>
      </trkpt>
      <trkpt lat="43.746" lon="3.56312">
        <ele>90.501342773438</ele>
        <time>2014-03-16T15:22:52Z</time>
      </trkpt>
      <trkpt lat="43.74592" lon="3.56307">
        <ele>90.98193359375</ele>
        <time>2014-03-16T15:22:59Z</time>
      </trkpt>
      <trkpt lat="43.74583" lon="3.56304">
        <ele>90.501342773438</ele>
        <time>2014-03-16T15:23:07Z</time>
      </trkpt>
      <trkpt lat="43.74574" lon="3.56307">
        <ele>90.501342773438</ele>
        <time>2014-03-16T15:23:12Z</time>
      </trkpt>
      <trkpt lat="43.74562" lon="3.56309">
        <ele>89.539916992188</ele>
        <time>2014-03-16T15:23:21Z</time>
      </trkpt>
      <trkpt lat="43.74553" lon="3.56311">
        <ele>88.578735351562</ele>
        <time>2014-03-16T15:23:29Z</time>
      </trkpt>
      <trkpt lat="43.74542" lon="3.56314">
        <ele>87.6171875</ele>
        <time>2014-03-16T15:23:38Z</time>
      </trkpt>
      <trkpt lat="43.74531" lon="3.56317">
        <ele>86.656005859375</ele>
        <time>2014-03-16T15:23:47Z</time>
      </trkpt>
      <trkpt lat="43.7452" lon="3.56317">
        <ele>85.694580078125</ele>
        <time>2014-03-16T15:23:56Z</time>
      </trkpt>
      <trkpt lat="43.74511" lon="3.56317">
        <ele>87.136596679688</ele>
        <time>2014-03-16T15:24:04Z</time>
      </trkpt>
      <trkpt lat="43.74511" lon="3.56317">
        <ele>87.136596679688</ele>
        <time>2014-03-16T15:24:05Z</time>
      </trkpt>
      <trkpt lat="43.74505" lon="3.56319">
        <ele>87.136596679688</ele>
        <time>2014-03-16T15:24:10Z</time>
      </trkpt>
      <trkpt lat="43.74499" lon="3.56319">
        <ele>85.694580078125</ele>
        <time>2014-03-16T15:24:15Z</time>
      </trkpt>
      <trkpt lat="43.74489" lon="3.56319">
        <ele>84.7333984375</ele>
        <time>2014-03-16T15:24:22Z</time>
      </trkpt>
      <trkpt lat="43.74482" lon="3.5632">
        <ele>86.17529296875</ele>
        <time>2014-03-16T15:24:29Z</time>
      </trkpt>
      <trkpt lat="43.74476" lon="3.56321">
        <ele>85.213989257812</ele>
        <time>2014-03-16T15:24:36Z</time>
      </trkpt>
      <trkpt lat="43.74466" lon="3.56321">
        <ele>84.252685546875</ele>
        <time>2014-03-16T15:24:44Z</time>
      </trkpt>
      <trkpt lat="43.74456" lon="3.56321">
        <ele>85.213989257812</ele>
        <time>2014-03-16T15:24:51Z</time>
      </trkpt>
      <trkpt lat="43.74444" lon="3.5632">
        <ele>86.17529296875</ele>
        <time>2014-03-16T15:24:59Z</time>
      </trkpt>
      <trkpt lat="43.74436" lon="3.56321">
        <ele>85.694580078125</ele>
        <time>2014-03-16T15:25:06Z</time>
      </trkpt>
      <trkpt lat="43.74435" lon="3.56321">
        <ele>85.213989257812</ele>
        <time>2014-03-16T15:25:18Z</time>
      </trkpt>
      <trkpt lat="43.74436" lon="3.56325">
        <ele>86.656005859375</ele>
        <time>2014-03-16T15:25:49Z</time>
      </trkpt>
      <trkpt lat="43.74435" lon="3.56327">
        <ele>86.17529296875</ele>
        <time>2014-03-16T15:25:55Z</time>
      </trkpt>
      <trkpt lat="43.74436" lon="3.56327">
        <ele>85.694580078125</ele>
        <time>2014-03-16T15:26:10Z</time>
      </trkpt>
      <trkpt lat="43.74435" lon="3.56323">
        <ele>85.213989257812</ele>
        <time>2014-03-16T15:26:56Z</time>
      </trkpt>
      <trkpt lat="43.74434" lon="3.56325">
        <ele>85.694580078125</ele>
        <time>2014-03-16T15:27:17Z</time>
      </trkpt>
      <trkpt lat="43.74434" lon="3.56325">
        <ele>86.17529296875</ele>
        <time>2014-03-16T15:28:05Z</time>
      </trkpt>
      <trkpt lat="43.74434" lon="3.56321">
        <ele>85.213989257812</ele>
        <time>2014-03-16T15:28:14Z</time>
      </trkpt>
      <trkpt lat="43.74434" lon="3.56321">
        <ele>85.694580078125</ele>
        <time>2014-03-16T15:30:20Z</time>
      </trkpt>
      <trkpt lat="43.74432" lon="3.56329">
        <ele>85.213989257812</ele>
        <time>2014-03-16T15:31:35Z</time>
      </trkpt>
      <trkpt lat="43.74431" lon="3.56341">
        <ele>85.213989257812</ele>
        <time>2014-03-16T15:31:44Z</time>
      </trkpt>
      <trkpt lat="43.74432" lon="3.56353">
        <ele>86.656005859375</ele>
        <time>2014-03-16T15:31:52Z</time>
      </trkpt>
      <trkpt lat="43.74434" lon="3.56366">
        <ele>86.17529296875</ele>
        <time>2014-03-16T15:32:00Z</time>
      </trkpt>
      <trkpt lat="43.74434" lon="3.56367">
        <ele>86.656005859375</ele>
        <time>2014-03-16T15:32:01Z</time>
      </trkpt>
      <trkpt lat="43.74436" lon="3.56382">
        <ele>87.136596679688</ele>
        <time>2014-03-16T15:32:10Z</time>
      </trkpt>
      <trkpt lat="43.74435" lon="3.56385">
        <ele>86.17529296875</ele>
        <time>2014-03-16T15:32:13Z</time>
      </trkpt>
      <trkpt lat="43.74436" lon="3.56398">
        <ele>85.213989257812</ele>
        <time>2014-03-16T15:32:20Z</time>
      </trkpt>
      <trkpt lat="43.74437" lon="3.56408">
        <ele>85.694580078125</ele>
        <time>2014-03-16T15:32:26Z</time>
      </trkpt>
      <trkpt lat="43.74435" lon="3.56417">
        <ele>85.694580078125</ele>
        <time>2014-03-16T15:32:33Z</time>
      </trkpt>
      <trkpt lat="43.74436" lon="3.56429">
        <ele>85.694580078125</ele>
        <time>2014-03-16T15:32:39Z</time>
      </trkpt>
      <trkpt lat="43.74437" lon="3.56432">
        <ele>85.694580078125</ele>
        <time>2014-03-16T15:32:40Z</time>
      </trkpt>
      <trkpt lat="43.74435" lon="3.56442">
        <ele>85.694580078125</ele>
        <time>2014-03-16T15:32:46Z</time>
      </trkpt>
      <trkpt lat="43.74433" lon="3.56448">
        <ele>86.17529296875</ele>
        <time>2014-03-16T15:32:50Z</time>
      </trkpt>
      <trkpt lat="43.74431" lon="3.56452">
        <ele>86.17529296875</ele>
        <time>2014-03-16T15:32:57Z</time>
      </trkpt>
      <trkpt lat="43.74426" lon="3.56456">
        <ele>86.17529296875</ele>
        <time>2014-03-16T15:33:02Z</time>
      </trkpt>
      <trkpt lat="43.7442" lon="3.56462">
        <ele>86.656005859375</ele>
        <time>2014-03-16T15:33:09Z</time>
      </trkpt>
      <trkpt lat="43.74419" lon="3.56462">
        <ele>86.656005859375</ele>
        <time>2014-03-16T15:33:10Z</time>
      </trkpt>
      <trkpt lat="43.74417" lon="3.56468">
        <ele>87.136596679688</ele>
        <time>2014-03-16T15:33:15Z</time>
      </trkpt>
      <trkpt lat="43.74406" lon="3.56474">
        <ele>88.098022460938</ele>
        <time>2014-03-16T15:33:23Z</time>
      </trkpt>
      <trkpt lat="43.74403" lon="3.56477">
        <ele>88.578735351562</ele>
        <time>2014-03-16T15:33:28Z</time>
      </trkpt>
      <trkpt lat="43.74396" lon="3.56482">
        <ele>88.098022460938</ele>
        <time>2014-03-16T15:33:37Z</time>
      </trkpt>
      <trkpt lat="43.7439" lon="3.56488">
        <ele>88.578735351562</ele>
        <time>2014-03-16T15:33:44Z</time>
      </trkpt>
      <trkpt lat="43.74384" lon="3.56493">
        <ele>87.6171875</ele>
        <time>2014-03-16T15:33:51Z</time>
      </trkpt>
      <trkpt lat="43.74379" lon="3.56499">
        <ele>87.6171875</ele>
        <time>2014-03-16T15:33:58Z</time>
      </trkpt>
      <trkpt lat="43.74368" lon="3.56504">
        <ele>87.6171875</ele>
        <time>2014-03-16T15:34:06Z</time>
      </trkpt>
      <trkpt lat="43.74362" lon="3.5651">
        <ele>88.098022460938</ele>
        <time>2014-03-16T15:34:14Z</time>
      </trkpt>
      <trkpt lat="43.74359" lon="3.56516">
        <ele>88.098022460938</ele>
        <time>2014-03-16T15:34:19Z</time>
      </trkpt>
      <trkpt lat="43.74356" lon="3.56525">
        <ele>87.6171875</ele>
        <time>2014-03-16T15:34:25Z</time>
      </trkpt>
      <trkpt lat="43.7436" lon="3.56541">
        <ele>88.578735351562</ele>
        <time>2014-03-16T15:34:32Z</time>
      </trkpt>
      <trkpt lat="43.7436" lon="3.56552">
        <ele>88.098022460938</ele>
        <time>2014-03-16T15:34:38Z</time>
      </trkpt>
      <trkpt lat="43.74363" lon="3.56568">
        <ele>87.6171875</ele>
        <time>2014-03-16T15:34:45Z</time>
      </trkpt>
      <trkpt lat="43.74365" lon="3.56574">
        <ele>87.6171875</ele>
        <time>2014-03-16T15:34:48Z</time>
      </trkpt>
      <trkpt lat="43.74372" lon="3.56588">
        <ele>87.6171875</ele>
        <time>2014-03-16T15:34:56Z</time>
      </trkpt>
      <trkpt lat="43.74373" lon="3.56596">
        <ele>87.136596679688</ele>
        <time>2014-03-16T15:35:03Z</time>
      </trkpt>
      <trkpt lat="43.74373" lon="3.56598">
        <ele>87.136596679688</ele>
        <time>2014-03-16T15:35:04Z</time>
      </trkpt>
      <trkpt lat="43.7437" lon="3.56605">
        <ele>86.656005859375</ele>
        <time>2014-03-16T15:35:10Z</time>
      </trkpt>
      <trkpt lat="43.74365" lon="3.56614">
        <ele>86.656005859375</ele>
        <time>2014-03-16T15:35:18Z</time>
      </trkpt>
      <trkpt lat="43.74359" lon="3.56616">
        <ele>86.656005859375</ele>
        <time>2014-03-16T15:35:26Z</time>
      </trkpt>
      <trkpt lat="43.74359" lon="3.56616">
        <ele>85.694580078125</ele>
        <time>2014-03-16T15:35:37Z</time>
      </trkpt>
      <trkpt lat="43.74358" lon="3.56616">
        <ele>85.694580078125</ele>
        <time>2014-03-16T15:37:02Z</time>
      </trkpt>
    </trkseg>
  </trk>
</gpx>